Wetterdaten: Donnerstag, 08.06.2017
Datum Zeit Temp. A. Temp. A. max Feuchte A. Luftdruck Regen Wind Richtung Richtung Sonnenschein ET UV Solar Taupunkt Windchill Windböen
08.06.2017 00:00 8,9 °C 9,0 °C 73 % 1021,9 hPa 0,0 mm 2,9 km/h (1 Bft) S 182 ° 0 min 0,000 mm 0,0 UV-I 0 W/m² 4,3 °C 8,9 °C 6,4 km/h (2 Bft)
08.06.2017 00:01 8,8 °C 8,9 °C 72 % 1021,9 hPa 0,0 mm 3,4 km/h (1 Bft) S 182 ° 0 min 0,000 mm 0,0 UV-I 0 W/m² 4,0 °C 8,8 °C 4,8 km/h (1 Bft)
08.06.2017 00:02 8,7 °C 8,8 °C 72 % 1021,9 hPa 0,0 mm 2,5 km/h (1 Bft) S 182 ° 0 min 0,000 mm 0,0 UV-I 0 W/m² 3,9 °C 8,7 °C 3,2 km/h (1 Bft)
08.06.2017 00:03 8,7 °C 8,7 °C 74 % 1021,9 hPa 0,0 mm 2,2 km/h (1 Bft) S 182 ° 0 min 0,000 mm 0,0 UV-I 0 W/m² 4,3 °C 8,7 °C 3,2 km/h (1 Bft)
08.06.2017 00:04 8,5 °C 8,7 °C 74 % 1021,9 hPa 0,0 mm 2,6 km/h (1 Bft) S 183 ° 0 min 0,000 mm 0,0 UV-I 0 W/m² 4,1 °C 8,5 °C 4,8 km/h (1 Bft)
08.06.2017 00:05 8,4 °C 8,5 °C 73 % 1021,9 hPa 0,0 mm 1,8 km/h (1 Bft) S 183 ° 0 min 0,000 mm 0,0 UV-I 0 W/m² 3,8 °C 8,4 °C 3,2 km/h (1 Bft)
08.06.2017 00:06 8,4 °C 8,4 °C 74 % 1021,9 hPa 0,0 mm 1,4 km/h (1 Bft) S 183 ° 0 min 0,000 mm 0,0 UV-I 0 W/m² 4,0 °C 8,4 °C 3,2 km/h (1 Bft)
08.06.2017 00:07 8,3 °C 8,4 °C 74 % 1021,9 hPa 0,0 mm 1,1 km/h (1 Bft) S 183 ° 0 min 0,000 mm 0,0 UV-I 0 W/m² 3,9 °C 8,3 °C 3,2 km/h (1 Bft)
08.06.2017 00:08 8,2 °C 8,3 °C 74 % 1021,9 hPa 0,0 mm 2,1 km/h (1 Bft) S 183 ° 0 min 0,000 mm 0,0 UV-I 0 W/m² 3,8 °C 8,2 °C 3,2 km/h (1 Bft)
08.06.2017 00:09 8,2 °C 8,3 °C 74 % 1021,9 hPa 0,0 mm 3,7 km/h (1 Bft) S 183 ° 0 min 0,000 mm 0,0 UV-I 0 W/m² 3,8 °C 8,2 °C 6,4 km/h (2 Bft)
08.06.2017 00:10 8,1 °C 8,2 °C 75 % 1021,9 hPa 0,0 mm 2,2 km/h (1 Bft) S 183 ° 0 min 0,000 mm 0,0 UV-I 0 W/m² 3,9 °C 8,1 °C 3,2 km/h (1 Bft)
08.06.2017 00:11 8,0 °C 8,1 °C 75 % 1021,9 hPa 0,0 mm 1,6 km/h (1 Bft) S 183 ° 0 min 0,000 mm 0,0 UV-I 0 W/m² 3,8 °C 8,0 °C 3,2 km/h (1 Bft)
08.06.2017 00:12 7,9 °C 8,0 °C 75 % 1021,9 hPa 0,0 mm 0,8 km/h (0 Bft) S 183 ° 0 min 0,000 mm 0,0 UV-I 0 W/m² 3,7 °C 7,9 °C 1,6 km/h (1 Bft)
08.06.2017 00:13 7,8 °C 7,9 °C 76 % 1021,9 hPa 0,0 mm 0,8 km/h (0 Bft) S 183 ° 0 min 0,000 mm 0,0 UV-I 0 W/m² 3,8 °C 7,8 °C 1,6 km/h (1 Bft)
08.06.2017 00:14 7,8 °C 7,8 °C 76 % 1021,9 hPa 0,0 mm 2,2 km/h (1 Bft) S 183 ° 0 min 0,000 mm 0,0 UV-I 0 W/m² 3,8 °C 7,8 °C 3,2 km/h (1 Bft)
08.06.2017 00:15 7,7 °C 7,8 °C 76 % 1021,9 hPa 0,0 mm 1,6 km/h (1 Bft) S 183 ° 0 min 0,000 mm 0,0 UV-I 0 W/m² 3,7 °C 7,7 °C 3,2 km/h (1 Bft)
08.06.2017 00:16 7,7 °C 7,7 °C 77 % 1021,9 hPa 0,0 mm 1,1 km/h (1 Bft) S 183 ° 0 min 0,000 mm 0,0 UV-I 0 W/m² 3,9 °C 7,7 °C 3,2 km/h (1 Bft)
08.06.2017 00:17 7,7 °C 7,7 °C 77 % 1021,9 hPa 0,0 mm 1,7 km/h (1 Bft) S 183 ° 0 min 0,000 mm 0,0 UV-I 0 W/m² 3,9 °C 7,7 °C 3,2 km/h (1 Bft)
08.06.2017 00:18 7,7 °C 7,7 °C 77 % 1021,9 hPa 0,0 mm 2,1 km/h (1 Bft) S 183 ° 0 min 0,000 mm 0,0 UV-I 0 W/m² 3,9 °C 7,7 °C 3,2 km/h (1 Bft)
08.06.2017 00:19 7,7 °C 7,7 °C 76 % 1021,9 hPa 0,0 mm 2,3 km/h (1 Bft) S 183 ° 0 min 0,000 mm 0,0 UV-I 0 W/m² 3,7 °C 7,7 °C 4,8 km/h (1 Bft)
08.06.2017 00:20 7,6 °C 7,7 °C 77 % 1021,9 hPa 0,0 mm 3,2 km/h (1 Bft) S 183 ° 0 min 0,000 mm 0,0 UV-I 0 W/m² 3,8 °C 7,6 °C 4,8 km/h (1 Bft)
08.06.2017 00:21 7,6 °C 7,6 °C 77 % 1022,0 hPa 0,0 mm 2,6 km/h (1 Bft) S 183 ° 0 min 0,000 mm 0,0 UV-I 0 W/m² 3,8 °C 7,6 °C 4,8 km/h (1 Bft)
08.06.2017 00:22 7,5 °C 7,6 °C 77 % 1022,0 hPa 0,0 mm 1,6 km/h (1 Bft) S 183 ° 0 min 0,000 mm 0,0 UV-I 0 W/m² 3,7 °C 7,5 °C 3,2 km/h (1 Bft)
08.06.2017 00:23 7,5 °C 7,5 °C 77 % 1022,0 hPa 0,0 mm 2,6 km/h (1 Bft) S 183 ° 0 min 0,000 mm 0,0 UV-I 0 W/m² 3,7 °C 7,5 °C 4,8 km/h (1 Bft)
08.06.2017 00:24 7,4 °C 7,5 °C 77 % 1022,0 hPa 0,0 mm 2,0 km/h (1 Bft) S 183 ° 0 min 0,000 mm 0,0 UV-I 0 W/m² 3,6 °C 7,4 °C 4,8 km/h (1 Bft)
08.06.2017 00:25 7,4 °C 7,4 °C 78 % 1022,0 hPa 0,0 mm 1,9 km/h (1 Bft) S 183 ° 0 min 0,000 mm 0,0 UV-I 0 W/m² 3,8 °C 7,4 °C 3,2 km/h (1 Bft)
08.06.2017 00:26 7,3 °C 7,4 °C 78 % 1022,0 hPa 0,0 mm 2,5 km/h (1 Bft) S 183 ° 0 min 0,000 mm 0,0 UV-I 0 W/m² 3,7 °C 7,3 °C 4,8 km/h (1 Bft)
08.06.2017 00:27 7,2 °C 7,3 °C 79 % 1022,0 hPa 0,0 mm 2,4 km/h (1 Bft) S 183 ° 0 min 0,000 mm 0,0 UV-I 0 W/m² 3,8 °C 7,2 °C 4,8 km/h (1 Bft)
08.06.2017 00:28 7,2 °C 7,2 °C 79 % 1022,0 hPa 0,0 mm 1,8 km/h (1 Bft) S 183 ° 0 min 0,000 mm 0,0 UV-I 0 W/m² 3,8 °C 7,2 °C 3,2 km/h (1 Bft)
08.06.2017 00:29 7,2 °C 7,2 °C 79 % 1022,0 hPa 0,0 mm 1,3 km/h (1 Bft) S 183 ° 0 min 0,000 mm 0,0 UV-I 0 W/m² 3,8 °C 7,2 °C 1,6 km/h (1 Bft)
08.06.2017 00:30 7,2 °C 7,2 °C 79 % 1021,9 hPa 0,0 mm 0,4 km/h (0 Bft) S 183 ° 0 min 0,000 mm 0,0 UV-I 0 W/m² 3,8 °C 7,2 °C 1,6 km/h (1 Bft)
08.06.2017 00:31 7,2 °C 7,2 °C 79 % 1021,9 hPa 0,0 mm 0,8 km/h (0 Bft) S 183 ° 0 min 0,000 mm 0,0 UV-I 0 W/m² 3,8 °C 7,2 °C 3,2 km/h (1 Bft)
08.06.2017 00:32 7,2 °C 7,2 °C 80 % 1021,9 hPa 0,0 mm 2,1 km/h (1 Bft) S 183 ° 0 min 0,000 mm 0,0 UV-I 0 W/m² 4,0 °C 7,2 °C 3,2 km/h (1 Bft)
08.06.2017 00:33 7,2 °C 7,2 °C 80 % 1021,9 hPa 0,0 mm 2,0 km/h (1 Bft) S 183 ° 0 min 0,000 mm 0,0 UV-I 0 W/m² 4,0 °C 7,2 °C 3,2 km/h (1 Bft)
08.06.2017 00:34 7,3 °C 7,3 °C 80 % 1021,9 hPa 0,0 mm 2,4 km/h (1 Bft) S 183 ° 0 min 0,000 mm 0,0 UV-I 0 W/m² 4,1 °C 7,3 °C 3,2 km/h (1 Bft)
08.06.2017 00:35 7,3 °C 7,3 °C 79 % 1021,9 hPa 0,0 mm 0,9 km/h (0 Bft) S 183 ° 0 min 0,000 mm 0,0 UV-I 0 W/m² 3,9 °C 7,3 °C 1,6 km/h (1 Bft)
08.06.2017 00:36 7,2 °C 7,3 °C 79 % 1021,9 hPa 0,0 mm 0,1 km/h (0 Bft) S 183 ° 0 min 0,000 mm 0,0 UV-I 0 W/m² 3,8 °C 7,2 °C 1,6 km/h (1 Bft)
08.06.2017 00:37 7,2 °C 7,2 °C 80 % 1021,9 hPa 0,0 mm 1,1 km/h (1 Bft) S 183 ° 0 min 0,000 mm 0,0 UV-I 0 W/m² 4,0 °C 7,2 °C 1,6 km/h (1 Bft)
08.06.2017 00:38 7,1 °C 7,2 °C 80 % 1021,9 hPa 0,0 mm 1,3 km/h (1 Bft) S 183 ° 0 min 0,000 mm 0,0 UV-I 0 W/m² 3,9 °C 7,1 °C 1,6 km/h (1 Bft)
08.06.2017 00:39 7,1 °C 7,1 °C 80 % 1021,9 hPa 0,0 mm 0,9 km/h (0 Bft) S 183 ° 0 min 0,000 mm 0,0 UV-I 0 W/m² 3,9 °C 7,1 °C 1,6 km/h (1 Bft)
08.06.2017 00:40 7,1 °C 7,1 °C 80 % 1021,9 hPa 0,0 mm 1,2 km/h (1 Bft) S 183 ° 0 min 0,000 mm 0,0 UV-I 0 W/m² 3,9 °C 7,1 °C 3,2 km/h (1 Bft)
08.06.2017 00:41 6,9 °C 7,1 °C 80 % 1021,9 hPa 0,0 mm 1,2 km/h (1 Bft) S 183 ° 0 min 0,000 mm 0,0 UV-I 0 W/m² 3,7 °C 6,9 °C 3,2 km/h (1 Bft)
08.06.2017 00:42 6,8 °C 6,9 °C 80 % 1021,9 hPa 0,0 mm 1,4 km/h (1 Bft) S 183 ° 0 min 0,000 mm 0,0 UV-I 0 W/m² 3,6 °C 6,8 °C 3,2 km/h (1 Bft)
08.06.2017 00:43 6,8 °C 6,8 °C 80 % 1021,9 hPa 0,0 mm 1,6 km/h (1 Bft) S 183 ° 0 min 0,000 mm 0,0 UV-I 0 W/m² 3,6 °C 6,8 °C 3,2 km/h (1 Bft)
08.06.2017 00:44 6,8 °C 6,8 °C 81 % 1021,9 hPa 0,0 mm 1,5 km/h (1 Bft) S 183 ° 0 min 0,000 mm 0,0 UV-I 0 W/m² 3,8 °C 6,8 °C 3,2 km/h (1 Bft)
08.06.2017 00:45 6,8 °C 6,8 °C 81 % 1021,9 hPa 0,0 mm 1,4 km/h (1 Bft) S 183 ° 0 min 0,000 mm 0,0 UV-I 0 W/m² 3,8 °C 6,8 °C 3,2 km/h (1 Bft)
08.06.2017 00:46 6,8 °C 6,8 °C 81 % 1021,9 hPa 0,0 mm 1,4 km/h (1 Bft) S 183 ° 0 min 0,000 mm 0,0 UV-I 0 W/m² 3,8 °C 6,8 °C 3,2 km/h (1 Bft)
08.06.2017 00:47 6,8 °C 6,8 °C 81 % 1021,9 hPa 0,0 mm 1,8 km/h (1 Bft) S 183 ° 0 min 0,000 mm 0,0 UV-I 0 W/m² 3,8 °C 6,8 °C 3,2 km/h (1 Bft)
08.06.2017 00:48 6,8 °C 6,8 °C 81 % 1021,8 hPa 0,0 mm 2,1 km/h (1 Bft) S 183 ° 0 min 0,000 mm 0,0 UV-I 0 W/m² 3,8 °C 6,8 °C 3,2 km/h (1 Bft)
08.06.2017 00:49 6,7 °C 6,8 °C 81 % 1021,8 hPa 0,0 mm 1,6 km/h (1 Bft) S 183 ° 0 min 0,000 mm 0,0 UV-I 0 W/m² 3,7 °C 6,7 °C 3,2 km/h (1 Bft)
08.06.2017 00:50 6,7 °C 6,7 °C 82 % 1021,8 hPa 0,0 mm 2,4 km/h (1 Bft) S 183 ° 0 min 0,000 mm 0,0 UV-I 0 W/m² 3,8 °C 6,7 °C 3,2 km/h (1 Bft)
08.06.2017 00:51 6,8 °C 6,8 °C 82 % 1021,8 hPa 0,0 mm 2,1 km/h (1 Bft) S 183 ° 0 min 0,000 mm 0,0 UV-I 0 W/m² 3,9 °C 6,8 °C 3,2 km/h (1 Bft)
08.06.2017 00:52 6,7 °C 6,8 °C 81 % 1021,8 hPa 0,0 mm 1,7 km/h (1 Bft) S 183 ° 0 min 0,000 mm 0,0 UV-I 0 W/m² 3,7 °C 6,7 °C 3,2 km/h (1 Bft)
08.06.2017 00:53 6,7 °C 6,7 °C 81 % 1021,9 hPa 0,0 mm 1,4 km/h (1 Bft) S 183 ° 0 min 0,000 mm 0,0 UV-I 0 W/m² 3,7 °C 6,7 °C 3,2 km/h (1 Bft)
08.06.2017 00:54 6,6 °C 6,7 °C 82 % 1021,9 hPa 0,0 mm 1,5 km/h (1 Bft) S 183 ° 0 min 0,000 mm 0,0 UV-I 0 W/m² 3,8 °C 6,6 °C 3,2 km/h (1 Bft)
08.06.2017 00:55 6,7 °C 6,7 °C 82 % 1021,9 hPa 0,0 mm 0,9 km/h (0 Bft) S 183 ° 0 min 0,000 mm 0,0 UV-I 0 W/m² 3,8 °C 6,7 °C 1,6 km/h (1 Bft)
08.06.2017 00:56 6,7 °C 6,7 °C 82 % 1021,9 hPa 0,0 mm 0,6 km/h (0 Bft) S 183 ° 0 min 0,000 mm 0,0 UV-I 0 W/m² 3,8 °C 6,7 °C 3,2 km/h (1 Bft)
08.06.2017 00:57 6,6 °C 6,7 °C 82 % 1021,9 hPa 0,0 mm 0,1 km/h (0 Bft) S 183 ° 0 min 0,000 mm 0,0 UV-I 0 W/m² 3,8 °C 6,6 °C 1,6 km/h (1 Bft)
08.06.2017 00:58 6,5 °C 6,6 °C 83 % 1021,9 hPa 0,0 mm 1,0 km/h (0 Bft) S 183 ° 0 min 0,000 mm 0,0 UV-I 0 W/m² 3,8 °C 6,5 °C 3,2 km/h (1 Bft)
08.06.2017 00:59 6,4 °C 6,5 °C 83 % 1021,9 hPa 0,0 mm 1,3 km/h (1 Bft) S 183 ° 0 min 0,000 mm 0,0 UV-I 0 W/m² 3,7 °C 6,4 °C 3,2 km/h (1 Bft)
08.06.2017 01:00 6,4 °C 6,4 °C 83 % 1021,9 hPa 0,0 mm 0,3 km/h (0 Bft) S 183 ° 0 min 0,025 mm 0,0 UV-I 0 W/m² 3,7 °C 6,4 °C 1,6 km/h (1 Bft)
08.06.2017 01:01 6,4 °C 6,4 °C 83 % 1021,9 hPa 0,0 mm 0,0 km/h (0 Bft) S 183 ° 0 min 0,000 mm 0,0 UV-I 0 W/m² 3,7 °C 6,4 °C 0,0 km/h (0 Bft)
08.06.2017 01:02 6,3 °C 6,4 °C 83 % 1021,9 hPa 0,0 mm 0,0 km/h (0 Bft) S 183 ° 0 min 0,000 mm 0,0 UV-I 0 W/m² 3,6 °C 6,3 °C 0,0 km/h (0 Bft)
08.06.2017 01:03 6,3 °C 6,3 °C 83 % 1021,9 hPa 0,0 mm 0,0 km/h (0 Bft) S 183 ° 0 min 0,000 mm 0,0 UV-I 0 W/m² 3,6 °C 6,3 °C 0,0 km/h (0 Bft)
08.06.2017 01:04 6,3 °C 6,3 °C 83 % 1021,8 hPa 0,0 mm 0,0 km/h (0 Bft) S 183 ° 0 min 0,000 mm 0,0 UV-I 0 W/m² 3,6 °C 6,3 °C 0,0 km/h (0 Bft)
08.06.2017 01:05 6,3 °C 6,3 °C 83 % 1021,8 hPa 0,0 mm 0,0 km/h (0 Bft) S 183 ° 0 min 0,000 mm 0,0 UV-I 0 W/m² 3,6 °C 6,3 °C 0,0 km/h (0 Bft)
08.06.2017 01:06 6,3 °C 6,3 °C 83 % 1021,8 hPa 0,0 mm 0,0 km/h (0 Bft) S 183 ° 0 min 0,000 mm 0,0 UV-I 0 W/m² 3,6 °C 6,3 °C 0,0 km/h (0 Bft)
08.06.2017 01:07 6,2 °C 6,3 °C 84 % 1021,8 hPa 0,0 mm 0,0 km/h (0 Bft) S 183 ° 0 min 0,000 mm 0,0 UV-I 0 W/m² 3,7 °C 6,2 °C 0,0 km/h (0 Bft)
08.06.2017 01:08 6,2 °C 6,2 °C 84 % 1021,8 hPa 0,0 mm 0,0 km/h (0 Bft) S 183 ° 0 min 0,000 mm 0,0 UV-I 0 W/m² 3,7 °C 6,2 °C 0,0 km/h (0 Bft)
08.06.2017 01:09 6,2 °C 6,2 °C 84 % 1021,8 hPa 0,0 mm 0,0 km/h (0 Bft) S 183 ° 0 min 0,000 mm 0,0 UV-I 0 W/m² 3,7 °C 6,2 °C 0,0 km/h (0 Bft)
08.06.2017 01:10 6,1 °C 6,2 °C 84 % 1021,8 hPa 0,0 mm 0,0 km/h (0 Bft) S 183 ° 0 min 0,000 mm 0,0 UV-I 0 W/m² 3,6 °C 6,1 °C 0,0 km/h (0 Bft)
08.06.2017 01:11 6,1 °C 6,1 °C 84 % 1021,7 hPa 0,0 mm 0,0 km/h (0 Bft) S 183 ° 0 min 0,000 mm 0,0 UV-I 0 W/m² 3,6 °C 6,1 °C 0,0 km/h (0 Bft)
08.06.2017 01:12 6,0 °C 6,1 °C 84 % 1021,7 hPa 0,0 mm 0,0 km/h (0 Bft) S 183 ° 0 min 0,000 mm 0,0 UV-I 0 W/m² 3,5 °C 6,0 °C 0,0 km/h (0 Bft)
08.06.2017 01:13 5,9 °C 6,0 °C 84 % 1021,7 hPa 0,0 mm 0,0 km/h (0 Bft) S 183 ° 0 min 0,000 mm 0,0 UV-I 0 W/m² 3,4 °C 5,9 °C 0,0 km/h (0 Bft)
08.06.2017 01:14 5,9 °C 5,9 °C 84 % 1021,7 hPa 0,0 mm 0,0 km/h (0 Bft) S 183 ° 0 min 0,000 mm 0,0 UV-I 0 W/m² 3,4 °C 5,9 °C 0,0 km/h (0 Bft)
08.06.2017 01:15 5,9 °C 5,9 °C 84 % 1021,7 hPa 0,0 mm 0,0 km/h (0 Bft) S 183 ° 0 min 0,000 mm 0,0 UV-I 0 W/m² 3,4 °C 5,9 °C 0,0 km/h (0 Bft)
08.06.2017 01:16 5,8 °C 5,9 °C 85 % 1021,8 hPa 0,0 mm 0,0 km/h (0 Bft) S 183 ° 0 min 0,000 mm 0,0 UV-I 0 W/m² 3,5 °C 5,8 °C 0,0 km/h (0 Bft)
08.06.2017 01:17 5,8 °C 5,8 °C 85 % 1021,7 hPa 0,0 mm 0,0 km/h (0 Bft) S 183 ° 0 min 0,000 mm 0,0 UV-I 0 W/m² 3,5 °C 5,8 °C 0,0 km/h (0 Bft)
08.06.2017 01:18 5,8 °C 5,8 °C 85 % 1021,7 hPa 0,0 mm 0,0 km/h (0 Bft) S 183 ° 0 min 0,000 mm 0,0 UV-I 0 W/m² 3,5 °C 5,8 °C 0,0 km/h (0 Bft)
08.06.2017 01:19 5,8 °C 5,8 °C 85 % 1021,8 hPa 0,0 mm 0,0 km/h (0 Bft) S 183 ° 0 min 0,000 mm 0,0 UV-I 0 W/m² 3,5 °C 5,8 °C 0,0 km/h (0 Bft)
08.06.2017 01:20 5,8 °C 5,8 °C 85 % 1021,8 hPa 0,0 mm 0,0 km/h (0 Bft) S 183 ° 0 min 0,000 mm 0,0 UV-I 0 W/m² 3,5 °C 5,8 °C 0,0 km/h (0 Bft)
08.06.2017 01:21 5,7 °C 5,8 °C 85 % 1021,7 hPa 0,0 mm 0,0 km/h (0 Bft) S 183 ° 0 min 0,000 mm 0,0 UV-I 0 W/m² 3,4 °C 5,7 °C 0,0 km/h (0 Bft)
08.06.2017 01:22 5,7 °C 5,7 °C 86 % 1021,7 hPa 0,0 mm 0,0 km/h (0 Bft) S 183 ° 0 min 0,000 mm 0,0 UV-I 0 W/m² 3,5 °C 5,7 °C 0,0 km/h (0 Bft)
08.06.2017 01:23 5,7 °C 5,7 °C 86 % 1021,7 hPa 0,0 mm 0,0 km/h (0 Bft) S 183 ° 0 min 0,000 mm 0,0 UV-I 0 W/m² 3,5 °C 5,7 °C 0,0 km/h (0 Bft)
08.06.2017 01:24 5,7 °C 5,7 °C 86 % 1021,7 hPa 0,0 mm 0,0 km/h (0 Bft) S 183 ° 0 min 0,000 mm 0,0 UV-I 0 W/m² 3,5 °C 5,7 °C 0,0 km/h (0 Bft)
08.06.2017 01:25 5,7 °C 5,7 °C 86 % 1021,7 hPa 0,0 mm 0,0 km/h (0 Bft) S 183 ° 0 min 0,000 mm 0,0 UV-I 0 W/m² 3,5 °C 5,7 °C 0,0 km/h (0 Bft)
08.06.2017 01:26 5,6 °C 5,7 °C 86 % 1021,7 hPa 0,0 mm 0,0 km/h (0 Bft) S 183 ° 0 min 0,000 mm 0,0 UV-I 0 W/m² 3,4 °C 5,6 °C 0,0 km/h (0 Bft)
08.06.2017 01:27 5,6 °C 5,7 °C 86 % 1021,7 hPa 0,0 mm 0,0 km/h (0 Bft) S 183 ° 0 min 0,000 mm 0,0 UV-I 0 W/m² 3,4 °C 5,6 °C 0,0 km/h (0 Bft)
08.06.2017 01:28 5,6 °C 5,6 °C 86 % 1021,7 hPa 0,0 mm 0,0 km/h (0 Bft) S 183 ° 0 min 0,000 mm 0,0 UV-I 0 W/m² 3,4 °C 5,6 °C 0,0 km/h (0 Bft)
08.06.2017 01:29 5,5 °C 5,6 °C 86 % 1021,8 hPa 0,0 mm 0,0 km/h (0 Bft) S 183 ° 0 min 0,000 mm 0,0 UV-I 0 W/m² 3,3 °C 5,5 °C 0,0 km/h (0 Bft)
08.06.2017 01:30 5,4 °C 5,5 °C 86 % 1021,8 hPa 0,0 mm 0,0 km/h (0 Bft) S 183 ° 0 min 0,000 mm 0,0 UV-I 0 W/m² 3,3 °C 5,4 °C 0,0 km/h (0 Bft)
08.06.2017 01:31 5,4 °C 5,4 °C 87 % 1021,8 hPa 0,0 mm 0,0 km/h (0 Bft) S 183 ° 0 min 0,000 mm 0,0 UV-I 0 W/m² 3,4 °C 5,4 °C 0,0 km/h (0 Bft)
08.06.2017 01:32 5,3 °C 5,4 °C 87 % 1021,7 hPa 0,0 mm 0,0 km/h (0 Bft) S 183 ° 0 min 0,000 mm 0,0 UV-I 0 W/m² 3,3 °C 5,3 °C 0,0 km/h (0 Bft)
08.06.2017 01:33 5,3 °C 5,3 °C 87 % 1021,7 hPa 0,0 mm 0,0 km/h (0 Bft) S 183 ° 0 min 0,000 mm 0,0 UV-I 0 W/m² 3,3 °C 5,3 °C 0,0 km/h (0 Bft)
08.06.2017 01:34 5,2 °C 5,3 °C 87 % 1021,8 hPa 0,0 mm 0,0 km/h (0 Bft) S 183 ° 0 min 0,000 mm 0,0 UV-I 0 W/m² 3,2 °C 5,2 °C 0,0 km/h (0 Bft)
08.06.2017 01:35 5,2 °C 5,2 °C 87 % 1021,8 hPa 0,0 mm 0,0 km/h (0 Bft) S 183 ° 0 min 0,000 mm 0,0 UV-I 0 W/m² 3,2 °C 5,2 °C 0,0 km/h (0 Bft)
08.06.2017 01:36 5,2 °C 5,2 °C 87 % 1021,8 hPa 0,0 mm 0,0 km/h (0 Bft) S 183 ° 0 min 0,000 mm 0,0 UV-I 0 W/m² 3,2 °C 5,2 °C 0,0 km/h (0 Bft)
08.06.2017 01:37 5,1 °C 5,2 °C 88 % 1021,8 hPa 0,0 mm 0,0 km/h (0 Bft) S 183 ° 0 min 0,000 mm 0,0 UV-I 0 W/m² 3,3 °C 5,1 °C 0,0 km/h (0 Bft)
08.06.2017 01:38 5,1 °C 5,1 °C 88 % 1021,8 hPa 0,0 mm 0,0 km/h (0 Bft) S 183 ° 0 min 0,000 mm 0,0 UV-I 0 W/m² 3,3 °C 5,1 °C 0,0 km/h (0 Bft)
08.06.2017 01:39 5,1 °C 5,1 °C 88 % 1021,8 hPa 0,0 mm 0,0 km/h (0 Bft) S 183 ° 0 min 0,000 mm 0,0 UV-I 0 W/m² 3,3 °C 5,1 °C 0,0 km/h (0 Bft)
08.06.2017 01:40 5,1 °C 5,1 °C 89 % 1021,7 hPa 0,0 mm 0,0 km/h (0 Bft) S 183 ° 0 min 0,000 mm 0,0 UV-I 0 W/m² 3,4 °C 5,1 °C 0,0 km/h (0 Bft)
08.06.2017 01:41 5,2 °C 5,2 °C 89 % 1021,7 hPa 0,0 mm 0,3 km/h (0 Bft) S 183 ° 0 min 0,000 mm 0,0 UV-I 0 W/m² 3,5 °C 5,2 °C 1,6 km/h (1 Bft)
08.06.2017 01:42 5,2 °C 5,2 °C 88 % 1021,7 hPa 0,0 mm 0,0 km/h (0 Bft) S 183 ° 0 min 0,000 mm 0,0 UV-I 0 W/m² 3,4 °C 5,2 °C 0,0 km/h (0 Bft)
08.06.2017 01:43 5,1 °C 5,2 °C 88 % 1021,7 hPa 0,0 mm 0,0 km/h (0 Bft) S 183 ° 0 min 0,000 mm 0,0 UV-I 0 W/m² 3,3 °C 5,1 °C 0,0 km/h (0 Bft)
08.06.2017 01:44 5,1 °C 5,1 °C 88 % 1021,7 hPa 0,0 mm 0,6 km/h (0 Bft) S 183 ° 0 min 0,000 mm 0,0 UV-I 0 W/m² 3,3 °C 5,1 °C 3,2 km/h (1 Bft)
08.06.2017 01:45 5,1 °C 5,1 °C 88 % 1021,8 hPa 0,0 mm 0,9 km/h (0 Bft) S 183 ° 0 min 0,000 mm 0,0 UV-I 0 W/m² 3,3 °C 5,1 °C 3,2 km/h (1 Bft)
08.06.2017 01:46 5,0 °C 5,1 °C 88 % 1021,8 hPa 0,0 mm 0,1 km/h (0 Bft) S 183 ° 0 min 0,000 mm 0,0 UV-I 0 W/m² 3,2 °C 5,0 °C 1,6 km/h (1 Bft)
08.06.2017 01:47 4,9 °C 5,0 °C 88 % 1021,7 hPa 0,0 mm 0,0 km/h (0 Bft) S 183 ° 0 min 0,000 mm 0,0 UV-I 0 W/m² 3,1 °C 4,9 °C 0,0 km/h (0 Bft)
08.06.2017 01:48 4,9 °C 4,9 °C 89 % 1021,8 hPa 0,0 mm 0,0 km/h (0 Bft) S 183 ° 0 min 0,000 mm 0,0 UV-I 0 W/m² 3,2 °C 4,9 °C 0,0 km/h (0 Bft)
08.06.2017 01:49 4,9 °C 4,9 °C 89 % 1021,8 hPa 0,0 mm 0,0 km/h (0 Bft) S 183 ° 0 min 0,000 mm 0,0 UV-I 0 W/m² 3,2 °C 4,9 °C 0,0 km/h (0 Bft)
08.06.2017 01:50 4,9 °C 4,9 °C 89 % 1021,8 hPa 0,0 mm 0,0 km/h (0 Bft) S 183 ° 0 min 0,000 mm 0,0 UV-I 0 W/m² 3,2 °C 4,9 °C 0,0 km/h (0 Bft)
08.06.2017 01:51 5,1 °C 5,1 °C 90 % 1021,8 hPa 0,0 mm 0,0 km/h (0 Bft) S 183 ° 0 min 0,000 mm 0,0 UV-I 0 W/m² 3,6 °C 5,1 °C 0,0 km/h (0 Bft)
08.06.2017 01:52 5,1 °C 5,1 °C 89 % 1021,7 hPa 0,0 mm 0,0 km/h (0 Bft) S 183 ° 0 min 0,000 mm 0,0 UV-I 0 W/m² 3,4 °C 5,1 °C 0,0 km/h (0 Bft)
08.06.2017 01:53 5,1 °C 5,1 °C 89 % 1021,7 hPa 0,0 mm 0,0 km/h (0 Bft) S 183 ° 0 min 0,000 mm 0,0 UV-I 0 W/m² 3,4 °C 5,1 °C 0,0 km/h (0 Bft)
08.06.2017 01:54 5,1 °C 5,1 °C 89 % 1021,7 hPa 0,0 mm 0,0 km/h (0 Bft) S 183 ° 0 min 0,000 mm 0,0 UV-I 0 W/m² 3,4 °C 5,1 °C 0,0 km/h (0 Bft)
08.06.2017 01:55 5,2 °C 5,2 °C 89 % 1021,7 hPa 0,0 mm 0,1 km/h (0 Bft) S 183 ° 0 min 0,000 mm 0,0 UV-I 0 W/m² 3,5 °C 5,2 °C 1,6 km/h (1 Bft)
08.06.2017 01:56 5,1 °C 5,2 °C 88 % 1021,7 hPa 0,0 mm 0,0 km/h (0 Bft) S 183 ° 0 min 0,000 mm 0,0 UV-I 0 W/m² 3,3 °C 5,1 °C 0,0 km/h (0 Bft)
08.06.2017 01:57 5,1 °C 5,2 °C 89 % 1021,6 hPa 0,0 mm 0,0 km/h (0 Bft) S 183 ° 0 min 0,000 mm 0,0 UV-I 0 W/m² 3,4 °C 5,1 °C 0,0 km/h (0 Bft)
08.06.2017 01:58 5,1 °C 5,2 °C 89 % 1021,6 hPa 0,0 mm 0,0 km/h (0 Bft) S 183 ° 0 min 0,000 mm 0,0 UV-I 0 W/m² 3,4 °C 5,1 °C 0,0 km/h (0 Bft)
08.06.2017 01:59 5,1 °C 5,1 °C 89 % 1021,6 hPa 0,0 mm 0,0 km/h (0 Bft) S 183 ° 0 min 0,000 mm 0,0 UV-I 0 W/m² 3,4 °C 5,1 °C 0,0 km/h (0 Bft)
08.06.2017 02:00 5,1 °C 5,1 °C 89 % 1021,6 hPa 0,0 mm 0,2 km/h (0 Bft) S 183 ° 0 min 0,000 mm 0,0 UV-I 0 W/m² 3,4 °C 5,1 °C 1,6 km/h (1 Bft)
08.06.2017 02:01 5,2 °C 5,2 °C 89 % 1021,7 hPa 0,0 mm 0,0 km/h (0 Bft) S 183 ° 0 min 0,000 mm 0,0 UV-I 0 W/m² 3,5 °C 5,2 °C 0,0 km/h (0 Bft)
08.06.2017 02:02 5,2 °C 5,2 °C 88 % 1021,7 hPa 0,0 mm 0,1 km/h (0 Bft) S 183 ° 0 min 0,000 mm 0,0 UV-I 0 W/m² 3,4 °C 5,2 °C 1,6 km/h (1 Bft)
08.06.2017 02:03 5,2 °C 5,2 °C 88 % 1021,7 hPa 0,0 mm 0,1 km/h (0 Bft) S 183 ° 0 min 0,000 mm 0,0 UV-I 0 W/m² 3,4 °C 5,2 °C 1,6 km/h (1 Bft)
08.06.2017 02:04 5,3 °C 5,3 °C 88 % 1021,7 hPa 0,0 mm 0,0 km/h (0 Bft) S 183 ° 0 min 0,000 mm 0,0 UV-I 0 W/m² 3,5 °C 5,3 °C 0,0 km/h (0 Bft)
08.06.2017 02:05 5,3 °C 5,3 °C 88 % 1021,7 hPa 0,0 mm 0,0 km/h (0 Bft) S 183 ° 0 min 0,000 mm 0,0 UV-I 0 W/m² 3,5 °C 5,3 °C 0,0 km/h (0 Bft)
08.06.2017 02:06 5,3 °C 5,3 °C 89 % 1021,7 hPa 0,0 mm 0,0 km/h (0 Bft) S 183 ° 0 min 0,000 mm 0,0 UV-I 0 W/m² 3,6 °C 5,3 °C 0,0 km/h (0 Bft)
08.06.2017 02:07 5,3 °C 5,4 °C 88 % 1021,7 hPa 0,0 mm 0,0 km/h (0 Bft) S 183 ° 0 min 0,000 mm 0,0 UV-I 0 W/m² 3,5 °C 5,3 °C 0,0 km/h (0 Bft)
08.06.2017 02:08 5,3 °C 5,4 °C 88 % 1021,6 hPa 0,0 mm 0,0 km/h (0 Bft) S 183 ° 0 min 0,000 mm 0,0 UV-I 0 W/m² 3,5 °C 5,3 °C 0,0 km/h (0 Bft)
08.06.2017 02:09 5,4 °C 5,4 °C 88 % 1021,7 hPa 0,0 mm 0,0 km/h (0 Bft) S 183 ° 0 min 0,000 mm 0,0 UV-I 0 W/m² 3,6 °C 5,4 °C 0,0 km/h (0 Bft)
08.06.2017 02:10 5,4 °C 5,4 °C 88 % 1021,7 hPa 0,0 mm 0,0 km/h (0 Bft) S 183 ° 0 min 0,000 mm 0,0 UV-I 0 W/m² 3,6 °C 5,4 °C 0,0 km/h (0 Bft)
08.06.2017 02:11 5,5 °C 5,5 °C 88 % 1021,7 hPa 0,0 mm 0,0 km/h (0 Bft) S 183 ° 0 min 0,000 mm 0,0 UV-I 0 W/m² 3,7 °C 5,5 °C 0,0 km/h (0 Bft)
08.06.2017 02:12 5,6 °C 5,6 °C 87 % 1021,7 hPa 0,0 mm 0,0 km/h (0 Bft) S 183 ° 0 min 0,000 mm 0,0 UV-I 0 W/m² 3,6 °C 5,6 °C 0,0 km/h (0 Bft)
08.06.2017 02:13 5,6 °C 5,6 °C 88 % 1021,6 hPa 0,0 mm 0,0 km/h (0 Bft) S 183 ° 0 min 0,000 mm 0,0 UV-I 0 W/m² 3,8 °C 5,6 °C 0,0 km/h (0 Bft)
08.06.2017 02:14 5,6 °C 5,6 °C 88 % 1021,6 hPa 0,0 mm 0,0 km/h (0 Bft) S 183 ° 0 min 0,000 mm 0,0 UV-I 0 W/m² 3,8 °C 5,6 °C 0,0 km/h (0 Bft)
08.06.2017 02:15 5,6 °C 5,6 °C 88 % 1021,6 hPa 0,0 mm 0,2 km/h (0 Bft) S 183 ° 0 min 0,000 mm 0,0 UV-I 0 W/m² 3,8 °C 5,6 °C 1,6 km/h (1 Bft)
08.06.2017 02:16 5,6 °C 5,6 °C 87 % 1021,6 hPa 0,0 mm 0,0 km/h (0 Bft) S 183 ° 0 min 0,000 mm 0,0 UV-I 0 W/m² 3,6 °C 5,6 °C 0,0 km/h (0 Bft)
08.06.2017 02:17 5,5 °C 5,6 °C 87 % 1021,7 hPa 0,0 mm 0,0 km/h (0 Bft) S 183 ° 0 min 0,000 mm 0,0 UV-I 0 W/m² 3,5 °C 5,5 °C 0,0 km/h (0 Bft)
08.06.2017 02:18 5,6 °C 5,6 °C 87 % 1021,6 hPa 0,0 mm 0,0 km/h (0 Bft) S 183 ° 0 min 0,000 mm 0,0 UV-I 0 W/m² 3,6 °C 5,6 °C 0,0 km/h (0 Bft)
08.06.2017 02:19 5,6 °C 5,6 °C 87 % 1021,7 hPa 0,0 mm 0,0 km/h (0 Bft) S 183 ° 0 min 0,000 mm 0,0 UV-I 0 W/m² 3,6 °C 5,6 °C 0,0 km/h (0 Bft)
08.06.2017 02:20 5,6 °C 5,6 °C 87 % 1021,7 hPa 0,0 mm 0,0 km/h (0 Bft) S 183 ° 0 min 0,000 mm 0,0 UV-I 0 W/m² 3,6 °C 5,6 °C 0,0 km/h (0 Bft)
08.06.2017 02:21 5,6 °C 5,6 °C 87 % 1021,7 hPa 0,0 mm 0,0 km/h (0 Bft) S 183 ° 0 min 0,000 mm 0,0 UV-I 0 W/m² 3,6 °C 5,6 °C 0,0 km/h (0 Bft)
08.06.2017 02:22 5,6 °C 5,7 °C 87 % 1021,6 hPa 0,0 mm 0,0 km/h (0 Bft) S 183 ° 0 min 0,000 mm 0,0 UV-I 0 W/m² 3,6 °C 5,6 °C 0,0 km/h (0 Bft)
08.06.2017 02:23 5,7 °C 5,7 °C 87 % 1021,6 hPa 0,0 mm 0,0 km/h (0 Bft) S 183 ° 0 min 0,000 mm 0,0 UV-I 0 W/m² 3,7 °C 5,7 °C 0,0 km/h (0 Bft)
08.06.2017 02:24 5,7 °C 5,7 °C 87 % 1021,6 hPa 0,0 mm 0,8 km/h (0 Bft) W-SW 254 ° 0 min 0,000 mm 0,0 UV-I 0 W/m² 3,7 °C 5,7 °C 3,2 km/h (1 Bft)
08.06.2017 02:25 5,7 °C 5,7 °C 86 % 1021,6 hPa 0,0 mm 0,1 km/h (0 Bft) W-SW 254 ° 0 min 0,000 mm 0,0 UV-I 0 W/m² 3,5 °C 5,7 °C 1,6 km/h (1 Bft)
08.06.2017 02:26 5,7 °C 5,7 °C 87 % 1021,6 hPa 0,0 mm 0,0 km/h (0 Bft) W-SW 254 ° 0 min 0,000 mm 0,0 UV-I 0 W/m² 3,7 °C 5,7 °C 0,0 km/h (0 Bft)
08.06.2017 02:27 5,6 °C 5,7 °C 87 % 1021,6 hPa 0,0 mm 0,0 km/h (0 Bft) W-SW 254 ° 0 min 0,000 mm 0,0 UV-I 0 W/m² 3,6 °C 5,6 °C 0,0 km/h (0 Bft)
08.06.2017 02:28 5,6 °C 5,6 °C 87 % 1021,6 hPa 0,0 mm 0,0 km/h (0 Bft) W-SW 254 ° 0 min 0,000 mm 0,0 UV-I 0 W/m² 3,6 °C 5,6 °C 0,0 km/h (0 Bft)
08.06.2017 02:29 5,6 °C 5,6 °C 87 % 1021,6 hPa 0,0 mm 0,0 km/h (0 Bft) W-SW 254 ° 0 min 0,000 mm 0,0 UV-I 0 W/m² 3,6 °C 5,6 °C 0,0 km/h (0 Bft)
08.06.2017 02:30 5,6 °C 5,6 °C 87 % 1021,6 hPa 0,0 mm 0,0 km/h (0 Bft) W-SW 254 ° 0 min 0,000 mm 0,0 UV-I 0 W/m² 3,6 °C 5,6 °C 0,0 km/h (0 Bft)
08.06.2017 02:31 5,6 °C 5,6 °C 87 % 1021,6 hPa 0,0 mm 0,0 km/h (0 Bft) W-SW 254 ° 0 min 0,000 mm 0,0 UV-I 0 W/m² 3,6 °C 5,6 °C 0,0 km/h (0 Bft)
08.06.2017 02:32 5,6 °C 5,6 °C 87 % 1021,6 hPa 0,0 mm 0,0 km/h (0 Bft) W-SW 254 ° 0 min 0,000 mm 0,0 UV-I 0 W/m² 3,6 °C 5,6 °C 0,0 km/h (0 Bft)
08.06.2017 02:33 5,6 °C 5,6 °C 87 % 1021,7 hPa 0,0 mm 0,0 km/h (0 Bft) W-SW 254 ° 0 min 0,000 mm 0,0 UV-I 0 W/m² 3,6 °C 5,6 °C 0,0 km/h (0 Bft)
08.06.2017 02:34 5,6 °C 5,6 °C 87 % 1021,7 hPa 0,0 mm 0,0 km/h (0 Bft) W-SW 254 ° 0 min 0,000 mm 0,0 UV-I 0 W/m² 3,6 °C 5,6 °C 0,0 km/h (0 Bft)
08.06.2017 02:35 5,6 °C 5,6 °C 87 % 1021,6 hPa 0,0 mm 0,0 km/h (0 Bft) W-SW 254 ° 0 min 0,000 mm 0,0 UV-I 0 W/m² 3,6 °C 5,6 °C 0,0 km/h (0 Bft)
08.06.2017 02:36 5,6 °C 5,6 °C 87 % 1021,6 hPa 0,0 mm 0,0 km/h (0 Bft) W-SW 254 ° 0 min 0,000 mm 0,0 UV-I 0 W/m² 3,6 °C 5,6 °C 0,0 km/h (0 Bft)
08.06.2017 02:37 5,6 °C 5,6 °C 87 % 1021,7 hPa 0,0 mm 0,0 km/h (0 Bft) W-SW 254 ° 0 min 0,000 mm 0,0 UV-I 0 W/m² 3,6 °C 5,6 °C 0,0 km/h (0 Bft)
08.06.2017 02:38 5,6 °C 5,6 °C 87 % 1021,7 hPa 0,0 mm 0,0 km/h (0 Bft) W-SW 254 ° 0 min 0,000 mm 0,0 UV-I 0 W/m² 3,6 °C 5,6 °C 0,0 km/h (0 Bft)
08.06.2017 02:39 5,6 °C 5,6 °C 87 % 1021,7 hPa 0,0 mm 0,0 km/h (0 Bft) W-SW 254 ° 0 min 0,000 mm 0,0 UV-I 0 W/m² 3,6 °C 5,6 °C 0,0 km/h (0 Bft)
08.06.2017 02:40 5,6 °C 5,6 °C 87 % 1021,7 hPa 0,0 mm 0,0 km/h (0 Bft) W-SW 254 ° 0 min 0,000 mm 0,0 UV-I 0 W/m² 3,6 °C 5,6 °C 0,0 km/h (0 Bft)
08.06.2017 02:41 5,5 °C 5,6 °C 88 % 1021,7 hPa 0,0 mm 0,0 km/h (0 Bft) W-SW 254 ° 0 min 0,000 mm 0,0 UV-I 0 W/m² 3,7 °C 5,5 °C 0,0 km/h (0 Bft)
08.06.2017 02:42 5,5 °C 5,5 °C 87 % 1021,7 hPa 0,0 mm 0,0 km/h (0 Bft) W-SW 254 ° 0 min 0,000 mm 0,0 UV-I 0 W/m² 3,5 °C 5,5 °C 0,0 km/h (0 Bft)
08.06.2017 02:43 5,5 °C 5,5 °C 87 % 1021,7 hPa 0,0 mm 0,0 km/h (0 Bft) W-SW 254 ° 0 min 0,000 mm 0,0 UV-I 0 W/m² 3,5 °C 5,5 °C 0,0 km/h (0 Bft)
08.06.2017 02:44 5,5 °C 5,5 °C 87 % 1021,6 hPa 0,0 mm 0,0 km/h (0 Bft) W-SW 254 ° 0 min 0,000 mm 0,0 UV-I 0 W/m² 3,5 °C 5,5 °C 0,0 km/h (0 Bft)
08.06.2017 02:45 5,5 °C 5,5 °C 87 % 1021,6 hPa 0,0 mm 0,2 km/h (0 Bft) W-SW 254 ° 0 min 0,000 mm 0,0 UV-I 0 W/m² 3,5 °C 5,5 °C 3,2 km/h (1 Bft)
08.06.2017 02:46 5,5 °C 5,5 °C 87 % 1021,6 hPa 0,0 mm 0,4 km/h (0 Bft) S-SW 204 ° 0 min 0,000 mm 0,0 UV-I 0 W/m² 3,5 °C 5,5 °C 3,2 km/h (1 Bft)
08.06.2017 02:47 5,6 °C 5,6 °C 87 % 1021,7 hPa 0,0 mm 0,1 km/h (0 Bft) S-SW 204 ° 0 min 0,000 mm 0,0 UV-I 0 W/m² 3,6 °C 5,6 °C 1,6 km/h (1 Bft)
08.06.2017 02:48 5,6 °C 5,6 °C 87 % 1021,7 hPa 0,0 mm 0,0 km/h (0 Bft) S-SW 204 ° 0 min 0,000 mm 0,0 UV-I 0 W/m² 3,6 °C 5,6 °C 0,0 km/h (0 Bft)
08.06.2017 02:49 5,6 °C 5,6 °C 87 % 1021,7 hPa 0,0 mm 0,0 km/h (0 Bft) S-SW 204 ° 0 min 0,000 mm 0,0 UV-I 0 W/m² 3,6 °C 5,6 °C 0,0 km/h (0 Bft)
08.06.2017 02:50 5,6 °C 5,6 °C 87 % 1021,6 hPa 0,0 mm 0,0 km/h (0 Bft) S-SW 204 ° 0 min 0,000 mm 0,0 UV-I 0 W/m² 3,6 °C 5,6 °C 0,0 km/h (0 Bft)
08.06.2017 02:51 5,6 °C 5,6 °C 87 % 1021,7 hPa 0,0 mm 0,0 km/h (0 Bft) S-SW 204 ° 0 min 0,000 mm 0,0 UV-I 0 W/m² 3,6 °C 5,6 °C 0,0 km/h (0 Bft)
08.06.2017 02:52 5,6 °C 5,6 °C 87 % 1021,7 hPa 0,0 mm 0,0 km/h (0 Bft) S-SW 204 ° 0 min 0,000 mm 0,0 UV-I 0 W/m² 3,6 °C 5,6 °C 0,0 km/h (0 Bft)
08.06.2017 02:53 5,6 °C 5,6 °C 87 % 1021,7 hPa 0,0 mm 0,0 km/h (0 Bft) S-SW 204 ° 0 min 0,000 mm 0,0 UV-I 0 W/m² 3,6 °C 5,6 °C 0,0 km/h (0 Bft)
08.06.2017 02:54 5,6 °C 5,6 °C 87 % 1021,7 hPa 0,0 mm 0,0 km/h (0 Bft) S-SW 204 ° 0 min 0,000 mm 0,0 UV-I 0 W/m² 3,6 °C 5,6 °C 0,0 km/h (0 Bft)
08.06.2017 02:55 5,6 °C 5,6 °C 87 % 1021,7 hPa 0,0 mm 0,0 km/h (0 Bft) S-SW 204 ° 0 min 0,000 mm 0,0 UV-I 0 W/m² 3,6 °C 5,6 °C 0,0 km/h (0 Bft)
08.06.2017 02:56 5,6 °C 5,6 °C 87 % 1021,6 hPa 0,0 mm 0,0 km/h (0 Bft) S-SW 204 ° 0 min 0,000 mm 0,0 UV-I 0 W/m² 3,6 °C 5,6 °C 0,0 km/h (0 Bft)
08.06.2017 02:57 5,6 °C 5,6 °C 86 % 1021,6 hPa 0,0 mm 0,0 km/h (0 Bft) S-SW 204 ° 0 min 0,000 mm 0,0 UV-I 0 W/m² 3,4 °C 5,6 °C 0,0 km/h (0 Bft)
08.06.2017 02:58 5,6 °C 5,6 °C 87 % 1021,6 hPa 0,0 mm 0,0 km/h (0 Bft) S-SW 204 ° 0 min 0,000 mm 0,0 UV-I 0 W/m² 3,6 °C 5,6 °C 0,0 km/h (0 Bft)
08.06.2017 02:59 5,6 °C 5,6 °C 86 % 1021,6 hPa 0,0 mm 0,1 km/h (0 Bft) S-SW 204 ° 0 min 0,000 mm 0,0 UV-I 0 W/m² 3,4 °C 5,6 °C 1,6 km/h (1 Bft)
08.06.2017 03:00 5,6 °C 5,7 °C 86 % 1021,6 hPa 0,0 mm 0,0 km/h (0 Bft) S-SW 204 ° 0 min 0,000 mm 0,0 UV-I 0 W/m² 3,4 °C 5,6 °C 0,0 km/h (0 Bft)
08.06.2017 03:01 5,6 °C 5,6 °C 86 % 1021,6 hPa 0,0 mm 0,0 km/h (0 Bft) S-SW 204 ° 0 min 0,000 mm 0,0 UV-I 0 W/m² 3,4 °C 5,6 °C 0,0 km/h (0 Bft)
08.06.2017 03:02 5,6 °C 5,6 °C 86 % 1021,6 hPa 0,0 mm 0,0 km/h (0 Bft) S-SW 204 ° 0 min 0,000 mm 0,0 UV-I 0 W/m² 3,4 °C 5,6 °C 0,0 km/h (0 Bft)
08.06.2017 03:03 5,6 °C 5,7 °C 86 % 1021,6 hPa 0,0 mm 0,1 km/h (0 Bft) S-SW 204 ° 0 min 0,000 mm 0,0 UV-I 0 W/m² 3,4 °C 5,6 °C 1,6 km/h (1 Bft)
08.06.2017 03:04 5,6 °C 5,6 °C 87 % 1021,7 hPa 0,0 mm 0,0 km/h (0 Bft) S-SW 204 ° 0 min 0,000 mm 0,0 UV-I 0 W/m² 3,6 °C 5,6 °C 0,0 km/h (0 Bft)
08.06.2017 03:05 5,6 °C 5,6 °C 87 % 1021,6 hPa 0,0 mm 0,0 km/h (0 Bft) S-SW 204 ° 0 min 0,000 mm 0,0 UV-I 0 W/m² 3,6 °C 5,6 °C 0,0 km/h (0 Bft)
08.06.2017 03:06 5,6 °C 5,6 °C 86 % 1021,7 hPa 0,0 mm 0,0 km/h (0 Bft) S-SW 204 ° 0 min 0,000 mm 0,0 UV-I 0 W/m² 3,4 °C 5,6 °C 0,0 km/h (0 Bft)
08.06.2017 03:07 5,6 °C 5,6 °C 86 % 1021,7 hPa 0,0 mm 0,0 km/h (0 Bft) S-SW 204 ° 0 min 0,000 mm 0,0 UV-I 0 W/m² 3,4 °C 5,6 °C 0,0 km/h (0 Bft)
08.06.2017 03:08 5,6 °C 5,6 °C 86 % 1021,7 hPa 0,0 mm 0,0 km/h (0 Bft) S-SW 204 ° 0 min 0,000 mm 0,0 UV-I 0 W/m² 3,4 °C 5,6 °C 0,0 km/h (0 Bft)
08.06.2017 03:09 5,6 °C 5,6 °C 86 % 1021,7 hPa 0,0 mm 2,4 km/h (1 Bft) SW 229 ° 0 min 0,000 mm 0,0 UV-I 0 W/m² 3,4 °C 5,6 °C 4,8 km/h (1 Bft)
08.06.2017 03:10 5,7 °C 5,7 °C 86 % 1021,7 hPa 0,0 mm 0,1 km/h (0 Bft) SW 229 ° 0 min 0,000 mm 0,0 UV-I 0 W/m² 3,5 °C 5,7 °C 1,6 km/h (1 Bft)
08.06.2017 03:11 5,7 °C 5,7 °C 86 % 1021,7 hPa 0,0 mm 0,0 km/h (0 Bft) SW 229 ° 0 min 0,000 mm 0,0 UV-I 0 W/m² 3,5 °C 5,7 °C 0,0 km/h (0 Bft)
08.06.2017 03:12 5,7 °C 5,7 °C 86 % 1021,7 hPa 0,0 mm 0,8 km/h (0 Bft) SW 229 ° 0 min 0,000 mm 0,0 UV-I 0 W/m² 3,5 °C 5,7 °C 3,2 km/h (1 Bft)
08.06.2017 03:13 5,7 °C 5,7 °C 85 % 1021,7 hPa 0,0 mm 0,1 km/h (0 Bft) SW 229 ° 0 min 0,000 mm 0,0 UV-I 0 W/m² 3,4 °C 5,7 °C 1,6 km/h (1 Bft)
08.06.2017 03:14 5,6 °C 5,7 °C 86 % 1021,7 hPa 0,0 mm 0,0 km/h (0 Bft) SW 229 ° 0 min 0,000 mm 0,0 UV-I 0 W/m² 3,4 °C 5,6 °C 0,0 km/h (0 Bft)
08.06.2017 03:15 5,6 °C 5,6 °C 86 % 1021,7 hPa 0,0 mm 0,0 km/h (0 Bft) SW 229 ° 0 min 0,000 mm 0,0 UV-I 0 W/m² 3,4 °C 5,6 °C 0,0 km/h (0 Bft)
08.06.2017 03:16 5,6 °C 5,6 °C 87 % 1021,7 hPa 0,0 mm 0,0 km/h (0 Bft) SW 229 ° 0 min 0,000 mm 0,0 UV-I 0 W/m² 3,6 °C 5,6 °C 0,0 km/h (0 Bft)
08.06.2017 03:17 5,5 °C 5,6 °C 87 % 1021,6 hPa 0,0 mm 0,0 km/h (0 Bft) SW 229 ° 0 min 0,000 mm 0,0 UV-I 0 W/m² 3,5 °C 5,5 °C 0,0 km/h (0 Bft)
08.06.2017 03:18 5,5 °C 5,5 °C 86 % 1021,7 hPa 0,0 mm 0,0 km/h (0 Bft) SW 229 ° 0 min 0,000 mm 0,0 UV-I 0 W/m² 3,3 °C 5,5 °C 0,0 km/h (0 Bft)
08.06.2017 03:19 5,5 °C 5,5 °C 86 % 1021,7 hPa 0,0 mm 0,0 km/h (0 Bft) SW 229 ° 0 min 0,000 mm 0,0 UV-I 0 W/m² 3,3 °C 5,5 °C 0,0 km/h (0 Bft)
08.06.2017 03:20 5,4 °C 5,5 °C 86 % 1021,7 hPa 0,0 mm 0,0 km/h (0 Bft) SW 229 ° 0 min 0,000 mm 0,0 UV-I 0 W/m² 3,3 °C 5,4 °C 0,0 km/h (0 Bft)
08.06.2017 03:21 5,4 °C 5,4 °C 86 % 1021,7 hPa 0,0 mm 0,0 km/h (0 Bft) SW 229 ° 0 min 0,000 mm 0,0 UV-I 0 W/m² 3,3 °C 5,4 °C 0,0 km/h (0 Bft)
08.06.2017 03:22 5,4 °C 5,4 °C 87 % 1021,7 hPa 0,0 mm 0,0 km/h (0 Bft) SW 229 ° 0 min 0,000 mm 0,0 UV-I 0 W/m² 3,4 °C 5,4 °C 0,0 km/h (0 Bft)
08.06.2017 03:23 5,4 °C 5,4 °C 87 % 1021,7 hPa 0,0 mm 0,0 km/h (0 Bft) SW 229 ° 0 min 0,000 mm 0,0 UV-I 0 W/m² 3,4 °C 5,4 °C 0,0 km/h (0 Bft)
08.06.2017 03:24 5,4 °C 5,4 °C 87 % 1021,7 hPa 0,0 mm 0,0 km/h (0 Bft) SW 229 ° 0 min 0,000 mm 0,0 UV-I 0 W/m² 3,4 °C 5,4 °C 0,0 km/h (0 Bft)
08.06.2017 03:25 5,3 °C 5,4 °C 87 % 1021,7 hPa 0,0 mm 0,0 km/h (0 Bft) SW 229 ° 0 min 0,000 mm 0,0 UV-I 0 W/m² 3,3 °C 5,3 °C 0,0 km/h (0 Bft)
08.06.2017 03:26 5,3 °C 5,4 °C 87 % 1021,7 hPa 0,0 mm 0,0 km/h (0 Bft) SW 229 ° 0 min 0,000 mm 0,0 UV-I 0 W/m² 3,3 °C 5,3 °C 0,0 km/h (0 Bft)
08.06.2017 03:27 5,3 °C 5,3 °C 87 % 1021,6 hPa 0,0 mm 0,3 km/h (0 Bft) SW 229 ° 0 min 0,000 mm 0,0 UV-I 0 W/m² 3,3 °C 5,3 °C 1,6 km/h (1 Bft)
08.06.2017 03:28 5,3 °C 5,3 °C 88 % 1021,6 hPa 0,0 mm 0,7 km/h (0 Bft) SW 229 ° 0 min 0,000 mm 0,0 UV-I 0 W/m² 3,5 °C 5,3 °C 3,2 km/h (1 Bft)
08.06.2017 03:29 5,3 °C 5,3 °C 88 % 1021,6 hPa 0,0 mm 0,1 km/h (0 Bft) SW 229 ° 0 min 0,000 mm 0,0 UV-I 0 W/m² 3,5 °C 5,3 °C 1,6 km/h (1 Bft)
08.06.2017 03:30 5,3 °C 5,3 °C 87 % 1021,6 hPa 0,0 mm 0,2 km/h (0 Bft) SW 229 ° 0 min 0,000 mm 0,0 UV-I 0 W/m² 3,3 °C 5,3 °C 1,6 km/h (1 Bft)
08.06.2017 03:31 5,3 °C 5,3 °C 87 % 1021,6 hPa 0,0 mm 0,0 km/h (0 Bft) SW 229 ° 0 min 0,000 mm 0,0 UV-I 0 W/m² 3,3 °C 5,3 °C 0,0 km/h (0 Bft)
08.06.2017 03:32 5,2 °C 5,3 °C 87 % 1021,7 hPa 0,0 mm 0,0 km/h (0 Bft) SW 229 ° 0 min 0,000 mm 0,0 UV-I 0 W/m² 3,2 °C 5,2 °C 0,0 km/h (0 Bft)
08.06.2017 03:33 5,3 °C 5,3 °C 87 % 1021,6 hPa 0,0 mm 0,9 km/h (0 Bft) SW 229 ° 0 min 0,000 mm 0,0 UV-I 0 W/m² 3,3 °C 5,3 °C 3,2 km/h (1 Bft)
08.06.2017 03:34 5,3 °C 5,3 °C 87 % 1021,6 hPa 0,0 mm 0,6 km/h (0 Bft) SW 229 ° 0 min 0,000 mm 0,0 UV-I 0 W/m² 3,3 °C 5,3 °C 3,2 km/h (1 Bft)
08.06.2017 03:35 5,4 °C 5,4 °C 87 % 1021,6 hPa 0,0 mm 1,0 km/h (0 Bft) SW 229 ° 0 min 0,000 mm 0,0 UV-I 0 W/m² 3,4 °C 5,4 °C 3,2 km/h (1 Bft)
08.06.2017 03:36 5,4 °C 5,4 °C 87 % 1021,7 hPa 0,0 mm 0,1 km/h (0 Bft) SW 229 ° 0 min 0,000 mm 0,0 UV-I 0 W/m² 3,4 °C 5,4 °C 1,6 km/h (1 Bft)
08.06.2017 03:37 5,3 °C 5,4 °C 87 % 1021,7 hPa 0,0 mm 1,0 km/h (0 Bft) SW 229 ° 0 min 0,000 mm 0,0 UV-I 0 W/m² 3,3 °C 5,3 °C 3,2 km/h (1 Bft)
08.06.2017 03:38 5,4 °C 5,4 °C 87 % 1021,6 hPa 0,0 mm 1,5 km/h (1 Bft) SW 229 ° 0 min 0,000 mm 0,0 UV-I 0 W/m² 3,4 °C 5,4 °C 4,8 km/h (1 Bft)
08.06.2017 03:39 5,4 °C 5,4 °C 87 % 1021,6 hPa 0,0 mm 1,1 km/h (1 Bft) SW 230 ° 0 min 0,000 mm 0,0 UV-I 0 W/m² 3,4 °C 5,4 °C 1,6 km/h (1 Bft)
08.06.2017 03:40 5,4 °C 5,4 °C 87 % 1021,6 hPa 0,0 mm 0,1 km/h (0 Bft) SW 229 ° 0 min 0,000 mm 0,0 UV-I 0 W/m² 3,4 °C 5,4 °C 1,6 km/h (1 Bft)
08.06.2017 03:41 5,4 °C 5,4 °C 87 % 1021,6 hPa 0,0 mm 0,0 km/h (0 Bft) SW 229 ° 0 min 0,000 mm 0,0 UV-I 0 W/m² 3,4 °C 5,4 °C 0,0 km/h (0 Bft)
08.06.2017 03:42 5,4 °C 5,4 °C 87 % 1021,6 hPa 0,0 mm 0,0 km/h (0 Bft) SW 229 ° 0 min 0,000 mm 0,0 UV-I 0 W/m² 3,4 °C 5,4 °C 0,0 km/h (0 Bft)
08.06.2017 03:43 5,4 °C 5,4 °C 87 % 1021,6 hPa 0,0 mm 0,0 km/h (0 Bft) SW 229 ° 0 min 0,000 mm 0,0 UV-I 0 W/m² 3,4 °C 5,4 °C 0,0 km/h (0 Bft)
08.06.2017 03:44 5,4 °C 5,4 °C 87 % 1021,5 hPa 0,0 mm 0,7 km/h (0 Bft) SW 229 ° 0 min 0,000 mm 0,0 UV-I 0 W/m² 3,4 °C 5,4 °C 3,2 km/h (1 Bft)
08.06.2017 03:45 5,3 °C 5,4 °C 87 % 1021,6 hPa 0,0 mm 0,4 km/h (0 Bft) SW 229 ° 0 min 0,000 mm 0,0 UV-I 0 W/m² 3,3 °C 5,3 °C 1,6 km/h (1 Bft)
08.06.2017 03:46 5,3 °C 5,3 °C 87 % 1021,5 hPa 0,0 mm 0,6 km/h (0 Bft) SW 230 ° 0 min 0,000 mm 0,0 UV-I 0 W/m² 3,3 °C 5,3 °C 1,6 km/h (1 Bft)
08.06.2017 03:47 5,3 °C 5,3 °C 87 % 1021,5 hPa 0,0 mm 1,6 km/h (1 Bft) W-SW 241 ° 0 min 0,000 mm 0,0 UV-I 0 W/m² 3,3 °C 5,3 °C 3,2 km/h (1 Bft)
08.06.2017 03:48 5,3 °C 5,3 °C 87 % 1021,6 hPa 0,0 mm 0,7 km/h (0 Bft) W-SW 241 ° 0 min 0,000 mm 0,0 UV-I 0 W/m² 3,3 °C 5,3 °C 1,6 km/h (1 Bft)
08.06.2017 03:49 5,3 °C 5,3 °C 87 % 1021,6 hPa 0,0 mm 0,0 km/h (0 Bft) W-SW 241 ° 0 min 0,000 mm 0,0 UV-I 0 W/m² 3,3 °C 5,3 °C 0,0 km/h (0 Bft)
08.06.2017 03:50 5,3 °C 5,3 °C 87 % 1021,6 hPa 0,0 mm 0,2 km/h (0 Bft) W-SW 241 ° 0 min 0,000 mm 0,0 UV-I 0 W/m² 3,3 °C 5,3 °C 1,6 km/h (1 Bft)
08.06.2017 03:51 5,3 °C 5,3 °C 87 % 1021,6 hPa 0,0 mm 0,0 km/h (0 Bft) W-SW 241 ° 0 min 0,000 mm 0,0 UV-I 0 W/m² 3,3 °C 5,3 °C 0,0 km/h (0 Bft)
08.06.2017 03:52 5,3 °C 5,3 °C 87 % 1021,6 hPa 0,0 mm 0,0 km/h (0 Bft) W-SW 241 ° 0 min 0,000 mm 0,0 UV-I 0 W/m² 3,3 °C 5,3 °C 0,0 km/h (0 Bft)
08.06.2017 03:53 5,2 °C 5,3 °C 87 % 1021,6 hPa 0,0 mm 0,0 km/h (0 Bft) W-SW 241 ° 0 min 0,000 mm 0,0 UV-I 0 W/m² 3,2 °C 5,2 °C 0,0 km/h (0 Bft)
08.06.2017 03:54 5,2 °C 5,2 °C 87 % 1021,6 hPa 0,0 mm 0,0 km/h (0 Bft) W-SW 241 ° 0 min 0,000 mm 0,0 UV-I 0 W/m² 3,2 °C 5,2 °C 0,0 km/h (0 Bft)
08.06.2017 03:55 5,2 °C 5,2 °C 87 % 1021,5 hPa 0,0 mm 0,3 km/h (0 Bft) NW 313 ° 0 min 0,000 mm 0,0 UV-I 0 W/m² 3,2 °C 5,2 °C 1,6 km/h (1 Bft)
08.06.2017 03:56 5,2 °C 5,2 °C 88 % 1021,5 hPa 0,0 mm 2,9 km/h (1 Bft) S-SW 199 ° 0 min 0,000 mm 0,0 UV-I 0 W/m² 3,4 °C 5,2 °C 4,8 km/h (1 Bft)
08.06.2017 03:57 5,2 °C 5,2 °C 88 % 1021,5 hPa 0,0 mm 0,0 km/h (0 Bft) S-SW 199 ° 0 min 0,000 mm 0,0 UV-I 0 W/m² 3,4 °C 5,2 °C 0,0 km/h (0 Bft)
08.06.2017 03:58 5,2 °C 5,2 °C 88 % 1021,6 hPa 0,0 mm 0,0 km/h (0 Bft) S-SW 199 ° 0 min 0,000 mm 0,0 UV-I 0 W/m² 3,4 °C 5,2 °C 0,0 km/h (0 Bft)
08.06.2017 03:59 5,2 °C 5,3 °C 87 % 1021,6 hPa 0,0 mm 0,0 km/h (0 Bft) S-SW 199 ° 0 min 0,000 mm 0,0 UV-I 0 W/m² 3,2 °C 5,2 °C 0,0 km/h (0 Bft)
08.06.2017 04:00 5,2 °C 5,2 °C 87 % 1021,6 hPa 0,0 mm 0,0 km/h (0 Bft) W 279 ° 0 min 0,000 mm 0,0 UV-I 0 W/m² 3,2 °C 5,2 °C 0,0 km/h (0 Bft)
08.06.2017 04:01 5,2 °C 5,2 °C 87 % 1021,6 hPa 0,0 mm 0,8 km/h (0 Bft) W 279 ° 0 min 0,000 mm 0,0 UV-I 0 W/m² 3,2 °C 5,2 °C 1,6 km/h (1 Bft)
08.06.2017 04:02 5,2 °C 5,3 °C 87 % 1021,6 hPa 0,0 mm 1,6 km/h (1 Bft) SW 225 ° 0 min 0,000 mm 0,0 UV-I 0 W/m² 3,2 °C 5,2 °C 3,2 km/h (1 Bft)
08.06.2017 04:03 5,2 °C 5,3 °C 87 % 1021,6 hPa 0,0 mm 1,6 km/h (1 Bft) SW 225 ° 0 min 0,000 mm 0,0 UV-I 0 W/m² 3,2 °C 5,2 °C 3,2 km/h (1 Bft)
08.06.2017 04:04 5,2 °C 5,3 °C 87 % 1021,5 hPa 0,0 mm 0,0 km/h (0 Bft) N 0 ° 0 min 0,000 mm 0,0 UV-I 0 W/m² 3,2 °C 5,2 °C 0,0 km/h (0 Bft)
08.06.2017 04:05 5,2 °C 5,3 °C 87 % 1021,6 hPa 0,0 mm 0,0 km/h (0 Bft) SW 225 ° 0 min 0,000 mm 0,0 UV-I 0 W/m² 3,2 °C 5,2 °C 1,6 km/h (1 Bft)
08.06.2017 04:06 5,3 °C 5,3 °C 87 % 1021,5 hPa 0,0 mm 1,6 km/h (1 Bft) W-SW 247 ° 0 min 0,000 mm 0,0 UV-I 0 W/m² 3,3 °C 5,3 °C 3,2 km/h (1 Bft)
08.06.2017 04:07 5,2 °C 5,2 °C 87 % 1021,5 hPa 0,0 mm 0,0 km/h (0 Bft) W-SW 247 ° 0 min 0,000 mm 0,0 UV-I 0 W/m² 3,2 °C 5,2 °C 1,6 km/h (1 Bft)
08.06.2017 04:08 5,2 °C 5,2 °C 87 % 1021,6 hPa 0,0 mm 0,0 km/h (0 Bft) N 0 ° 0 min 0,000 mm 0,0 UV-I 0 W/m² 3,2 °C 5,2 °C 0,0 km/h (0 Bft)
08.06.2017 04:09 5,2 °C 5,2 °C 87 % 1021,6 hPa 0,0 mm 0,0 km/h (0 Bft) W-SW 247 ° 0 min 0,000 mm 0,0 UV-I 0 W/m² 3,2 °C 5,2 °C 1,6 km/h (1 Bft)
08.06.2017 04:10 5,2 °C 5,2 °C 87 % 1021,5 hPa 0,0 mm 0,0 km/h (0 Bft) N 0 ° 0 min 0,000 mm 0,0 UV-I 0 W/m² 3,2 °C 5,2 °C 0,0 km/h (0 Bft)
08.06.2017 04:12 5,2 °C 5,2 °C 87 % 1021,5 hPa 0,0 mm 0,0 km/h (0 Bft) W-SW 237 ° 0 min 0,000 mm 0,0 UV-I 0 W/m² 3,2 °C 5,2 °C 0,0 km/h (0 Bft)
08.06.2017 04:13 5,2 °C 5,2 °C 87 % 1021,6 hPa 0,0 mm 0,0 km/h (0 Bft) W-SW 237 ° 0 min 0,000 mm 0,0 UV-I 0 W/m² 3,2 °C 5,2 °C 0,0 km/h (0 Bft)
08.06.2017 04:14 5,2 °C 5,2 °C 87 % 1021,6 hPa 0,0 mm 0,0 km/h (0 Bft) W-SW 237 ° 0 min 0,000 mm 0,0 UV-I 0 W/m² 3,2 °C 5,2 °C 0,0 km/h (0 Bft)
08.06.2017 04:15 5,2 °C 5,2 °C 87 % 1021,6 hPa 0,0 mm 0,0 km/h (0 Bft) W-SW 237 ° 0 min 0,000 mm 0,0 UV-I 0 W/m² 3,2 °C 5,2 °C 0,0 km/h (0 Bft)
08.06.2017 04:16 5,1 °C 5,2 °C 87 % 1021,6 hPa 0,0 mm 0,0 km/h (0 Bft) W-SW 237 ° 0 min 0,000 mm 0,0 UV-I 0 W/m² 3,1 °C 5,1 °C 0,0 km/h (0 Bft)
08.06.2017 04:17 5,1 °C 5,1 °C 88 % 1021,6 hPa 0,0 mm 0,5 km/h (0 Bft) W-SW 237 ° 0 min 0,000 mm 0,0 UV-I 0 W/m² 3,3 °C 5,1 °C 1,6 km/h (1 Bft)
08.06.2017 04:18 5,1 °C 5,1 °C 87 % 1021,6 hPa 0,0 mm 0,0 km/h (0 Bft) W-SW 237 ° 0 min 0,000 mm 0,0 UV-I 0 W/m² 3,1 °C 5,1 °C 0,0 km/h (0 Bft)
08.06.2017 04:19 5,1 °C 5,1 °C 88 % 1021,6 hPa 0,0 mm 0,0 km/h (0 Bft) W-SW 237 ° 0 min 0,000 mm 0,0 UV-I 0 W/m² 3,3 °C 5,1 °C 0,0 km/h (0 Bft)
08.06.2017 04:20 5,1 °C 5,1 °C 87 % 1021,6 hPa 0,0 mm 0,3 km/h (0 Bft) W-SW 238 ° 0 min 0,000 mm 0,0 UV-I 0 W/m² 3,1 °C 5,1 °C 1,6 km/h (1 Bft)
08.06.2017 04:21 5,0 °C 5,1 °C 88 % 1021,6 hPa 0,0 mm 0,0 km/h (0 Bft) W-SW 238 ° 0 min 0,000 mm 0,0 UV-I 0 W/m² 3,2 °C 5,0 °C 0,0 km/h (0 Bft)
08.06.2017 04:22 5,0 °C 5,0 °C 88 % 1021,6 hPa 0,0 mm 0,0 km/h (0 Bft) W-SW 238 ° 0 min 0,000 mm 0,0 UV-I 0 W/m² 3,2 °C 5,0 °C 0,0 km/h (0 Bft)
08.06.2017 04:23 5,0 °C 5,0 °C 88 % 1021,6 hPa 0,0 mm 0,0 km/h (0 Bft) W-SW 238 ° 0 min 0,000 mm 0,0 UV-I 0 W/m² 3,2 °C 5,0 °C 0,0 km/h (0 Bft)
08.06.2017 04:24 4,9 °C 5,0 °C 89 % 1021,6 hPa 0,0 mm 0,0 km/h (0 Bft) W-SW 238 ° 0 min 0,000 mm 0,0 UV-I 0 W/m² 3,2 °C 4,9 °C 0,0 km/h (0 Bft)
08.06.2017 04:25 4,9 °C 4,9 °C 89 % 1021,6 hPa 0,0 mm 0,0 km/h (0 Bft) W-SW 238 ° 0 min 0,000 mm 0,0 UV-I 0 W/m² 3,2 °C 4,9 °C 0,0 km/h (0 Bft)
08.06.2017 04:26 4,9 °C 4,9 °C 89 % 1021,6 hPa 0,0 mm 0,0 km/h (0 Bft) W-SW 238 ° 0 min 0,000 mm 0,0 UV-I 0 W/m² 3,2 °C 4,9 °C 0,0 km/h (0 Bft)
08.06.2017 04:27 4,9 °C 4,9 °C 89 % 1021,6 hPa 0,0 mm 0,0 km/h (0 Bft) W-SW 238 ° 0 min 0,000 mm 0,0 UV-I 0 W/m² 3,2 °C 4,9 °C 0,0 km/h (0 Bft)
08.06.2017 04:28 4,8 °C 4,9 °C 89 % 1021,6 hPa 0,0 mm 1,1 km/h (1 Bft) W-SW 238 ° 0 min 0,000 mm 0,0 UV-I 0 W/m² 3,1 °C 4,8 °C 3,2 km/h (1 Bft)
08.06.2017 04:29 4,8 °C 4,9 °C 89 % 1021,6 hPa 0,0 mm 1,3 km/h (1 Bft) W-SW 238 ° 0 min 0,000 mm 0,0 UV-I 0 W/m² 3,1 °C 4,8 °C 3,2 km/h (1 Bft)
08.06.2017 04:30 4,9 °C 4,9 °C 89 % 1021,5 hPa 0,0 mm 0,0 km/h (0 Bft) W-SW 238 ° 0 min 0,000 mm 0,0 UV-I 0 W/m² 3,2 °C 4,9 °C 0,0 km/h (0 Bft)
08.06.2017 04:31 4,9 °C 4,9 °C 89 % 1021,6 hPa 0,0 mm 0,0 km/h (0 Bft) W-SW 238 ° 0 min 0,000 mm 0,0 UV-I 0 W/m² 3,2 °C 4,9 °C 0,0 km/h (0 Bft)
08.06.2017 04:32 4,9 °C 4,9 °C 89 % 1021,6 hPa 0,0 mm 0,6 km/h (0 Bft) W-SW 238 ° 0 min 0,000 mm 0,0 UV-I 0 W/m² 3,2 °C 4,9 °C 1,6 km/h (1 Bft)
08.06.2017 04:33 4,9 °C 4,9 °C 89 % 1021,6 hPa 0,0 mm 0,0 km/h (0 Bft) W-SW 238 ° 0 min 0,000 mm 0,0 UV-I 0 W/m² 3,2 °C 4,9 °C 0,0 km/h (0 Bft)
08.06.2017 04:34 4,8 °C 4,9 °C 89 % 1021,6 hPa 0,0 mm 0,0 km/h (0 Bft) W-SW 238 ° 0 min 0,000 mm 0,0 UV-I 0 W/m² 3,1 °C 4,8 °C 0,0 km/h (0 Bft)
08.06.2017 04:35 4,8 °C 4,8 °C 89 % 1021,6 hPa 0,0 mm 0,0 km/h (0 Bft) W-SW 238 ° 0 min 0,000 mm 0,0 UV-I 0 W/m² 3,1 °C 4,8 °C 0,0 km/h (0 Bft)
08.06.2017 04:36 4,8 °C 4,8 °C 89 % 1021,6 hPa 0,0 mm 0,0 km/h (0 Bft) W-SW 238 ° 0 min 0,000 mm 0,0 UV-I 0 W/m² 3,1 °C 4,8 °C 0,0 km/h (0 Bft)
08.06.2017 04:37 4,8 °C 4,8 °C 89 % 1021,7 hPa 0,0 mm 0,4 km/h (0 Bft) W-SW 238 ° 0 min 0,000 mm 0,0 UV-I 0 W/m² 3,1 °C 4,8 °C 1,6 km/h (1 Bft)
08.06.2017 04:38 4,8 °C 4,8 °C 89 % 1021,7 hPa 0,0 mm 0,6 km/h (0 Bft) W 259 ° 0 min 0,000 mm 0,0 UV-I 0 W/m² 3,1 °C 4,8 °C 3,2 km/h (1 Bft)
08.06.2017 04:39 4,8 °C 4,8 °C 89 % 1021,7 hPa 0,0 mm 0,0 km/h (0 Bft) W 259 ° 0 min 0,000 mm 0,0 UV-I 0 W/m² 3,1 °C 4,8 °C 0,0 km/h (0 Bft)
08.06.2017 04:40 4,7 °C 4,8 °C 89 % 1021,6 hPa 0,0 mm 0,0 km/h (0 Bft) W 259 ° 0 min 0,000 mm 0,0 UV-I 0 W/m² 3,0 °C 4,7 °C 0,0 km/h (0 Bft)
08.06.2017 04:41 4,7 °C 4,8 °C 89 % 1021,7 hPa 0,0 mm 0,2 km/h (0 Bft) W 259 ° 0 min 0,000 mm 0,0 UV-I 0 W/m² 3,0 °C 4,7 °C 1,6 km/h (1 Bft)
08.06.2017 04:42 4,7 °C 4,7 °C 89 % 1021,7 hPa 0,0 mm 0,0 km/h (0 Bft) W 259 ° 0 min 0,000 mm 0,0 UV-I 0 W/m² 3,0 °C 4,7 °C 0,0 km/h (0 Bft)
08.06.2017 04:43 4,7 °C 4,7 °C 89 % 1021,7 hPa 0,0 mm 0,0 km/h (0 Bft) W 259 ° 0 min 0,000 mm 0,0 UV-I 0 W/m² 3,0 °C 4,7 °C 0,0 km/h (0 Bft)
08.06.2017 04:44 4,7 °C 4,7 °C 89 % 1021,7 hPa 0,0 mm 0,0 km/h (0 Bft) W 259 ° 0 min 0,000 mm 0,0 UV-I 0 W/m² 3,0 °C 4,7 °C 0,0 km/h (0 Bft)
08.06.2017 04:45 4,7 °C 4,7 °C 89 % 1021,7 hPa 0,0 mm 0,0 km/h (0 Bft) W 259 ° 0 min 0,000 mm 0,0 UV-I 0 W/m² 3,0 °C 4,7 °C 0,0 km/h (0 Bft)
08.06.2017 04:46 4,6 °C 4,7 °C 89 % 1021,7 hPa 0,0 mm 0,0 km/h (0 Bft) W 259 ° 0 min 0,000 mm 0,0 UV-I 0 W/m² 2,9 °C 4,6 °C 0,0 km/h (0 Bft)
08.06.2017 04:47 4,6 °C 4,7 °C 89 % 1021,7 hPa 0,0 mm 0,0 km/h (0 Bft) W 259 ° 0 min 0,000 mm 0,0 UV-I 0 W/m² 2,9 °C 4,6 °C 0,0 km/h (0 Bft)
08.06.2017 04:48 4,6 °C 4,7 °C 89 % 1021,8 hPa 0,0 mm 0,0 km/h (0 Bft) W 259 ° 0 min 0,000 mm 0,0 UV-I 0 W/m² 2,9 °C 4,6 °C 0,0 km/h (0 Bft)
08.06.2017 04:49 4,7 °C 4,7 °C 89 % 1021,6 hPa 0,0 mm 0,0 km/h (0 Bft) W 259 ° 0 min 0,000 mm 0,0 UV-I 0 W/m² 3,0 °C 4,7 °C 0,0 km/h (0 Bft)
08.06.2017 04:50 4,6 °C 4,7 °C 89 % 1021,7 hPa 0,0 mm 0,0 km/h (0 Bft) W 259 ° 0 min 0,000 mm 0,0 UV-I 0 W/m² 2,9 °C 4,6 °C 0,0 km/h (0 Bft)
08.06.2017 04:51 4,6 °C 4,6 °C 89 % 1021,7 hPa 0,0 mm 0,0 km/h (0 Bft) W 259 ° 0 min 0,000 mm 0,0 UV-I 0 W/m² 2,9 °C 4,6 °C 0,0 km/h (0 Bft)
08.06.2017 04:52 4,6 °C 4,6 °C 89 % 1021,7 hPa 0,0 mm 0,0 km/h (0 Bft) W 259 ° 0 min 0,000 mm 0,0 UV-I 0 W/m² 2,9 °C 4,6 °C 0,0 km/h (0 Bft)
08.06.2017 04:53 4,5 °C 4,6 °C 89 % 1021,7 hPa 0,0 mm 0,0 km/h (0 Bft) W 259 ° 0 min 0,000 mm 0,0 UV-I 0 W/m² 2,8 °C 4,5 °C 0,0 km/h (0 Bft)
08.06.2017 04:54 4,5 °C 4,5 °C 89 % 1021,7 hPa 0,0 mm 0,0 km/h (0 Bft) W 259 ° 0 min 0,000 mm 0,0 UV-I 0 W/m² 2,8 °C 4,5 °C 0,0 km/h (0 Bft)
08.06.2017 04:55 4,4 °C 4,5 °C 89 % 1021,7 hPa 0,0 mm 0,0 km/h (0 Bft) W 259 ° 0 min 0,000 mm 0,0 UV-I 0 W/m² 2,7 °C 4,4 °C 0,0 km/h (0 Bft)
08.06.2017 04:56 4,3 °C 4,4 °C 89 % 1021,8 hPa 0,0 mm 0,0 km/h (0 Bft) W 259 ° 0 min 0,000 mm 0,0 UV-I 0 W/m² 2,7 °C 4,3 °C 0,0 km/h (0 Bft)
08.06.2017 04:57 4,3 °C 4,4 °C 89 % 1021,7 hPa 0,0 mm 0,0 km/h (0 Bft) W 259 ° 0 min 0,000 mm 0,0 UV-I 0 W/m² 2,7 °C 4,3 °C 0,0 km/h (0 Bft)
08.06.2017 04:58 4,3 °C 4,3 °C 89 % 1021,7 hPa 0,0 mm 0,0 km/h (0 Bft) W 259 ° 0 min 0,000 mm 0,0 UV-I 0 W/m² 2,7 °C 4,3 °C 0,0 km/h (0 Bft)
08.06.2017 04:59 4,2 °C 4,3 °C 89 % 1021,7 hPa 0,0 mm 0,0 km/h (0 Bft) W 259 ° 0 min 0,000 mm 0,0 UV-I 0 W/m² 2,6 °C 4,2 °C 0,0 km/h (0 Bft)
08.06.2017 05:00 4,2 °C 4,2 °C 89 % 1021,7 hPa 0,0 mm 0,0 km/h (0 Bft) W 259 ° 0 min 0,000 mm 0,0 UV-I 0 W/m² 2,6 °C 4,2 °C 0,0 km/h (0 Bft)
08.06.2017 05:01 4,2 °C 4,2 °C 89 % 1021,7 hPa 0,0 mm 0,0 km/h (0 Bft) W 259 ° 0 min 0,000 mm 0,0 UV-I 0 W/m² 2,6 °C 4,2 °C 0,0 km/h (0 Bft)
08.06.2017 05:02 4,2 °C 4,2 °C 90 % 1021,7 hPa 0,0 mm 0,0 km/h (0 Bft) W 259 ° 0 min 0,000 mm 0,0 UV-I 0 W/m² 2,7 °C 4,2 °C 0,0 km/h (0 Bft)
08.06.2017 05:03 4,2 °C 4,2 °C 90 % 1021,7 hPa 0,0 mm 0,0 km/h (0 Bft) W 259 ° 0 min 0,000 mm 0,0 UV-I 0 W/m² 2,7 °C 4,2 °C 0,0 km/h (0 Bft)
08.06.2017 05:04 4,2 °C 4,2 °C 90 % 1021,7 hPa 0,0 mm 0,0 km/h (0 Bft) W 259 ° 0 min 0,000 mm 0,0 UV-I 0 W/m² 2,7 °C 4,2 °C 0,0 km/h (0 Bft)
08.06.2017 05:05 4,2 °C 4,2 °C 90 % 1021,6 hPa 0,0 mm 0,0 km/h (0 Bft) W 259 ° 0 min 0,000 mm 0,0 UV-I 0 W/m² 2,7 °C 4,2 °C 0,0 km/h (0 Bft)
08.06.2017 05:06 4,2 °C 4,2 °C 90 % 1021,7 hPa 0,0 mm 0,0 km/h (0 Bft) W 259 ° 0 min 0,000 mm 0,0 UV-I 0 W/m² 2,7 °C 4,2 °C 0,0 km/h (0 Bft)
08.06.2017 05:07 4,2 °C 4,2 °C 90 % 1021,7 hPa 0,0 mm 0,0 km/h (0 Bft) W 259 ° 0 min 0,000 mm 0,0 UV-I 0 W/m² 2,7 °C 4,2 °C 0,0 km/h (0 Bft)
08.06.2017 05:08 4,2 °C 4,2 °C 90 % 1021,7 hPa 0,0 mm 0,0 km/h (0 Bft) W 259 ° 0 min 0,000 mm 0,0 UV-I 0 W/m² 2,7 °C 4,2 °C 0,0 km/h (0 Bft)
08.06.2017 05:09 4,2 °C 4,2 °C 90 % 1021,6 hPa 0,0 mm 0,0 km/h (0 Bft) W 259 ° 0 min 0,000 mm 0,0 UV-I 0 W/m² 2,7 °C 4,2 °C 0,0 km/h (0 Bft)
08.06.2017 05:10 4,2 °C 4,2 °C 90 % 1021,7 hPa 0,0 mm 0,0 km/h (0 Bft) W 259 ° 0 min 0,000 mm 0,0 UV-I 0 W/m² 2,7 °C 4,2 °C 0,0 km/h (0 Bft)
08.06.2017 05:11 4,2 °C 4,2 °C 90 % 1021,7 hPa 0,0 mm 0,0 km/h (0 Bft) W 259 ° 0 min 0,000 mm 0,0 UV-I 0 W/m² 2,7 °C 4,2 °C 0,0 km/h (0 Bft)
08.06.2017 05:12 4,2 °C 4,2 °C 90 % 1021,7 hPa 0,0 mm 0,0 km/h (0 Bft) W 259 ° 0 min 0,000 mm 0,0 UV-I 0 W/m² 2,7 °C 4,2 °C 0,0 km/h (0 Bft)
08.06.2017 05:13 4,1 °C 4,2 °C 90 % 1021,7 hPa 0,0 mm 0,0 km/h (0 Bft) W 259 ° 0 min 0,000 mm 0,0 UV-I 0 W/m² 2,6 °C 4,1 °C 0,0 km/h (0 Bft)
08.06.2017 05:14 4,1 °C 4,1 °C 90 % 1021,6 hPa 0,0 mm 0,0 km/h (0 Bft) W 259 ° 0 min 0,000 mm 0,0 UV-I 0 W/m² 2,6 °C 4,1 °C 0,0 km/h (0 Bft)
08.06.2017 05:15 4,1 °C 4,1 °C 90 % 1021,6 hPa 0,0 mm 0,0 km/h (0 Bft) W 259 ° 0 min 0,000 mm 0,0 UV-I 0 W/m² 2,6 °C 4,1 °C 0,0 km/h (0 Bft)
08.06.2017 05:16 4,1 °C 4,1 °C 91 % 1021,6 hPa 0,0 mm 0,0 km/h (0 Bft) W 259 ° 0 min 0,000 mm 0,0 UV-I 0 W/m² 2,8 °C 4,1 °C 0,0 km/h (0 Bft)
08.06.2017 05:17 4,1 °C 4,1 °C 90 % 1021,7 hPa 0,0 mm 0,0 km/h (0 Bft) W 259 ° 0 min 0,000 mm 0,0 UV-I 0 W/m² 2,6 °C 4,1 °C 0,0 km/h (0 Bft)
08.06.2017 05:18 4,0 °C 4,1 °C 90 % 1021,6 hPa 0,0 mm 0,0 km/h (0 Bft) W 259 ° 0 min 0,000 mm 0,0 UV-I 0 W/m² 2,5 °C 4,0 °C 0,0 km/h (0 Bft)
08.06.2017 05:19 3,9 °C 4,0 °C 90 % 1021,5 hPa 0,0 mm 0,0 km/h (0 Bft) W 259 ° 0 min 0,000 mm 0,0 UV-I 0 W/m² 2,4 °C 3,9 °C 0,0 km/h (0 Bft)
08.06.2017 05:20 3,9 °C 3,9 °C 90 % 1021,5 hPa 0,0 mm 0,0 km/h (0 Bft) W 259 ° 0 min 0,000 mm 0,0 UV-I 0 W/m² 2,4 °C 3,9 °C 0,0 km/h (0 Bft)
08.06.2017 05:21 3,9 °C 3,9 °C 91 % 1021,6 hPa 0,0 mm 0,0 km/h (0 Bft) W 259 ° 0 min 0,000 mm 0,0 UV-I 0 W/m² 2,6 °C 3,9 °C 0,0 km/h (0 Bft)
08.06.2017 05:22 3,8 °C 3,9 °C 91 % 1021,6 hPa 0,0 mm 0,0 km/h (0 Bft) W 259 ° 0 min 0,000 mm 0,0 UV-I 5 W/m² 2,5 °C 3,8 °C 0,0 km/h (0 Bft)
08.06.2017 05:23 3,8 °C 3,9 °C 91 % 1021,6 hPa 0,0 mm 0,0 km/h (0 Bft) W 259 ° 0 min 0,000 mm 0,0 UV-I 5 W/m² 2,5 °C 3,8 °C 0,0 km/h (0 Bft)
08.06.2017 05:24 3,8 °C 3,8 °C 91 % 1021,6 hPa 0,0 mm 0,0 km/h (0 Bft) W 259 ° 0 min 0,000 mm 0,0 UV-I 5 W/m² 2,5 °C 3,8 °C 0,0 km/h (0 Bft)
08.06.2017 05:25 3,8 °C 3,8 °C 91 % 1021,6 hPa 0,0 mm 0,0 km/h (0 Bft) W 259 ° 0 min 0,000 mm 0,0 UV-I 5 W/m² 2,5 °C 3,8 °C 0,0 km/h (0 Bft)
08.06.2017 05:26 3,7 °C 3,8 °C 91 % 1021,6 hPa 0,0 mm 0,0 km/h (0 Bft) W 259 ° 0 min 0,000 mm 0,0 UV-I 5 W/m² 2,4 °C 3,7 °C 0,0 km/h (0 Bft)
08.06.2017 05:27 3,7 °C 3,7 °C 91 % 1021,5 hPa 0,0 mm 0,0 km/h (0 Bft) W 259 ° 0 min 0,000 mm 0,0 UV-I 7 W/m² 2,4 °C 3,7 °C 0,0 km/h (0 Bft)
08.06.2017 05:28 3,7 °C 3,7 °C 91 % 1021,5 hPa 0,0 mm 0,0 km/h (0 Bft) W 259 ° 0 min 0,000 mm 0,0 UV-I 7 W/m² 2,4 °C 3,7 °C 0,0 km/h (0 Bft)
08.06.2017 05:29 3,7 °C 3,7 °C 91 % 1021,5 hPa 0,0 mm 0,0 km/h (0 Bft) W 259 ° 0 min 0,000 mm 0,0 UV-I 7 W/m² 2,4 °C 3,7 °C 0,0 km/h (0 Bft)
08.06.2017 05:30 3,7 °C 3,7 °C 91 % 1021,6 hPa 0,0 mm 0,0 km/h (0 Bft) W 259 ° 0 min 0,000 mm 0,0 UV-I 9 W/m² 2,4 °C 3,7 °C 0,0 km/h (0 Bft)
08.06.2017 05:31 3,6 °C 3,7 °C 91 % 1021,5 hPa 0,0 mm 0,0 km/h (0 Bft) W 259 ° 0 min 0,000 mm 0,0 UV-I 9 W/m² 2,3 °C 3,6 °C 0,0 km/h (0 Bft)
08.06.2017 05:32 3,6 °C 3,6 °C 91 % 1021,6 hPa 0,0 mm 0,0 km/h (0 Bft) W 259 ° 0 min 0,000 mm 0,0 UV-I 9 W/m² 2,3 °C 3,6 °C 0,0 km/h (0 Bft)
08.06.2017 05:33 3,6 °C 3,6 °C 91 % 1021,6 hPa 0,0 mm 0,0 km/h (0 Bft) W 259 ° 0 min 0,000 mm 0,0 UV-I 11 W/m² 2,3 °C 3,6 °C 0,0 km/h (0 Bft)
08.06.2017 05:34 3,6 °C 3,6 °C 91 % 1021,5 hPa 0,0 mm 0,0 km/h (0 Bft) W 259 ° 0 min 0,000 mm 0,0 UV-I 11 W/m² 2,3 °C 3,6 °C 0,0 km/h (0 Bft)
08.06.2017 05:35 3,6 °C 3,6 °C 91 % 1021,5 hPa 0,0 mm 0,0 km/h (0 Bft) W 259 ° 0 min 0,000 mm 0,0 UV-I 11 W/m² 2,3 °C 3,6 °C 0,0 km/h (0 Bft)
08.06.2017 05:36 3,5 °C 3,6 °C 91 % 1021,5 hPa 0,0 mm 0,0 km/h (0 Bft) W 259 ° 0 min 0,000 mm 0,0 UV-I 12 W/m² 2,2 °C 3,5 °C 0,0 km/h (0 Bft)
08.06.2017 05:37 3,4 °C 3,5 °C 91 % 1021,5 hPa 0,0 mm 0,0 km/h (0 Bft) W 259 ° 0 min 0,000 mm 0,0 UV-I 12 W/m² 2,1 °C 3,4 °C 0,0 km/h (0 Bft)
08.06.2017 05:38 3,4 °C 3,4 °C 91 % 1021,5 hPa 0,0 mm 0,1 km/h (0 Bft) NO 39 ° 0 min 0,000 mm 0,0 UV-I 12 W/m² 2,1 °C 3,4 °C 1,6 km/h (1 Bft)
08.06.2017 05:39 3,4 °C 3,4 °C 92 % 1021,5 hPa 0,0 mm 0,0 km/h (0 Bft) NO 39 ° 0 min 0,000 mm 0,0 UV-I 14 W/m² 2,2 °C 3,4 °C 0,0 km/h (0 Bft)
08.06.2017 05:40 3,4 °C 3,4 °C 92 % 1021,5 hPa 0,0 mm 0,0 km/h (0 Bft) NO 39 ° 0 min 0,000 mm 0,0 UV-I 14 W/m² 2,2 °C 3,4 °C 0,0 km/h (0 Bft)
08.06.2017 05:41 3,3 °C 3,4 °C 92 % 1021,4 hPa 0,0 mm 0,0 km/h (0 Bft) NO 39 ° 0 min 0,000 mm 0,0 UV-I 14 W/m² 2,1 °C 3,3 °C 0,0 km/h (0 Bft)
08.06.2017 05:42 3,3 °C 3,3 °C 92 % 1021,5 hPa 0,0 mm 0,0 km/h (0 Bft) NO 39 ° 0 min 0,000 mm 0,0 UV-I 14 W/m² 2,1 °C 3,3 °C 0,0 km/h (0 Bft)
08.06.2017 05:43 3,3 °C 3,3 °C 92 % 1021,4 hPa 0,0 mm 0,0 km/h (0 Bft) NO 39 ° 0 min 0,000 mm 0,0 UV-I 14 W/m² 2,1 °C 3,3 °C 0,0 km/h (0 Bft)
08.06.2017 05:44 3,4 °C 3,4 °C 92 % 1021,4 hPa 0,0 mm 0,0 km/h (0 Bft) NO 39 ° 0 min 0,000 mm 0,0 UV-I 14 W/m² 2,2 °C 3,4 °C 0,0 km/h (0 Bft)
08.06.2017 05:45 3,4 °C 3,4 °C 92 % 1021,4 hPa 0,0 mm 0,0 km/h (0 Bft) NO 39 ° 0 min 0,000 mm 0,0 UV-I 16 W/m² 2,2 °C 3,4 °C 0,0 km/h (0 Bft)
08.06.2017 05:46 3,4 °C 3,4 °C 92 % 1021,4 hPa 0,0 mm 0,0 km/h (0 Bft) NO 39 ° 0 min 0,000 mm 0,0 UV-I 16 W/m² 2,2 °C 3,4 °C 0,0 km/h (0 Bft)
08.06.2017 05:47 3,4 °C 3,4 °C 92 % 1021,4 hPa 0,0 mm 0,0 km/h (0 Bft) NO 39 ° 0 min 0,000 mm 0,0 UV-I 18 W/m² 2,2 °C 3,4 °C 0,0 km/h (0 Bft)
08.06.2017 05:48 3,4 °C 3,4 °C 92 % 1021,4 hPa 0,0 mm 0,0 km/h (0 Bft) NO 39 ° 0 min 0,000 mm 0,0 UV-I 18 W/m² 2,2 °C 3,4 °C 0,0 km/h (0 Bft)
08.06.2017 05:49 3,5 °C 3,5 °C 92 % 1021,4 hPa 0,0 mm 0,0 km/h (0 Bft) NO 39 ° 0 min 0,000 mm 0,0 UV-I 18 W/m² 2,3 °C 3,5 °C 0,0 km/h (0 Bft)
08.06.2017 05:50 3,5 °C 3,5 °C 92 % 1021,4 hPa 0,0 mm 0,0 km/h (0 Bft) NO 39 ° 0 min 0,000 mm 0,0 UV-I 18 W/m² 2,3 °C 3,5 °C 0,0 km/h (0 Bft)
08.06.2017 05:51 3,6 °C 3,6 °C 92 % 1021,4 hPa 0,0 mm 0,0 km/h (0 Bft) NO 39 ° 0 min 0,000 mm 0,0 UV-I 19 W/m² 2,4 °C 3,6 °C 0,0 km/h (0 Bft)
08.06.2017 05:52 3,6 °C 3,6 °C 92 % 1021,4 hPa 0,0 mm 0,0 km/h (0 Bft) NO 39 ° 0 min 0,000 mm 0,0 UV-I 21 W/m² 2,4 °C 3,6 °C 0,0 km/h (0 Bft)
08.06.2017 05:53 3,6 °C 3,6 °C 92 % 1021,4 hPa 0,0 mm 0,0 km/h (0 Bft) NO 39 ° 0 min 0,000 mm 0,0 UV-I 21 W/m² 2,4 °C 3,6 °C 0,0 km/h (0 Bft)
08.06.2017 05:54 3,7 °C 3,7 °C 92 % 1021,4 hPa 0,0 mm 0,0 km/h (0 Bft) NO 39 ° 0 min 0,000 mm 0,0 UV-I 21 W/m² 2,5 °C 3,7 °C 0,0 km/h (0 Bft)
08.06.2017 05:55 3,7 °C 3,7 °C 92 % 1021,4 hPa 0,0 mm 0,0 km/h (0 Bft) NO 39 ° 0 min 0,000 mm 0,0 UV-I 21 W/m² 2,5 °C 3,7 °C 0,0 km/h (0 Bft)
08.06.2017 05:56 3,8 °C 3,8 °C 92 % 1021,4 hPa 0,0 mm 0,0 km/h (0 Bft) NO 39 ° 0 min 0,000 mm 0,0 UV-I 23 W/m² 2,6 °C 3,8 °C 0,0 km/h (0 Bft)
08.06.2017 05:57 3,8 °C 3,8 °C 92 % 1021,4 hPa 0,0 mm 0,0 km/h (0 Bft) NO 39 ° 0 min 0,000 mm 0,0 UV-I 28 W/m² 2,6 °C 3,8 °C 0,0 km/h (0 Bft)
08.06.2017 05:58 3,8 °C 3,8 °C 92 % 1021,4 hPa 0,0 mm 0,0 km/h (0 Bft) NO 39 ° 0 min 0,000 mm 0,0 UV-I 28 W/m² 2,6 °C 3,8 °C 0,0 km/h (0 Bft)
08.06.2017 05:59 3,9 °C 3,9 °C 92 % 1021,4 hPa 0,0 mm 0,0 km/h (0 Bft) NO 39 ° 0 min 0,000 mm 0,0 UV-I 30 W/m² 2,7 °C 3,9 °C 0,0 km/h (0 Bft)
08.06.2017 06:00 4,1 °C 4,1 °C 92 % 1021,4 hPa 0,0 mm 0,0 km/h (0 Bft) NO 39 ° 0 min 0,000 mm 0,0 UV-I 35 W/m² 2,9 °C 4,1 °C 0,0 km/h (0 Bft)
08.06.2017 06:01 4,2 °C 4,2 °C 92 % 1021,4 hPa 0,0 mm 0,0 km/h (0 Bft) NO 39 ° 0 min 0,000 mm 0,0 UV-I 40 W/m² 3,0 °C 4,2 °C 0,0 km/h (0 Bft)
08.06.2017 06:02 4,2 °C 4,2 °C 91 % 1021,4 hPa 0,0 mm 0,0 km/h (0 Bft) NO 39 ° 0 min 0,000 mm 0,0 UV-I 44 W/m² 2,9 °C 4,2 °C 0,0 km/h (0 Bft)
08.06.2017 06:03 4,3 °C 4,3 °C 91 % 1021,5 hPa 0,0 mm 0,0 km/h (0 Bft) NO 39 ° 0 min 0,000 mm 0,0 UV-I 46 W/m² 3,0 °C 4,3 °C 0,0 km/h (0 Bft)
08.06.2017 06:04 4,4 °C 4,4 °C 91 % 1021,4 hPa 0,0 mm 0,0 km/h (0 Bft) NO 39 ° 0 min 0,000 mm 0,0 UV-I 44 W/m² 3,1 °C 4,4 °C 0,0 km/h (0 Bft)
08.06.2017 06:05 4,5 °C 4,5 °C 90 % 1021,4 hPa 0,0 mm 0,0 km/h (0 Bft) NO 39 ° 0 min 0,000 mm 0,0 UV-I 42 W/m² 3,0 °C 4,5 °C 0,0 km/h (0 Bft)
08.06.2017 06:06 4,6 °C 4,6 °C 90 % 1021,4 hPa 0,0 mm 0,0 km/h (0 Bft) NO 39 ° 0 min 0,000 mm 0,0 UV-I 44 W/m² 3,1 °C 4,6 °C 0,0 km/h (0 Bft)
08.06.2017 06:07 4,7 °C 4,7 °C 89 % 1021,5 hPa 0,0 mm 0,0 km/h (0 Bft) NO 39 ° 0 min 0,000 mm 0,0 UV-I 46 W/m² 3,0 °C 4,7 °C 0,0 km/h (0 Bft)
08.06.2017 06:08 4,7 °C 4,7 °C 89 % 1021,5 hPa 0,0 mm 0,0 km/h (0 Bft) NO 39 ° 0 min 0,000 mm 0,0 UV-I 47 W/m² 3,0 °C 4,7 °C 0,0 km/h (0 Bft)
08.06.2017 06:09 4,8 °C 4,8 °C 89 % 1021,5 hPa 0,0 mm 0,0 km/h (0 Bft) NO 39 ° 0 min 0,000 mm 0,0 UV-I 49 W/m² 3,1 °C 4,8 °C 0,0 km/h (0 Bft)
08.06.2017 06:10 4,8 °C 4,8 °C 89 % 1021,6 hPa 0,0 mm 0,0 km/h (0 Bft) NO 39 ° 0 min 0,000 mm 0,0 UV-I 47 W/m² 3,1 °C 4,8 °C 0,0 km/h (0 Bft)
08.06.2017 06:11 4,9 °C 4,9 °C 89 % 1021,5 hPa 0,0 mm 0,0 km/h (0 Bft) NO 39 ° 0 min 0,000 mm 0,0 UV-I 47 W/m² 3,2 °C 4,9 °C 0,0 km/h (0 Bft)
08.06.2017 06:12 4,9 °C 4,9 °C 88 % 1021,5 hPa 0,0 mm 0,0 km/h (0 Bft) NO 39 ° 0 min 0,000 mm 0,0 UV-I 53 W/m² 3,1 °C 4,9 °C 0,0 km/h (0 Bft)
08.06.2017 06:13 5,0 °C 5,0 °C 88 % 1021,5 hPa 0,0 mm 0,0 km/h (0 Bft) NO 39 ° 0 min 0,000 mm 0,0 UV-I 58 W/m² 3,2 °C 5,0 °C 0,0 km/h (0 Bft)
08.06.2017 06:14 5,0 °C 5,0 °C 88 % 1021,5 hPa 0,0 mm 0,0 km/h (0 Bft) NO 39 ° 0 min 0,000 mm 0,0 UV-I 58 W/m² 3,2 °C 5,0 °C 0,0 km/h (0 Bft)
08.06.2017 06:15 5,1 °C 5,1 °C 88 % 1021,5 hPa 0,0 mm 0,0 km/h (0 Bft) NO 39 ° 0 min 0,000 mm 0,0 UV-I 60 W/m² 3,3 °C 5,1 °C 0,0 km/h (0 Bft)
08.06.2017 06:16 5,1 °C 5,1 °C 88 % 1021,5 hPa 0,0 mm 0,0 km/h (0 Bft) NO 39 ° 0 min 0,000 mm 0,0 UV-I 62 W/m² 3,3 °C 5,1 °C 0,0 km/h (0 Bft)
08.06.2017 06:17 5,2 °C 5,2 °C 88 % 1021,5 hPa 0,0 mm 0,0 km/h (0 Bft) NO 39 ° 0 min 0,000 mm 0,0 UV-I 63 W/m² 3,4 °C 5,2 °C 0,0 km/h (0 Bft)
08.06.2017 06:18 5,1 °C 5,2 °C 88 % 1021,5 hPa 0,0 mm 0,0 km/h (0 Bft) NO 39 ° 0 min 0,000 mm 0,0 UV-I 67 W/m² 3,3 °C 5,1 °C 0,0 km/h (0 Bft)
08.06.2017 06:19 5,1 °C 5,1 °C 87 % 1021,5 hPa 0,0 mm 0,0 km/h (0 Bft) NO 39 ° 0 min 0,000 mm 0,0 UV-I 69 W/m² 3,1 °C 5,1 °C 0,0 km/h (0 Bft)
08.06.2017 06:20 5,1 °C 5,1 °C 88 % 1021,5 hPa 0,0 mm 0,0 km/h (0 Bft) NO 39 ° 0 min 0,000 mm 0,0 UV-I 74 W/m² 3,3 °C 5,1 °C 0,0 km/h (0 Bft)
08.06.2017 06:21 5,1 °C 5,1 °C 88 % 1021,5 hPa 0,0 mm 0,0 km/h (0 Bft) NO 39 ° 0 min 0,000 mm 0,0 UV-I 77 W/m² 3,3 °C 5,1 °C 0,0 km/h (0 Bft)
08.06.2017 06:22 5,1 °C 5,1 °C 88 % 1021,5 hPa 0,0 mm 0,0 km/h (0 Bft) NO 39 ° 0 min 0,000 mm 0,0 UV-I 79 W/m² 3,3 °C 5,1 °C 0,0 km/h (0 Bft)
08.06.2017 06:23 5,1 °C 5,1 °C 87 % 1021,5 hPa 0,0 mm 0,0 km/h (0 Bft) NO 39 ° 0 min 0,000 mm 0,0 UV-I 83 W/m² 3,1 °C 5,1 °C 0,0 km/h (0 Bft)
08.06.2017 06:24 5,1 °C 5,1 °C 88 % 1021,4 hPa 0,0 mm 0,0 km/h (0 Bft) NO 39 ° 0 min 0,000 mm 0,0 UV-I 84 W/m² 3,3 °C 5,1 °C 0,0 km/h (0 Bft)
08.06.2017 06:25 5,1 °C 5,1 °C 88 % 1021,4 hPa 0,0 mm 0,0 km/h (0 Bft) NO 39 ° 0 min 0,000 mm 0,0 UV-I 86 W/m² 3,3 °C 5,1 °C 0,0 km/h (0 Bft)
08.06.2017 06:26 5,2 °C 5,2 °C 88 % 1021,4 hPa 0,0 mm 0,0 km/h (0 Bft) NO 39 ° 0 min 0,000 mm 0,0 UV-I 93 W/m² 3,4 °C 5,2 °C 0,0 km/h (0 Bft)
08.06.2017 06:27 5,3 °C 5,3 °C 88 % 1021,4 hPa 0,0 mm 0,0 km/h (0 Bft) NO 39 ° 0 min 0,000 mm 0,0 UV-I 95 W/m² 3,5 °C 5,3 °C 0,0 km/h (0 Bft)
08.06.2017 06:28 5,3 °C 5,3 °C 88 % 1021,4 hPa 0,0 mm 0,0 km/h (0 Bft) NO 39 ° 0 min 0,000 mm 0,0 UV-I 98 W/m² 3,5 °C 5,3 °C 0,0 km/h (0 Bft)
08.06.2017 06:29 5,4 °C 5,4 °C 88 % 1021,4 hPa 0,0 mm 0,0 km/h (0 Bft) NO 39 ° 0 min 0,000 mm 0,0 UV-I 98 W/m² 3,6 °C 5,4 °C 0,0 km/h (0 Bft)
08.06.2017 06:30 5,6 °C 5,6 °C 88 % 1021,4 hPa 0,0 mm 0,0 km/h (0 Bft) NO 39 ° 0 min 0,000 mm 0,0 UV-I 102 W/m² 3,8 °C 5,6 °C 0,0 km/h (0 Bft)
08.06.2017 06:31 5,6 °C 5,6 °C 88 % 1021,4 hPa 0,0 mm 0,0 km/h (0 Bft) NO 39 ° 0 min 0,000 mm 0,0 UV-I 105 W/m² 3,8 °C 5,6 °C 0,0 km/h (0 Bft)
08.06.2017 06:32 5,7 °C 5,7 °C 88 % 1021,4 hPa 0,0 mm 0,0 km/h (0 Bft) NO 39 ° 0 min 0,000 mm 0,0 UV-I 111 W/m² 3,9 °C 5,7 °C 0,0 km/h (0 Bft)
08.06.2017 06:33 5,8 °C 5,8 °C 87 % 1021,3 hPa 0,0 mm 0,0 km/h (0 Bft) NO 39 ° 0 min 0,000 mm 0,0 UV-I 113 W/m² 3,8 °C 5,8 °C 0,0 km/h (0 Bft)
08.06.2017 06:34 5,8 °C 5,8 °C 87 % 1021,4 hPa 0,0 mm 0,0 km/h (0 Bft) NO 39 ° 0 min 0,000 mm 0,0 UV-I 116 W/m² 3,8 °C 5,8 °C 0,0 km/h (0 Bft)
08.06.2017 06:35 5,9 °C 5,9 °C 86 % 1021,4 hPa 0,0 mm 0,0 km/h (0 Bft) NO 39 ° 0 min 0,000 mm 0,0 UV-I 120 W/m² 3,7 °C 5,9 °C 0,0 km/h (0 Bft)
08.06.2017 06:36 5,9 °C 5,9 °C 86 % 1021,3 hPa 0,0 mm 0,0 km/h (0 Bft) NO 39 ° 0 min 0,000 mm 0,0 UV-I 121 W/m² 3,7 °C 5,9 °C 0,0 km/h (0 Bft)
08.06.2017 06:37 5,8 °C 5,9 °C 86 % 1021,3 hPa 0,0 mm 0,0 km/h (0 Bft) NO 39 ° 0 min 0,000 mm 0,0 UV-I 125 W/m² 3,6 °C 5,8 °C 0,0 km/h (0 Bft)
08.06.2017 06:38 5,8 °C 5,8 °C 86 % 1021,3 hPa 0,0 mm 0,0 km/h (0 Bft) NO 39 ° 0 min 0,000 mm 0,5 UV-I 130 W/m² 3,6 °C 5,8 °C 0,0 km/h (0 Bft)
08.06.2017 06:39 5,8 °C 5,8 °C 86 % 1021,3 hPa 0,0 mm 0,0 km/h (0 Bft) NO 39 ° 0 min 0,000 mm 0,5 UV-I 134 W/m² 3,6 °C 5,8 °C 0,0 km/h (0 Bft)
08.06.2017 06:40 5,9 °C 5,9 °C 86 % 1021,3 hPa 0,0 mm 0,0 km/h (0 Bft) NO 39 ° 0 min 0,000 mm 0,5 UV-I 135 W/m² 3,7 °C 5,9 °C 0,0 km/h (0 Bft)
08.06.2017 06:41 5,9 °C 5,9 °C 87 % 1021,3 hPa 0,0 mm 0,0 km/h (0 Bft) NO 39 ° 0 min 0,000 mm 0,5 UV-I 137 W/m² 3,9 °C 5,9 °C 0,0 km/h (0 Bft)
08.06.2017 06:42 6,1 °C 6,1 °C 86 % 1021,3 hPa 0,0 mm 0,0 km/h (0 Bft) NO 39 ° 0 min 0,000 mm 0,5 UV-I 139 W/m² 3,9 °C 6,1 °C 0,0 km/h (0 Bft)
08.06.2017 06:43 6,1 °C 6,1 °C 86 % 1021,3 hPa 0,0 mm 0,0 km/h (0 Bft) NO 39 ° 0 min 0,000 mm 0,5 UV-I 141 W/m² 3,9 °C 6,1 °C 0,0 km/h (0 Bft)
08.06.2017 06:44 6,1 °C 6,1 °C 86 % 1021,3 hPa 0,0 mm 0,0 km/h (0 Bft) NO 39 ° 0 min 0,000 mm 0,5 UV-I 146 W/m² 3,9 °C 6,1 °C 0,0 km/h (0 Bft)
08.06.2017 06:45 6,2 °C 6,2 °C 86 % 1021,3 hPa 0,0 mm 0,0 km/h (0 Bft) NO 39 ° 0 min 0,000 mm 0,5 UV-I 148 W/m² 4,0 °C 6,2 °C 0,0 km/h (0 Bft)
08.06.2017 06:46 6,3 °C 6,3 °C 86 % 1021,3 hPa 0,0 mm 0,0 km/h (0 Bft) NO 39 ° 0 min 0,000 mm 0,5 UV-I 149 W/m² 4,1 °C 6,3 °C 0,0 km/h (0 Bft)
08.06.2017 06:47 6,4 °C 6,4 °C 87 % 1021,3 hPa 0,0 mm 0,0 km/h (0 Bft) NO 39 ° 0 min 0,000 mm 0,6 UV-I 153 W/m² 4,4 °C 6,4 °C 0,0 km/h (0 Bft)
08.06.2017 06:48 6,4 °C 6,4 °C 88 % 1021,3 hPa 0,0 mm 0,0 km/h (0 Bft) NO 39 ° 0 min 0,000 mm 0,6 UV-I 153 W/m² 4,6 °C 6,4 °C 0,0 km/h (0 Bft)
08.06.2017 06:49 6,6 °C 6,6 °C 87 % 1021,3 hPa 0,0 mm 0,0 km/h (0 Bft) NO 39 ° 0 min 0,000 mm 0,6 UV-I 156 W/m² 4,6 °C 6,6 °C 0,0 km/h (0 Bft)
08.06.2017 06:50 6,7 °C 6,7 °C 87 % 1021,3 hPa 0,0 mm 0,1 km/h (0 Bft) NO 39 ° 0 min 0,000 mm 0,6 UV-I 144 W/m² 4,7 °C 6,7 °C 1,6 km/h (1 Bft)
08.06.2017 06:51 6,8 °C 6,8 °C 87 % 1021,2 hPa 0,0 mm 0,7 km/h (0 Bft) NO 39 ° 0 min 0,000 mm 0,6 UV-I 165 W/m² 4,8 °C 6,8 °C 1,6 km/h (1 Bft)
08.06.2017 06:52 6,9 °C 6,9 °C 88 % 1021,2 hPa 0,0 mm 0,0 km/h (0 Bft) NO 39 ° 0 min 0,000 mm 0,6 UV-I 169 W/m² 5,1 °C 6,9 °C 0,0 km/h (0 Bft)
08.06.2017 06:53 7,1 °C 7,1 °C 87 % 1021,2 hPa 0,0 mm 0,0 km/h (0 Bft) NO 39 ° 0 min 0,000 mm 0,6 UV-I 171 W/m² 5,1 °C 7,1 °C 0,0 km/h (0 Bft)
08.06.2017 06:54 7,1 °C 7,1 °C 86 % 1021,1 hPa 0,0 mm 0,0 km/h (0 Bft) NO 39 ° 0 min 0,000 mm 0,6 UV-I 172 W/m² 4,9 °C 7,1 °C 0,0 km/h (0 Bft)
08.06.2017 06:55 7,1 °C 7,1 °C 85 % 1021,2 hPa 0,0 mm 0,0 km/h (0 Bft) NO 39 ° 0 min 0,000 mm 0,6 UV-I 176 W/m² 4,8 °C 7,1 °C 0,0 km/h (0 Bft)
08.06.2017 06:56 7,1 °C 7,2 °C 85 % 1021,2 hPa 0,0 mm 0,0 km/h (0 Bft) NO 39 ° 0 min 0,000 mm 0,7 UV-I 178 W/m² 4,8 °C 7,1 °C 0,0 km/h (0 Bft)
08.06.2017 06:57 7,2 °C 7,2 °C 86 % 1021,1 hPa 0,0 mm 0,0 km/h (0 Bft) NO 39 ° 0 min 0,000 mm 0,7 UV-I 178 W/m² 5,0 °C 7,2 °C 0,0 km/h (0 Bft)
08.06.2017 06:58 7,2 °C 7,2 °C 88 % 1021,1 hPa 0,0 mm 0,0 km/h (0 Bft) NO 39 ° 0 min 0,000 mm 0,7 UV-I 179 W/m² 5,3 °C 7,2 °C 0,0 km/h (0 Bft)
08.06.2017 06:59 7,3 °C 7,3 °C 87 % 1021,1 hPa 0,0 mm 0,0 km/h (0 Bft) NO 39 ° 0 min 0,000 mm 0,7 UV-I 179 W/m² 5,3 °C 7,3 °C 0,0 km/h (0 Bft)
08.06.2017 07:00 7,6 °C 7,6 °C 88 % 1021,1 hPa 0,0 mm 0,0 km/h (0 Bft) NO 39 ° 0 min 0,051 mm 0,7 UV-I 179 W/m² 5,7 °C 7,6 °C 0,0 km/h (0 Bft)
08.06.2017 07:01 7,6 °C 7,6 °C 87 % 1021,1 hPa 0,0 mm 0,0 km/h (0 Bft) NO 39 ° 0 min 0,000 mm 0,7 UV-I 179 W/m² 5,6 °C 7,6 °C 0,0 km/h (0 Bft)
08.06.2017 07:02 7,6 °C 7,6 °C 85 % 1021,1 hPa 0,0 mm 0,0 km/h (0 Bft) NO 39 ° 0 min 0,000 mm 0,8 UV-I 179 W/m² 5,2 °C 7,6 °C 0,0 km/h (0 Bft)
08.06.2017 07:03 7,6 °C 7,6 °C 85 % 1021,2 hPa 0,0 mm 0,0 km/h (0 Bft) NO 39 ° 0 min 0,000 mm 0,8 UV-I 179 W/m² 5,2 °C 7,6 °C 0,0 km/h (0 Bft)
08.06.2017 07:04 7,6 °C 7,6 °C 85 % 1021,1 hPa 0,0 mm 0,0 km/h (0 Bft) NO 39 ° 0 min 0,000 mm 0,8 UV-I 179 W/m² 5,2 °C 7,6 °C 0,0 km/h (0 Bft)
08.06.2017 07:05 7,6 °C 7,6 °C 85 % 1021,0 hPa 0,0 mm 0,0 km/h (0 Bft) NO 39 ° 0 min 0,000 mm 0,8 UV-I 178 W/m² 5,2 °C 7,6 °C 0,0 km/h (0 Bft)
08.06.2017 07:06 7,6 °C 7,6 °C 86 % 1021,0 hPa 0,0 mm 0,0 km/h (0 Bft) NO 39 ° 0 min 0,000 mm 0,8 UV-I 176 W/m² 5,4 °C 7,6 °C 0,0 km/h (0 Bft)
08.06.2017 07:07 7,6 °C 7,6 °C 86 % 1021,1 hPa 0,0 mm 0,0 km/h (0 Bft) NO 39 ° 0 min 0,000 mm 0,8 UV-I 171 W/m² 5,4 °C 7,6 °C 0,0 km/h (0 Bft)
08.06.2017 07:08 7,6 °C 7,6 °C 86 % 1021,1 hPa 0,0 mm 0,0 km/h (0 Bft) NO 39 ° 0 min 0,000 mm 0,8 UV-I 165 W/m² 5,4 °C 7,6 °C 0,0 km/h (0 Bft)
08.06.2017 07:09 7,7 °C 7,7 °C 85 % 1021,0 hPa 0,0 mm 0,0 km/h (0 Bft) NO 39 ° 0 min 0,000 mm 0,8 UV-I 162 W/m² 5,3 °C 7,7 °C 0,0 km/h (0 Bft)
08.06.2017 07:10 7,7 °C 7,7 °C 86 % 1021,0 hPa 0,0 mm 0,0 km/h (0 Bft) NO 39 ° 0 min 0,000 mm 0,8 UV-I 160 W/m² 5,5 °C 7,7 °C 0,0 km/h (0 Bft)
08.06.2017 07:11 7,8 °C 7,8 °C 85 % 1021,0 hPa 0,0 mm 0,0 km/h (0 Bft) NO 39 ° 0 min 0,000 mm 0,8 UV-I 160 W/m² 5,4 °C 7,8 °C 0,0 km/h (0 Bft)
08.06.2017 07:12 7,8 °C 7,8 °C 85 % 1021,0 hPa 0,0 mm 0,0 km/h (0 Bft) NO 39 ° 0 min 0,000 mm 0,9 UV-I 160 W/m² 5,4 °C 7,8 °C 0,0 km/h (0 Bft)
08.06.2017 07:13 7,8 °C 7,8 °C 85 % 1021,1 hPa 0,0 mm 0,0 km/h (0 Bft) NO 39 ° 0 min 0,000 mm 0,9 UV-I 169 W/m² 5,4 °C 7,8 °C 0,0 km/h (0 Bft)
08.06.2017 07:14 7,8 °C 7,8 °C 84 % 1021,0 hPa 0,0 mm 0,0 km/h (0 Bft) NO 39 ° 0 min 0,000 mm 0,9 UV-I 178 W/m² 5,3 °C 7,8 °C 0,0 km/h (0 Bft)
08.06.2017 07:15 8,0 °C 8,0 °C 84 % 1021,1 hPa 0,0 mm 0,0 km/h (0 Bft) NO 39 ° 0 min 0,000 mm 0,9 UV-I 169 W/m² 5,5 °C 8,0 °C 0,0 km/h (0 Bft)
08.06.2017 07:16 8,1 °C 8,1 °C 86 % 1021,1 hPa 0,0 mm 0,0 km/h (0 Bft) NO 39 ° 0 min 0,000 mm 0,9 UV-I 172 W/m² 5,9 °C 8,1 °C 0,0 km/h (0 Bft)
08.06.2017 07:17 8,2 °C 8,2 °C 84 % 1021,0 hPa 0,0 mm 0,0 km/h (0 Bft) NO 39 ° 0 min 0,000 mm 0,9 UV-I 186 W/m² 5,7 °C 8,2 °C 0,0 km/h (0 Bft)
08.06.2017 07:18 8,2 °C 8,2 °C 83 % 1021,1 hPa 0,0 mm 0,0 km/h (0 Bft) NO 39 ° 0 min 0,000 mm 1,0 UV-I 200 W/m² 5,5 °C 8,2 °C 0,0 km/h (0 Bft)
08.06.2017 07:19 8,3 °C 8,3 °C 83 % 1021,0 hPa 0,0 mm 0,0 km/h (0 Bft) NO 39 ° 0 min 0,000 mm 1,0 UV-I 216 W/m² 5,6 °C 8,3 °C 0,0 km/h (0 Bft)
08.06.2017 07:20 8,4 °C 8,4 °C 83 % 1021,0 hPa 0,0 mm 0,0 km/h (0 Bft) NO 39 ° 0 min 0,000 mm 1,0 UV-I 223 W/m² 5,7 °C 8,4 °C 0,0 km/h (0 Bft)
08.06.2017 07:21 8,4 °C 8,4 °C 82 % 1021,0 hPa 0,0 mm 0,0 km/h (0 Bft) NO 39 ° 0 min 0,000 mm 1,0 UV-I 223 W/m² 5,5 °C 8,4 °C 0,0 km/h (0 Bft)
08.06.2017 07:22 8,4 °C 8,4 °C 84 % 1021,0 hPa 0,0 mm 0,0 km/h (0 Bft) NO 39 ° 0 min 0,000 mm 1,0 UV-I 213 W/m² 5,9 °C 8,4 °C 0,0 km/h (0 Bft)
08.06.2017 07:23 8,5 °C 8,5 °C 83 % 1021,0 hPa 0,0 mm 0,0 km/h (0 Bft) NO 39 ° 0 min 0,000 mm 1,0 UV-I 216 W/m² 5,8 °C 8,5 °C 0,0 km/h (0 Bft)
08.06.2017 07:24 8,7 °C 8,7 °C 83 % 1021,0 hPa 0,0 mm 0,0 km/h (0 Bft) NO 39 ° 0 min 0,000 mm 1,1 UV-I 229 W/m² 6,0 °C 8,7 °C 0,0 km/h (0 Bft)
08.06.2017 07:25 8,8 °C 8,8 °C 84 % 1020,9 hPa 0,0 mm 0,0 km/h (0 Bft) NO 39 ° 0 min 0,000 mm 1,1 UV-I 255 W/m² 6,2 °C 8,8 °C 0,0 km/h (0 Bft)
08.06.2017 07:26 8,9 °C 8,9 °C 86 % 1021,0 hPa 0,0 mm 0,0 km/h (0 Bft) NO 39 ° 0 min 0,000 mm 1,1 UV-I 251 W/m² 6,7 °C 8,9 °C 0,0 km/h (0 Bft)
08.06.2017 07:27 9,0 °C 9,0 °C 85 % 1020,9 hPa 0,0 mm 0,0 km/h (0 Bft) NO 39 ° 0 min 0,000 mm 1,1 UV-I 218 W/m² 6,6 °C 9,0 °C 0,0 km/h (0 Bft)
08.06.2017 07:28 9,0 °C 9,1 °C 81 % 1020,9 hPa 0,0 mm 0,0 km/h (0 Bft) NO 39 ° 0 min 0,000 mm 1,1 UV-I 192 W/m² 5,9 °C 9,0 °C 0,0 km/h (0 Bft)
08.06.2017 07:29 8,9 °C 9,0 °C 81 % 1020,9 hPa 0,0 mm 0,1 km/h (0 Bft) NO 39 ° 0 min 0,000 mm 1,1 UV-I 218 W/m² 5,8 °C 8,9 °C 1,6 km/h (1 Bft)
08.06.2017 07:30 8,9 °C 8,9 °C 83 % 1020,9 hPa 0,0 mm 0,0 km/h (0 Bft) NO 39 ° 0 min 0,000 mm 1,2 UV-I 243 W/m² 6,2 °C 8,9 °C 0,0 km/h (0 Bft)
08.06.2017 07:31 8,9 °C 8,9 °C 83 % 1020,9 hPa 0,0 mm 0,1 km/h (0 Bft) NO 39 ° 0 min 0,000 mm 1,2 UV-I 257 W/m² 6,2 °C 8,9 °C 1,6 km/h (1 Bft)
08.06.2017 07:32 8,9 °C 8,9 °C 83 % 1020,9 hPa 0,0 mm 0,0 km/h (0 Bft) NO 39 ° 0 min 0,000 mm 1,2 UV-I 265 W/m² 6,2 °C 8,9 °C 0,0 km/h (0 Bft)
08.06.2017 07:33 9,0 °C 9,0 °C 82 % 1020,9 hPa 0,0 mm 0,0 km/h (0 Bft) NO 39 ° 0 min 0,000 mm 1,3 UV-I 264 W/m² 6,1 °C 9,0 °C 0,0 km/h (0 Bft)
08.06.2017 07:34 9,1 °C 9,1 °C 81 % 1020,9 hPa 0,0 mm 0,0 km/h (0 Bft) NO 39 ° 0 min 0,000 mm 1,3 UV-I 267 W/m² 6,0 °C 9,1 °C 0,0 km/h (0 Bft)
08.06.2017 07:35 9,1 °C 9,1 °C 81 % 1020,9 hPa 0,0 mm 0,0 km/h (0 Bft) NO 39 ° 0 min 0,000 mm 1,3 UV-I 271 W/m² 6,0 °C 9,1 °C 0,0 km/h (0 Bft)
08.06.2017 07:36 9,1 °C 9,1 °C 81 % 1020,9 hPa 0,0 mm 0,0 km/h (0 Bft) NO 39 ° 0 min 0,000 mm 1,3 UV-I 248 W/m² 6,0 °C 9,1 °C 0,0 km/h (0 Bft)
08.06.2017 07:37 9,2 °C 9,2 °C 81 % 1020,8 hPa 0,0 mm 0,0 km/h (0 Bft) NO 39 ° 0 min 0,000 mm 1,3 UV-I 250 W/m² 6,1 °C 9,2 °C 0,0 km/h (0 Bft)
08.06.2017 07:38 9,2 °C 9,2 °C 81 % 1020,8 hPa 0,0 mm 0,0 km/h (0 Bft) NO 39 ° 0 min 0,000 mm 1,3 UV-I 260 W/m² 6,1 °C 9,2 °C 0,0 km/h (0 Bft)
08.06.2017 07:39 9,3 °C 9,3 °C 82 % 1020,7 hPa 0,0 mm 0,0 km/h (0 Bft) NO 39 ° 0 min 0,000 mm 1,4 UV-I 272 W/m² 6,4 °C 9,3 °C 0,0 km/h (0 Bft)
08.06.2017 07:40 9,5 °C 9,5 °C 80 % 1020,7 hPa 0,0 mm 0,0 km/h (0 Bft) NO 39 ° 0 min 0,000 mm 1,4 UV-I 276 W/m² 6,2 °C 9,5 °C 0,0 km/h (0 Bft)
08.06.2017 07:41 9,7 °C 9,7 °C 82 % 1020,7 hPa 0,0 mm 0,0 km/h (0 Bft) NO 39 ° 0 min 0,000 mm 1,4 UV-I 279 W/m² 6,8 °C 9,7 °C 0,0 km/h (0 Bft)
08.06.2017 07:42 9,8 °C 9,8 °C 82 % 1020,7 hPa 0,0 mm 0,0 km/h (0 Bft) NO 39 ° 0 min 0,000 mm 1,4 UV-I 278 W/m² 6,9 °C 9,8 °C 0,0 km/h (0 Bft)
08.06.2017 07:43 9,8 °C 9,8 °C 81 % 1020,7 hPa 0,0 mm 0,0 km/h (0 Bft) NO 39 ° 0 min 0,000 mm 1,5 UV-I 279 W/m² 6,7 °C 9,8 °C 0,0 km/h (0 Bft)
08.06.2017 07:44 9,7 °C 9,8 °C 80 % 1020,7 hPa 0,0 mm 0,0 km/h (0 Bft) NO 39 ° 0 min 0,000 mm 1,5 UV-I 285 W/m² 6,4 °C 9,7 °C 0,0 km/h (0 Bft)
08.06.2017 07:45 9,7 °C 9,7 °C 81 % 1020,7 hPa 0,0 mm 0,0 km/h (0 Bft) NO 39 ° 0 min 0,000 mm 1,5 UV-I 285 W/m² 6,6 °C 9,7 °C 0,0 km/h (0 Bft)
08.06.2017 07:46 9,7 °C 9,7 °C 80 % 1020,7 hPa 0,0 mm 0,1 km/h (0 Bft) NO 39 ° 0 min 0,000 mm 1,5 UV-I 285 W/m² 6,4 °C 9,7 °C 1,6 km/h (1 Bft)
08.06.2017 07:47 9,7 °C 9,7 °C 78 % 1020,7 hPa 0,0 mm 0,1 km/h (0 Bft) NO 39 ° 0 min 0,000 mm 1,5 UV-I 278 W/m² 6,1 °C 9,7 °C 1,6 km/h (1 Bft)
08.06.2017 07:48 9,8 °C 9,8 °C 78 % 1020,7 hPa 0,0 mm 0,5 km/h (0 Bft) NO 39 ° 0 min 0,000 mm 1,5 UV-I 246 W/m² 6,1 °C 9,8 °C 1,6 km/h (1 Bft)
08.06.2017 07:49 10,1 °C 10,1 °C 78 % 1020,7 hPa 0,0 mm 0,3 km/h (0 Bft) NO 39 ° 0 min 0,000 mm 1,5 UV-I 248 W/m² 6,4 °C 10,1 °C 1,6 km/h (1 Bft)
08.06.2017 07:50 10,2 °C 10,2 °C 79 % 1020,7 hPa 0,0 mm 0,0 km/h (0 Bft) NO 39 ° 0 min 0,000 mm 1,5 UV-I 243 W/m² 6,7 °C 10,2 °C 0,0 km/h (0 Bft)
08.06.2017 07:51 10,3 °C 10,3 °C 77 % 1020,7 hPa 0,0 mm 0,0 km/h (0 Bft) NO 39 ° 0 min 0,000 mm 1,6 UV-I 243 W/m² 6,4 °C 10,3 °C 0,0 km/h (0 Bft)
08.06.2017 07:52 10,3 °C 10,3 °C 79 % 1020,7 hPa 0,0 mm 0,0 km/h (0 Bft) NO 39 ° 0 min 0,000 mm 1,6 UV-I 243 W/m² 6,8 °C 10,3 °C 0,0 km/h (0 Bft)
08.06.2017 07:53 10,3 °C 10,3 °C 79 % 1020,7 hPa 0,0 mm 0,1 km/h (0 Bft) NO 39 ° 0 min 0,000 mm 1,6 UV-I 243 W/m² 6,8 °C 10,3 °C 1,6 km/h (1 Bft)
08.06.2017 07:54 10,3 °C 10,3 °C 79 % 1020,7 hPa 0,0 mm 0,1 km/h (0 Bft) NO 39 ° 0 min 0,000 mm 1,6 UV-I 232 W/m² 6,8 °C 10,3 °C 1,6 km/h (1 Bft)
08.06.2017 07:55 10,3 °C 10,3 °C 79 % 1020,6 hPa 0,0 mm 0,1 km/h (0 Bft) NO 39 ° 0 min 0,000 mm 1,7 UV-I 230 W/m² 6,8 °C 10,3 °C 1,6 km/h (1 Bft)
08.06.2017 07:56 10,2 °C 10,3 °C 78 % 1020,7 hPa 0,0 mm 0,0 km/h (0 Bft) NO 39 ° 0 min 0,000 mm 1,7 UV-I 229 W/m² 6,5 °C 10,2 °C 0,0 km/h (0 Bft)
08.06.2017 07:57 10,2 °C 10,2 °C 79 % 1020,6 hPa 0,0 mm 0,0 km/h (0 Bft) NO 39 ° 0 min 0,000 mm 1,7 UV-I 221 W/m² 6,7 °C 10,2 °C 0,0 km/h (0 Bft)
08.06.2017 07:58 10,3 °C 10,3 °C 79 % 1020,6 hPa 0,0 mm 1,3 km/h (1 Bft) NO 39 ° 0 min 0,000 mm 1,7 UV-I 218 W/m² 6,8 °C 10,3 °C 1,6 km/h (1 Bft)
08.06.2017 07:59 10,4 °C 10,4 °C 80 % 1020,6 hPa 0,0 mm 1,7 km/h (1 Bft) NO 39 ° 0 min 0,000 mm 1,7 UV-I 214 W/m² 7,1 °C 10,4 °C 3,2 km/h (1 Bft)
08.06.2017 08:00 10,4 °C 10,4 °C 80 % 1020,6 hPa 0,0 mm 2,7 km/h (1 Bft) NO 39 ° 0 min 0,000 mm 1,7 UV-I 216 W/m² 7,1 °C 10,4 °C 3,2 km/h (1 Bft)
08.06.2017 08:01 10,6 °C 10,6 °C 79 % 1020,7 hPa 0,0 mm 1,8 km/h (1 Bft) NO 39 ° 0 min 0,102 mm 1,7 UV-I 223 W/m² 7,1 °C 10,6 °C 3,2 km/h (1 Bft)
08.06.2017 08:02 10,7 °C 10,7 °C 77 % 1020,7 hPa 0,0 mm 1,2 km/h (1 Bft) NO 39 ° 0 min 0,000 mm 1,7 UV-I 223 W/m² 6,8 °C 10,7 °C 3,2 km/h (1 Bft)
08.06.2017 08:03 10,7 °C 10,7 °C 76 % 1020,6 hPa 0,0 mm 1,1 km/h (1 Bft) NO 39 ° 0 min 0,000 mm 1,8 UV-I 227 W/m² 6,6 °C 10,7 °C 3,2 km/h (1 Bft)
08.06.2017 08:04 10,7 °C 10,7 °C 76 % 1020,6 hPa 0,0 mm 1,8 km/h (1 Bft) NO 39 ° 0 min 0,000 mm 1,8 UV-I 236 W/m² 6,6 °C 10,7 °C 3,2 km/h (1 Bft)
08.06.2017 08:05 10,8 °C 10,8 °C 76 % 1020,6 hPa 0,0 mm 1,1 km/h (1 Bft) NO 39 ° 0 min 0,000 mm 1,8 UV-I 239 W/m² 6,7 °C 10,8 °C 3,2 km/h (1 Bft)
08.06.2017 08:06 10,9 °C 10,9 °C 78 % 1020,6 hPa 0,0 mm 1,1 km/h (1 Bft) NO 39 ° 0 min 0,000 mm 1,8 UV-I 257 W/m² 7,2 °C 10,9 °C 1,6 km/h (1 Bft)
08.06.2017 08:07 11,0 °C 11,0 °C 78 % 1020,6 hPa 0,0 mm 0,0 km/h (0 Bft) NO 39 ° 0 min 0,000 mm 1,9 UV-I 260 W/m² 7,3 °C 11,0 °C 0,0 km/h (0 Bft)
08.06.2017 08:08 11,1 °C 11,1 °C 76 % 1020,6 hPa 0,0 mm 0,9 km/h (0 Bft) NO 39 ° 0 min 0,000 mm 1,9 UV-I 271 W/m² 7,0 °C 11,1 °C 1,6 km/h (1 Bft)
08.06.2017 08:09 11,1 °C 11,1 °C 73 % 1020,6 hPa 0,0 mm 0,2 km/h (0 Bft) NO 39 ° 0 min 0,000 mm 1,9 UV-I 274 W/m² 6,4 °C 11,1 °C 1,6 km/h (1 Bft)
08.06.2017 08:10 11,1 °C 11,1 °C 75 % 1020,6 hPa 0,0 mm 0,9 km/h (0 Bft) NO 39 ° 0 min 0,000 mm 1,9 UV-I 274 W/m² 6,8 °C 11,1 °C 3,2 km/h (1 Bft)
08.06.2017 08:11 11,1 °C 11,1 °C 73 % 1020,5 hPa 0,0 mm 0,0 km/h (0 Bft) NO 39 ° 0 min 0,000 mm 1,9 UV-I 279 W/m² 6,4 °C 11,1 °C 0,0 km/h (0 Bft)
08.06.2017 08:12 11,1 °C 11,1 °C 75 % 1020,5 hPa 0,0 mm 0,1 km/h (0 Bft) NO 39 ° 1 min 0,000 mm 1,9 UV-I 294 W/m² 6,8 °C 11,1 °C 1,6 km/h (1 Bft)
08.06.2017 08:13 11,1 °C 11,2 °C 76 % 1020,5 hPa 0,0 mm 0,0 km/h (0 Bft) NO 39 ° 1 min 0,000 mm 2,0 UV-I 311 W/m² 7,0 °C 11,1 °C 0,0 km/h (0 Bft)
08.06.2017 08:14 11,2 °C 11,2 °C 76 % 1020,5 hPa 0,0 mm 0,5 km/h (0 Bft) NO 39 ° 1 min 0,000 mm 2,0 UV-I 313 W/m² 7,1 °C 11,2 °C 1,6 km/h (1 Bft)
08.06.2017 08:15 11,3 °C 11,3 °C 76 % 1020,5 hPa 0,0 mm 0,5 km/h (0 Bft) NO 39 ° 1 min 0,000 mm 2,1 UV-I 327 W/m² 7,2 °C 11,3 °C 1,6 km/h (1 Bft)
08.06.2017 08:16 11,3 °C 11,3 °C 74 % 1020,5 hPa 0,0 mm 2,7 km/h (1 Bft) NO 39 ° 1 min 0,000 mm 2,1 UV-I 334 W/m² 6,8 °C 11,3 °C 3,2 km/h (1 Bft)
08.06.2017 08:17 11,3 °C 11,3 °C 76 % 1020,5 hPa 0,0 mm 2,8 km/h (1 Bft) NO 38 ° 1 min 0,000 mm 2,1 UV-I 336 W/m² 7,2 °C 11,3 °C 4,8 km/h (1 Bft)
08.06.2017 08:18 11,4 °C 11,4 °C 77 % 1020,6 hPa 0,0 mm 2,5 km/h (1 Bft) NO 38 ° 1 min 0,000 mm 2,2 UV-I 353 W/m² 7,5 °C 11,4 °C 3,2 km/h (1 Bft)
08.06.2017 08:19 11,4 °C 11,4 °C 74 % 1020,5 hPa 0,0 mm 2,4 km/h (1 Bft) NO 38 ° 1 min 0,000 mm 2,2 UV-I 373 W/m² 6,9 °C 11,4 °C 3,2 km/h (1 Bft)
08.06.2017 08:20 11,3 °C 11,4 °C 75 % 1020,5 hPa 0,0 mm 0,0 km/h (0 Bft) NO 38 ° 1 min 0,000 mm 2,2 UV-I 378 W/m² 7,0 °C 11,3 °C 0,0 km/h (0 Bft)
08.06.2017 08:21 11,3 °C 11,3 °C 71 % 1020,4 hPa 0,0 mm 0,0 km/h (0 Bft) NO 38 ° 1 min 0,000 mm 2,2 UV-I 380 W/m² 6,2 °C 11,3 °C 0,0 km/h (0 Bft)
08.06.2017 08:22 11,3 °C 11,3 °C 75 % 1020,5 hPa 0,0 mm 0,6 km/h (0 Bft) NO 38 ° 1 min 0,000 mm 2,3 UV-I 387 W/m² 7,0 °C 11,3 °C 1,6 km/h (1 Bft)
08.06.2017 08:23 11,5 °C 11,5 °C 76 % 1020,5 hPa 0,0 mm 2,9 km/h (1 Bft) NO 38 ° 1 min 0,000 mm 2,3 UV-I 399 W/m² 7,4 °C 11,5 °C 4,8 km/h (1 Bft)
08.06.2017 08:24 11,5 °C 11,5 °C 72 % 1020,5 hPa 0,0 mm 1,4 km/h (1 Bft) NO 38 ° 1 min 0,000 mm 2,3 UV-I 404 W/m² 6,6 °C 11,5 °C 3,2 km/h (1 Bft)
08.06.2017 08:25 11,5 °C 11,6 °C 74 % 1020,5 hPa 0,0 mm 0,6 km/h (0 Bft) NO 38 ° 1 min 0,000 mm 2,3 UV-I 403 W/m² 7,0 °C 11,5 °C 3,2 km/h (1 Bft)
08.06.2017 08:26 11,4 °C 11,5 °C 72 % 1020,5 hPa 0,0 mm 0,1 km/h (0 Bft) NO 38 ° 1 min 0,000 mm 2,3 UV-I 404 W/m² 6,5 °C 11,4 °C 1,6 km/h (1 Bft)
08.06.2017 08:27 11,5 °C 11,5 °C 75 % 1020,5 hPa 0,0 mm 1,7 km/h (1 Bft) NO 38 ° 1 min 0,000 mm 2,4 UV-I 415 W/m² 7,2 °C 11,5 °C 3,2 km/h (1 Bft)
08.06.2017 08:28 11,7 °C 11,7 °C 77 % 1020,4 hPa 0,0 mm 0,7 km/h (0 Bft) NO 38 ° 1 min 0,000 mm 2,4 UV-I 420 W/m² 7,8 °C 11,7 °C 1,6 km/h (1 Bft)
08.06.2017 08:29 11,8 °C 11,8 °C 71 % 1020,4 hPa 0,0 mm 0,0 km/h (0 Bft) NO 38 ° 1 min 0,000 mm 2,4 UV-I 408 W/m² 6,7 °C 11,8 °C 0,0 km/h (0 Bft)
08.06.2017 08:30 11,9 °C 11,9 °C 70 % 1020,4 hPa 0,0 mm 2,6 km/h (1 Bft) N 10 ° 1 min 0,000 mm 2,4 UV-I 420 W/m² 6,6 °C 11,9 °C 6,4 km/h (2 Bft)
08.06.2017 08:31 11,9 °C 11,9 °C 73 % 1020,5 hPa 0,0 mm 4,6 km/h (1 Bft) N 11 ° 1 min 0,000 mm 2,4 UV-I 427 W/m² 7,2 °C 11,9 °C 6,4 km/h (2 Bft)
08.06.2017 08:32 12,1 °C 12,1 °C 71 % 1020,5 hPa 0,0 mm 1,3 km/h (1 Bft) N 11 ° 1 min 0,000 mm 2,5 UV-I 432 W/m² 7,0 °C 12,1 °C 3,2 km/h (1 Bft)
08.06.2017 08:33 12,2 °C 12,2 °C 71 % 1020,4 hPa 0,0 mm 2,5 km/h (1 Bft) N 11 ° 1 min 0,000 mm 2,5 UV-I 436 W/m² 7,1 °C 12,2 °C 3,2 km/h (1 Bft)
08.06.2017 08:34 12,2 °C 12,2 °C 70 % 1020,4 hPa 0,0 mm 2,4 km/h (1 Bft) N 11 ° 1 min 0,000 mm 2,5 UV-I 448 W/m² 6,9 °C 12,2 °C 3,2 km/h (1 Bft)
08.06.2017 08:35 12,3 °C 12,3 °C 71 % 1020,5 hPa 0,0 mm 0,5 km/h (0 Bft) N 11 ° 1 min 0,000 mm 2,5 UV-I 448 W/m² 7,2 °C 12,3 °C 1,6 km/h (1 Bft)
08.06.2017 08:36 12,3 °C 12,3 °C 70 % 1020,5 hPa 0,0 mm 0,4 km/h (0 Bft) N-NO 12 ° 1 min 0,000 mm 2,6 UV-I 452 W/m² 7,0 °C 12,3 °C 1,6 km/h (1 Bft)
08.06.2017 08:37 12,2 °C 12,3 °C 71 % 1020,4 hPa 0,0 mm 2,5 km/h (1 Bft) NO 44 ° 1 min 0,000 mm 2,6 UV-I 461 W/m² 7,1 °C 12,2 °C 3,2 km/h (1 Bft)
08.06.2017 08:38 12,2 °C 12,2 °C 67 % 1020,4 hPa 0,0 mm 4,8 km/h (1 Bft) O 81 ° 1 min 0,000 mm 2,6 UV-I 469 W/m² 6,3 °C 12,2 °C 6,4 km/h (2 Bft)
08.06.2017 08:39 12,3 °C 12,3 °C 66 % 1020,4 hPa 0,0 mm 7,2 km/h (2 Bft) NO 35 ° 1 min 0,000 mm 2,6 UV-I 466 W/m² 6,1 °C 12,3 °C 11,3 km/h (2 Bft)
08.06.2017 08:40 12,3 °C 12,3 °C 63 % 1020,4 hPa 0,0 mm 5,7 km/h (1 Bft) N-NO 31 ° 1 min 0,000 mm 2,7 UV-I 473 W/m² 5,5 °C 12,3 °C 6,4 km/h (2 Bft)
08.06.2017 08:41 12,4 °C 12,4 °C 64 % 1020,5 hPa 0,0 mm 2,2 km/h (1 Bft) N-NO 32 ° 1 min 0,000 mm 2,7 UV-I 469 W/m² 5,8 °C 12,4 °C 3,2 km/h (1 Bft)
08.06.2017 08:42 12,4 °C 12,5 °C 65 % 1020,5 hPa 0,0 mm 4,4 km/h (1 Bft) O-NO 71 ° 1 min 0,000 mm 2,7 UV-I 464 W/m² 6,0 °C 12,4 °C 6,4 km/h (2 Bft)
08.06.2017 08:43 12,5 °C 12,5 °C 64 % 1020,4 hPa 0,0 mm 5,5 km/h (1 Bft) NO 53 ° 1 min 0,000 mm 2,7 UV-I 469 W/m² 5,9 °C 12,5 °C 6,4 km/h (2 Bft)
08.06.2017 08:44 12,6 °C 12,6 °C 63 % 1020,5 hPa 0,0 mm 4,5 km/h (1 Bft) NO 46 ° 1 min 0,000 mm 2,7 UV-I 468 W/m² 5,7 °C 12,6 °C 8,0 km/h (2 Bft)
08.06.2017 08:45 12,7 °C 12,7 °C 62 % 1020,5 hPa 0,0 mm 3,8 km/h (1 Bft) NO 43 ° 1 min 0,000 mm 2,7 UV-I 468 W/m² 5,6 °C 12,7 °C 4,8 km/h (1 Bft)
08.06.2017 08:46 12,8 °C 12,8 °C 64 % 1020,4 hPa 0,0 mm 4,0 km/h (1 Bft) N-NO 31 ° 1 min 0,000 mm 2,7 UV-I 476 W/m² 6,2 °C 12,8 °C 6,4 km/h (2 Bft)
08.06.2017 08:47 12,9 °C 12,9 °C 66 % 1020,5 hPa 0,0 mm 4,0 km/h (1 Bft) NO 36 ° 1 min 0,000 mm 2,7 UV-I 473 W/m² 6,7 °C 12,9 °C 6,4 km/h (2 Bft)
08.06.2017 08:48 13,0 °C 13,0 °C 63 % 1020,5 hPa 0,0 mm 5,2 km/h (1 Bft) NO 40 ° 1 min 0,000 mm 2,8 UV-I 483 W/m² 6,1 °C 13,0 °C 8,0 km/h (2 Bft)
08.06.2017 08:49 13,1 °C 13,1 °C 62 % 1020,4 hPa 0,0 mm 1,4 km/h (1 Bft) NO 52 ° 1 min 0,000 mm 2,7 UV-I 469 W/m² 6,0 °C 13,1 °C 6,4 km/h (2 Bft)
08.06.2017 08:50 13,1 °C 13,1 °C 63 % 1020,5 hPa 0,0 mm 4,2 km/h (1 Bft) O 79 ° 1 min 0,000 mm 2,7 UV-I 443 W/m² 6,2 °C 13,1 °C 6,4 km/h (2 Bft)
08.06.2017 08:51 13,0 °C 13,1 °C 61 % 1020,5 hPa 0,0 mm 6,2 km/h (2 Bft) O 79 ° 1 min 0,000 mm 2,6 UV-I 422 W/m² 5,7 °C 13,0 °C 8,0 km/h (2 Bft)
08.06.2017 08:52 12,8 °C 13,0 °C 59 % 1020,5 hPa 0,0 mm 4,0 km/h (1 Bft) O 97 ° 1 min 0,000 mm 2,6 UV-I 432 W/m² 5,0 °C 12,8 °C 4,8 km/h (1 Bft)
08.06.2017 08:53 12,8 °C 12,9 °C 62 % 1020,4 hPa 0,0 mm 7,4 km/h (2 Bft) O-NO 61 ° 1 min 0,000 mm 2,7 UV-I 446 W/m² 5,7 °C 12,8 °C 12,9 km/h (3 Bft)
08.06.2017 08:54 12,8 °C 12,8 °C 60 % 1020,4 hPa 0,0 mm 5,4 km/h (1 Bft) NO 53 ° 1 min 0,000 mm 2,9 UV-I 497 W/m² 5,2 °C 12,8 °C 8,0 km/h (2 Bft)
08.06.2017 08:55 12,9 °C 12,9 °C 61 % 1020,4 hPa 0,0 mm 5,7 km/h (1 Bft) O-NO 61 ° 1 min 0,000 mm 3,0 UV-I 512 W/m² 5,6 °C 12,9 °C 8,0 km/h (2 Bft)
08.06.2017 08:56 12,9 °C 12,9 °C 63 % 1020,4 hPa 0,0 mm 4,4 km/h (1 Bft) N-NO 32 ° 1 min 0,000 mm 3,0 UV-I 515 W/m² 6,0 °C 12,9 °C 6,4 km/h (2 Bft)
08.06.2017 08:57 12,9 °C 13,0 °C 60 % 1020,4 hPa 0,0 mm 7,3 km/h (2 Bft) O-NO 57 ° 1 min 0,000 mm 2,9 UV-I 487 W/m² 5,3 °C 12,9 °C 9,7 km/h (2 Bft)
08.06.2017 08:58 12,9 °C 13,0 °C 58 % 1020,4 hPa 0,0 mm 1,6 km/h (1 Bft) O-NO 68 ° 1 min 0,000 mm 3,0 UV-I 503 W/m² 4,8 °C 12,9 °C 4,8 km/h (1 Bft)
08.06.2017 08:59 12,9 °C 12,9 °C 63 % 1020,4 hPa 0,0 mm 2,2 km/h (1 Bft) O 83 ° 1 min 0,000 mm 3,0 UV-I 487 W/m² 6,0 °C 12,9 °C 6,4 km/h (2 Bft)
08.06.2017 09:00 12,9 °C 13,0 °C 61 % 1020,4 hPa 0,0 mm 4,8 km/h (1 Bft) O-NO 61 ° 1 min 0,203 mm 3,0 UV-I 510 W/m² 5,6 °C 12,9 °C 6,4 km/h (2 Bft)
08.06.2017 09:01 12,9 °C 13,0 °C 59 % 1020,4 hPa 0,0 mm 6,1 km/h (2 Bft) O-NO 74 ° 1 min 0,000 mm 3,1 UV-I 522 W/m² 5,1 °C 12,9 °C 8,0 km/h (2 Bft)
08.06.2017 09:02 12,9 °C 12,9 °C 57 % 1020,4 hPa 0,0 mm 4,2 km/h (1 Bft) NO 46 ° 1 min 0,000 mm 3,1 UV-I 519 W/m² 4,6 °C 12,9 °C 6,4 km/h (2 Bft)
08.06.2017 09:03 12,9 °C 12,9 °C 59 % 1020,4 hPa 0,0 mm 3,2 km/h (1 Bft) O-NO 63 ° 1 min 0,000 mm 3,1 UV-I 527 W/m² 5,1 °C 12,9 °C 4,8 km/h (1 Bft)
08.06.2017 09:04 13,0 °C 13,0 °C 59 % 1020,3 hPa 0,0 mm 5,0 km/h (1 Bft) N-NO 30 ° 1 min 0,000 mm 3,1 UV-I 540 W/m² 5,2 °C 13,0 °C 8,0 km/h (2 Bft)
08.06.2017 09:05 13,0 °C 13,0 °C 58 % 1020,3 hPa 0,0 mm 3,6 km/h (1 Bft) O-NO 71 ° 1 min 0,000 mm 3,2 UV-I 547 W/m² 4,9 °C 13,0 °C 6,4 km/h (2 Bft)
08.06.2017 09:06 13,0 °C 13,0 °C 58 % 1020,3 hPa 0,0 mm 4,6 km/h (1 Bft) NO 55 ° 1 min 0,000 mm 3,0 UV-I 512 W/m² 4,9 °C 13,0 °C 6,4 km/h (2 Bft)
08.06.2017 09:07 13,1 °C 13,1 °C 60 % 1020,3 hPa 0,0 mm 3,8 km/h (1 Bft) O-NO 74 ° 1 min 0,000 mm 3,1 UV-I 492 W/m² 5,5 °C 13,1 °C 6,4 km/h (2 Bft)
08.06.2017 09:08 13,2 °C 13,2 °C 62 % 1020,3 hPa 0,0 mm 3,8 km/h (1 Bft) SO 144 ° 1 min 0,000 mm 3,2 UV-I 492 W/m² 6,1 °C 13,2 °C 8,0 km/h (2 Bft)
08.06.2017 09:09 13,1 °C 13,2 °C 58 % 1020,3 hPa 0,0 mm 3,6 km/h (1 Bft) NO 35 ° 1 min 0,000 mm 3,2 UV-I 540 W/m² 5,0 °C 13,1 °C 8,0 km/h (2 Bft)
08.06.2017 09:10 13,2 °C 13,2 °C 58 % 1020,3 hPa 0,0 mm 2,1 km/h (1 Bft) O-NO 69 ° 1 min 0,000 mm 3,2 UV-I 545 W/m² 5,1 °C 13,2 °C 3,2 km/h (1 Bft)
08.06.2017 09:11 13,2 °C 13,2 °C 59 % 1020,3 hPa 0,0 mm 6,3 km/h (2 Bft) O-SO 108 ° 1 min 0,000 mm 3,4 UV-I 563 W/m² 5,4 °C 13,2 °C 9,7 km/h (2 Bft)
08.06.2017 09:12 13,1 °C 13,2 °C 59 % 1020,3 hPa 0,0 mm 1,5 km/h (1 Bft) SO 136 ° 1 min 0,000 mm 3,3 UV-I 571 W/m² 5,3 °C 13,1 °C 3,2 km/h (1 Bft)
08.06.2017 09:13 13,2 °C 13,2 °C 58 % 1020,3 hPa 0,0 mm 1,4 km/h (1 Bft) O 87 ° 1 min 0,000 mm 3,4 UV-I 545 W/m² 5,1 °C 13,2 °C 4,8 km/h (1 Bft)
08.06.2017 09:14 13,2 °C 13,2 °C 58 % 1020,4 hPa 0,0 mm 3,8 km/h (1 Bft) NO 52 ° 1 min 0,000 mm 3,4 UV-I 578 W/m² 5,1 °C 13,2 °C 6,4 km/h (2 Bft)
08.06.2017 09:15 13,3 °C 13,3 °C 58 % 1020,3 hPa 0,0 mm 5,7 km/h (1 Bft) O-NO 57 ° 1 min 0,000 mm 3,5 UV-I 584 W/m² 5,2 °C 13,3 °C 9,7 km/h (2 Bft)
08.06.2017 09:16 13,4 °C 13,4 °C 60 % 1020,3 hPa 0,0 mm 6,3 km/h (2 Bft) O-NO 69 ° 1 min 0,000 mm 3,5 UV-I 575 W/m² 5,8 °C 13,4 °C 8,0 km/h (2 Bft)
08.06.2017 09:17 13,5 °C 13,5 °C 56 % 1020,3 hPa 0,0 mm 7,3 km/h (2 Bft) O 88 ° 1 min 0,000 mm 3,5 UV-I 568 W/m² 4,9 °C 13,5 °C 8,0 km/h (2 Bft)
08.06.2017 09:18 13,5 °C 13,5 °C 56 % 1020,3 hPa 0,0 mm 4,9 km/h (1 Bft) NO 53 ° 1 min 0,000 mm 3,4 UV-I 555 W/m² 4,9 °C 13,5 °C 8,0 km/h (2 Bft)
08.06.2017 09:19 13,5 °C 13,5 °C 59 % 1020,3 hPa 0,0 mm 5,6 km/h (1 Bft) O-NO 64 ° 1 min 0,000 mm 3,5 UV-I 585 W/m² 5,6 °C 13,5 °C 8,0 km/h (2 Bft)
08.06.2017 09:20 13,6 °C 13,6 °C 56 % 1020,2 hPa 0,0 mm 3,8 km/h (1 Bft) N-NO 32 ° 1 min 0,000 mm 3,5 UV-I 582 W/m² 5,0 °C 13,6 °C 8,0 km/h (2 Bft)
08.06.2017 09:21 13,5 °C 13,6 °C 56 % 1020,3 hPa 0,0 mm 4,6 km/h (1 Bft) O-NO 57 ° 1 min 0,000 mm 3,5 UV-I 573 W/m² 4,9 °C 13,5 °C 6,4 km/h (2 Bft)
08.06.2017 09:22 13,5 °C 13,6 °C 57 % 1020,2 hPa 0,0 mm 0,5 km/h (0 Bft) O-NO 57 ° 1 min 0,000 mm 3,5 UV-I 575 W/m² 5,2 °C 13,5 °C 3,2 km/h (1 Bft)
08.06.2017 09:23 13,5 °C 13,5 °C 58 % 1020,3 hPa 0,0 mm 1,0 km/h (0 Bft) O-NO 57 ° 1 min 0,000 mm 3,6 UV-I 584 W/m² 5,4 °C 13,5 °C 1,6 km/h (1 Bft)
08.06.2017 09:24 13,6 °C 13,6 °C 59 % 1020,3 hPa 0,0 mm 3,0 km/h (1 Bft) NO 36 ° 1 min 0,000 mm 3,6 UV-I 584 W/m² 5,7 °C 13,6 °C 6,4 km/h (2 Bft)
08.06.2017 09:25 13,6 °C 13,6 °C 63 % 1020,3 hPa 0,0 mm 3,0 km/h (1 Bft) NO 36 ° 1 min 0,000 mm 3,7 UV-I 601 W/m² 6,7 °C 13,6 °C 6,4 km/h (2 Bft)
08.06.2017 09:26 13,8 °C 13,8 °C 63 % 1020,3 hPa 0,0 mm 4,5 km/h (1 Bft) NO 35 ° 1 min 0,000 mm 3,7 UV-I 601 W/m² 6,9 °C 13,8 °C 6,4 km/h (2 Bft)
08.06.2017 09:27 13,9 °C 13,9 °C 57 % 1020,2 hPa 0,0 mm 2,2 km/h (1 Bft) NO 36 ° 1 min 0,000 mm 3,7 UV-I 601 W/m² 5,5 °C 13,9 °C 3,2 km/h (1 Bft)
08.06.2017 09:28 13,9 °C 13,9 °C 58 % 1020,3 hPa 0,0 mm 4,4 km/h (1 Bft) O-NO 57 ° 1 min 0,000 mm 3,8 UV-I 619 W/m² 5,8 °C 13,9 °C 8,0 km/h (2 Bft)
08.06.2017 09:29 13,8 °C 13,9 °C 57 % 1020,3 hPa 0,0 mm 4,0 km/h (1 Bft) N-NO 31 ° 1 min 0,000 mm 3,8 UV-I 624 W/m² 5,4 °C 13,8 °C 8,0 km/h (2 Bft)
08.06.2017 09:30 13,8 °C 13,8 °C 55 % 1020,2 hPa 0,0 mm 8,2 km/h (2 Bft) O 99 ° 1 min 0,000 mm 3,8 UV-I 603 W/m² 4,9 °C 13,8 °C 12,9 km/h (3 Bft)
08.06.2017 09:31 13,9 °C 13,9 °C 59 % 1020,3 hPa 0,0 mm 4,5 km/h (1 Bft) O 90 ° 1 min 0,000 mm 3,8 UV-I 622 W/m² 6,0 °C 13,9 °C 8,0 km/h (2 Bft)
08.06.2017 09:32 13,9 °C 13,9 °C 57 % 1020,2 hPa 0,0 mm 4,3 km/h (1 Bft) O 84 ° 1 min 0,000 mm 3,6 UV-I 575 W/m² 5,5 °C 13,9 °C 8,0 km/h (2 Bft)
08.06.2017 09:33 13,8 °C 13,9 °C 58 % 1020,3 hPa 0,0 mm 7,1 km/h (2 Bft) O-NO 60 ° 1 min 0,000 mm 3,8 UV-I 596 W/m² 5,7 °C 13,8 °C 11,3 km/h (2 Bft)
08.06.2017 09:34 13,7 °C 13,8 °C 61 % 1020,2 hPa 0,0 mm 2,6 km/h (1 Bft) NO 55 ° 1 min 0,000 mm 3,4 UV-I 596 W/m² 6,3 °C 13,7 °C 6,4 km/h (2 Bft)
08.06.2017 09:35 13,7 °C 13,7 °C 61 % 1020,2 hPa 0,0 mm 4,0 km/h (1 Bft) O-NO 75 ° 1 min 0,000 mm 3,9 UV-I 606 W/m² 6,3 °C 13,7 °C 6,4 km/h (2 Bft)
08.06.2017 09:36 13,8 °C 13,8 °C 64 % 1020,2 hPa 0,0 mm 5,9 km/h (2 Bft) O-NO 71 ° 1 min 0,000 mm 3,9 UV-I 621 W/m² 7,1 °C 13,8 °C 8,0 km/h (2 Bft)
08.06.2017 09:37 13,9 °C 13,9 °C 61 % 1020,2 hPa 0,0 mm 6,8 km/h (2 Bft) O 86 ° 1 min 0,000 mm 3,9 UV-I 621 W/m² 6,5 °C 13,9 °C 11,3 km/h (2 Bft)
08.06.2017 09:38 13,8 °C 13,9 °C 57 % 1020,2 hPa 0,0 mm 3,3 km/h (1 Bft) O-NO 76 ° 1 min 0,000 mm 3,9 UV-I 615 W/m² 5,4 °C 13,8 °C 8,0 km/h (2 Bft)
08.06.2017 09:39 13,8 °C 13,9 °C 58 % 1020,2 hPa 0,0 mm 4,8 km/h (1 Bft) O 101 ° 1 min 0,000 mm 4,0 UV-I 642 W/m² 5,7 °C 13,8 °C 8,0 km/h (2 Bft)
08.06.2017 09:40 13,8 °C 13,8 °C 58 % 1020,2 hPa 0,0 mm 4,4 km/h (1 Bft) O-SO 109 ° 1 min 0,000 mm 4,0 UV-I 633 W/m² 5,7 °C 13,8 °C 6,4 km/h (2 Bft)
08.06.2017 09:41 13,8 °C 13,8 °C 58 % 1020,2 hPa 0,0 mm 1,5 km/h (1 Bft) NO 38 ° 1 min 0,000 mm 4,1 UV-I 647 W/m² 5,7 °C 13,8 °C 4,8 km/h (1 Bft)
08.06.2017 09:42 13,9 °C 13,9 °C 61 % 1020,1 hPa 0,0 mm 6,5 km/h (2 Bft) O-NO 64 ° 1 min 0,000 mm 4,1 UV-I 649 W/m² 6,5 °C 13,9 °C 11,3 km/h (2 Bft)
08.06.2017 09:43 14,0 °C 14,0 °C 58 % 1020,1 hPa 0,0 mm 6,9 km/h (2 Bft) O-NO 67 ° 1 min 0,000 mm 4,1 UV-I 640 W/m² 5,9 °C 14,0 °C 9,7 km/h (2 Bft)
08.06.2017 09:44 14,2 °C 14,2 °C 58 % 1020,1 hPa 0,0 mm 2,3 km/h (1 Bft) O 98 ° 1 min 0,000 mm 4,0 UV-I 636 W/m² 6,1 °C 14,2 °C 4,8 km/h (1 Bft)
08.06.2017 09:45 14,2 °C 14,2 °C 59 % 1020,1 hPa 0,0 mm 4,6 km/h (1 Bft) SO 128 ° 1 min 0,000 mm 3,8 UV-I 638 W/m² 6,3 °C 14,2 °C 9,7 km/h (2 Bft)
08.06.2017 09:46 14,2 °C 14,2 °C 57 % 1020,1 hPa 0,0 mm 2,1 km/h (1 Bft) NO 47 ° 1 min 0,000 mm 4,2 UV-I 657 W/m² 5,8 °C 14,2 °C 4,8 km/h (1 Bft)
08.06.2017 09:47 14,2 °C 14,2 °C 60 % 1020,1 hPa 0,0 mm 8,4 km/h (2 Bft) O-NO 76 ° 1 min 0,000 mm 4,1 UV-I 636 W/m² 6,5 °C 14,2 °C 12,9 km/h (3 Bft)
08.06.2017 09:48 14,3 °C 14,3 °C 58 % 1020,2 hPa 0,0 mm 8,4 km/h (2 Bft) O-SO 121 ° 1 min 0,000 mm 4,0 UV-I 624 W/m² 6,2 °C 14,3 °C 12,9 km/h (3 Bft)
08.06.2017 09:49 14,2 °C 14,3 °C 58 % 1020,2 hPa 0,0 mm 8,6 km/h (2 Bft) O-NO 60 ° 1 min 0,000 mm 4,1 UV-I 615 W/m² 6,1 °C 14,2 °C 14,5 km/h (3 Bft)
08.06.2017 09:50 14,1 °C 14,2 °C 59 % 1020,2 hPa 0,0 mm 3,6 km/h (1 Bft) SO 143 ° 1 min 0,000 mm 4,0 UV-I 619 W/m² 6,2 °C 14,1 °C 6,4 km/h (2 Bft)
08.06.2017 09:51 14,1 °C 14,1 °C 59 % 1020,2 hPa 0,0 mm 2,8 km/h (1 Bft) O-NO 59 ° 1 min 0,000 mm 4,0 UV-I 628 W/m² 6,2 °C 14,1 °C 9,7 km/h (2 Bft)
08.06.2017 09:52 14,2 °C 14,2 °C 60 % 1020,2 hPa 0,0 mm 6,1 km/h (2 Bft) O-NO 65 ° 1 min 0,000 mm 4,2 UV-I 633 W/m² 6,5 °C 14,2 °C 8,0 km/h (2 Bft)
08.06.2017 09:53 14,2 °C 14,2 °C 61 % 1020,1 hPa 0,0 mm 3,5 km/h (1 Bft) O-NO 69 ° 1 min 0,000 mm 4,2 UV-I 636 W/m² 6,8 °C 14,2 °C 8,0 km/h (2 Bft)
08.06.2017 09:54 14,2 °C 14,2 °C 58 % 1020,2 hPa 0,0 mm 2,6 km/h (1 Bft) O-NO 59 ° 1 min 0,000 mm 4,2 UV-I 642 W/m² 6,1 °C 14,2 °C 4,8 km/h (1 Bft)
08.06.2017 09:55 14,2 °C 14,2 °C 61 % 1020,2 hPa 0,0 mm 6,3 km/h (2 Bft) O-NO 61 ° 1 min 0,000 mm 4,1 UV-I 624 W/m² 6,8 °C 14,2 °C 11,3 km/h (2 Bft)
08.06.2017 09:56 14,2 °C 14,2 °C 60 % 1020,2 hPa 0,0 mm 6,3 km/h (2 Bft) O-NO 70 ° 1 min 0,000 mm 4,1 UV-I 626 W/m² 6,5 °C 14,2 °C 12,9 km/h (3 Bft)
08.06.2017 09:57 14,3 °C 14,3 °C 56 % 1020,2 hPa 0,0 mm 8,0 km/h (2 Bft) O-NO 65 ° 1 min 0,000 mm 4,1 UV-I 617 W/m² 5,6 °C 14,3 °C 12,9 km/h (3 Bft)
08.06.2017 09:58 14,3 °C 14,3 °C 56 % 1020,1 hPa 0,0 mm 5,6 km/h (1 Bft) O 86 ° 1 min 0,000 mm 4,0 UV-I 592 W/m² 5,6 °C 14,3 °C 9,7 km/h (2 Bft)
08.06.2017 09:59 14,3 °C 14,3 °C 55 % 1020,2 hPa 0,0 mm 4,4 km/h (1 Bft) O 82 ° 1 min 0,000 mm 4,0 UV-I 585 W/m² 5,4 °C 14,3 °C 6,4 km/h (2 Bft)
08.06.2017 10:00 14,3 °C 14,3 °C 56 % 1020,2 hPa 0,0 mm 3,8 km/h (1 Bft) O-NO 74 ° 1 min 0,000 mm 4,0 UV-I 584 W/m² 5,6 °C 14,3 °C 6,4 km/h (2 Bft)
08.06.2017 10:01 14,2 °C 14,3 °C 54 % 1020,2 hPa 0,0 mm 6,8 km/h (2 Bft) O-NO 61 ° 1 min 0,330 mm 4,1 UV-I 589 W/m² 5,0 °C 14,2 °C 11,3 km/h (2 Bft)
08.06.2017 10:02 14,2 °C 14,2 °C 56 % 1020,1 hPa 0,0 mm 4,6 km/h (1 Bft) O 93 ° 1 min 0,000 mm 4,1 UV-I 605 W/m² 5,6 °C 14,2 °C 9,7 km/h (2 Bft)
08.06.2017 10:03 14,2 °C 14,2 °C 57 % 1020,1 hPa 0,0 mm 4,7 km/h (1 Bft) O-NO 75 ° 1 min 0,000 mm 4,1 UV-I 613 W/m² 5,8 °C 14,2 °C 9,7 km/h (2 Bft)
08.06.2017 10:04 14,2 °C 14,2 °C 61 % 1020,2 hPa 0,0 mm 5,1 km/h (1 Bft) O-NO 71 ° 1 min 0,000 mm 3,9 UV-I 568 W/m² 6,8 °C 14,2 °C 8,0 km/h (2 Bft)
08.06.2017 10:05 14,2 °C 14,2 °C 57 % 1020,2 hPa 0,0 mm 6,4 km/h (2 Bft) N-NO 32 ° 1 min 0,000 mm 3,9 UV-I 545 W/m² 5,8 °C 14,2 °C 9,7 km/h (2 Bft)
08.06.2017 10:06 14,3 °C 14,3 °C 56 % 1020,2 hPa 0,0 mm 7,9 km/h (2 Bft) NO 56 ° 1 min 0,000 mm 3,9 UV-I 552 W/m² 5,6 °C 14,3 °C 9,7 km/h (2 Bft)
08.06.2017 10:07 14,3 °C 14,3 °C 57 % 1020,1 hPa 0,0 mm 8,0 km/h (2 Bft) O 94 ° 1 min 0,000 mm 3,9 UV-I 543 W/m² 5,9 °C 14,3 °C 12,9 km/h (3 Bft)
08.06.2017 10:08 14,3 °C 14,4 °C 57 % 1020,2 hPa 0,0 mm 3,3 km/h (1 Bft) O-NO 67 ° 1 min 0,000 mm 4,2 UV-I 606 W/m² 5,9 °C 14,3 °C 6,4 km/h (2 Bft)
08.06.2017 10:09 14,3 °C 14,3 °C 57 % 1020,2 hPa 0,0 mm 5,3 km/h (1 Bft) O-NO 77 ° 1 min 0,000 mm 4,2 UV-I 594 W/m² 5,9 °C 14,3 °C 8,0 km/h (2 Bft)
08.06.2017 10:10 14,3 °C 14,3 °C 55 % 1020,1 hPa 0,0 mm 3,3 km/h (1 Bft) O-NO 78 ° 1 min 0,000 mm 4,3 UV-I 624 W/m² 5,4 °C 14,3 °C 4,8 km/h (1 Bft)
08.06.2017 10:11 14,3 °C 14,3 °C 56 % 1020,1 hPa 0,0 mm 5,9 km/h (2 Bft) NO 44 ° 1 min 0,000 mm 4,3 UV-I 629 W/m² 5,6 °C 14,3 °C 6,4 km/h (2 Bft)
08.06.2017 10:12 14,3 °C 14,3 °C 56 % 1020,1 hPa 0,0 mm 4,3 km/h (1 Bft) O-NO 74 ° 1 min 0,000 mm 4,2 UV-I 610 W/m² 5,6 °C 14,3 °C 6,4 km/h (2 Bft)
08.06.2017 10:13 14,5 °C 14,5 °C 56 % 1020,1 hPa 0,0 mm 8,0 km/h (2 Bft) NO 49 ° 1 min 0,000 mm 4,3 UV-I 613 W/m² 5,8 °C 14,5 °C 12,9 km/h (3 Bft)
08.06.2017 10:14 14,6 °C 14,6 °C 54 % 1020,1 hPa 0,0 mm 6,1 km/h (2 Bft) O 84 ° 1 min 0,000 mm 4,4 UV-I 654 W/m² 5,4 °C 14,6 °C 8,0 km/h (2 Bft)
08.06.2017 10:15 14,6 °C 14,6 °C 54 % 1020,2 hPa 0,0 mm 7,7 km/h (2 Bft) O-NO 63 ° 1 min 0,000 mm 4,4 UV-I 631 W/m² 5,4 °C 14,6 °C 11,3 km/h (2 Bft)
08.06.2017 10:16 14,6 °C 14,6 °C 55 % 1020,2 hPa 0,0 mm 6,3 km/h (2 Bft) O 97 ° 1 min 0,000 mm 4,3 UV-I 601 W/m² 5,7 °C 14,6 °C 8,0 km/h (2 Bft)
08.06.2017 10:17 14,6 °C 14,6 °C 55 % 1020,2 hPa 0,0 mm 3,7 km/h (1 Bft) O-NO 78 ° 1 min 0,000 mm 4,5 UV-I 654 W/m² 5,7 °C 14,6 °C 4,8 km/h (1 Bft)
08.06.2017 10:18 14,6 °C 14,6 °C 55 % 1020,1 hPa 0,0 mm 6,8 km/h (2 Bft) O 100 ° 1 min 0,000 mm 4,5 UV-I 663 W/m² 5,7 °C 14,6 °C 12,9 km/h (3 Bft)
08.06.2017 10:19 14,7 °C 14,7 °C 54 % 1020,2 hPa 0,0 mm 8,2 km/h (2 Bft) O-NO 65 ° 1 min 0,000 mm 4,6 UV-I 675 W/m² 5,5 °C 14,7 °C 11,3 km/h (2 Bft)
08.06.2017 10:20 14,8 °C 14,8 °C 54 % 1020,1 hPa 0,0 mm 4,5 km/h (1 Bft) O-SO 107 ° 1 min 0,000 mm 4,7 UV-I 684 W/m² 5,6 °C 14,8 °C 9,7 km/h (2 Bft)
08.06.2017 10:21 14,8 °C 14,8 °C 57 % 1020,1 hPa 0,0 mm 4,7 km/h (1 Bft) O-NO 57 ° 1 min 0,000 mm 4,7 UV-I 689 W/m² 6,4 °C 14,8 °C 6,4 km/h (2 Bft)
08.06.2017 10:22 14,8 °C 14,8 °C 56 % 1020,2 hPa 0,0 mm 5,0 km/h (1 Bft) O-NO 66 ° 1 min 0,000 mm 4,7 UV-I 689 W/m² 6,1 °C 14,8 °C 9,7 km/h (2 Bft)
08.06.2017 10:23 14,7 °C 14,8 °C 53 % 1020,1 hPa 0,0 mm 4,3 km/h (1 Bft) O-NO 71 ° 1 min 0,000 mm 4,7 UV-I 686 W/m² 5,2 °C 14,7 °C 9,7 km/h (2 Bft)
08.06.2017 10:24 14,7 °C 14,7 °C 53 % 1020,1 hPa 0,0 mm 7,0 km/h (2 Bft) O-NO 61 ° 1 min 0,000 mm 4,7 UV-I 668 W/m² 5,2 °C 14,7 °C 9,7 km/h (2 Bft)
08.06.2017 10:25 14,7 °C 14,7 °C 53 % 1020,1 hPa 0,0 mm 7,1 km/h (2 Bft) O-NO 60 ° 1 min 0,000 mm 4,6 UV-I 659 W/m² 5,2 °C 14,7 °C 14,5 km/h (3 Bft)
08.06.2017 10:26 14,8 °C 14,8 °C 55 % 1020,1 hPa 0,0 mm 3,5 km/h (1 Bft) O 96 ° 1 min 0,000 mm 4,6 UV-I 675 W/m² 5,8 °C 14,8 °C 6,4 km/h (2 Bft)
08.06.2017 10:27 14,8 °C 14,8 °C 56 % 1020,1 hPa 0,0 mm 3,0 km/h (1 Bft) N 360 ° 1 min 0,000 mm 4,8 UV-I 686 W/m² 6,1 °C 14,8 °C 8,0 km/h (2 Bft)
08.06.2017 10:28 15,1 °C 15,1 °C 59 % 1020,1 hPa 0,0 mm 2,6 km/h (1 Bft) O-NO 71 ° 1 min 0,000 mm 4,9 UV-I 707 W/m² 7,1 °C 15,1 °C 8,0 km/h (2 Bft)
08.06.2017 10:29 15,1 °C 15,1 °C 56 % 1020,0 hPa 0,0 mm 6,2 km/h (2 Bft) N-NO 13 ° 1 min 0,000 mm 4,9 UV-I 715 W/m² 6,4 °C 15,1 °C 8,0 km/h (2 Bft)
08.06.2017 10:30 15,2 °C 15,2 °C 58 % 1020,0 hPa 0,0 mm 6,4 km/h (2 Bft) N-NO 32 ° 1 min 0,000 mm 4,9 UV-I 701 W/m² 7,0 °C 15,2 °C 8,0 km/h (2 Bft)
08.06.2017 10:31 15,3 °C 15,3 °C 55 % 1020,1 hPa 0,0 mm 5,7 km/h (1 Bft) NO 39 ° 1 min 0,000 mm 4,9 UV-I 693 W/m² 6,3 °C 15,3 °C 8,0 km/h (2 Bft)
08.06.2017 10:32 15,3 °C 15,4 °C 53 % 1020,0 hPa 0,0 mm 3,5 km/h (1 Bft) NO 51 ° 1 min 0,000 mm 5,0 UV-I 719 W/m² 5,8 °C 15,3 °C 4,8 km/h (1 Bft)
08.06.2017 10:33 15,2 °C 15,3 °C 53 % 1020,0 hPa 0,0 mm 3,0 km/h (1 Bft) N-NO 13 ° 1 min 0,000 mm 5,0 UV-I 737 W/m² 5,7 °C 15,2 °C 4,8 km/h (1 Bft)
08.06.2017 10:34 15,3 °C 15,3 °C 55 % 1020,0 hPa 0,0 mm 5,3 km/h (1 Bft) NO 42 ° 1 min 0,000 mm 5,1 UV-I 729 W/m² 6,3 °C 15,3 °C 11,3 km/h (2 Bft)
08.06.2017 10:35 15,3 °C 15,3 °C 53 % 1020,0 hPa 0,0 mm 4,0 km/h (1 Bft) N-NO 17 ° 1 min 0,000 mm 4,8 UV-I 666 W/m² 5,8 °C 15,3 °C 6,4 km/h (2 Bft)
08.06.2017 10:36 15,3 °C 15,3 °C 56 % 1020,0 hPa 0,0 mm 6,4 km/h (2 Bft) N-NW 337 ° 1 min 0,000 mm 5,1 UV-I 715 W/m² 6,6 °C 15,3 °C 12,9 km/h (3 Bft)
08.06.2017 10:37 15,4 °C 15,4 °C 54 % 1020,0 hPa 0,0 mm 4,4 km/h (1 Bft) N-NO 32 ° 1 min 0,000 mm 5,2 UV-I 735 W/m² 6,1 °C 15,4 °C 6,4 km/h (2 Bft)
08.06.2017 10:38 15,5 °C 15,5 °C 52 % 1020,0 hPa 0,0 mm 5,9 km/h (2 Bft) O-NO 57 ° 1 min 0,000 mm 5,1 UV-I 733 W/m² 5,7 °C 15,5 °C 9,7 km/h (2 Bft)
08.06.2017 10:39 15,5 °C 15,6 °C 51 % 1020,0 hPa 0,0 mm 8,2 km/h (2 Bft) NO 56 ° 1 min 0,000 mm 5,1 UV-I 733 W/m² 5,4 °C 15,5 °C 9,7 km/h (2 Bft)
08.06.2017 10:40 15,4 °C 15,5 °C 52 % 1020,0 hPa 0,0 mm 7,8 km/h (2 Bft) O 96 ° 1 min 0,000 mm 4,9 UV-I 693 W/m² 5,6 °C 15,4 °C 12,9 km/h (3 Bft)
08.06.2017 10:41 15,4 °C 15,4 °C 56 % 1020,0 hPa 0,0 mm 5,4 km/h (1 Bft) O-NO 63 ° 1 min 0,000 mm 4,9 UV-I 680 W/m² 6,7 °C 15,4 °C 9,7 km/h (2 Bft)
08.06.2017 10:42 15,4 °C 15,4 °C 51 % 1020,0 hPa 0,0 mm 8,4 km/h (2 Bft) NO 53 ° 1 min 0,000 mm 4,9 UV-I 675 W/m² 5,3 °C 15,4 °C 9,7 km/h (2 Bft)
08.06.2017 10:43 15,3 °C 15,4 °C 52 % 1019,9 hPa 0,0 mm 8,7 km/h (2 Bft) O-SO 117 ° 1 min 0,000 mm 4,9 UV-I 698 W/m² 5,5 °C 15,3 °C 14,5 km/h (3 Bft)
08.06.2017 10:44 15,3 °C 15,4 °C 51 % 1019,9 hPa 0,0 mm 6,9 km/h (2 Bft) O-NO 78 ° 1 min 0,000 mm 4,9 UV-I 664 W/m² 5,2 °C 15,3 °C 11,3 km/h (2 Bft)
08.06.2017 10:45 15,2 °C 15,3 °C 52 % 1020,0 hPa 0,0 mm 6,8 km/h (2 Bft) O-SO 105 ° 1 min 0,000 mm 4,9 UV-I 663 W/m² 5,4 °C 15,2 °C 11,3 km/h (2 Bft)
08.06.2017 10:46 15,1 °C 15,2 °C 51 % 1019,9 hPa 0,0 mm 4,9 km/h (1 Bft) O-NO 76 ° 1 min 0,000 mm 4,9 UV-I 661 W/m² 5,0 °C 15,1 °C 8,0 km/h (2 Bft)
08.06.2017 10:47 15,1 °C 15,1 °C 52 % 1019,9 hPa 0,0 mm 2,0 km/h (1 Bft) O-SO 109 ° 1 min 0,000 mm 5,0 UV-I 696 W/m² 5,3 °C 15,1 °C 4,8 km/h (1 Bft)
08.06.2017 10:48 15,1 °C 15,1 °C 54 % 1019,9 hPa 0,0 mm 2,9 km/h (1 Bft) O-NO 67 ° 1 min 0,000 mm 5,0 UV-I 689 W/m² 5,9 °C 15,1 °C 6,4 km/h (2 Bft)
08.06.2017 10:49 15,1 °C 15,1 °C 50 % 1019,9 hPa 0,0 mm 2,6 km/h (1 Bft) O-NO 78 ° 1 min 0,000 mm 5,0 UV-I 707 W/m² 4,8 °C 15,1 °C 4,8 km/h (1 Bft)
08.06.2017 10:50 15,2 °C 15,2 °C 55 % 1019,9 hPa 0,0 mm 5,7 km/h (1 Bft) NO 35 ° 1 min 0,000 mm 5,1 UV-I 728 W/m² 6,2 °C 15,2 °C 9,7 km/h (2 Bft)
08.06.2017 10:51 15,3 °C 15,3 °C 52 % 1019,9 hPa 0,0 mm 5,5 km/h (1 Bft) O-NO 61 ° 1 min 0,000 mm 5,2 UV-I 733 W/m² 5,5 °C 15,3 °C 8,0 km/h (2 Bft)
08.06.2017 10:52 15,3 °C 15,3 °C 51 % 1019,9 hPa 0,0 mm 2,6 km/h (1 Bft) O-NO 67 ° 1 min 0,000 mm 5,0 UV-I 694 W/m² 5,2 °C 15,3 °C 4,8 km/h (1 Bft)
08.06.2017 10:53 15,3 °C 15,3 °C 54 % 1019,9 hPa 0,0 mm 3,7 km/h (1 Bft) O-NO 59 ° 1 min 0,000 mm 5,0 UV-I 700 W/m² 6,0 °C 15,3 °C 6,4 km/h (2 Bft)
08.06.2017 10:54 15,4 °C 15,4 °C 58 % 1019,9 hPa 0,0 mm 3,6 km/h (1 Bft) NO 45 ° 1 min 0,000 mm 5,0 UV-I 682 W/m² 7,2 °C 15,4 °C 6,4 km/h (2 Bft)
08.06.2017 10:55 15,5 °C 15,5 °C 52 % 1019,9 hPa 0,0 mm 7,4 km/h (2 Bft) O-NO 61 ° 1 min 0,000 mm 5,0 UV-I 679 W/m² 5,7 °C 15,5 °C 12,9 km/h (3 Bft)
08.06.2017 10:56 15,6 °C 15,6 °C 52 % 1019,9 hPa 0,0 mm 4,0 km/h (1 Bft) O-NO 63 ° 1 min 0,000 mm 5,0 UV-I 701 W/m² 5,8 °C 15,6 °C 6,4 km/h (2 Bft)
08.06.2017 10:57 15,6 °C 15,6 °C 53 % 1019,8 hPa 0,0 mm 2,3 km/h (1 Bft) O-NO 76 ° 1 min 0,000 mm 5,2 UV-I 700 W/m² 6,1 °C 15,6 °C 4,8 km/h (1 Bft)
08.06.2017 10:58 15,6 °C 15,6 °C 56 % 1019,9 hPa 0,0 mm 7,4 km/h (2 Bft) O-NO 65 ° 1 min 0,000 mm 5,3 UV-I 726 W/m² 6,9 °C 15,6 °C 12,9 km/h (3 Bft)
08.06.2017 10:59 15,7 °C 15,7 °C 56 % 1019,9 hPa 0,0 mm 7,0 km/h (2 Bft) O 82 ° 1 min 0,000 mm 5,2 UV-I 726 W/m² 6,9 °C 15,7 °C 11,3 km/h (2 Bft)
08.06.2017 11:00 15,7 °C 15,7 °C 54 % 1019,9 hPa 0,0 mm 5,8 km/h (2 Bft) N-NO 15 ° 1 min 0,000 mm 5,3 UV-I 733 W/m² 6,4 °C 15,7 °C 8,0 km/h (2 Bft)
08.06.2017 11:01 15,8 °C 15,8 °C 54 % 1019,8 hPa 0,0 mm 5,8 km/h (2 Bft) N-NW 346 ° 1 min 0,381 mm 5,2 UV-I 714 W/m² 6,5 °C 15,8 °C 6,4 km/h (2 Bft)
08.06.2017 11:02 15,9 °C 15,9 °C 56 % 1019,9 hPa 0,0 mm 4,7 km/h (1 Bft) N-NO 24 ° 1 min 0,000 mm 5,3 UV-I 728 W/m² 7,1 °C 15,9 °C 6,4 km/h (2 Bft)
08.06.2017 11:03 16,0 °C 16,0 °C 55 % 1019,8 hPa 0,0 mm 2,8 km/h (1 Bft) N-NO 21 ° 1 min 0,000 mm 5,2 UV-I 712 W/m² 7,0 °C 16,0 °C 6,4 km/h (2 Bft)
08.06.2017 11:04 16,0 °C 16,0 °C 53 % 1019,8 hPa 0,0 mm 5,2 km/h (1 Bft) O-NO 78 ° 1 min 0,000 mm 5,0 UV-I 684 W/m² 6,4 °C 16,0 °C 8,0 km/h (2 Bft)
08.06.2017 11:05 15,9 °C 16,1 °C 52 % 1019,8 hPa 0,0 mm 6,4 km/h (2 Bft) NO 46 ° 1 min 0,000 mm 5,0 UV-I 668 W/m² 6,1 °C 15,9 °C 8,0 km/h (2 Bft)
08.06.2017 11:06 15,9 °C 15,9 °C 53 % 1019,8 hPa 0,0 mm 4,1 km/h (1 Bft) N-NO 13 ° 1 min 0,000 mm 5,1 UV-I 677 W/m² 6,3 °C 15,9 °C 6,4 km/h (2 Bft)
08.06.2017 11:07 15,9 °C 15,9 °C 51 % 1019,8 hPa 0,0 mm 2,6 km/h (1 Bft) NO 41 ° 1 min 0,000 mm 5,0 UV-I 703 W/m² 5,8 °C 15,9 °C 4,8 km/h (1 Bft)
08.06.2017 11:08 15,8 °C 15,9 °C 53 % 1019,8 hPa 0,0 mm 6,4 km/h (2 Bft) O-NO 60 ° 1 min 0,000 mm 5,3 UV-I 719 W/m² 6,2 °C 15,8 °C 11,3 km/h (2 Bft)
08.06.2017 11:09 15,7 °C 15,8 °C 50 % 1019,8 hPa 0,0 mm 6,8 km/h (2 Bft) N 9 ° 1 min 0,000 mm 5,4 UV-I 733 W/m² 5,3 °C 15,7 °C 9,7 km/h (2 Bft)
08.06.2017 11:10 15,8 °C 15,8 °C 52 % 1019,8 hPa 0,0 mm 6,2 km/h (2 Bft) NO 42 ° 1 min 0,000 mm 5,4 UV-I 737 W/m² 6,0 °C 15,8 °C 8,0 km/h (2 Bft)
08.06.2017 11:11 15,9 °C 15,9 °C 53 % 1019,8 hPa 0,0 mm 4,4 km/h (1 Bft) O-NO 67 ° 1 min 0,000 mm 5,4 UV-I 747 W/m² 6,3 °C 15,9 °C 6,4 km/h (2 Bft)
08.06.2017 11:12 15,9 °C 15,9 °C 51 % 1019,8 hPa 0,0 mm 4,5 km/h (1 Bft) NO 36 ° 1 min 0,000 mm 5,4 UV-I 740 W/m² 5,8 °C 15,9 °C 8,0 km/h (2 Bft)
08.06.2017 11:13 15,9 °C 15,9 °C 53 % 1019,8 hPa 0,0 mm 4,1 km/h (1 Bft) N-NO 28 ° 1 min 0,000 mm 5,4 UV-I 731 W/m² 6,3 °C 15,9 °C 6,4 km/h (2 Bft)
08.06.2017 11:14 16,1 °C 16,1 °C 56 % 1019,7 hPa 0,0 mm 3,0 km/h (1 Bft) O-NO 69 ° 1 min 0,000 mm 5,2 UV-I 691 W/m² 7,3 °C 16,1 °C 4,8 km/h (1 Bft)
08.06.2017 11:15 16,0 °C 16,1 °C 53 % 1019,7 hPa 0,0 mm 4,2 km/h (1 Bft) O-NO 70 ° 1 min 0,000 mm 5,1 UV-I 671 W/m² 6,4 °C 16,0 °C 6,4 km/h (2 Bft)
08.06.2017 11:16 16,1 °C 16,1 °C 56 % 1019,7 hPa 0,0 mm 2,7 km/h (1 Bft) O-NO 70 ° 1 min 0,000 mm 5,2 UV-I 671 W/m² 7,3 °C 16,1 °C 3,2 km/h (1 Bft)
08.06.2017 11:17 16,2 °C 16,2 °C 56 % 1019,8 hPa 0,0 mm 5,2 km/h (1 Bft) NO 45 ° 1 min 0,000 mm 5,1 UV-I 680 W/m² 7,4 °C 16,2 °C 9,7 km/h (2 Bft)
08.06.2017 11:18 16,1 °C 16,2 °C 52 % 1019,7 hPa 0,0 mm 3,4 km/h (1 Bft) NO 53 ° 1 min 0,000 mm 5,1 UV-I 670 W/m² 6,2 °C 16,1 °C 8,0 km/h (2 Bft)
08.06.2017 11:19 16,1 °C 16,1 °C 57 % 1019,7 hPa 0,0 mm 3,3 km/h (1 Bft) N-NO 26 ° 1 min 0,000 mm 5,1 UV-I 652 W/m² 7,6 °C 16,1 °C 6,4 km/h (2 Bft)
08.06.2017 11:20 16,1 °C 16,1 °C 53 % 1019,7 hPa 0,0 mm 4,6 km/h (1 Bft) N-NO 19 ° 1 min 0,000 mm 5,0 UV-I 659 W/m² 6,5 °C 16,1 °C 8,0 km/h (2 Bft)
08.06.2017 11:21 16,1 °C 16,1 °C 52 % 1019,7 hPa 0,0 mm 5,4 km/h (1 Bft) N 360 ° 1 min 0,000 mm 5,0 UV-I 645 W/m² 6,2 °C 16,1 °C 8,0 km/h (2 Bft)
08.06.2017 11:22 16,2 °C 16,2 °C 51 % 1019,7 hPa 0,0 mm 3,9 km/h (1 Bft) O 86 ° 1 min 0,000 mm 5,0 UV-I 650 W/m² 6,1 °C 16,2 °C 6,4 km/h (2 Bft)
08.06.2017 11:23 16,1 °C 16,2 °C 52 % 1019,7 hPa 0,0 mm 7,1 km/h (2 Bft) O-NO 73 ° 1 min 0,000 mm 5,1 UV-I 663 W/m² 6,2 °C 16,1 °C 11,3 km/h (2 Bft)
08.06.2017 11:24 16,0 °C 16,1 °C 52 % 1019,8 hPa 0,0 mm 5,2 km/h (1 Bft) O-SO 108 ° 1 min 0,000 mm 5,1 UV-I 645 W/m² 6,2 °C 16,0 °C 8,0 km/h (2 Bft)
08.06.2017 11:25 15,9 °C 16,0 °C 53 % 1019,7 hPa 0,0 mm 4,6 km/h (1 Bft) N-NO 30 ° 1 min 0,000 mm 4,9 UV-I 613 W/m² 6,3 °C 15,9 °C 8,0 km/h (2 Bft)
08.06.2017 11:26 16,0 °C 16,0 °C 53 % 1019,7 hPa 0,0 mm 4,6 km/h (1 Bft) N 360 ° 1 min 0,000 mm 4,8 UV-I 621 W/m² 6,4 °C 16,0 °C 8,0 km/h (2 Bft)
08.06.2017 11:27 16,1 °C 16,1 °C 57 % 1019,7 hPa 0,0 mm 2,6 km/h (1 Bft) N-NW 346 ° 1 min 0,000 mm 4,9 UV-I 624 W/m² 7,6 °C 16,1 °C 4,8 km/h (1 Bft)
08.06.2017 11:28 16,2 °C 16,2 °C 59 % 1019,7 hPa 0,0 mm 3,6 km/h (1 Bft) N 355 ° 1 min 0,000 mm 4,9 UV-I 631 W/m² 8,2 °C 16,2 °C 6,4 km/h (2 Bft)
08.06.2017 11:29 16,4 °C 16,4 °C 60 % 1019,7 hPa 0,0 mm 3,3 km/h (1 Bft) O 92 ° 1 min 0,000 mm 4,9 UV-I 621 W/m² 8,6 °C 16,4 °C 4,8 km/h (1 Bft)
08.06.2017 11:30 16,4 °C 16,4 °C 55 % 1019,6 hPa 0,0 mm 4,6 km/h (1 Bft) N-NO 30 ° 1 min 0,000 mm 4,9 UV-I 628 W/m² 7,3 °C 16,4 °C 8,0 km/h (2 Bft)
08.06.2017 11:31 16,4 °C 16,4 °C 57 % 1019,7 hPa 0,0 mm 5,4 km/h (1 Bft) NO 34 ° 1 min 0,000 mm 5,0 UV-I 652 W/m² 7,9 °C 16,4 °C 8,0 km/h (2 Bft)
08.06.2017 11:32 16,3 °C 16,4 °C 53 % 1019,7 hPa 0,0 mm 7,1 km/h (2 Bft) O 86 ° 1 min 0,000 mm 5,0 UV-I 645 W/m² 6,7 °C 16,3 °C 11,3 km/h (2 Bft)
08.06.2017 11:33 16,3 °C 16,3 °C 55 % 1019,6 hPa 0,0 mm 3,3 km/h (1 Bft) O 86 ° 1 min 0,000 mm 5,0 UV-I 642 W/m² 7,2 °C 16,3 °C 6,4 km/h (2 Bft)
08.06.2017 11:34 16,2 °C 16,3 °C 53 % 1019,7 hPa 0,0 mm 2,3 km/h (1 Bft) SO 141 ° 1 min 0,000 mm 5,0 UV-I 643 W/m² 6,6 °C 16,2 °C 4,8 km/h (1 Bft)
08.06.2017 11:35 16,1 °C 16,2 °C 54 % 1019,7 hPa 0,0 mm 4,3 km/h (1 Bft) O-NO 75 ° 1 min 0,000 mm 5,0 UV-I 642 W/m² 6,8 °C 16,1 °C 9,7 km/h (2 Bft)
08.06.2017 11:36 16,1 °C 16,1 °C 53 % 1019,7 hPa 0,0 mm 5,0 km/h (1 Bft) O 84 ° 1 min 0,000 mm 5,0 UV-I 649 W/m² 6,5 °C 16,1 °C 11,3 km/h (2 Bft)
08.06.2017 11:37 16,1 °C 16,1 °C 55 % 1019,6 hPa 0,0 mm 5,7 km/h (1 Bft) N 360 ° 1 min 0,000 mm 5,0 UV-I 640 W/m² 7,1 °C 16,1 °C 8,0 km/h (2 Bft)
08.06.2017 11:38 16,1 °C 16,1 °C 54 % 1019,7 hPa 0,0 mm 2,3 km/h (1 Bft) N 360 ° 1 min 0,000 mm 4,9 UV-I 631 W/m² 6,8 °C 16,1 °C 4,8 km/h (1 Bft)
08.06.2017 11:39 16,2 °C 16,2 °C 58 % 1019,7 hPa 0,0 mm 3,3 km/h (1 Bft) N-NO 22 ° 1 min 0,000 mm 4,9 UV-I 638 W/m² 7,9 °C 16,2 °C 4,8 km/h (1 Bft)
08.06.2017 11:40 16,2 °C 16,2 °C 54 % 1019,7 hPa 0,0 mm 3,0 km/h (1 Bft) O 87 ° 1 min 0,000 mm 4,9 UV-I 619 W/m² 6,9 °C 16,2 °C 4,8 km/h (1 Bft)
08.06.2017 11:41 16,1 °C 16,2 °C 56 % 1019,6 hPa 0,0 mm 2,2 km/h (1 Bft) NO 46 ° 1 min 0,000 mm 4,9 UV-I 626 W/m² 7,3 °C 16,1 °C 4,8 km/h (1 Bft)
08.06.2017 11:42 16,2 °C 16,2 °C 58 % 1019,7 hPa 0,0 mm 3,2 km/h (1 Bft) NO 42 ° 1 min 0,000 mm 4,9 UV-I 619 W/m² 7,9 °C 16,2 °C 4,8 km/h (1 Bft)
08.06.2017 11:43 16,2 °C 16,2 °C 56 % 1019,7 hPa 0,0 mm 3,3 km/h (1 Bft) O-NO 63 ° 1 min 0,000 mm 5,0 UV-I 633 W/m² 7,4 °C 16,2 °C 6,4 km/h (2 Bft)
08.06.2017 11:44 16,3 °C 16,3 °C 55 % 1019,7 hPa 0,0 mm 4,9 km/h (1 Bft) O 96 ° 1 min 0,000 mm 5,0 UV-I 631 W/m² 7,2 °C 16,3 °C 11,3 km/h (2 Bft)
08.06.2017 11:45 16,3 °C 16,3 °C 54 % 1019,7 hPa 0,0 mm 9,7 km/h (2 Bft) O-NO 76 ° 1 min 0,000 mm 5,0 UV-I 636 W/m² 7,0 °C 16,3 °C 14,5 km/h (3 Bft)
08.06.2017 11:46 16,2 °C 16,3 °C 52 % 1019,7 hPa 0,0 mm 7,1 km/h (2 Bft) NO 37 ° 1 min 0,000 mm 5,0 UV-I 638 W/m² 6,3 °C 16,2 °C 11,3 km/h (2 Bft)
08.06.2017 11:47 16,3 °C 16,3 °C 52 % 1019,7 hPa 0,0 mm 7,4 km/h (2 Bft) O-NO 59 ° 1 min 0,000 mm 5,1 UV-I 647 W/m² 6,4 °C 16,3 °C 9,7 km/h (2 Bft)
08.06.2017 11:48 16,3 °C 16,3 °C 50 % 1019,7 hPa 0,0 mm 6,6 km/h (2 Bft) O-NO 61 ° 1 min 0,000 mm 5,3 UV-I 680 W/m² 5,9 °C 16,3 °C 9,7 km/h (2 Bft)
08.06.2017 11:49 16,3 °C 16,3 °C 53 % 1019,7 hPa 0,0 mm 1,1 km/h (1 Bft) N-NO 13 ° 1 min 0,000 mm 5,2 UV-I 677 W/m² 6,7 °C 16,3 °C 3,2 km/h (1 Bft)
08.06.2017 11:50 16,3 °C 16,3 °C 57 % 1019,6 hPa 0,0 mm 5,4 km/h (1 Bft) N-NW 338 ° 1 min 0,000 mm 5,3 UV-I 675 W/m² 7,8 °C 16,3 °C 8,0 km/h (2 Bft)
08.06.2017 11:51 16,4 °C 16,4 °C 53 % 1019,7 hPa 0,0 mm 5,6 km/h (1 Bft) N-NO 20 ° 1 min 0,000 mm 5,3 UV-I 677 W/m² 6,8 °C 16,4 °C 8,0 km/h (2 Bft)
08.06.2017 11:52 16,4 °C 16,4 °C 49 % 1019,7 hPa 0,0 mm 8,1 km/h (2 Bft) O 82 ° 1 min 0,000 mm 5,2 UV-I 670 W/m² 5,7 °C 16,4 °C 9,7 km/h (2 Bft)
08.06.2017 11:53 16,3 °C 16,4 °C 52 % 1019,7 hPa 0,0 mm 7,3 km/h (2 Bft) NO 52 ° 1 min 0,000 mm 5,2 UV-I 670 W/m² 6,4 °C 16,3 °C 9,7 km/h (2 Bft)
08.06.2017 11:54 16,3 °C 16,3 °C 51 % 1019,6 hPa 0,0 mm 3,9 km/h (1 Bft) NO 37 ° 1 min 0,000 mm 5,1 UV-I 656 W/m² 6,1 °C 16,3 °C 4,8 km/h (1 Bft)
08.06.2017 11:55 16,3 °C 16,4 °C 50 % 1019,6 hPa 0,0 mm 4,5 km/h (1 Bft) NO 46 ° 1 min 0,000 mm 5,1 UV-I 654 W/m² 5,9 °C 16,3 °C 8,0 km/h (2 Bft)
08.06.2017 11:56 16,3 °C 16,3 °C 49 % 1019,7 hPa 0,0 mm 0,8 km/h (0 Bft) NO 46 ° 1 min 0,000 mm 4,9 UV-I 621 W/m² 5,6 °C 16,3 °C 4,8 km/h (1 Bft)
08.06.2017 11:57 16,4 °C 16,4 °C 53 % 1019,7 hPa 0,0 mm 4,3 km/h (1 Bft) N-NW 342 ° 1 min 0,000 mm 4,9 UV-I 605 W/m² 6,8 °C 16,4 °C 6,4 km/h (2 Bft)
08.06.2017 11:58 16,6 °C 16,6 °C 50 % 1019,7 hPa 0,0 mm 1,9 km/h (1 Bft) N-NW 330 ° 1 min 0,000 mm 4,8 UV-I 606 W/m² 6,1 °C 16,6 °C 4,8 km/h (1 Bft)
08.06.2017 11:59 16,7 °C 16,7 °C 56 % 1019,7 hPa 0,0 mm 3,3 km/h (1 Bft) N-NO 15 ° 1 min 0,000 mm 4,8 UV-I 598 W/m² 7,9 °C 16,7 °C 9,7 km/h (2 Bft)
08.06.2017 12:00 16,8 °C 16,8 °C 52 % 1019,7 hPa 0,0 mm 4,0 km/h (1 Bft) N-NW 327 ° 1 min 0,000 mm 4,7 UV-I 573 W/m² 6,9 °C 16,8 °C 4,8 km/h (1 Bft)
08.06.2017 12:01 16,9 °C 16,9 °C 53 % 1019,7 hPa 0,0 mm 6,4 km/h (2 Bft) N-NW 336 ° 1 min 0,381 mm 4,5 UV-I 552 W/m² 7,3 °C 16,9 °C 9,7 km/h (2 Bft)
08.06.2017 12:02 16,9 °C 16,9 °C 50 % 1019,6 hPa 0,0 mm 5,9 km/h (2 Bft) N 9 ° 1 min 0,000 mm 4,5 UV-I 555 W/m² 6,4 °C 16,9 °C 8,0 km/h (2 Bft)
08.06.2017 12:03 16,9 °C 16,9 °C 54 % 1019,7 hPa 0,0 mm 4,8 km/h (1 Bft) N-NO 28 ° 1 min 0,000 mm 4,5 UV-I 541 W/m² 7,5 °C 16,9 °C 6,4 km/h (2 Bft)
08.06.2017 12:04 16,9 °C 16,9 °C 50 % 1019,7 hPa 0,0 mm 6,5 km/h (2 Bft) N-NO 13 ° 1 min 0,000 mm 4,5 UV-I 541 W/m² 6,4 °C 16,9 °C 9,7 km/h (2 Bft)
08.06.2017 12:05 16,9 °C 16,9 °C 48 % 1019,7 hPa 0,0 mm 6,0 km/h (2 Bft) N 360 ° 1 min 0,000 mm 4,5 UV-I 543 W/m² 5,8 °C 16,9 °C 9,7 km/h (2 Bft)
08.06.2017 12:06 16,8 °C 16,9 °C 48 % 1019,7 hPa 0,0 mm 4,6 km/h (1 Bft) N-NO 22 ° 1 min 0,000 mm 4,5 UV-I 531 W/m² 5,7 °C 16,8 °C 6,4 km/h (2 Bft)
08.06.2017 12:07 16,7 °C 16,8 °C 49 % 1019,7 hPa 0,0 mm 7,5 km/h (2 Bft) O 82 ° 1 min 0,000 mm 4,4 UV-I 526 W/m² 5,9 °C 16,7 °C 12,9 km/h (3 Bft)
08.06.2017 12:08 16,7 °C 16,7 °C 50 % 1019,6 hPa 0,0 mm 5,2 km/h (1 Bft) O-NO 74 ° 1 min 0,000 mm 4,5 UV-I 536 W/m² 6,2 °C 16,7 °C 6,4 km/h (2 Bft)
08.06.2017 12:09 16,7 °C 16,7 °C 48 % 1019,7 hPa 0,0 mm 4,5 km/h (1 Bft) N-NO 33 ° 1 min 0,000 mm 4,7 UV-I 573 W/m² 5,6 °C 16,7 °C 6,4 km/h (2 Bft)
08.06.2017 12:10 16,6 °C 16,7 °C 45 % 1019,7 hPa 0,0 mm 7,4 km/h (2 Bft) NO 36 ° 1 min 0,000 mm 4,8 UV-I 596 W/m² 4,6 °C 16,6 °C 9,7 km/h (2 Bft)
08.06.2017 12:11 16,4 °C 16,6 °C 45 % 1019,6 hPa 0,0 mm 5,5 km/h (1 Bft) NO 52 ° 1 min 0,000 mm 4,9 UV-I 603 W/m² 4,4 °C 16,4 °C 6,4 km/h (2 Bft)
08.06.2017 12:12 16,4 °C 16,4 °C 47 % 1019,6 hPa 0,0 mm 3,5 km/h (1 Bft) O-NO 57 ° 1 min 0,000 mm 5,0 UV-I 633 W/m² 5,1 °C 16,4 °C 6,4 km/h (2 Bft)
08.06.2017 12:13 16,3 °C 16,4 °C 48 % 1019,6 hPa 0,0 mm 5,7 km/h (1 Bft) O 82 ° 1 min 0,000 mm 5,0 UV-I 615 W/m² 5,3 °C 16,3 °C 8,0 km/h (2 Bft)
08.06.2017 12:14 16,2 °C 16,3 °C 48 % 1019,6 hPa 0,0 mm 2,4 km/h (1 Bft) O 82 ° 1 min 0,000 mm 5,1 UV-I 617 W/m² 5,2 °C 16,2 °C 3,2 km/h (1 Bft)
08.06.2017 12:15 16,2 °C 16,2 °C 49 % 1019,6 hPa 0,0 mm 2,1 km/h (1 Bft) O 82 ° 1 min 0,000 mm 5,1 UV-I 624 W/m² 5,5 °C 16,2 °C 3,2 km/h (1 Bft)
08.06.2017 12:16 16,2 °C 16,2 °C 50 % 1019,6 hPa 0,0 mm 2,6 km/h (1 Bft) O 94 ° 1 min 0,000 mm 5,2 UV-I 636 W/m² 5,8 °C 16,2 °C 6,4 km/h (2 Bft)
08.06.2017 12:17 16,3 °C 16,3 °C 51 % 1019,5 hPa 0,0 mm 3,1 km/h (1 Bft) O-NO 61 ° 1 min 0,000 mm 5,2 UV-I 647 W/m² 6,1 °C 16,3 °C 4,8 km/h (1 Bft)
08.06.2017 12:18 16,3 °C 16,3 °C 49 % 1019,5 hPa 0,0 mm 1,1 km/h (1 Bft) O-NO 61 ° 1 min 0,000 mm 5,2 UV-I 647 W/m² 5,6 °C 16,3 °C 3,2 km/h (1 Bft)
08.06.2017 12:19 16,3 °C 16,4 °C 49 % 1019,5 hPa 0,0 mm 4,3 km/h (1 Bft) NO 44 ° 1 min 0,000 mm 5,3 UV-I 650 W/m² 5,6 °C 16,3 °C 8,0 km/h (2 Bft)
08.06.2017 12:20 16,3 °C 16,3 °C 47 % 1019,4 hPa 0,0 mm 2,7 km/h (1 Bft) N-NW 340 ° 1 min 0,000 mm 5,3 UV-I 652 W/m² 5,0 °C 16,3 °C 4,8 km/h (1 Bft)
08.06.2017 12:21 16,4 °C 16,4 °C 55 % 1019,5 hPa 0,0 mm 4,4 km/h (1 Bft) O-NO 64 ° 1 min 0,000 mm 5,4 UV-I 654 W/m² 7,3 °C 16,4 °C 8,0 km/h (2 Bft)
08.06.2017 12:22 16,6 °C 16,6 °C 49 % 1019,5 hPa 0,0 mm 3,5 km/h (1 Bft) O 101 ° 1 min 0,000 mm 5,6 UV-I 679 W/m² 5,8 °C 16,6 °C 4,8 km/h (1 Bft)
08.06.2017 12:23 16,7 °C 16,7 °C 50 % 1019,5 hPa 0,0 mm 5,1 km/h (1 Bft) N 360 ° 1 min 0,000 mm 5,6 UV-I 701 W/m² 6,2 °C 16,7 °C 8,0 km/h (2 Bft)
08.06.2017 12:24 16,7 °C 16,7 °C 51 % 1019,5 hPa 0,0 mm 3,8 km/h (1 Bft) NO 36 ° 1 min 0,000 mm 5,5 UV-I 728 W/m² 6,5 °C 16,7 °C 4,8 km/h (1 Bft)
08.06.2017 12:25 16,7 °C 16,8 °C 50 % 1019,5 hPa 0,0 mm 3,2 km/h (1 Bft) NO 36 ° 1 min 0,000 mm 5,9 UV-I 749 W/m² 6,2 °C 16,7 °C 4,8 km/h (1 Bft)
08.06.2017 12:26 16,8 °C 16,8 °C 51 % 1019,5 hPa 0,0 mm 4,3 km/h (1 Bft) O-SO 113 ° 1 min 0,000 mm 6,0 UV-I 756 W/m² 6,6 °C 16,8 °C 9,7 km/h (2 Bft)
08.06.2017 12:27 16,8 °C 16,8 °C 53 % 1019,5 hPa 0,0 mm 7,8 km/h (2 Bft) NO 49 ° 1 min 0,000 mm 6,0 UV-I 759 W/m² 7,2 °C 16,8 °C 9,7 km/h (2 Bft)
08.06.2017 12:28 16,7 °C 16,8 °C 49 % 1019,5 hPa 0,0 mm 3,0 km/h (1 Bft) NO 49 ° 1 min 0,000 mm 6,1 UV-I 772 W/m² 5,9 °C 16,7 °C 6,4 km/h (2 Bft)
08.06.2017 12:29 16,8 °C 16,8 °C 52 % 1019,5 hPa 0,0 mm 4,0 km/h (1 Bft) O 85 ° 1 min 0,000 mm 5,8 UV-I 677 W/m² 6,9 °C 16,8 °C 9,7 km/h (2 Bft)
08.06.2017 12:30 16,8 °C 16,8 °C 53 % 1019,5 hPa 0,0 mm 2,7 km/h (1 Bft) O 86 ° 1 min 0,000 mm 5,4 UV-I 654 W/m² 7,2 °C 16,8 °C 4,8 km/h (1 Bft)
08.06.2017 12:31 16,8 °C 16,8 °C 51 % 1019,5 hPa 0,0 mm 1,8 km/h (1 Bft) SO 126 ° 1 min 0,000 mm 5,6 UV-I 684 W/m² 6,6 °C 16,8 °C 4,8 km/h (1 Bft)
08.06.2017 12:32 16,7 °C 16,8 °C 51 % 1019,5 hPa 0,0 mm 1,7 km/h (1 Bft) O 83 ° 1 min 0,000 mm 5,6 UV-I 680 W/m² 6,5 °C 16,7 °C 3,2 km/h (1 Bft)
08.06.2017 12:33 16,7 °C 16,7 °C 52 % 1019,5 hPa 0,0 mm 0,9 km/h (0 Bft) O 83 ° 1 min 0,000 mm 5,9 UV-I 740 W/m² 6,8 °C 16,7 °C 3,2 km/h (1 Bft)
08.06.2017 12:34 16,6 °C 16,7 °C 50 % 1019,5 hPa 0,0 mm 1,5 km/h (1 Bft) O-NO 70 ° 1 min 0,000 mm 5,8 UV-I 701 W/m² 6,1 °C 16,6 °C 3,2 km/h (1 Bft)
08.06.2017 12:35 16,7 °C 16,7 °C 51 % 1019,4 hPa 0,0 mm 3,9 km/h (1 Bft) O 79 ° 1 min 0,000 mm 5,9 UV-I 747 W/m² 6,5 °C 16,7 °C 9,7 km/h (2 Bft)
08.06.2017 12:36 16,7 °C 16,7 °C 53 % 1019,4 hPa 0,0 mm 9,1 km/h (2 Bft) O-NO 68 ° 1 min 0,000 mm 6,0 UV-I 742 W/m² 7,1 °C 16,7 °C 16,1 km/h (3 Bft)
08.06.2017 12:37 16,7 °C 16,7 °C 51 % 1019,5 hPa 0,0 mm 9,6 km/h (2 Bft) O-SO 104 ° 1 min 0,000 mm 5,9 UV-I 735 W/m² 6,5 °C 16,7 °C 12,9 km/h (3 Bft)
08.06.2017 12:38 16,7 °C 16,7 °C 50 % 1019,4 hPa 0,0 mm 1,5 km/h (1 Bft) O-NO 60 ° 1 min 0,000 mm 6,0 UV-I 742 W/m² 6,2 °C 16,7 °C 4,8 km/h (1 Bft)
08.06.2017 12:39 16,7 °C 16,7 °C 50 % 1019,4 hPa 0,0 mm 4,5 km/h (1 Bft) N-NO 28 ° 1 min 0,000 mm 6,3 UV-I 770 W/m² 6,2 °C 16,7 °C 8,0 km/h (2 Bft)
08.06.2017 12:40 16,7 °C 16,8 °C 48 % 1019,5 hPa 0,0 mm 5,8 km/h (2 Bft) N 350 ° 1 min 0,000 mm 6,4 UV-I 812 W/m² 5,6 °C 16,7 °C 8,0 km/h (2 Bft)
08.06.2017 12:41 16,8 °C 16,8 °C 52 % 1019,4 hPa 0,0 mm 3,9 km/h (1 Bft) N-NO 26 ° 1 min 0,000 mm 6,4 UV-I 782 W/m² 6,9 °C 16,8 °C 4,8 km/h (1 Bft)
08.06.2017 12:42 16,9 °C 16,9 °C 51 % 1019,4 hPa 0,0 mm 4,4 km/h (1 Bft) O-NO 76 ° 1 min 0,000 mm 6,5 UV-I 812 W/m² 6,7 °C 16,9 °C 6,4 km/h (2 Bft)
08.06.2017 12:43 17,0 °C 17,0 °C 50 % 1019,5 hPa 0,0 mm 3,8 km/h (1 Bft) O 93 ° 1 min 0,000 mm 6,7 UV-I 856 W/m² 6,5 °C 17,0 °C 6,4 km/h (2 Bft)
08.06.2017 12:44 17,1 °C 17,1 °C 52 % 1019,4 hPa 0,0 mm 1,8 km/h (1 Bft) O 83 ° 1 min 0,000 mm 6,7 UV-I 851 W/m² 7,2 °C 17,1 °C 3,2 km/h (1 Bft)
08.06.2017 12:45 17,1 °C 17,1 °C 50 % 1019,5 hPa 0,0 mm 3,7 km/h (1 Bft) SO 138 ° 1 min 0,000 mm 6,7 UV-I 847 W/m² 6,6 °C 17,1 °C 6,4 km/h (2 Bft)
08.06.2017 12:46 16,9 °C 17,1 °C 50 % 1019,4 hPa 0,0 mm 4,7 km/h (1 Bft) S 179 ° 1 min 0,000 mm 6,6 UV-I 842 W/m² 6,4 °C 16,9 °C 8,0 km/h (2 Bft)
08.06.2017 12:47 16,9 °C 16,9 °C 48 % 1019,5 hPa 0,0 mm 3,0 km/h (1 Bft) SO 146 ° 1 min 0,000 mm 6,8 UV-I 854 W/m² 5,8 °C 16,9 °C 4,8 km/h (1 Bft)
08.06.2017 12:48 16,9 °C 16,9 °C 51 % 1019,5 hPa 0,0 mm 3,6 km/h (1 Bft) N 355 ° 1 min 0,000 mm 6,5 UV-I 831 W/m² 6,7 °C 16,9 °C 6,4 km/h (2 Bft)
08.06.2017 12:49 17,1 °C 17,1 °C 53 % 1019,4 hPa 0,0 mm 5,4 km/h (1 Bft) N 360 ° 1 min 0,000 mm 6,4 UV-I 812 W/m² 7,4 °C 17,1 °C 6,4 km/h (2 Bft)
08.06.2017 12:50 17,2 °C 17,2 °C 48 % 1019,4 hPa 0,0 mm 3,6 km/h (1 Bft) N 5 ° 1 min 0,000 mm 6,3 UV-I 788 W/m² 6,1 °C 17,2 °C 4,8 km/h (1 Bft)
08.06.2017 12:51 17,3 °C 17,3 °C 52 % 1019,4 hPa 0,0 mm 5,0 km/h (1 Bft) N-NW 347 ° 1 min 0,000 mm 6,5 UV-I 807 W/m² 7,3 °C 17,3 °C 8,0 km/h (2 Bft)
08.06.2017 12:52 17,4 °C 17,4 °C 54 % 1019,4 hPa 0,0 mm 5,5 km/h (1 Bft) NW 311 ° 1 min 0,000 mm 6,4 UV-I 800 W/m² 8,0 °C 17,4 °C 8,0 km/h (2 Bft)
08.06.2017 12:53 17,6 °C 17,6 °C 56 % 1019,5 hPa 0,0 mm 3,1 km/h (1 Bft) N 355 ° 1 min 0,000 mm 6,2 UV-I 761 W/m² 8,7 °C 17,6 °C 6,4 km/h (2 Bft)
08.06.2017 12:54 17,8 °C 17,8 °C 52 % 1019,4 hPa 0,0 mm 3,4 km/h (1 Bft) N-NW 348 ° 1 min 0,000 mm 6,3 UV-I 763 W/m² 7,8 °C 17,8 °C 4,8 km/h (1 Bft)
08.06.2017 12:55 17,9 °C 17,9 °C 52 % 1019,4 hPa 0,0 mm 3,7 km/h (1 Bft) NO 37 ° 1 min 0,000 mm 6,3 UV-I 772 W/m² 7,9 °C 17,9 °C 4,8 km/h (1 Bft)
08.06.2017 12:56 17,8 °C 17,9 °C 49 % 1019,4 hPa 0,0 mm 4,1 km/h (1 Bft) O 84 ° 1 min 0,000 mm 6,2 UV-I 766 W/m² 6,9 °C 17,8 °C 8,0 km/h (2 Bft)
08.06.2017 12:57 17,7 °C 17,8 °C 50 % 1019,5 hPa 0,0 mm 6,1 km/h (2 Bft) O-SO 117 ° 1 min 0,000 mm 6,3 UV-I 775 W/m² 7,1 °C 17,7 °C 8,0 km/h (2 Bft)
08.06.2017 12:58 17,6 °C 17,7 °C 49 % 1019,5 hPa 0,0 mm 4,6 km/h (1 Bft) O-NO 71 ° 1 min 0,000 mm 6,3 UV-I 766 W/m² 6,8 °C 17,6 °C 12,9 km/h (3 Bft)
08.06.2017 12:59 17,4 °C 17,6 °C 50 % 1019,5 hPa 0,0 mm 4,2 km/h (1 Bft) N-NO 26 ° 1 min 0,000 mm 6,3 UV-I 793 W/m² 6,9 °C 17,4 °C 8,0 km/h (2 Bft)
08.06.2017 13:00 17,4 °C 17,4 °C 48 % 1019,5 hPa 0,0 mm 3,4 km/h (1 Bft) NO 49 ° 1 min 0,407 mm 6,4 UV-I 786 W/m² 6,3 °C 17,4 °C 6,4 km/h (2 Bft)
08.06.2017 13:01 17,4 °C 17,4 °C 50 % 1019,4 hPa 0,0 mm 2,9 km/h (1 Bft) NO 55 ° 1 min 0,000 mm 6,2 UV-I 780 W/m² 6,9 °C 17,4 °C 4,8 km/h (1 Bft)
08.06.2017 13:02 17,3 °C 17,4 °C 48 % 1019,5 hPa 0,0 mm 0,6 km/h (0 Bft) NO 55 ° 1 min 0,000 mm 5,9 UV-I 703 W/m² 6,2 °C 17,3 °C 1,6 km/h (1 Bft)
08.06.2017 13:03 17,2 °C 17,3 °C 50 % 1019,4 hPa 0,0 mm 2,7 km/h (1 Bft) O-NO 76 ° 1 min 0,000 mm 5,9 UV-I 722 W/m² 6,7 °C 17,2 °C 6,4 km/h (2 Bft)
08.06.2017 13:04 17,3 °C 17,3 °C 51 % 1019,4 hPa 0,0 mm 1,7 km/h (1 Bft) O-NO 76 ° 1 min 0,000 mm 6,3 UV-I 766 W/m² 7,1 °C 17,3 °C 4,8 km/h (1 Bft)
08.06.2017 13:05 17,3 °C 17,3 °C 54 % 1019,3 hPa 0,0 mm 3,4 km/h (1 Bft) N 9 ° 1 min 0,000 mm 6,3 UV-I 823 W/m² 7,9 °C 17,3 °C 6,4 km/h (2 Bft)
08.06.2017 13:06 17,6 °C 17,6 °C 51 % 1019,3 hPa 0,0 mm 4,0 km/h (1 Bft) N 355 ° 1 min 0,000 mm 6,8 UV-I 861 W/m² 7,3 °C 17,6 °C 6,4 km/h (2 Bft)
08.06.2017 13:07 17,8 °C 17,8 °C 52 % 1019,4 hPa 0,0 mm 3,2 km/h (1 Bft) N-NW 347 ° 1 min 0,000 mm 6,9 UV-I 879 W/m² 7,8 °C 17,8 °C 9,7 km/h (2 Bft)
08.06.2017 13:08 17,9 °C 17,9 °C 51 % 1019,3 hPa 0,0 mm 6,9 km/h (2 Bft) N-NO 15 ° 1 min 0,000 mm 6,7 UV-I 858 W/m² 7,6 °C 17,9 °C 11,3 km/h (2 Bft)
08.06.2017 13:09 18,1 °C 18,1 °C 49 % 1019,3 hPa 0,0 mm 6,8 km/h (2 Bft) N-NO 24 ° 1 min 0,000 mm 6,6 UV-I 826 W/m² 7,2 °C 18,1 °C 9,7 km/h (2 Bft)
08.06.2017 13:10 18,2 °C 18,2 °C 53 % 1019,3 hPa 0,0 mm 2,8 km/h (1 Bft) N 360 ° 1 min 0,000 mm 6,5 UV-I 810 W/m² 8,5 °C 18,2 °C 4,8 km/h (1 Bft)
08.06.2017 13:11 18,2 °C 18,2 °C 54 % 1019,3 hPa 0,0 mm 6,4 km/h (2 Bft) N-NW 336 ° 1 min 0,000 mm 6,7 UV-I 837 W/m² 8,7 °C 18,2 °C 9,7 km/h (2 Bft)
08.06.2017 13:12 18,3 °C 18,3 °C 53 % 1019,3 hPa 0,0 mm 4,2 km/h (1 Bft) N-NO 15 ° 1 min 0,000 mm 6,7 UV-I 858 W/m² 8,6 °C 18,3 °C 8,0 km/h (2 Bft)
08.06.2017 13:13 18,3 °C 18,3 °C 49 % 1019,3 hPa 0,0 mm 5,6 km/h (1 Bft) N 5 ° 1 min 0,000 mm 6,8 UV-I 863 W/m² 7,4 °C 18,3 °C 8,0 km/h (2 Bft)
08.06.2017 13:14 18,3 °C 18,3 °C 51 % 1019,3 hPa 0,0 mm 4,5 km/h (1 Bft) N 10 ° 1 min 0,000 mm 6,7 UV-I 837 W/m² 8,0 °C 18,3 °C 6,4 km/h (2 Bft)
08.06.2017 13:15 18,3 °C 18,4 °C 47 % 1019,2 hPa 0,0 mm 6,3 km/h (2 Bft) O-NO 73 ° 1 min 0,000 mm 6,6 UV-I 844 W/m² 6,8 °C 18,3 °C 9,7 km/h (2 Bft)
08.06.2017 13:16 18,2 °C 18,4 °C 47 % 1019,3 hPa 0,0 mm 10,4 km/h (2 Bft) O-NO 69 ° 1 min 0,000 mm 6,4 UV-I 735 W/m² 6,7 °C 18,2 °C 16,1 km/h (3 Bft)
08.06.2017 13:17 18,1 °C 18,2 °C 49 % 1019,3 hPa 0,0 mm 3,7 km/h (1 Bft) O-NO 76 ° 1 min 0,000 mm 5,7 UV-I 687 W/m² 7,2 °C 18,1 °C 8,0 km/h (2 Bft)
08.06.2017 13:18 17,9 °C 18,1 °C 49 % 1019,3 hPa 0,0 mm 6,2 km/h (2 Bft) O-SO 103 ° 1 min 0,000 mm 5,8 UV-I 689 W/m² 7,0 °C 17,9 °C 9,7 km/h (2 Bft)
08.06.2017 13:19 17,8 °C 17,9 °C 47 % 1019,3 hPa 0,0 mm 3,1 km/h (1 Bft) NO 47 ° 1 min 0,000 mm 5,8 UV-I 703 W/m² 6,3 °C 17,8 °C 4,8 km/h (1 Bft)
08.06.2017 13:20 17,6 °C 17,8 °C 47 % 1019,3 hPa 0,0 mm 4,3 km/h (1 Bft) O-NO 69 ° 1 min 0,000 mm 5,9 UV-I 705 W/m² 6,2 °C 17,6 °C 6,4 km/h (2 Bft)
08.06.2017 13:21 17,6 °C 17,7 °C 48 % 1019,3 hPa 0,0 mm 5,7 km/h (1 Bft) NO 54 ° 1 min 0,000 mm 5,9 UV-I 721 W/m² 6,5 °C 17,6 °C 8,0 km/h (2 Bft)
08.06.2017 13:22 17,6 °C 17,6 °C 47 % 1019,3 hPa 0,0 mm 2,1 km/h (1 Bft) NO 54 ° 1 min 0,000 mm 5,5 UV-I 640 W/m² 6,2 °C 17,6 °C 4,8 km/h (1 Bft)
08.06.2017 13:23 17,4 °C 17,6 °C 46 % 1019,2 hPa 0,0 mm 3,1 km/h (1 Bft) O-SO 103 ° 1 min 0,000 mm 5,8 UV-I 689 W/m² 5,7 °C 17,4 °C 4,8 km/h (1 Bft)
08.06.2017 13:24 17,4 °C 17,4 °C 47 % 1019,2 hPa 0,0 mm 0,8 km/h (0 Bft) O-SO 103 ° 1 min 0,000 mm 5,8 UV-I 712 W/m² 6,0 °C 17,4 °C 3,2 km/h (1 Bft)
08.06.2017 13:25 17,4 °C 17,4 °C 49 % 1019,2 hPa 0,0 mm 5,0 km/h (1 Bft) O 88 ° 1 min 0,000 mm 6,0 UV-I 744 W/m² 6,6 °C 17,4 °C 8,0 km/h (2 Bft)
08.06.2017 13:26 17,3 °C 17,4 °C 48 % 1019,2 hPa 0,0 mm 1,7 km/h (1 Bft) O 88 ° 1 min 0,000 mm 6,1 UV-I 747 W/m² 6,2 °C 17,3 °C 3,2 km/h (1 Bft)
08.06.2017 13:27 17,3 °C 17,3 °C 49 % 1019,2 hPa 0,0 mm 3,8 km/h (1 Bft) O 92 ° 1 min 0,000 mm 5,9 UV-I 735 W/m² 6,5 °C 17,3 °C 9,7 km/h (2 Bft)
08.06.2017 13:28 17,4 °C 17,4 °C 50 % 1019,2 hPa 0,0 mm 9,1 km/h (2 Bft) O 82 ° 1 min 0,000 mm 6,1 UV-I 751 W/m² 6,9 °C 17,4 °C 14,5 km/h (3 Bft)
08.06.2017 13:29 17,4 °C 17,4 °C 50 % 1019,2 hPa 0,0 mm 6,0 km/h (2 Bft) O-NO 65 ° 1 min 0,000 mm 6,3 UV-I 780 W/m² 6,9 °C 17,4 °C 11,3 km/h (2 Bft)
08.06.2017 13:30 17,5 °C 17,5 °C 51 % 1019,2 hPa 0,0 mm 4,1 km/h (1 Bft) O-NO 57 ° 1 min 0,000 mm 6,2 UV-I 759 W/m² 7,3 °C 17,5 °C 6,4 km/h (2 Bft)
08.06.2017 13:31 17,6 °C 17,6 °C 51 % 1019,1 hPa 0,0 mm 4,5 km/h (1 Bft) NO 38 ° 1 min 0,000 mm 6,1 UV-I 752 W/m² 7,3 °C 17,6 °C 8,0 km/h (2 Bft)
08.06.2017 13:32 17,7 °C 17,7 °C 49 % 1019,1 hPa 0,0 mm 3,3 km/h (1 Bft) O 98 ° 1 min 0,000 mm 6,3 UV-I 772 W/m² 6,9 °C 17,7 °C 4,8 km/h (1 Bft)
08.06.2017 13:33 17,8 °C 17,8 °C 50 % 1019,1 hPa 0,0 mm 5,9 km/h (2 Bft) O-NO 67 ° 1 min 0,000 mm 6,6 UV-I 831 W/m² 7,2 °C 17,8 °C 11,3 km/h (2 Bft)
08.06.2017 13:34 17,9 °C 17,9 °C 48 % 1019,1 hPa 0,0 mm 4,8 km/h (1 Bft) N 11 ° 1 min 0,000 mm 6,6 UV-I 851 W/m² 6,7 °C 17,9 °C 6,4 km/h (2 Bft)
08.06.2017 13:35 18,1 °C 18,1 °C 51 % 1019,1 hPa 0,0 mm 3,6 km/h (1 Bft) NO 51 ° 1 min 0,000 mm 6,6 UV-I 851 W/m² 7,8 °C 18,1 °C 8,0 km/h (2 Bft)
08.06.2017 13:36 18,0 °C 18,1 °C 46 % 1019,1 hPa 0,0 mm 4,4 km/h (1 Bft) N-NO 12 ° 1 min 0,000 mm 6,7 UV-I 847 W/m² 6,2 °C 18,0 °C 9,7 km/h (2 Bft)
08.06.2017 13:37 18,0 °C 18,0 °C 45 % 1019,0 hPa 0,0 mm 4,5 km/h (1 Bft) N 5 ° 1 min 0,000 mm 6,6 UV-I 837 W/m² 5,9 °C 18,0 °C 8,0 km/h (2 Bft)
08.06.2017 13:38 18,1 °C 18,1 °C 48 % 1019,0 hPa 0,0 mm 4,1 km/h (1 Bft) NO 36 ° 1 min 0,000 mm 6,6 UV-I 831 W/m² 6,9 °C 18,1 °C 6,4 km/h (2 Bft)
08.06.2017 13:39 18,1 °C 18,1 °C 45 % 1019,1 hPa 0,0 mm 4,4 km/h (1 Bft) N 5 ° 1 min 0,000 mm 6,7 UV-I 860 W/m² 6,0 °C 18,1 °C 6,4 km/h (2 Bft)
08.06.2017 13:40 18,1 °C 18,1 °C 47 % 1019,0 hPa 0,0 mm 2,0 km/h (1 Bft) N 360 ° 1 min 0,000 mm 6,9 UV-I 893 W/m² 6,6 °C 18,1 °C 4,8 km/h (1 Bft)
08.06.2017 13:41 18,1 °C 18,1 °C 46 % 1019,0 hPa 0,0 mm 3,0 km/h (1 Bft) N-NW 344 ° 1 min 0,000 mm 6,8 UV-I 889 W/m² 6,3 °C 18,1 °C 3,2 km/h (1 Bft)
08.06.2017 13:42 18,3 °C 18,3 °C 55 % 1019,0 hPa 0,0 mm 1,5 km/h (1 Bft) N 355 ° 1 min 0,000 mm 6,7 UV-I 889 W/m² 9,1 °C 18,3 °C 3,2 km/h (1 Bft)
08.06.2017 13:43 18,4 °C 18,4 °C 46 % 1019,0 hPa 0,0 mm 4,9 km/h (1 Bft) N 355 ° 1 min 0,000 mm 6,7 UV-I 842 W/m² 6,6 °C 18,4 °C 6,4 km/h (2 Bft)
08.06.2017 13:44 18,6 °C 18,6 °C 49 % 1019,0 hPa 0,0 mm 2,9 km/h (1 Bft) N 355 ° 1 min 0,000 mm 6,5 UV-I 817 W/m² 7,7 °C 18,6 °C 4,8 km/h (1 Bft)
08.06.2017 13:45 18,6 °C 18,6 °C 47 % 1019,0 hPa 0,0 mm 1,3 km/h (1 Bft) N 355 ° 1 min 0,000 mm 6,3 UV-I 777 W/m² 7,1 °C 18,6 °C 3,2 km/h (1 Bft)
08.06.2017 13:46 18,5 °C 18,6 °C 47 % 1018,9 hPa 0,0 mm 2,9 km/h (1 Bft) O-NO 62 ° 1 min 0,000 mm 6,3 UV-I 772 W/m² 7,0 °C 18,5 °C 4,8 km/h (1 Bft)
08.06.2017 13:47 18,3 °C 18,5 °C 46 % 1019,0 hPa 0,0 mm 2,4 km/h (1 Bft) O-NO 71 ° 1 min 0,000 mm 6,3 UV-I 775 W/m² 6,5 °C 18,3 °C 6,4 km/h (2 Bft)
08.06.2017 13:48 18,3 °C 18,3 °C 51 % 1019,0 hPa 0,0 mm 4,1 km/h (1 Bft) N-NO 12 ° 1 min 0,000 mm 6,2 UV-I 766 W/m² 8,0 °C 18,3 °C 8,0 km/h (2 Bft)
08.06.2017 13:49 18,3 °C 18,3 °C 48 % 1019,0 hPa 0,0 mm 8,2 km/h (2 Bft) N 360 ° 1 min 0,000 mm 6,3 UV-I 759 W/m² 7,1 °C 18,3 °C 14,5 km/h (3 Bft)
08.06.2017 13:50 18,3 °C 18,3 °C 50 % 1018,9 hPa 0,0 mm 5,0 km/h (1 Bft) O 88 ° 1 min 0,000 mm 6,2 UV-I 770 W/m² 7,7 °C 18,3 °C 8,0 km/h (2 Bft)
08.06.2017 13:51 18,3 °C 18,3 °C 48 % 1019,0 hPa 0,0 mm 3,9 km/h (1 Bft) O-SO 104 ° 1 min 0,000 mm 6,5 UV-I 824 W/m² 7,1 °C 18,3 °C 6,4 km/h (2 Bft)
08.06.2017 13:52 18,2 °C 18,3 °C 49 % 1018,9 hPa 0,0 mm 3,4 km/h (1 Bft) NO 56 ° 1 min 0,000 mm 6,7 UV-I 837 W/m² 7,3 °C 18,2 °C 6,4 km/h (2 Bft)
08.06.2017 13:53 18,1 °C 18,2 °C 44 % 1019,0 hPa 0,0 mm 6,4 km/h (2 Bft) N-NO 12 ° 1 min 0,000 mm 6,8 UV-I 856 W/m² 5,7 °C 18,1 °C 8,0 km/h (2 Bft)
08.06.2017 13:54 18,1 °C 18,1 °C 45 % 1018,9 hPa 0,0 mm 5,0 km/h (1 Bft) N-NW 347 ° 1 min 0,000 mm 6,7 UV-I 828 W/m² 6,0 °C 18,1 °C 6,4 km/h (2 Bft)
08.06.2017 13:55 18,4 °C 18,4 °C 47 % 1018,8 hPa 0,0 mm 7,1 km/h (2 Bft) N-NO 14 ° 1 min 0,000 mm 6,7 UV-I 853 W/m² 6,9 °C 18,4 °C 11,3 km/h (2 Bft)
08.06.2017 13:56 18,6 °C 18,6 °C 44 % 1018,9 hPa 0,0 mm 4,8 km/h (1 Bft) N 5 ° 1 min 0,000 mm 6,7 UV-I 854 W/m² 6,1 °C 18,6 °C 9,7 km/h (2 Bft)
08.06.2017 13:57 18,6 °C 18,6 °C 47 % 1018,9 hPa 0,0 mm 6,8 km/h (2 Bft) N 10 ° 1 min 0,000 mm 6,8 UV-I 893 W/m² 7,1 °C 18,6 °C 9,7 km/h (2 Bft)
08.06.2017 13:58 18,7 °C 18,7 °C 52 % 1018,8 hPa 0,0 mm 4,3 km/h (1 Bft) N 10 ° 1 min 0,000 mm 6,7 UV-I 831 W/m² 8,6 °C 18,7 °C 6,4 km/h (2 Bft)
08.06.2017 13:59 18,7 °C 18,7 °C 46 % 1018,8 hPa 0,0 mm 4,2 km/h (1 Bft) N-NW 343 ° 1 min 0,000 mm 7,0 UV-I 900 W/m² 6,8 °C 18,7 °C 4,8 km/h (1 Bft)
08.06.2017 14:00 18,7 °C 18,7 °C 45 % 1018,8 hPa 0,0 mm 3,4 km/h (1 Bft) N-NW 343 ° 1 min 0,000 mm 6,7 UV-I 914 W/m² 6,5 °C 18,7 °C 4,8 km/h (1 Bft)
08.06.2017 14:01 18,7 °C 18,7 °C 45 % 1018,8 hPa 0,0 mm 3,6 km/h (1 Bft) N-NW 342 ° 1 min 0,482 mm 6,8 UV-I 860 W/m² 6,5 °C 18,7 °C 4,8 km/h (1 Bft)
08.06.2017 14:02 18,6 °C 18,7 °C 49 % 1018,8 hPa 0,0 mm 2,7 km/h (1 Bft) N-NO 29 ° 1 min 0,000 mm 6,4 UV-I 819 W/m² 7,7 °C 18,6 °C 4,8 km/h (1 Bft)
08.06.2017 14:03 18,7 °C 18,7 °C 46 % 1018,7 hPa 0,0 mm 6,7 km/h (2 Bft) NO 36 ° 1 min 0,000 mm 6,7 UV-I 817 W/m² 6,8 °C 18,7 °C 8,0 km/h (2 Bft)
08.06.2017 14:04 18,7 °C 18,7 °C 46 % 1018,8 hPa 0,0 mm 4,7 km/h (1 Bft) N 355 ° 1 min 0,000 mm 6,5 UV-I 798 W/m² 6,8 °C 18,7 °C 6,4 km/h (2 Bft)
08.06.2017 14:05 18,7 °C 18,8 °C 50 % 1018,8 hPa 0,0 mm 6,2 km/h (2 Bft) N 355 ° 1 min 0,000 mm 6,5 UV-I 802 W/m² 8,1 °C 18,7 °C 12,9 km/h (3 Bft)
08.06.2017 14:06 18,7 °C 18,8 °C 45 % 1018,7 hPa 0,0 mm 5,4 km/h (1 Bft) N 9 ° 1 min 0,000 mm 6,8 UV-I 861 W/m² 6,5 °C 18,7 °C 11,3 km/h (2 Bft)
08.06.2017 14:07 18,7 °C 18,8 °C 46 % 1018,7 hPa 0,0 mm 4,6 km/h (1 Bft) N 5 ° 1 min 0,000 mm 6,5 UV-I 840 W/m² 6,8 °C 18,7 °C 9,7 km/h (2 Bft)
08.06.2017 14:08 18,8 °C 18,8 °C 46 % 1018,6 hPa 0,0 mm 9,7 km/h (2 Bft) NO 36 ° 1 min 0,000 mm 6,6 UV-I 854 W/m² 6,9 °C 18,8 °C 12,9 km/h (3 Bft)
08.06.2017 14:09 18,7 °C 18,8 °C 45 % 1018,6 hPa 0,0 mm 5,2 km/h (1 Bft) N 11 ° 1 min 0,000 mm 6,7 UV-I 860 W/m² 6,5 °C 18,7 °C 8,0 km/h (2 Bft)
08.06.2017 14:10 18,8 °C 18,8 °C 48 % 1018,6 hPa 0,0 mm 4,4 km/h (1 Bft) N-NO 22 ° 1 min 0,000 mm 6,8 UV-I 870 W/m² 7,6 °C 18,8 °C 9,7 km/h (2 Bft)
08.06.2017 14:11 18,8 °C 18,8 °C 45 % 1018,6 hPa 0,0 mm 5,4 km/h (1 Bft) N-NW 344 ° 1 min 0,000 mm 6,8 UV-I 896 W/m² 6,6 °C 18,8 °C 9,7 km/h (2 Bft)
08.06.2017 14:12 18,8 °C 18,8 °C 48 % 1018,6 hPa 0,0 mm 3,7 km/h (1 Bft) N 5 ° 1 min 0,000 mm 6,8 UV-I 872 W/m² 7,6 °C 18,8 °C 6,4 km/h (2 Bft)
08.06.2017 14:13 18,8 °C 18,8 °C 48 % 1018,5 hPa 0,0 mm 7,0 km/h (2 Bft) N-NW 334 ° 1 min 0,000 mm 6,7 UV-I 865 W/m² 7,6 °C 18,8 °C 12,9 km/h (3 Bft)
08.06.2017 14:14 18,8 °C 18,8 °C 48 % 1018,5 hPa 0,0 mm 6,1 km/h (2 Bft) NO 49 ° 1 min 0,000 mm 6,5 UV-I 826 W/m² 7,6 °C 18,8 °C 9,7 km/h (2 Bft)
08.06.2017 14:15 18,8 °C 18,8 °C 46 % 1018,6 hPa 0,0 mm 6,6 km/h (2 Bft) O-NO 61 ° 1 min 0,000 mm 6,4 UV-I 807 W/m² 6,9 °C 18,8 °C 9,7 km/h (2 Bft)
08.06.2017 14:16 18,8 °C 18,8 °C 44 % 1018,6 hPa 0,0 mm 8,0 km/h (2 Bft) NO 53 ° 1 min 0,000 mm 6,0 UV-I 765 W/m² 6,3 °C 18,8 °C 11,3 km/h (2 Bft)
08.06.2017 14:17 18,6 °C 18,8 °C 43 % 1018,5 hPa 0,0 mm 2,6 km/h (1 Bft) NO 34 ° 1 min 0,000 mm 6,2 UV-I 724 W/m² 5,8 °C 18,6 °C 6,4 km/h (2 Bft)
08.06.2017 14:18 18,5 °C 18,6 °C 45 % 1018,5 hPa 0,0 mm 5,4 km/h (1 Bft) O 90 ° 1 min 0,000 mm 6,3 UV-I 724 W/m² 6,3 °C 18,5 °C 11,3 km/h (2 Bft)
08.06.2017 14:19 18,4 °C 18,5 °C 51 % 1018,5 hPa 0,0 mm 3,6 km/h (1 Bft) O 92 ° 1 min 0,000 mm 5,9 UV-I 766 W/m² 8,1 °C 18,4 °C 8,0 km/h (2 Bft)
08.06.2017 14:20 18,6 °C 18,6 °C 50 % 1018,5 hPa 0,0 mm 2,9 km/h (1 Bft) N-NO 22 ° 1 min 0,000 mm 6,5 UV-I 861 W/m² 8,0 °C 18,6 °C 4,8 km/h (1 Bft)
08.06.2017 14:21 18,7 °C 18,7 °C 47 % 1018,5 hPa 0,0 mm 6,8 km/h (2 Bft) NO 34 ° 1 min 0,000 mm 6,6 UV-I 863 W/m² 7,2 °C 18,7 °C 9,7 km/h (2 Bft)
08.06.2017 14:22 18,7 °C 18,7 °C 44 % 1018,5 hPa 0,0 mm 5,6 km/h (1 Bft) O-NO 71 ° 1 min 0,000 mm 6,4 UV-I 847 W/m² 6,2 °C 18,7 °C 11,3 km/h (2 Bft)
08.06.2017 14:23 18,7 °C 18,7 °C 46 % 1018,5 hPa 0,0 mm 7,1 km/h (2 Bft) O 81 ° 1 min 0,000 mm 6,6 UV-I 844 W/m² 6,8 °C 18,7 °C 9,7 km/h (2 Bft)
08.06.2017 14:24 18,7 °C 18,7 °C 46 % 1018,5 hPa 0,0 mm 4,8 km/h (1 Bft) O-NO 62 ° 1 min 0,000 mm 6,6 UV-I 844 W/m² 6,8 °C 18,7 °C 9,7 km/h (2 Bft)
08.06.2017 14:25 18,7 °C 18,7 °C 49 % 1018,5 hPa 0,0 mm 5,0 km/h (1 Bft) S 178 ° 1 min 0,000 mm 6,8 UV-I 900 W/m² 7,8 °C 18,7 °C 6,4 km/h (2 Bft)
08.06.2017 14:26 18,7 °C 18,7 °C 48 % 1018,4 hPa 0,0 mm 4,7 km/h (1 Bft) O-NO 78 ° 1 min 0,000 mm 6,8 UV-I 846 W/m² 7,5 °C 18,7 °C 9,7 km/h (2 Bft)
08.06.2017 14:27 18,8 °C 18,8 °C 48 % 1018,4 hPa 0,0 mm 5,0 km/h (1 Bft) O-NO 57 ° 1 min 0,000 mm 6,6 UV-I 891 W/m² 7,6 °C 18,8 °C 6,4 km/h (2 Bft)
08.06.2017 14:28 18,8 °C 18,8 °C 45 % 1018,4 hPa 0,0 mm 9,8 km/h (2 Bft) O-SO 107 ° 1 min 0,000 mm 6,6 UV-I 854 W/m² 6,6 °C 18,8 °C 16,1 km/h (3 Bft)
08.06.2017 14:29 18,8 °C 18,8 °C 48 % 1018,4 hPa 0,0 mm 8,7 km/h (2 Bft) NO 36 ° 1 min 0,000 mm 6,5 UV-I 863 W/m² 7,6 °C 18,8 °C 11,3 km/h (2 Bft)
08.06.2017 14:30 19,1 °C 19,1 °C 48 % 1018,4 hPa 0,0 mm 6,7 km/h (2 Bft) NO 55 ° 1 min 0,000 mm 6,4 UV-I 838 W/m² 7,8 °C 19,1 °C 11,3 km/h (2 Bft)
08.06.2017 14:31 19,1 °C 19,1 °C 47 % 1018,4 hPa 0,0 mm 4,6 km/h (1 Bft) NO 54 ° 1 min 0,000 mm 6,4 UV-I 796 W/m² 7,5 °C 19,1 °C 9,7 km/h (2 Bft)
08.06.2017 14:32 19,1 °C 19,1 °C 46 % 1018,4 hPa 0,0 mm 4,3 km/h (1 Bft) O-NO 71 ° 1 min 0,000 mm 6,4 UV-I 795 W/m² 7,2 °C 19,1 °C 8,0 km/h (2 Bft)
08.06.2017 14:33 18,8 °C 19,1 °C 45 % 1018,4 hPa 0,0 mm 3,4 km/h (1 Bft) NO 40 ° 1 min 0,000 mm 6,3 UV-I 819 W/m² 6,6 °C 18,8 °C 9,7 km/h (2 Bft)
08.06.2017 14:34 18,7 °C 18,8 °C 46 % 1018,4 hPa 0,0 mm 4,9 km/h (1 Bft) NO 42 ° 1 min 0,000 mm 6,4 UV-I 833 W/m² 6,8 °C 18,7 °C 9,7 km/h (2 Bft)
08.06.2017 14:35 18,7 °C 18,7 °C 47 % 1018,3 hPa 0,0 mm 6,0 km/h (2 Bft) NO 54 ° 1 min 0,000 mm 6,3 UV-I 823 W/m² 7,2 °C 18,7 °C 11,3 km/h (2 Bft)
08.06.2017 14:36 18,7 °C 18,7 °C 47 % 1018,4 hPa 0,0 mm 6,3 km/h (2 Bft) N 10 ° 1 min 0,000 mm 6,2 UV-I 796 W/m² 7,2 °C 18,7 °C 9,7 km/h (2 Bft)
08.06.2017 14:37 18,8 °C 18,8 °C 50 % 1018,4 hPa 0,0 mm 4,5 km/h (1 Bft) NO 37 ° 1 min 0,000 mm 5,9 UV-I 763 W/m² 8,2 °C 18,8 °C 6,4 km/h (2 Bft)
08.06.2017 14:38 18,9 °C 18,9 °C 47 % 1018,4 hPa 0,0 mm 3,6 km/h (1 Bft) N 360 ° 1 min 0,000 mm 6,0 UV-I 809 W/m² 7,3 °C 18,9 °C 6,4 km/h (2 Bft)
08.06.2017 14:39 19,1 °C 19,1 °C 51 % 1018,4 hPa 0,0 mm 3,2 km/h (1 Bft) N 5 ° 1 min 0,000 mm 6,0 UV-I 791 W/m² 8,7 °C 19,1 °C 6,4 km/h (2 Bft)
08.06.2017 14:40 19,2 °C 19,2 °C 51 % 1018,3 hPa 0,0 mm 4,1 km/h (1 Bft) NO 53 ° 1 min 0,000 mm 5,6 UV-I 724 W/m² 8,8 °C 19,2 °C 6,4 km/h (2 Bft)
08.06.2017 14:41 19,1 °C 19,2 °C 48 % 1018,3 hPa 0,0 mm 3,2 km/h (1 Bft) N 5 ° 1 min 0,000 mm 5,4 UV-I 689 W/m² 7,8 °C 19,1 °C 11,3 km/h (2 Bft)
08.06.2017 14:42 19,0 °C 19,1 °C 46 % 1018,4 hPa 0,0 mm 6,0 km/h (2 Bft) N-NO 15 ° 1 min 0,000 mm 5,5 UV-I 689 W/m² 7,1 °C 19,0 °C 9,7 km/h (2 Bft)
08.06.2017 14:43 18,9 °C 19,0 °C 46 % 1018,3 hPa 0,0 mm 2,2 km/h (1 Bft) N-NO 15 ° 1 min 0,000 mm 5,5 UV-I 663 W/m² 7,0 °C 18,9 °C 4,8 km/h (1 Bft)
08.06.2017 14:44 18,8 °C 18,9 °C 47 % 1018,3 hPa 0,0 mm 1,7 km/h (1 Bft) N-NO 32 ° 1 min 0,000 mm 5,4 UV-I 680 W/m² 7,2 °C 18,8 °C 4,8 km/h (1 Bft)
08.06.2017 14:45 18,9 °C 18,9 °C 47 % 1018,3 hPa 0,0 mm 5,1 km/h (1 Bft) NO 47 ° 1 min 0,000 mm 5,5 UV-I 710 W/m² 7,3 °C 18,9 °C 8,0 km/h (2 Bft)
08.06.2017 14:46 19,1 °C 19,1 °C 47 % 1018,3 hPa 0,0 mm 4,5 km/h (1 Bft) NO 34 ° 1 min 0,000 mm 5,4 UV-I 686 W/m² 7,5 °C 19,1 °C 6,4 km/h (2 Bft)
08.06.2017 14:47 19,1 °C 19,1 °C 48 % 1018,2 hPa 0,0 mm 5,4 km/h (1 Bft) NO 44 ° 1 min 0,000 mm 5,4 UV-I 682 W/m² 7,8 °C 19,1 °C 6,4 km/h (2 Bft)
08.06.2017 14:48 19,1 °C 19,2 °C 46 % 1018,2 hPa 0,0 mm 3,3 km/h (1 Bft) O-NO 74 ° 1 min 0,000 mm 5,3 UV-I 661 W/m² 7,2 °C 19,1 °C 6,4 km/h (2 Bft)
08.06.2017 14:49 18,9 °C 19,1 °C 49 % 1018,2 hPa 0,0 mm 3,6 km/h (1 Bft) O-NO 59 ° 1 min 0,000 mm 5,4 UV-I 679 W/m² 7,9 °C 18,9 °C 4,8 km/h (1 Bft)
08.06.2017 14:50 19,0 °C 19,0 °C 49 % 1018,2 hPa 0,0 mm 6,2 km/h (2 Bft) N 355 ° 1 min 0,000 mm 4,7 UV-I 686 W/m² 8,0 °C 19,0 °C 9,7 km/h (2 Bft)
08.06.2017 14:51 19,1 °C 19,1 °C 46 % 1018,2 hPa 0,0 mm 5,8 km/h (2 Bft) N-NO 12 ° 1 min 0,000 mm 5,2 UV-I 642 W/m² 7,2 °C 19,1 °C 11,3 km/h (2 Bft)
08.06.2017 14:52 19,2 °C 19,2 °C 47 % 1018,2 hPa 0,0 mm 6,4 km/h (2 Bft) N 360 ° 1 min 0,000 mm 4,9 UV-I 594 W/m² 7,6 °C 19,2 °C 11,3 km/h (2 Bft)
08.06.2017 14:53 19,1 °C 19,2 °C 49 % 1018,2 hPa 0,0 mm 3,6 km/h (1 Bft) O-NO 74 ° 1 min 0,000 mm 5,1 UV-I 636 W/m² 8,1 °C 19,1 °C 4,8 km/h (1 Bft)
08.06.2017 14:54 18,9 °C 19,1 °C 48 % 1018,2 hPa 0,0 mm 6,5 km/h (2 Bft) O 88 ° 1 min 0,000 mm 5,3 UV-I 635 W/m² 7,6 °C 18,9 °C 11,3 km/h (2 Bft)
08.06.2017 14:55 18,8 °C 18,9 °C 48 % 1018,3 hPa 0,0 mm 6,9 km/h (2 Bft) O 86 ° 1 min 0,000 mm 5,8 UV-I 635 W/m² 7,6 °C 18,8 °C 11,3 km/h (2 Bft)
08.06.2017 14:56 18,7 °C 18,8 °C 46 % 1018,2 hPa 0,0 mm 0,4 km/h (0 Bft) N-NO 12 ° 1 min 0,000 mm 5,9 UV-I 777 W/m² 6,8 °C 18,7 °C 1,6 km/h (1 Bft)
08.06.2017 14:57 18,6 °C 18,7 °C 46 % 1018,2 hPa 0,0 mm 3,5 km/h (1 Bft) W 267 ° 1 min 0,000 mm 5,2 UV-I 777 W/m² 6,8 °C 18,6 °C 6,4 km/h (2 Bft)
08.06.2017 14:58 18,6 °C 18,6 °C 50 % 1018,2 hPa 0,0 mm 1,7 km/h (1 Bft) W 267 ° 1 min 0,000 mm 4,9 UV-I 603 W/m² 8,0 °C 18,6 °C 3,2 km/h (1 Bft)
08.06.2017 14:59 18,7 °C 18,7 °C 47 % 1018,2 hPa 0,0 mm 5,0 km/h (1 Bft) O 81 ° 1 min 0,000 mm 4,9 UV-I 606 W/m² 7,2 °C 18,7 °C 9,7 km/h (2 Bft)
08.06.2017 15:00 18,8 °C 18,8 °C 46 % 1018,2 hPa 0,0 mm 5,6 km/h (1 Bft) O-NO 61 ° 1 min 0,000 mm 5,0 UV-I 606 W/m² 6,9 °C 18,8 °C 6,4 km/h (2 Bft)
08.06.2017 15:01 18,8 °C 18,8 °C 49 % 1018,2 hPa 0,0 mm 6,2 km/h (2 Bft) NO 51 ° 1 min 0,483 mm 4,9 UV-I 628 W/m² 7,9 °C 18,8 °C 12,9 km/h (3 Bft)
08.06.2017 15:02 18,8 °C 18,8 °C 49 % 1018,3 hPa 0,0 mm 6,9 km/h (2 Bft) NO 55 ° 1 min 0,000 mm 5,0 UV-I 684 W/m² 7,9 °C 18,8 °C 9,7 km/h (2 Bft)
08.06.2017 15:03 18,7 °C 18,8 °C 47 % 1018,3 hPa 0,0 mm 4,2 km/h (1 Bft) O-NO 58 ° 1 min 0,000 mm 5,3 UV-I 682 W/m² 7,2 °C 18,7 °C 6,4 km/h (2 Bft)
08.06.2017 15:04 18,7 °C 18,7 °C 46 % 1018,2 hPa 0,0 mm 4,6 km/h (1 Bft) N-NO 30 ° 1 min 0,000 mm 5,1 UV-I 666 W/m² 6,8 °C 18,7 °C 8,0 km/h (2 Bft)
08.06.2017 15:05 18,8 °C 18,8 °C 47 % 1018,2 hPa 0,0 mm 3,3 km/h (1 Bft) O-NO 59 ° 1 min 0,000 mm 5,0 UV-I 638 W/m² 7,2 °C 18,8 °C 4,8 km/h (1 Bft)
08.06.2017 15:06 18,9 °C 18,9 °C 46 % 1018,2 hPa 0,0 mm 4,4 km/h (1 Bft) N-NO 19 ° 1 min 0,000 mm 4,9 UV-I 615 W/m² 7,0 °C 18,9 °C 8,0 km/h (2 Bft)
08.06.2017 15:07 19,1 °C 19,1 °C 48 % 1018,3 hPa 0,0 mm 5,4 km/h (1 Bft) O-NO 71 ° 1 min 0,000 mm 4,9 UV-I 589 W/m² 7,8 °C 19,1 °C 8,0 km/h (2 Bft)
08.06.2017 15:08 19,1 °C 19,2 °C 46 % 1018,2 hPa 0,0 mm 6,8 km/h (2 Bft) O-NO 63 ° 1 min 0,000 mm 4,9 UV-I 589 W/m² 7,2 °C 19,1 °C 12,9 km/h (3 Bft)
08.06.2017 15:09 19,1 °C 19,1 °C 48 % 1018,3 hPa 0,0 mm 6,1 km/h (2 Bft) NO 55 ° 1 min 0,000 mm 4,9 UV-I 599 W/m² 7,8 °C 19,1 °C 8,0 km/h (2 Bft)
08.06.2017 15:10 19,1 °C 19,1 °C 47 % 1018,3 hPa 0,0 mm 3,8 km/h (1 Bft) NO 56 ° 1 min 0,000 mm 5,0 UV-I 650 W/m² 7,5 °C 19,1 °C 6,4 km/h (2 Bft)
08.06.2017 15:11 19,1 °C 19,1 °C 46 % 1018,3 hPa 0,0 mm 6,4 km/h (2 Bft) O-NO 71 ° 1 min 0,000 mm 4,9 UV-I 621 W/m² 7,2 °C 19,1 °C 11,3 km/h (2 Bft)
08.06.2017 15:12 19,0 °C 19,1 °C 49 % 1018,3 hPa 0,0 mm 5,6 km/h (1 Bft) O-NO 65 ° 1 min 0,000 mm 4,9 UV-I 664 W/m² 8,0 °C 19,0 °C 8,0 km/h (2 Bft)
08.06.2017 15:13 18,9 °C 19,0 °C 48 % 1018,3 hPa 0,0 mm 2,0 km/h (1 Bft) O 86 ° 1 min 0,000 mm 5,0 UV-I 631 W/m² 7,6 °C 18,9 °C 3,2 km/h (1 Bft)
08.06.2017 15:14 18,9 °C 18,9 °C 47 % 1018,3 hPa 0,0 mm 2,6 km/h (1 Bft) O-NO 71 ° 1 min 0,000 mm 5,3 UV-I 705 W/m² 7,3 °C 18,9 °C 6,4 km/h (2 Bft)
08.06.2017 15:15 18,9 °C 18,9 °C 47 % 1018,3 hPa 0,0 mm 3,4 km/h (1 Bft) N-NO 24 ° 1 min 0,000 mm 5,2 UV-I 693 W/m² 7,3 °C 18,9 °C 4,8 km/h (1 Bft)
08.06.2017 15:16 19,1 °C 19,1 °C 47 % 1018,2 hPa 0,0 mm 3,9 km/h (1 Bft) NO 50 ° 1 min 0,000 mm 5,2 UV-I 686 W/m² 7,5 °C 19,1 °C 6,4 km/h (2 Bft)
08.06.2017 15:17 19,1 °C 19,2 °C 48 % 1018,2 hPa 0,0 mm 3,5 km/h (1 Bft) N 10 ° 1 min 0,000 mm 5,1 UV-I 698 W/m² 7,8 °C 19,1 °C 6,4 km/h (2 Bft)
08.06.2017 15:18 19,3 °C 19,3 °C 49 % 1018,3 hPa 0,0 mm 2,3 km/h (1 Bft) O 88 ° 1 min 0,000 mm 5,4 UV-I 698 W/m² 8,3 °C 19,3 °C 6,4 km/h (2 Bft)
08.06.2017 15:19 19,2 °C 19,3 °C 46 % 1018,2 hPa 0,0 mm 4,1 km/h (1 Bft) NO 44 ° 1 min 0,000 mm 5,3 UV-I 696 W/m² 7,3 °C 19,2 °C 11,3 km/h (2 Bft)
08.06.2017 15:20 19,2 °C 19,2 °C 47 % 1018,2 hPa 0,0 mm 2,1 km/h (1 Bft) NO 38 ° 1 min 0,000 mm 4,9 UV-I 642 W/m² 7,6 °C 19,2 °C 6,4 km/h (2 Bft)
08.06.2017 15:21 19,2 °C 19,2 °C 47 % 1018,2 hPa 0,0 mm 4,5 km/h (1 Bft) O-NO 58 ° 1 min 0,000 mm 4,9 UV-I 640 W/m² 7,6 °C 19,2 °C 8,0 km/h (2 Bft)
08.06.2017 15:22 19,2 °C 19,2 °C 46 % 1018,2 hPa 0,0 mm 3,9 km/h (1 Bft) SO 135 ° 1 min 0,000 mm 4,8 UV-I 633 W/m² 7,3 °C 19,2 °C 6,4 km/h (2 Bft)
08.06.2017 15:23 19,2 °C 19,2 °C 47 % 1018,2 hPa 0,0 mm 6,7 km/h (2 Bft) SO 125 ° 1 min 0,000 mm 4,7 UV-I 615 W/m² 7,6 °C 19,2 °C 9,7 km/h (2 Bft)
08.06.2017 15:24 19,2 °C 19,2 °C 49 % 1018,2 hPa 0,0 mm 6,4 km/h (2 Bft) SO 139 ° 1 min 0,000 mm 4,6 UV-I 589 W/m² 8,2 °C 19,2 °C 8,0 km/h (2 Bft)
08.06.2017 15:25 19,1 °C 19,2 °C 47 % 1018,2 hPa 0,0 mm 5,2 km/h (1 Bft) S 176 ° 1 min 0,000 mm 4,5 UV-I 533 W/m² 7,5 °C 19,1 °C 9,7 km/h (2 Bft)
08.06.2017 15:26 19,1 °C 19,1 °C 48 % 1018,2 hPa 0,0 mm 5,4 km/h (1 Bft) O-NO 70 ° 1 min 0,000 mm 4,3 UV-I 541 W/m² 7,8 °C 19,1 °C 9,7 km/h (2 Bft)
08.06.2017 15:27 19,1 °C 19,1 °C 49 % 1018,2 hPa 0,0 mm 6,2 km/h (2 Bft) O 98 ° 1 min 0,000 mm 4,2 UV-I 536 W/m² 8,1 °C 19,1 °C 9,7 km/h (2 Bft)
08.06.2017 15:28 19,1 °C 19,1 °C 46 % 1018,2 hPa 0,0 mm 4,9 km/h (1 Bft) S-SO 165 ° 1 min 0,000 mm 4,1 UV-I 540 W/m² 7,2 °C 19,1 °C 9,7 km/h (2 Bft)
08.06.2017 15:29 19,0 °C 19,1 °C 48 % 1018,2 hPa 0,0 mm 2,0 km/h (1 Bft) NO 42 ° 1 min 0,000 mm 4,2 UV-I 520 W/m² 7,7 °C 19,0 °C 4,8 km/h (1 Bft)
08.06.2017 15:30 19,0 °C 19,0 °C 48 % 1018,2 hPa 0,0 mm 3,6 km/h (1 Bft) NO 42 ° 1 min 0,000 mm 4,2 UV-I 522 W/m² 7,7 °C 19,0 °C 6,4 km/h (2 Bft)
08.06.2017 15:31 19,0 °C 19,0 °C 47 % 1018,2 hPa 0,0 mm 5,2 km/h (1 Bft) O-NO 67 ° 1 min 0,000 mm 4,3 UV-I 547 W/m² 7,4 °C 19,0 °C 6,4 km/h (2 Bft)
08.06.2017 15:32 19,0 °C 19,0 °C 48 % 1018,2 hPa 0,0 mm 3,9 km/h (1 Bft) NO 55 ° 1 min 0,000 mm 4,2 UV-I 538 W/m² 7,7 °C 19,0 °C 4,8 km/h (1 Bft)
08.06.2017 15:33 19,0 °C 19,0 °C 46 % 1018,2 hPa 0,0 mm 4,6 km/h (1 Bft) NO 49 ° 1 min 0,000 mm 4,1 UV-I 529 W/m² 7,1 °C 19,0 °C 6,4 km/h (2 Bft)
08.06.2017 15:34 19,0 °C 19,0 °C 44 % 1018,2 hPa 0,0 mm 2,2 km/h (1 Bft) NO 50 ° 1 min 0,000 mm 4,0 UV-I 508 W/m² 6,5 °C 19,0 °C 6,4 km/h (2 Bft)
08.06.2017 15:35 19,0 °C 19,0 °C 47 % 1018,1 hPa 0,0 mm 2,1 km/h (1 Bft) NO 50 ° 1 min 0,000 mm 4,0 UV-I 506 W/m² 7,4 °C 19,0 °C 3,2 km/h (1 Bft)
08.06.2017 15:36 19,1 °C 19,1 °C 50 % 1018,1 hPa 0,0 mm 3,3 km/h (1 Bft) NO 50 ° 1 min 0,000 mm 4,0 UV-I 506 W/m² 8,4 °C 19,1 °C 6,4 km/h (2 Bft)
08.06.2017 15:37 19,2 °C 19,2 °C 46 % 1018,2 hPa 0,0 mm 0,4 km/h (0 Bft) NO 50 ° 1 min 0,000 mm 4,1 UV-I 534 W/m² 7,3 °C 19,2 °C 1,6 km/h (1 Bft)
08.06.2017 15:38 19,2 °C 19,2 °C 52 % 1018,1 hPa 0,0 mm 0,3 km/h (0 Bft) NO 50 ° 1 min 0,000 mm 4,1 UV-I 524 W/m² 9,1 °C 19,2 °C 1,6 km/h (1 Bft)
08.06.2017 15:39 19,1 °C 19,2 °C 45 % 1018,1 hPa 0,0 mm 0,0 km/h (0 Bft) NO 50 ° 1 min 0,000 mm 4,1 UV-I 522 W/m² 6,9 °C 19,1 °C 0,0 km/h (0 Bft)
08.06.2017 15:40 19,1 °C 19,1 °C 51 % 1018,1 hPa 0,0 mm 0,0 km/h (0 Bft) NO 50 ° 1 min 0,000 mm 4,1 UV-I 520 W/m² 8,7 °C 19,1 °C 0,0 km/h (0 Bft)
08.06.2017 15:41 19,1 °C 19,1 °C 51 % 1018,1 hPa 0,0 mm 0,0 km/h (0 Bft) NO 50 ° 1 min 0,000 mm 4,1 UV-I 515 W/m² 8,7 °C 19,1 °C 0,0 km/h (0 Bft)
08.06.2017 15:42 19,1 °C 19,1 °C 49 % 1018,1 hPa 0,0 mm 0,1 km/h (0 Bft) NO 50 ° 1 min 0,000 mm 4,1 UV-I 522 W/m² 8,1 °C 19,1 °C 1,6 km/h (1 Bft)
08.06.2017 15:43 19,2 °C 19,2 °C 50 % 1018,1 hPa 0,0 mm 4,5 km/h (1 Bft) O-NO 60 ° 1 min 0,000 mm 4,3 UV-I 584 W/m² 8,5 °C 19,2 °C 4,8 km/h (1 Bft)
08.06.2017 15:44 19,2 °C 19,2 °C 47 % 1018,1 hPa 0,0 mm 3,6 km/h (1 Bft) O-NO 60 ° 1 min 0,000 mm 4,6 UV-I 617 W/m² 7,6 °C 19,2 °C 4,8 km/h (1 Bft)
08.06.2017 15:45 19,1 °C 19,2 °C 44 % 1018,1 hPa 0,0 mm 2,2 km/h (1 Bft) O-NO 59 ° 1 min 0,000 mm 4,6 UV-I 635 W/m² 6,6 °C 19,1 °C 4,8 km/h (1 Bft)
08.06.2017 15:46 19,2 °C 19,2 °C 45 % 1018,1 hPa 0,0 mm 2,3 km/h (1 Bft) O-NO 59 ° 1 min 0,000 mm 4,7 UV-I 656 W/m² 7,0 °C 19,2 °C 4,8 km/h (1 Bft)
08.06.2017 15:47 19,2 °C 19,2 °C 46 % 1018,1 hPa 0,0 mm 1,4 km/h (1 Bft) O-NO 59 ° 1 min 0,000 mm 4,7 UV-I 640 W/m² 7,3 °C 19,2 °C 4,8 km/h (1 Bft)
08.06.2017 15:48 19,3 °C 19,3 °C 48 % 1018,1 hPa 0,0 mm 2,1 km/h (1 Bft) N-NO 27 ° 1 min 0,000 mm 4,8 UV-I 673 W/m² 8,0 °C 19,3 °C 4,8 km/h (1 Bft)
08.06.2017 15:49 19,4 °C 19,4 °C 51 % 1018,1 hPa 0,0 mm 4,2 km/h (1 Bft) NO 34 ° 1 min 0,000 mm 4,8 UV-I 659 W/m² 9,0 °C 19,4 °C 4,8 km/h (1 Bft)
08.06.2017 15:50 19,7 °C 19,7 °C 47 % 1018,1 hPa 0,0 mm 5,9 km/h (2 Bft) N 355 ° 1 min 0,000 mm 4,7 UV-I 636 W/m² 8,1 °C 19,7 °C 8,0 km/h (2 Bft)
08.06.2017 15:51 19,7 °C 19,7 °C 46 % 1018,1 hPa 0,0 mm 3,5 km/h (1 Bft) N 11 ° 1 min 0,000 mm 4,6 UV-I 636 W/m² 7,8 °C 19,7 °C 4,8 km/h (1 Bft)
08.06.2017 15:52 19,7 °C 19,7 °C 46 % 1018,1 hPa 0,0 mm 2,0 km/h (1 Bft) N 11 ° 1 min 0,000 mm 4,5 UV-I 608 W/m² 7,8 °C 19,7 °C 3,2 km/h (1 Bft)
08.06.2017 15:53 19,7 °C 19,8 °C 46 % 1018,1 hPa 0,0 mm 4,4 km/h (1 Bft) O 89 ° 1 min 0,000 mm 4,4 UV-I 582 W/m² 7,8 °C 19,7 °C 6,4 km/h (2 Bft)
08.06.2017 15:54 19,6 °C 19,7 °C 47 % 1018,0 hPa 0,0 mm 1,6 km/h (1 Bft) O 89 ° 1 min 0,000 mm 4,4 UV-I 557 W/m² 8,0 °C 19,6 °C 3,2 km/h (1 Bft)
08.06.2017 15:55 19,6 °C 19,6 °C 49 % 1018,0 hPa 0,0 mm 3,5 km/h (1 Bft) O 84 ° 1 min 0,000 mm 4,4 UV-I 605 W/m² 8,6 °C 19,6 °C 8,0 km/h (2 Bft)
08.06.2017 15:56 19,4 °C 19,6 °C 44 % 1018,0 hPa 0,0 mm 2,1 km/h (1 Bft) O 84 ° 1 min 0,000 mm 4,4 UV-I 605 W/m² 6,8 °C 19,4 °C 6,4 km/h (2 Bft)
08.06.2017 15:57 19,4 °C 19,4 °C 44 % 1018,0 hPa 0,0 mm 3,0 km/h (1 Bft) NW 315 ° 1 min 0,000 mm 4,4 UV-I 619 W/m² 6,8 °C 19,4 °C 4,8 km/h (1 Bft)
08.06.2017 15:58 19,4 °C 19,4 °C 48 % 1018,0 hPa 0,0 mm 2,0 km/h (1 Bft) O-NO 61 ° 1 min 0,000 mm 4,4 UV-I 596 W/m² 8,1 °C 19,4 °C 4,8 km/h (1 Bft)
08.06.2017 15:59 19,4 °C 19,4 °C 46 % 1018,0 hPa 0,0 mm 4,6 km/h (1 Bft) N 11 ° 1 min 0,000 mm 4,4 UV-I 596 W/m² 7,5 °C 19,4 °C 6,4 km/h (2 Bft)
08.06.2017 16:00 19,5 °C 19,5 °C 50 % 1018,0 hPa 0,0 mm 4,2 km/h (1 Bft) N-NW 334 ° 1 min 0,000 mm 4,3 UV-I 568 W/m² 8,8 °C 19,5 °C 6,4 km/h (2 Bft)
08.06.2017 16:01 19,5 °C 19,5 °C 47 % 1018,0 hPa 0,0 mm 2,7 km/h (1 Bft) N-NW 330 ° 1 min 0,381 mm 4,9 UV-I 568 W/m² 7,9 °C 19,5 °C 4,8 km/h (1 Bft)
08.06.2017 16:02 19,4 °C 19,5 °C 48 % 1018,0 hPa 0,0 mm 2,3 km/h (1 Bft) N-NW 327 ° 1 min 0,000 mm 4,8 UV-I 680 W/m² 8,1 °C 19,4 °C 3,2 km/h (1 Bft)
08.06.2017 16:03 19,4 °C 19,4 °C 48 % 1018,0 hPa 0,0 mm 1,1 km/h (1 Bft) NW 322 ° 1 min 0,000 mm 5,0 UV-I 719 W/m² 8,1 °C 19,4 °C 3,2 km/h (1 Bft)
08.06.2017 16:04 19,4 °C 19,4 °C 47 % 1018,0 hPa 0,0 mm 3,0 km/h (1 Bft) W 261 ° 1 min 0,000 mm 4,9 UV-I 710 W/m² 7,8 °C 19,4 °C 4,8 km/h (1 Bft)
08.06.2017 16:05 19,4 °C 19,4 °C 49 % 1018,0 hPa 0,0 mm 1,1 km/h (1 Bft) W 277 ° 1 min 0,000 mm 4,8 UV-I 684 W/m² 8,4 °C 19,4 °C 1,6 km/h (1 Bft)
08.06.2017 16:06 19,6 °C 19,6 °C 51 % 1018,0 hPa 0,0 mm 2,8 km/h (1 Bft) O-NO 65 ° 1 min 0,000 mm 4,8 UV-I 663 W/m² 9,2 °C 19,6 °C 6,4 km/h (2 Bft)
08.06.2017 16:07 19,6 °C 19,6 °C 47 % 1018,0 hPa 0,0 mm 4,4 km/h (1 Bft) O-NO 61 ° 1 min 0,000 mm 4,7 UV-I 635 W/m² 8,0 °C 19,6 °C 8,0 km/h (2 Bft)
08.06.2017 16:08 19,7 °C 19,7 °C 48 % 1018,0 hPa 0,0 mm 4,5 km/h (1 Bft) O-NO 73 ° 1 min 0,000 mm 4,8 UV-I 568 W/m² 8,4 °C 19,7 °C 8,0 km/h (2 Bft)
08.06.2017 16:09 19,7 °C 19,7 °C 47 % 1018,0 hPa 0,0 mm 4,1 km/h (1 Bft) NO 38 ° 1 min 0,000 mm 4,4 UV-I 568 W/m² 8,1 °C 19,7 °C 8,0 km/h (2 Bft)
08.06.2017 16:10 19,7 °C 19,7 °C 51 % 1018,0 hPa 0,0 mm 6,8 km/h (2 Bft) N-NO 17 ° 1 min 0,000 mm 4,5 UV-I 403 W/m² 9,3 °C 19,7 °C 8,0 km/h (2 Bft)
08.06.2017 16:11 19,7 °C 19,7 °C 46 % 1017,9 hPa 0,0 mm 2,8 km/h (1 Bft) NO 55 ° 1 min 0,000 mm 3,8 UV-I 330 W/m² 7,8 °C 19,7 °C 6,4 km/h (2 Bft)
08.06.2017 16:12 19,7 °C 19,7 °C 47 % 1018,0 hPa 0,0 mm 4,0 km/h (1 Bft) O-NO 57 ° 1 min 0,000 mm 2,8 UV-I 330 W/m² 8,1 °C 19,7 °C 6,4 km/h (2 Bft)
08.06.2017 16:13 19,7 °C 19,7 °C 47 % 1018,0 hPa 0,0 mm 4,9 km/h (1 Bft) NO 51 ° 0 min 0,000 mm 2,7 UV-I 220 W/m² 8,1 °C 19,7 °C 9,7 km/h (2 Bft)
08.06.2017 16:14 19,7 °C 19,7 °C 48 % 1017,9 hPa 0,0 mm 4,8 km/h (1 Bft) NO 52 ° 0 min 0,000 mm 2,6 UV-I 214 W/m² 8,4 °C 19,7 °C 6,4 km/h (2 Bft)
08.06.2017 16:15 19,7 °C 19,7 °C 49 % 1018,0 hPa 0,0 mm 3,6 km/h (1 Bft) N-NO 32 ° 0 min 0,000 mm 2,6 UV-I 207 W/m² 8,7 °C 19,7 °C 4,8 km/h (1 Bft)
08.06.2017 16:16 19,7 °C 19,7 °C 44 % 1018,0 hPa 0,0 mm 4,7 km/h (1 Bft) NO 53 ° 0 min 0,000 mm 2,5 UV-I 202 W/m² 7,1 °C 19,7 °C 8,0 km/h (2 Bft)
08.06.2017 16:17 19,5 °C 19,7 °C 48 % 1017,9 hPa 0,0 mm 2,1 km/h (1 Bft) NO 44 ° 0 min 0,000 mm 2,5 UV-I 199 W/m² 8,2 °C 19,5 °C 3,2 km/h (1 Bft)
08.06.2017 16:18 19,4 °C 19,5 °C 45 % 1017,9 hPa 0,0 mm 1,1 km/h (1 Bft) NO 44 ° 0 min 0,000 mm 2,5 UV-I 190 W/m² 7,2 °C 19,4 °C 1,6 km/h (1 Bft)
08.06.2017 16:19 19,3 °C 19,4 °C 45 % 1017,9 hPa 0,0 mm 0,6 km/h (0 Bft) NO 44 ° 0 min 0,000 mm 2,4 UV-I 188 W/m² 7,1 °C 19,3 °C 1,6 km/h (1 Bft)
08.06.2017 16:20 19,2 °C 19,3 °C 48 % 1017,9 hPa 0,0 mm 1,9 km/h (1 Bft) O-NO 76 ° 0 min 0,000 mm 2,4 UV-I 185 W/m² 7,9 °C 19,2 °C 3,2 km/h (1 Bft)
08.06.2017 16:21 19,2 °C 19,3 °C 47 % 1017,9 hPa 0,0 mm 0,3 km/h (0 Bft) O-NO 76 ° 0 min 0,000 mm 2,4 UV-I 181 W/m² 7,6 °C 19,2 °C 1,6 km/h (1 Bft)
08.06.2017 16:22 19,2 °C 19,2 °C 46 % 1017,9 hPa 0,0 mm 1,2 km/h (1 Bft) SO 144 ° 0 min 0,000 mm 2,4 UV-I 179 W/m² 7,3 °C 19,2 °C 4,8 km/h (1 Bft)
08.06.2017 16:23 19,2 °C 19,2 °C 47 % 1017,9 hPa 0,0 mm 0,5 km/h (0 Bft) SO 144 ° 0 min 0,000 mm 2,4 UV-I 176 W/m² 7,6 °C 19,2 °C 1,6 km/h (1 Bft)
08.06.2017 16:24 19,2 °C 19,2 °C 48 % 1017,9 hPa 0,0 mm 0,7 km/h (0 Bft) SO 124 ° 0 min 0,000 mm 2,4 UV-I 171 W/m² 7,9 °C 19,2 °C 1,6 km/h (1 Bft)
08.06.2017 16:25 19,2 °C 19,2 °C 48 % 1017,9 hPa 0,0 mm 3,3 km/h (1 Bft) NO 45 ° 0 min 0,000 mm 2,3 UV-I 171 W/m² 7,9 °C 19,2 °C 4,8 km/h (1 Bft)
08.06.2017 16:26 19,3 °C 19,3 °C 47 % 1017,9 hPa 0,0 mm 2,2 km/h (1 Bft) O-NO 60 ° 0 min 0,000 mm 2,3 UV-I 169 W/m² 7,7 °C 19,3 °C 4,8 km/h (1 Bft)
08.06.2017 16:27 19,4 °C 19,4 °C 45 % 1017,9 hPa 0,0 mm 5,4 km/h (1 Bft) O 92 ° 0 min 0,000 mm 2,3 UV-I 169 W/m² 7,2 °C 19,4 °C 6,4 km/h (2 Bft)
08.06.2017 16:28 19,4 °C 19,4 °C 45 % 1017,8 hPa 0,0 mm 2,8 km/h (1 Bft) O 92 ° 0 min 0,000 mm 2,3 UV-I 163 W/m² 7,2 °C 19,4 °C 4,8 km/h (1 Bft)
08.06.2017 16:29 19,3 °C 19,4 °C 45 % 1017,9 hPa 0,0 mm 2,5 km/h (1 Bft) O 92 ° 0 min 0,000 mm 2,3 UV-I 162 W/m² 7,1 °C 19,3 °C 4,8 km/h (1 Bft)
08.06.2017 16:30 19,3 °C 19,3 °C 45 % 1017,9 hPa 0,0 mm 0,1 km/h (0 Bft) O 92 ° 0 min 0,000 mm 2,3 UV-I 163 W/m² 7,1 °C 19,3 °C 1,6 km/h (1 Bft)
08.06.2017 16:31 19,2 °C 19,3 °C 44 % 1017,9 hPa 0,0 mm 2,2 km/h (1 Bft) SO 145 ° 0 min 0,000 mm 2,3 UV-I 162 W/m² 6,7 °C 19,2 °C 3,2 km/h (1 Bft)
08.06.2017 16:32 19,2 °C 19,2 °C 46 % 1017,8 hPa 0,0 mm 2,1 km/h (1 Bft) SO 145 ° 0 min 0,000 mm 2,3 UV-I 153 W/m² 7,3 °C 19,2 °C 3,2 km/h (1 Bft)
08.06.2017 16:33 19,2 °C 19,2 °C 50 % 1017,8 hPa 0,0 mm 2,2 km/h (1 Bft) SO 145 ° 0 min 0,000 mm 2,3 UV-I 148 W/m² 8,5 °C 19,2 °C 3,2 km/h (1 Bft)
08.06.2017 16:34 19,2 °C 19,2 °C 46 % 1017,8 hPa 0,0 mm 1,0 km/h (0 Bft) NO 46 ° 0 min 0,000 mm 2,2 UV-I 148 W/m² 7,3 °C 19,2 °C 4,8 km/h (1 Bft)
08.06.2017 16:35 19,3 °C 19,3 °C 45 % 1017,8 hPa 0,0 mm 5,0 km/h (1 Bft) N-NO 30 ° 0 min 0,000 mm 2,2 UV-I 155 W/m² 7,1 °C 19,3 °C 8,0 km/h (2 Bft)
08.06.2017 16:36 19,4 °C 19,4 °C 46 % 1017,8 hPa 0,0 mm 5,0 km/h (1 Bft) NO 37 ° 0 min 0,000 mm 2,2 UV-I 155 W/m² 7,5 °C 19,4 °C 8,0 km/h (2 Bft)
08.06.2017 16:37 19,6 °C 19,6 °C 47 % 1017,8 hPa 0,0 mm 4,1 km/h (1 Bft) O-NO 59 ° 0 min 0,000 mm 2,1 UV-I 121 W/m² 8,0 °C 19,6 °C 8,0 km/h (2 Bft)
08.06.2017 16:38 19,7 °C 19,7 °C 47 % 1017,8 hPa 0,0 mm 6,0 km/h (2 Bft) NO 51 ° 0 min 0,000 mm 2,1 UV-I 114 W/m² 8,1 °C 19,7 °C 8,0 km/h (2 Bft)
08.06.2017 16:39 19,7 °C 19,7 °C 43 % 1017,8 hPa 0,0 mm 1,6 km/h (1 Bft) NO 51 ° 0 min 0,000 mm 2,1 UV-I 109 W/m² 6,8 °C 19,7 °C 3,2 km/h (1 Bft)
08.06.2017 16:40 19,7 °C 19,7 °C 43 % 1017,8 hPa 0,0 mm 0,1 km/h (0 Bft) NO 51 ° 0 min 0,000 mm 2,1 UV-I 104 W/m² 6,8 °C 19,7 °C 1,6 km/h (1 Bft)
08.06.2017 16:41 19,6 °C 19,7 °C 47 % 1017,7 hPa 0,0 mm 0,6 km/h (0 Bft) NO 51 ° 0 min 0,000 mm 2,0 UV-I 98 W/m² 8,0 °C 19,6 °C 3,2 km/h (1 Bft)
08.06.2017 16:42 19,6 °C 19,7 °C 47 % 1017,7 hPa 0,0 mm 2,4 km/h (1 Bft) NO 51 ° 0 min 0,000 mm 2,0 UV-I 90 W/m² 8,0 °C 19,6 °C 4,8 km/h (1 Bft)
08.06.2017 16:43 19,7 °C 19,7 °C 47 % 1017,7 hPa 0,0 mm 5,9 km/h (2 Bft) O 84 ° 0 min 0,000 mm 2,0 UV-I 90 W/m² 8,1 °C 19,7 °C 14,5 km/h (3 Bft)
08.06.2017 16:44 19,7 °C 19,7 °C 46 % 1017,7 hPa 0,0 mm 9,9 km/h (2 Bft) NO 56 ° 0 min 0,000 mm 2,0 UV-I 83 W/m² 7,8 °C 19,7 °C 12,9 km/h (3 Bft)
08.06.2017 16:45 19,7 °C 19,7 °C 46 % 1017,7 hPa 0,0 mm 5,9 km/h (2 Bft) N-NO 12 ° 0 min 0,000 mm 1,9 UV-I 79 W/m² 7,8 °C 19,7 °C 11,3 km/h (2 Bft)
08.06.2017 16:46 19,7 °C 19,7 °C 50 % 1017,7 hPa 0,0 mm 4,6 km/h (1 Bft) NO 50 ° 0 min 0,000 mm 1,9 UV-I 76 W/m² 9,0 °C 19,7 °C 8,0 km/h (2 Bft)
08.06.2017 16:47 19,8 °C 19,8 °C 45 % 1017,7 hPa 0,0 mm 3,4 km/h (1 Bft) NO 34 ° 0 min 0,000 mm 1,9 UV-I 72 W/m² 7,5 °C 19,8 °C 6,4 km/h (2 Bft)
08.06.2017 16:48 19,7 °C 19,8 °C 43 % 1017,7 hPa 0,0 mm 2,4 km/h (1 Bft) NO 46 ° 0 min 0,000 mm 1,9 UV-I 65 W/m² 6,8 °C 19,7 °C 4,8 km/h (1 Bft)
08.06.2017 16:49 19,6 °C 19,7 °C 46 % 1017,6 hPa 0,0 mm 5,4 km/h (1 Bft) O 88 ° 0 min 0,000 mm 1,8 UV-I 63 W/m² 7,7 °C 19,6 °C 6,4 km/h (2 Bft)
08.06.2017 16:50 19,6 °C 19,6 °C 44 % 1017,7 hPa 0,0 mm 3,2 km/h (1 Bft) O-NO 76 ° 0 min 0,000 mm 1,8 UV-I 62 W/m² 7,0 °C 19,6 °C 4,8 km/h (1 Bft)
08.06.2017 16:51 19,6 °C 19,6 °C 45 % 1017,6 hPa 0,0 mm 6,0 km/h (2 Bft) O 79 ° 0 min 0,000 mm 1,8 UV-I 60 W/m² 7,3 °C 19,6 °C 11,3 km/h (2 Bft)
08.06.2017 16:52 19,5 °C 19,6 °C 45 % 1017,6 hPa 0,0 mm 0,4 km/h (0 Bft) O 79 ° 0 min 0,000 mm 1,8 UV-I 58 W/m² 7,2 °C 19,5 °C 3,2 km/h (1 Bft)
08.06.2017 16:53 19,4 °C 19,5 °C 45 % 1017,6 hPa 0,0 mm 0,0 km/h (0 Bft) O 79 ° 0 min 0,000 mm 1,8 UV-I 60 W/m² 7,2 °C 19,4 °C 0,0 km/h (0 Bft)
08.06.2017 16:54 19,4 °C 19,4 °C 44 % 1017,6 hPa 0,0 mm 1,7 km/h (1 Bft) NO 36 ° 0 min 0,000 mm 1,7 UV-I 63 W/m² 6,8 °C 19,4 °C 6,4 km/h (2 Bft)
08.06.2017 16:55 19,4 °C 19,4 °C 45 % 1017,6 hPa 0,0 mm 5,2 km/h (1 Bft) O-NO 78 ° 0 min 0,000 mm 0,0 UV-I 53 W/m² 7,2 °C 19,4 °C 11,3 km/h (2 Bft)
08.06.2017 16:56 19,4 °C 19,4 °C 49 % 1017,6 hPa 0,0 mm 5,4 km/h (1 Bft) O 85 ° 0 min 0,000 mm 0,0 UV-I 53 W/m² 8,4 °C 19,4 °C 8,0 km/h (2 Bft)
08.06.2017 16:57 19,5 °C 19,5 °C 47 % 1017,6 hPa 0,0 mm 4,1 km/h (1 Bft) O 92 ° 0 min 0,000 mm 0,0 UV-I 51 W/m² 7,9 °C 19,5 °C 6,4 km/h (2 Bft)
08.06.2017 16:58 19,6 °C 19,6 °C 48 % 1017,6 hPa 0,0 mm 2,6 km/h (1 Bft) NO 51 ° 0 min 0,000 mm 0,0 UV-I 49 W/m² 8,3 °C 19,6 °C 6,4 km/h (2 Bft)
08.06.2017 16:59 19,7 °C 19,7 °C 48 % 1017,6 hPa 0,0 mm 4,1 km/h (1 Bft) O-NO 69 ° 0 min 0,000 mm 0,0 UV-I 51 W/m² 8,4 °C 19,7 °C 6,4 km/h (2 Bft)
08.06.2017 17:00 19,8 °C 19,8 °C 54 % 1017,6 hPa 0,0 mm 4,6 km/h (1 Bft) O-NO 69 ° 0 min 0,000 mm 0,0 UV-I 51 W/m² 10,2 °C 19,8 °C 9,7 km/h (2 Bft)
08.06.2017 17:01 19,9 °C 19,9 °C 47 % 1017,6 hPa 0,0 mm 5,2 km/h (1 Bft) O-NO 63 ° 0 min 0,152 mm 0,0 UV-I 47 W/m² 8,3 °C 19,9 °C 9,7 km/h (2 Bft)
08.06.2017 17:02 19,9 °C 19,9 °C 45 % 1017,6 hPa 0,0 mm 7,4 km/h (2 Bft) O 90 ° 0 min 0,000 mm 0,0 UV-I 49 W/m² 7,6 °C 19,9 °C 11,3 km/h (2 Bft)
08.06.2017 17:03 19,8 °C 19,9 °C 48 % 1017,6 hPa 0,0 mm 7,0 km/h (2 Bft) O 80 ° 0 min 0,000 mm 0,0 UV-I 47 W/m² 8,5 °C 19,8 °C 8,0 km/h (2 Bft)
08.06.2017 17:04 19,8 °C 19,8 °C 46 % 1017,6 hPa 0,0 mm 7,6 km/h (2 Bft) O-NO 78 ° 0 min 0,000 mm 0,0 UV-I 46 W/m² 7,8 °C 19,8 °C 11,3 km/h (2 Bft)
08.06.2017 17:05 19,7 °C 19,8 °C 48 % 1017,5 hPa 0,0 mm 2,5 km/h (1 Bft) O-NO 70 ° 0 min 0,000 mm 0,0 UV-I 46 W/m² 8,4 °C 19,7 °C 9,7 km/h (2 Bft)
08.06.2017 17:06 19,7 °C 19,7 °C 45 % 1017,5 hPa 0,0 mm 1,5 km/h (1 Bft) O 88 ° 0 min 0,000 mm 0,0 UV-I 44 W/m² 7,4 °C 19,7 °C 4,8 km/h (1 Bft)
08.06.2017 17:07 19,6 °C 19,7 °C 47 % 1017,5 hPa 0,0 mm 3,3 km/h (1 Bft) O 84 ° 0 min 0,000 mm 0,0 UV-I 44 W/m² 8,0 °C 19,6 °C 4,8 km/h (1 Bft)
08.06.2017 17:08 19,6 °C 19,6 °C 47 % 1017,5 hPa 0,0 mm 7,7 km/h (2 Bft) NO 42 ° 0 min 0,000 mm 0,0 UV-I 44 W/m² 8,0 °C 19,6 °C 12,9 km/h (3 Bft)
08.06.2017 17:09 19,6 °C 19,7 °C 46 % 1017,4 hPa 0,0 mm 7,7 km/h (2 Bft) O 95 ° 0 min 0,000 mm 0,0 UV-I 44 W/m² 7,7 °C 19,6 °C 11,3 km/h (2 Bft)
08.06.2017 17:10 19,7 °C 19,7 °C 46 % 1017,4 hPa 0,0 mm 5,6 km/h (1 Bft) O-NO 71 ° 0 min 0,000 mm 0,0 UV-I 44 W/m² 7,8 °C 19,7 °C 6,4 km/h (2 Bft)
08.06.2017 17:11 19,7 °C 19,7 °C 45 % 1017,4 hPa 0,0 mm 5,9 km/h (2 Bft) O-NO 76 ° 0 min 0,000 mm 0,0 UV-I 44 W/m² 7,4 °C 19,7 °C 11,3 km/h (2 Bft)
08.06.2017 17:12 19,7 °C 19,7 °C 44 % 1017,4 hPa 0,0 mm 2,9 km/h (1 Bft) O-NO 76 ° 0 min 0,000 mm 0,0 UV-I 46 W/m² 7,1 °C 19,7 °C 4,8 km/h (1 Bft)
08.06.2017 17:13 19,6 °C 19,7 °C 44 % 1017,4 hPa 0,0 mm 4,4 km/h (1 Bft) O 97 ° 0 min 0,000 mm 0,0 UV-I 44 W/m² 7,0 °C 19,6 °C 6,4 km/h (2 Bft)
08.06.2017 17:14 19,6 °C 19,6 °C 46 % 1017,3 hPa 0,0 mm 4,8 km/h (1 Bft) NO 47 ° 0 min 0,000 mm 0,0 UV-I 42 W/m² 7,7 °C 19,6 °C 8,0 km/h (2 Bft)
08.06.2017 17:15 19,7 °C 19,7 °C 46 % 1017,3 hPa 0,0 mm 6,0 km/h (2 Bft) O-NO 65 ° 0 min 0,000 mm 0,0 UV-I 42 W/m² 7,8 °C 19,7 °C 8,0 km/h (2 Bft)
08.06.2017 17:16 19,8 °C 19,8 °C 47 % 1017,3 hPa 0,0 mm 6,6 km/h (2 Bft) N 9 ° 0 min 0,000 mm 1,6 UV-I 46 W/m² 8,2 °C 19,8 °C 11,3 km/h (2 Bft)
08.06.2017 17:17 19,9 °C 19,9 °C 46 % 1017,3 hPa 0,0 mm 4,5 km/h (1 Bft) O-NO 67 ° 0 min 0,000 mm 0,0 UV-I 44 W/m² 7,9 °C 19,9 °C 6,4 km/h (2 Bft)
08.06.2017 17:18 19,9 °C 19,9 °C 44 % 1017,3 hPa 0,0 mm 3,5 km/h (1 Bft) NO 44 ° 0 min 0,000 mm 1,5 UV-I 63 W/m² 7,3 °C 19,9 °C 6,4 km/h (2 Bft)
08.06.2017 17:19 19,9 °C 19,9 °C 47 % 1017,3 hPa 0,0 mm 5,6 km/h (1 Bft) NO 55 ° 0 min 0,000 mm 1,6 UV-I 102 W/m² 8,3 °C 19,9 °C 8,0 km/h (2 Bft)
08.06.2017 17:20 20,0 °C 20,0 °C 46 % 1017,3 hPa 0,0 mm 4,1 km/h (1 Bft) NO 51 ° 0 min 0,000 mm 1,7 UV-I 102 W/m² 8,0 °C 20,0 °C 8,0 km/h (2 Bft)
08.06.2017 17:21 20,1 °C 20,1 °C 46 % 1017,3 hPa 0,0 mm 5,9 km/h (2 Bft) N-NO 24 ° 0 min 0,000 mm 0,0 UV-I 53 W/m² 8,1 °C 20,1 °C 8,0 km/h (2 Bft)
08.06.2017 17:22 20,2 °C 20,2 °C 45 % 1017,3 hPa 0,0 mm 4,1 km/h (1 Bft) O-NO 67 ° 0 min 0,000 mm 0,0 UV-I 47 W/m² 7,9 °C 20,2 °C 4,8 km/h (1 Bft)
08.06.2017 17:23 20,1 °C 20,2 °C 45 % 1017,2 hPa 0,0 mm 6,8 km/h (2 Bft) NO 38 ° 0 min 0,000 mm 0,0 UV-I 47 W/m² 7,8 °C 20,1 °C 9,7 km/h (2 Bft)
08.06.2017 17:24 20,1 °C 20,2 °C 44 % 1017,3 hPa 0,0 mm 2,7 km/h (1 Bft) N 360 ° 0 min 0,000 mm 0,0 UV-I 44 W/m² 7,5 °C 20,1 °C 6,4 km/h (2 Bft)
08.06.2017 17:25 20,1 °C 20,1 °C 45 % 1017,2 hPa 0,0 mm 3,6 km/h (1 Bft) O-NO 61 ° 0 min 0,000 mm 0,0 UV-I 40 W/m² 7,8 °C 20,1 °C 6,4 km/h (2 Bft)
08.06.2017 17:26 20,1 °C 20,1 °C 44 % 1017,2 hPa 0,0 mm 4,7 km/h (1 Bft) O-NO 74 ° 0 min 0,000 mm 0,0 UV-I 47 W/m² 7,5 °C 20,1 °C 8,0 km/h (2 Bft)
08.06.2017 17:27 20,0 °C 20,1 °C 45 % 1017,2 hPa 0,0 mm 3,8 km/h (1 Bft) O-NO 62 ° 0 min 0,000 mm 0,0 UV-I 40 W/m² 7,7 °C 20,0 °C 6,4 km/h (2 Bft)
08.06.2017 17:28 20,0 °C 20,0 °C 47 % 1017,2 hPa 0,0 mm 3,4 km/h (1 Bft) O-NO 78 ° 0 min 0,000 mm 0,0 UV-I 42 W/m² 8,3 °C 20,0 °C 4,8 km/h (1 Bft)
08.06.2017 17:29 19,9 °C 20,0 °C 44 % 1017,2 hPa 0,0 mm 3,8 km/h (1 Bft) O 80 ° 0 min 0,000 mm 0,0 UV-I 40 W/m² 7,3 °C 19,9 °C 6,4 km/h (2 Bft)
08.06.2017 17:30 19,9 °C 19,9 °C 45 % 1017,2 hPa 0,0 mm 5,7 km/h (1 Bft) O-SO 121 ° 0 min 0,000 mm 0,0 UV-I 40 W/m² 7,6 °C 19,9 °C 9,7 km/h (2 Bft)
08.06.2017 17:31 19,8 °C 19,9 °C 46 % 1017,2 hPa 0,0 mm 3,0 km/h (1 Bft) O-NO 57 ° 0 min 0,000 mm 0,0 UV-I 40 W/m² 7,8 °C 19,8 °C 6,4 km/h (2 Bft)
08.06.2017 17:32 19,8 °C 19,8 °C 47 % 1017,2 hPa 0,0 mm 7,6 km/h (2 Bft) O 93 ° 0 min 0,000 mm 0,0 UV-I 40 W/m² 8,2 °C 19,8 °C 12,9 km/h (3 Bft)
08.06.2017 17:33 19,8 °C 19,8 °C 45 % 1017,2 hPa 0,0 mm 9,3 km/h (2 Bft) O-NO 71 ° 0 min 0,000 mm 0,0 UV-I 40 W/m² 7,5 °C 19,8 °C 11,3 km/h (2 Bft)
08.06.2017 17:34 19,8 °C 19,8 °C 46 % 1017,2 hPa 0,0 mm 5,5 km/h (1 Bft) O 82 ° 0 min 0,000 mm 0,0 UV-I 44 W/m² 7,8 °C 19,8 °C 11,3 km/h (2 Bft)
08.06.2017 17:35 19,8 °C 19,8 °C 44 % 1017,1 hPa 0,0 mm 2,7 km/h (1 Bft) NO 36 ° 0 min 0,000 mm 0,0 UV-I 42 W/m² 7,2 °C 19,8 °C 4,8 km/h (1 Bft)
08.06.2017 17:36 19,9 °C 19,9 °C 47 % 1017,1 hPa 0,0 mm 4,9 km/h (1 Bft) O-SO 117 ° 0 min 0,000 mm 0,0 UV-I 40 W/m² 8,3 °C 19,9 °C 8,0 km/h (2 Bft)
08.06.2017 17:37 19,9 °C 19,9 °C 47 % 1017,1 hPa 0,0 mm 1,7 km/h (1 Bft) N-NO 15 ° 0 min 0,000 mm 0,0 UV-I 40 W/m² 8,3 °C 19,9 °C 3,2 km/h (1 Bft)
08.06.2017 17:38 19,9 °C 19,9 °C 46 % 1017,1 hPa 0,0 mm 4,4 km/h (1 Bft) N 5 ° 0 min 0,000 mm 1,4 UV-I 58 W/m² 7,9 °C 19,9 °C 6,4 km/h (2 Bft)
08.06.2017 17:39 19,9 °C 19,9 °C 46 % 1017,1 hPa 0,0 mm 4,2 km/h (1 Bft) N 5 ° 0 min 0,000 mm 1,5 UV-I 77 W/m² 7,9 °C 19,9 °C 4,8 km/h (1 Bft)
08.06.2017 17:40 19,9 °C 19,9 °C 46 % 1017,1 hPa 0,0 mm 5,4 km/h (1 Bft) NO 52 ° 0 min 0,000 mm 1,4 UV-I 77 W/m² 7,9 °C 19,9 °C 8,0 km/h (2 Bft)
08.06.2017 17:41 20,0 °C 20,0 °C 46 % 1017,1 hPa 0,0 mm 5,6 km/h (1 Bft) O-NO 74 ° 0 min 0,000 mm 0,0 UV-I 77 W/m² 8,0 °C 20,0 °C 8,0 km/h (2 Bft)
08.06.2017 17:42 20,0 °C 20,0 °C 45 % 1017,1 hPa 0,0 mm 5,5 km/h (1 Bft) O 80 ° 0 min 0,000 mm 0,0 UV-I 77 W/m² 7,7 °C 20,0 °C 9,7 km/h (2 Bft)
08.06.2017 17:43 19,9 °C 20,0 °C 46 % 1017,1 hPa 0,0 mm 2,5 km/h (1 Bft) O 86 ° 0 min 0,000 mm 0,0 UV-I 51 W/m² 7,9 °C 19,9 °C 3,2 km/h (1 Bft)
08.06.2017 17:44 19,9 °C 19,9 °C 47 % 1017,1 hPa 0,0 mm 1,7 km/h (1 Bft) O 80 ° 0 min 0,000 mm 0,0 UV-I 51 W/m² 8,3 °C 19,9 °C 6,4 km/h (2 Bft)
08.06.2017 17:45 19,8 °C 19,9 °C 46 % 1017,1 hPa 0,0 mm 6,4 km/h (2 Bft) O-NO 68 ° 0 min 0,000 mm 0,0 UV-I 40 W/m² 7,8 °C 19,8 °C 9,7 km/h (2 Bft)
08.06.2017 17:46 19,8 °C 19,8 °C 48 % 1017,1 hPa 0,0 mm 5,4 km/h (1 Bft) O-NO 74 ° 0 min 0,000 mm 0,0 UV-I 39 W/m² 8,5 °C 19,8 °C 8,0 km/h (2 Bft)
08.06.2017 17:47 19,9 °C 19,9 °C 46 % 1017,1 hPa 0,0 mm 3,8 km/h (1 Bft) O-NO 66 ° 0 min 0,000 mm 0,0 UV-I 39 W/m² 7,9 °C 19,9 °C 8,0 km/h (2 Bft)
08.06.2017 17:48 19,9 °C 19,9 °C 46 % 1017,1 hPa 0,0 mm 2,1 km/h (1 Bft) O-NO 66 ° 0 min 0,000 mm 0,0 UV-I 39 W/m² 7,9 °C 19,9 °C 4,8 km/h (1 Bft)
08.06.2017 17:49 19,9 °C 19,9 °C 45 % 1017,1 hPa 0,0 mm 1,8 km/h (1 Bft) N-NO 29 ° 0 min 0,000 mm 0,0 UV-I 40 W/m² 7,6 °C 19,9 °C 3,2 km/h (1 Bft)
08.06.2017 17:50 19,8 °C 19,9 °C 46 % 1017,1 hPa 0,0 mm 3,2 km/h (1 Bft) O 89 ° 0 min 0,000 mm 0,0 UV-I 40 W/m² 7,8 °C 19,8 °C 4,8 km/h (1 Bft)
08.06.2017 17:51 19,8 °C 19,8 °C 48 % 1017,1 hPa 0,0 mm 4,8 km/h (1 Bft) NO 38 ° 0 min 0,000 mm 0,0 UV-I 40 W/m² 8,5 °C 19,8 °C 12,9 km/h (3 Bft)
08.06.2017 17:52 19,8 °C 19,8 °C 47 % 1017,2 hPa 0,0 mm 6,6 km/h (2 Bft) O 83 ° 0 min 0,000 mm 0,0 UV-I 40 W/m² 8,2 °C 19,8 °C 9,7 km/h (2 Bft)
08.06.2017 17:53 19,8 °C 19,9 °C 46 % 1017,2 hPa 0,0 mm 4,4 km/h (1 Bft) O-NO 70 ° 0 min 0,000 mm 0,0 UV-I 40 W/m² 7,8 °C 19,8 °C 6,4 km/h (2 Bft)
08.06.2017 17:54 19,8 °C 19,8 °C 49 % 1017,2 hPa 0,0 mm 2,3 km/h (1 Bft) NO 47 ° 0 min 0,000 mm 0,0 UV-I 42 W/m² 8,8 °C 19,8 °C 3,2 km/h (1 Bft)
08.06.2017 17:55 19,8 °C 19,8 °C 47 % 1017,2 hPa 0,0 mm 6,3 km/h (2 Bft) O-NO 74 ° 0 min 0,000 mm 0,0 UV-I 39 W/m² 8,2 °C 19,8 °C 11,3 km/h (2 Bft)
08.06.2017 17:56 19,8 °C 19,8 °C 44 % 1017,2 hPa 0,0 mm 4,3 km/h (1 Bft) O-NO 78 ° 0 min 0,000 mm 0,0 UV-I 39 W/m² 7,2 °C 19,8 °C 6,4 km/h (2 Bft)
08.06.2017 17:57 19,8 °C 19,8 °C 48 % 1017,2 hPa 0,0 mm 4,5 km/h (1 Bft) O-NO 77 ° 0 min 0,000 mm 0,0 UV-I 37 W/m² 8,5 °C 19,8 °C 6,4 km/h (2 Bft)
08.06.2017 17:58 19,8 °C 19,8 °C 46 % 1017,2 hPa 0,0 mm 2,6 km/h (1 Bft) NO 40 ° 0 min 0,000 mm 0,0 UV-I 37 W/m² 7,8 °C 19,8 °C 8,0 km/h (2 Bft)
08.06.2017 17:59 19,7 °C 19,8 °C 48 % 1017,3 hPa 0,0 mm 1,8 km/h (1 Bft) NO 42 ° 0 min 0,000 mm 0,0 UV-I 37 W/m² 8,4 °C 19,7 °C 3,2 km/h (1 Bft)
08.06.2017 18:00 19,7 °C 19,7 °C 45 % 1017,2 hPa 0,0 mm 2,7 km/h (1 Bft) O-NO 65 ° 0 min 0,000 mm 0,0 UV-I 40 W/m² 7,4 °C 19,7 °C 6,4 km/h (2 Bft)
08.06.2017 18:01 19,8 °C 19,8 °C 46 % 1017,1 hPa 0,0 mm 2,3 km/h (1 Bft) NO 40 ° 0 min 0,076 mm 0,0 UV-I 53 W/m² 7,8 °C 19,8 °C 6,4 km/h (2 Bft)
08.06.2017 18:02 19,8 °C 19,8 °C 48 % 1017,1 hPa 0,0 mm 3,4 km/h (1 Bft) NO 44 ° 0 min 0,000 mm 0,0 UV-I 54 W/m² 8,5 °C 19,8 °C 6,4 km/h (2 Bft)
08.06.2017 18:03 19,9 °C 19,9 °C 46 % 1017,1 hPa 0,0 mm 4,3 km/h (1 Bft) N-NO 33 ° 0 min 0,000 mm 0,0 UV-I 88 W/m² 7,9 °C 19,9 °C 6,4 km/h (2 Bft)
08.06.2017 18:04 20,0 °C 20,0 °C 47 % 1017,1 hPa 0,0 mm 2,0 km/h (1 Bft) NO 51 ° 0 min 0,000 mm 1,3 UV-I 69 W/m² 8,3 °C 20,0 °C 4,8 km/h (1 Bft)
08.06.2017 18:05 19,9 °C 20,0 °C 44 % 1017,1 hPa 0,0 mm 6,1 km/h (2 Bft) O 90 ° 0 min 0,000 mm 0,0 UV-I 69 W/m² 7,3 °C 19,9 °C 9,7 km/h (2 Bft)
08.06.2017 18:06 19,9 °C 19,9 °C 45 % 1017,1 hPa 0,0 mm 3,6 km/h (1 Bft) O-NO 74 ° 0 min 0,000 mm 0,0 UV-I 37 W/m² 7,6 °C 19,9 °C 6,4 km/h (2 Bft)
08.06.2017 18:07 19,8 °C 19,9 °C 44 % 1017,0 hPa 0,0 mm 5,4 km/h (1 Bft) N-NO 27 ° 0 min 0,000 mm 0,0 UV-I 37 W/m² 7,2 °C 19,8 °C 9,7 km/h (2 Bft)
08.06.2017 18:08 19,9 °C 19,9 °C 47 % 1017,1 hPa 0,0 mm 4,0 km/h (1 Bft) NO 47 ° 0 min 0,000 mm 0,0 UV-I 37 W/m² 8,3 °C 19,9 °C 8,0 km/h (2 Bft)
08.06.2017 18:09 19,9 °C 19,9 °C 45 % 1017,0 hPa 0,0 mm 4,8 km/h (1 Bft) O-NO 74 ° 0 min 0,000 mm 0,0 UV-I 37 W/m² 7,6 °C 19,9 °C 6,4 km/h (2 Bft)
08.06.2017 18:10 19,8 °C 19,9 °C 45 % 1017,1 hPa 0,0 mm 4,2 km/h (1 Bft) O 82 ° 0 min 0,000 mm 0,0 UV-I 37 W/m² 7,5 °C 19,8 °C 4,8 km/h (1 Bft)
08.06.2017 18:11 19,8 °C 19,8 °C 44 % 1017,1 hPa 0,0 mm 3,0 km/h (1 Bft) O 94 ° 0 min 0,000 mm 0,0 UV-I 37 W/m² 7,2 °C 19,8 °C 4,8 km/h (1 Bft)
08.06.2017 18:12 19,8 °C 19,8 °C 45 % 1017,0 hPa 0,0 mm 4,0 km/h (1 Bft) O-SO 110 ° 0 min 0,000 mm 0,0 UV-I 37 W/m² 7,5 °C 19,8 °C 6,4 km/h (2 Bft)
08.06.2017 18:13 19,8 °C 19,8 °C 45 % 1017,1 hPa 0,0 mm 3,9 km/h (1 Bft) O-NO 60 ° 0 min 0,000 mm 0,0 UV-I 37 W/m² 7,5 °C 19,8 °C 8,0 km/h (2 Bft)
08.06.2017 18:14 19,8 °C 19,8 °C 45 % 1017,1 hPa 0,0 mm 4,8 km/h (1 Bft) O-NO 71 ° 0 min 0,000 mm 0,0 UV-I 37 W/m² 7,5 °C 19,8 °C 6,4 km/h (2 Bft)
08.06.2017 18:15 19,8 °C 19,8 °C 45 % 1017,1 hPa 0,0 mm 6,1 km/h (2 Bft) O-NO 70 ° 0 min 0,000 mm 0,0 UV-I 37 W/m² 7,5 °C 19,8 °C 8,0 km/h (2 Bft)
08.06.2017 18:16 19,8 °C 19,8 °C 46 % 1017,0 hPa 0,0 mm 5,4 km/h (1 Bft) O-NO 70 ° 0 min 0,000 mm 0,0 UV-I 37 W/m² 7,8 °C 19,8 °C 8,0 km/h (2 Bft)
08.06.2017 18:17 19,9 °C 19,9 °C 46 % 1017,1 hPa 0,0 mm 7,1 km/h (2 Bft) O-NO 76 ° 0 min 0,000 mm 0,0 UV-I 37 W/m² 7,9 °C 19,9 °C 9,7 km/h (2 Bft)
08.06.2017 18:18 19,9 °C 19,9 °C 47 % 1017,0 hPa 0,0 mm 3,7 km/h (1 Bft) O-NO 74 ° 0 min 0,000 mm 0,0 UV-I 37 W/m² 8,3 °C 19,9 °C 9,7 km/h (2 Bft)
08.06.2017 18:19 19,8 °C 19,9 °C 47 % 1017,0 hPa 0,0 mm 3,1 km/h (1 Bft) O 80 ° 0 min 0,000 mm 0,0 UV-I 35 W/m² 8,2 °C 19,8 °C 6,4 km/h (2 Bft)
08.06.2017 18:20 19,8 °C 19,9 °C 45 % 1017,0 hPa 0,0 mm 2,1 km/h (1 Bft) O-SO 105 ° 0 min 0,000 mm 0,0 UV-I 35 W/m² 7,5 °C 19,8 °C 4,8 km/h (1 Bft)
08.06.2017 18:21 19,8 °C 19,8 °C 45 % 1017,0 hPa 0,0 mm 1,6 km/h (1 Bft) O 96 ° 0 min 0,000 mm 0,0 UV-I 37 W/m² 7,5 °C 19,8 °C 4,8 km/h (1 Bft)
08.06.2017 18:22 19,8 °C 19,8 °C 46 % 1017,0 hPa 0,0 mm 3,8 km/h (1 Bft) O 96 ° 0 min 0,000 mm 0,0 UV-I 35 W/m² 7,8 °C 19,8 °C 4,8 km/h (1 Bft)
08.06.2017 18:23 19,8 °C 19,8 °C 47 % 1017,0 hPa 0,0 mm 2,7 km/h (1 Bft) O-NO 69 ° 0 min 0,000 mm 0,0 UV-I 40 W/m² 8,2 °C 19,8 °C 4,8 km/h (1 Bft)
08.06.2017 18:24 19,8 °C 19,8 °C 50 % 1017,0 hPa 0,0 mm 3,9 km/h (1 Bft) O-NO 69 ° 0 min 0,000 mm 0,0 UV-I 47 W/m² 9,1 °C 19,8 °C 4,8 km/h (1 Bft)
08.06.2017 18:25 19,8 °C 19,8 °C 46 % 1017,0 hPa 0,0 mm 2,3 km/h (1 Bft) O-NO 69 ° 0 min 0,000 mm 1,3 UV-I 97 W/m² 7,8 °C 19,8 °C 3,2 km/h (1 Bft)
08.06.2017 18:26 19,8 °C 19,8 °C 47 % 1017,1 hPa 0,0 mm 2,6 km/h (1 Bft) O-NO 67 ° 0 min 0,000 mm 1,4 UV-I 156 W/m² 8,2 °C 19,8 °C 6,4 km/h (2 Bft)
08.06.2017 18:27 19,8 °C 19,8 °C 46 % 1017,0 hPa 0,0 mm 3,1 km/h (1 Bft) O-SO 112 ° 0 min 0,000 mm 1,2 UV-I 111 W/m² 7,8 °C 19,8 °C 4,8 km/h (1 Bft)
08.06.2017 18:28 19,7 °C 19,8 °C 46 % 1017,0 hPa 0,0 mm 4,7 km/h (1 Bft) O 80 ° 0 min 0,000 mm 1,2 UV-I 72 W/m² 7,8 °C 19,7 °C 11,3 km/h (2 Bft)
08.06.2017 18:29 19,7 °C 19,7 °C 45 % 1017,0 hPa 0,0 mm 5,0 km/h (1 Bft) O-NO 68 ° 0 min 0,000 mm 0,0 UV-I 53 W/m² 7,4 °C 19,7 °C 8,0 km/h (2 Bft)
08.06.2017 18:30 19,7 °C 19,7 °C 46 % 1017,0 hPa 0,0 mm 3,9 km/h (1 Bft) O-NO 66 ° 0 min 0,000 mm 1,1 UV-I 100 W/m² 7,8 °C 19,7 °C 4,8 km/h (1 Bft)
08.06.2017 18:31 19,7 °C 19,7 °C 50 % 1017,0 hPa 0,0 mm 6,2 km/h (2 Bft) O-NO 73 ° 0 min 0,000 mm 1,4 UV-I 84 W/m² 9,0 °C 19,7 °C 8,0 km/h (2 Bft)
08.06.2017 18:32 19,7 °C 19,7 °C 47 % 1017,0 hPa 0,0 mm 3,8 km/h (1 Bft) O-NO 68 ° 0 min 0,000 mm 1,4 UV-I 51 W/m² 8,1 °C 19,7 °C 8,0 km/h (2 Bft)
08.06.2017 18:33 19,7 °C 19,7 °C 45 % 1017,0 hPa 0,0 mm 2,2 km/h (1 Bft) O-NO 68 ° 0 min 0,000 mm 1,2 UV-I 95 W/m² 7,4 °C 19,7 °C 3,2 km/h (1 Bft)
08.06.2017 18:34 19,7 °C 19,7 °C 45 % 1016,9 hPa 0,0 mm 3,6 km/h (1 Bft) O-NO 57 ° 0 min 0,000 mm 1,3 UV-I 98 W/m² 7,4 °C 19,7 °C 4,8 km/h (1 Bft)
08.06.2017 18:35 19,8 °C 19,8 °C 45 % 1017,0 hPa 0,0 mm 1,8 km/h (1 Bft) NO 53 ° 0 min 0,000 mm 1,4 UV-I 98 W/m² 7,5 °C 19,8 °C 3,2 km/h (1 Bft)
08.06.2017 18:36 19,7 °C 19,8 °C 45 % 1017,0 hPa 0,0 mm 5,4 km/h (1 Bft) NO 49 ° 0 min 0,000 mm 1,5 UV-I 172 W/m² 7,4 °C 19,7 °C 9,7 km/h (2 Bft)
08.06.2017 18:37 19,8 °C 19,8 °C 43 % 1016,9 hPa 0,0 mm 7,0 km/h (2 Bft) NO 54 ° 0 min 0,000 mm 1,6 UV-I 172 W/m² 6,9 °C 19,8 °C 9,7 km/h (2 Bft)
08.06.2017 18:38 19,8 °C 19,8 °C 44 % 1017,0 hPa 0,0 mm 3,8 km/h (1 Bft) N-NO 13 ° 0 min 0,000 mm 1,5 UV-I 199 W/m² 7,2 °C 19,8 °C 4,8 km/h (1 Bft)
08.06.2017 18:39 19,8 °C 19,8 °C 44 % 1017,0 hPa 0,0 mm 2,7 km/h (1 Bft) N-NO 19 ° 0 min 0,000 mm 1,5 UV-I 227 W/m² 7,2 °C 19,8 °C 4,8 km/h (1 Bft)
08.06.2017 18:40 19,8 °C 19,8 °C 45 % 1016,9 hPa 0,0 mm 4,8 km/h (1 Bft) O-NO 77 ° 0 min 0,000 mm 1,5 UV-I 246 W/m² 7,5 °C 19,8 °C 6,4 km/h (2 Bft)
08.06.2017 18:41 19,9 °C 19,9 °C 46 % 1016,9 hPa 0,0 mm 4,7 km/h (1 Bft) O-NO 70 ° 1 min 0,000 mm 1,5 UV-I 329 W/m² 7,9 °C 19,9 °C 6,4 km/h (2 Bft)
08.06.2017 18:42 19,9 °C 19,9 °C 45 % 1017,0 hPa 0,0 mm 5,7 km/h (1 Bft) O-NO 65 ° 1 min 0,000 mm 1,5 UV-I 332 W/m² 7,6 °C 19,9 °C 12,9 km/h (3 Bft)
08.06.2017 18:43 19,9 °C 19,9 °C 44 % 1016,9 hPa 0,0 mm 6,0 km/h (2 Bft) O 85 ° 0 min 0,000 mm 1,5 UV-I 288 W/m² 7,3 °C 19,9 °C 11,3 km/h (2 Bft)
08.06.2017 18:44 19,8 °C 19,9 °C 44 % 1016,9 hPa 0,0 mm 1,7 km/h (1 Bft) O-NO 66 ° 0 min 0,000 mm 1,5 UV-I 195 W/m² 7,2 °C 19,8 °C 3,2 km/h (1 Bft)
08.06.2017 18:45 19,8 °C 19,8 °C 44 % 1016,9 hPa 0,0 mm 2,4 km/h (1 Bft) O-NO 62 ° 0 min 0,000 mm 1,4 UV-I 281 W/m² 7,2 °C 19,8 °C 4,8 km/h (1 Bft)
08.06.2017 18:46 19,8 °C 19,8 °C 44 % 1016,9 hPa 0,0 mm 3,1 km/h (1 Bft) O-NO 77 ° 1 min 0,000 mm 1,4 UV-I 306 W/m² 7,2 °C 19,8 °C 6,4 km/h (2 Bft)
08.06.2017 18:47 19,8 °C 19,8 °C 45 % 1017,0 hPa 0,0 mm 1,2 km/h (1 Bft) O-NO 77 ° 1 min 0,000 mm 1,4 UV-I 290 W/m² 7,5 °C 19,8 °C 4,8 km/h (1 Bft)
08.06.2017 18:48 19,8 °C 19,8 °C 46 % 1016,9 hPa 0,0 mm 2,5 km/h (1 Bft) O 80 ° 1 min 0,000 mm 1,4 UV-I 302 W/m² 7,8 °C 19,8 °C 6,4 km/h (2 Bft)
08.06.2017 18:49 19,8 °C 19,8 °C 45 % 1016,9 hPa 0,0 mm 6,4 km/h (2 Bft) O-NO 60 ° 1 min 0,000 mm 1,4 UV-I 313 W/m² 7,5 °C 19,8 °C 11,3 km/h (2 Bft)
08.06.2017 18:50 19,8 °C 19,8 °C 44 % 1016,9 hPa 0,0 mm 3,5 km/h (1 Bft) O-NO 63 ° 1 min 0,000 mm 1,4 UV-I 308 W/m² 7,2 °C 19,8 °C 4,8 km/h (1 Bft)
08.06.2017 18:51 19,8 °C 19,8 °C 44 % 1016,9 hPa 0,0 mm 2,9 km/h (1 Bft) O-NO 63 ° 1 min 0,000 mm 1,3 UV-I 306 W/m² 7,2 °C 19,8 °C 4,8 km/h (1 Bft)
08.06.2017 18:52 19,8 °C 19,8 °C 44 % 1016,9 hPa 0,0 mm 4,4 km/h (1 Bft) NO 39 ° 1 min 0,000 mm 1,3 UV-I 301 W/m² 7,2 °C 19,8 °C 8,0 km/h (2 Bft)
08.06.2017 18:53 19,8 °C 19,8 °C 44 % 1017,0 hPa 0,0 mm 6,2 km/h (2 Bft) NO 51 ° 1 min 0,000 mm 1,3 UV-I 301 W/m² 7,2 °C 19,8 °C 9,7 km/h (2 Bft)
08.06.2017 18:54 19,8 °C 19,8 °C 44 % 1016,9 hPa 0,0 mm 4,6 km/h (1 Bft) N-NO 25 ° 1 min 0,000 mm 1,3 UV-I 292 W/m² 7,2 °C 19,8 °C 6,4 km/h (2 Bft)
08.06.2017 18:55 19,8 °C 19,8 °C 44 % 1016,9 hPa 0,0 mm 5,2 km/h (1 Bft) NO 42 ° 0 min 0,000 mm 1,3 UV-I 288 W/m² 7,2 °C 19,8 °C 8,0 km/h (2 Bft)
08.06.2017 18:56 19,9 °C 19,9 °C 44 % 1016,9 hPa 0,0 mm 3,0 km/h (1 Bft) NO 47 ° 1 min 0,000 mm 1,3 UV-I 294 W/m² 7,3 °C 19,9 °C 4,8 km/h (1 Bft)
08.06.2017 18:57 19,9 °C 19,9 °C 45 % 1016,9 hPa 0,0 mm 4,3 km/h (1 Bft) O 86 ° 0 min 0,000 mm 1,2 UV-I 262 W/m² 7,6 °C 19,9 °C 6,4 km/h (2 Bft)
08.06.2017 18:58 19,8 °C 19,9 °C 44 % 1016,9 hPa 0,0 mm 5,4 km/h (1 Bft) O-NO 77 ° 0 min 0,000 mm 1,1 UV-I 183 W/m² 7,2 °C 19,8 °C 8,0 km/h (2 Bft)
08.06.2017 18:59 19,8 °C 19,9 °C 45 % 1016,9 hPa 0,0 mm 4,4 km/h (1 Bft) O-NO 76 ° 0 min 0,000 mm 0,9 UV-I 91 W/m² 7,5 °C 19,8 °C 6,4 km/h (2 Bft)
08.06.2017 19:00 19,8 °C 19,8 °C 46 % 1016,9 hPa 0,0 mm 1,7 km/h (1 Bft) O-NO 75 ° 0 min 0,127 mm 0,0 UV-I 51 W/m² 7,8 °C 19,8 °C 3,2 km/h (1 Bft)
08.06.2017 19:01 19,8 °C 19,8 °C 46 % 1016,9 hPa 0,0 mm 2,7 km/h (1 Bft) O-NO 57 ° 0 min 0,000 mm 0,9 UV-I 146 W/m² 7,8 °C 19,8 °C 4,8 km/h (1 Bft)
08.06.2017 19:02 19,8 °C 19,8 °C 45 % 1017,0 hPa 0,0 mm 3,2 km/h (1 Bft) NO 38 ° 0 min 0,000 mm 1,0 UV-I 221 W/m² 7,5 °C 19,8 °C 4,8 km/h (1 Bft)
08.06.2017 19:03 19,8 °C 19,8 °C 44 % 1016,9 hPa 0,0 mm 5,8 km/h (2 Bft) NO 47 ° 0 min 0,000 mm 1,1 UV-I 211 W/m² 7,2 °C 19,8 °C 8,0 km/h (2 Bft)
08.06.2017 19:04 19,8 °C 19,8 °C 45 % 1016,9 hPa 0,0 mm 5,1 km/h (1 Bft) O-NO 60 ° 0 min 0,000 mm 1,0 UV-I 211 W/m² 7,5 °C 19,8 °C 6,4 km/h (2 Bft)
08.06.2017 19:05 19,8 °C 19,8 °C 47 % 1016,9 hPa 0,0 mm 3,4 km/h (1 Bft) O 83 ° 0 min 0,000 mm 1,0 UV-I 137 W/m² 8,2 °C 19,8 °C 4,8 km/h (1 Bft)
08.06.2017 19:06 19,8 °C 19,8 °C 46 % 1016,9 hPa 0,0 mm 0,7 km/h (0 Bft) O 83 ° 0 min 0,000 mm 1,1 UV-I 149 W/m² 7,8 °C 19,8 °C 3,2 km/h (1 Bft)
08.06.2017 19:07 19,7 °C 19,8 °C 47 % 1016,9 hPa 0,0 mm 2,1 km/h (1 Bft) O-SO 102 ° 0 min 0,000 mm 1,0 UV-I 79 W/m² 8,1 °C 19,7 °C 3,2 km/h (1 Bft)
08.06.2017 19:08 19,7 °C 19,7 °C 47 % 1016,9 hPa 0,0 mm 0,0 km/h (0 Bft) O-SO 102 ° 0 min 0,000 mm 0,9 UV-I 54 W/m² 8,1 °C 19,7 °C 0,0 km/h (0 Bft)
08.06.2017 19:09 19,6 °C 19,7 °C 47 % 1016,9 hPa 0,0 mm 2,7 km/h (1 Bft) NO 34 ° 0 min 0,000 mm 0,9 UV-I 72 W/m² 8,0 °C 19,6 °C 4,8 km/h (1 Bft)
08.06.2017 19:10 19,6 °C 19,7 °C 48 % 1016,9 hPa 0,0 mm 0,9 km/h (0 Bft) NO 34 ° 0 min 0,000 mm 0,9 UV-I 107 W/m² 8,3 °C 19,6 °C 3,2 km/h (1 Bft)
08.06.2017 19:11 19,6 °C 19,6 °C 49 % 1016,9 hPa 0,0 mm 0,9 km/h (0 Bft) NO 34 ° 0 min 0,000 mm 0,9 UV-I 107 W/m² 8,6 °C 19,6 °C 1,6 km/h (1 Bft)
08.06.2017 19:12 19,6 °C 19,6 °C 54 % 1016,9 hPa 0,0 mm 4,3 km/h (1 Bft) O-NO 75 ° 0 min 0,000 mm 1,0 UV-I 107 W/m² 10,0 °C 19,6 °C 6,4 km/h (2 Bft)
08.06.2017 19:13 19,4 °C 19,6 °C 50 % 1016,9 hPa 0,0 mm 3,2 km/h (1 Bft) O-NO 70 ° 0 min 0,000 mm 0,9 UV-I 241 W/m² 8,7 °C 19,4 °C 6,4 km/h (2 Bft)
08.06.2017 19:14 19,4 °C 19,5 °C 49 % 1016,9 hPa 0,0 mm 3,0 km/h (1 Bft) O-NO 70 ° 0 min 0,000 mm 0,9 UV-I 237 W/m² 8,4 °C 19,4 °C 4,8 km/h (1 Bft)
08.06.2017 19:15 19,5 °C 19,5 °C 47 % 1016,9 hPa 0,0 mm 3,5 km/h (1 Bft) O-NO 65 ° 0 min 0,000 mm 0,9 UV-I 236 W/m² 7,9 °C 19,5 °C 6,4 km/h (2 Bft)
08.06.2017 19:16 19,6 °C 19,6 °C 47 % 1016,9 hPa 0,0 mm 2,2 km/h (1 Bft) N-NO 24 ° 0 min 0,000 mm 0,9 UV-I 232 W/m² 8,0 °C 19,6 °C 4,8 km/h (1 Bft)
08.06.2017 19:17 19,7 °C 19,7 °C 49 % 1016,9 hPa 0,0 mm 1,4 km/h (1 Bft) N-NO 24 ° 0 min 0,000 mm 0,9 UV-I 230 W/m² 8,7 °C 19,7 °C 3,2 km/h (1 Bft)
08.06.2017 19:18 19,6 °C 19,7 °C 49 % 1016,9 hPa 0,0 mm 0,9 km/h (0 Bft) N-NO 24 ° 0 min 0,000 mm 0,9 UV-I 227 W/m² 8,6 °C 19,6 °C 3,2 km/h (1 Bft)
08.06.2017 19:19 19,6 °C 19,7 °C 46 % 1016,9 hPa 0,0 mm 3,7 km/h (1 Bft) O-NO 74 ° 0 min 0,000 mm 0,8 UV-I 225 W/m² 7,7 °C 19,6 °C 4,8 km/h (1 Bft)
08.06.2017 19:20 19,6 °C 19,7 °C 47 % 1016,9 hPa 0,0 mm 3,1 km/h (1 Bft) O 90 ° 0 min 0,000 mm 0,8 UV-I 221 W/m² 8,0 °C 19,6 °C 6,4 km/h (2 Bft)
08.06.2017 19:21 19,6 °C 19,7 °C 50 % 1016,9 hPa 0,0 mm 2,0 km/h (1 Bft) O-NO 65 ° 0 min 0,000 mm 0,8 UV-I 218 W/m² 8,9 °C 19,6 °C 3,2 km/h (1 Bft)
08.06.2017 19:22 19,5 °C 19,6 °C 49 % 1016,9 hPa 0,0 mm 3,2 km/h (1 Bft) O-NO 65 ° 0 min 0,000 mm 0,8 UV-I 216 W/m² 8,5 °C 19,5 °C 4,8 km/h (1 Bft)
08.06.2017 19:23 19,5 °C 19,5 °C 50 % 1016,9 hPa 0,0 mm 3,0 km/h (1 Bft) O-NO 66 ° 0 min 0,000 mm 0,8 UV-I 216 W/m² 8,8 °C 19,5 °C 6,4 km/h (2 Bft)
08.06.2017 19:24 19,4 °C 19,5 °C 49 % 1016,8 hPa 0,0 mm 2,1 km/h (1 Bft) O-NO 66 ° 0 min 0,000 mm 0,8 UV-I 211 W/m² 8,4 °C 19,4 °C 3,2 km/h (1 Bft)
08.06.2017 19:25 19,4 °C 19,4 °C 48 % 1016,9 hPa 0,0 mm 3,8 km/h (1 Bft) O-NO 59 ° 0 min 0,000 mm 0,8 UV-I 206 W/m² 8,1 °C 19,4 °C 8,0 km/h (2 Bft)
08.06.2017 19:26 19,4 °C 19,4 °C 49 % 1016,8 hPa 0,0 mm 3,4 km/h (1 Bft) NO 39 ° 0 min 0,000 mm 0,8 UV-I 202 W/m² 8,4 °C 19,4 °C 6,4 km/h (2 Bft)
08.06.2017 19:27 19,4 °C 19,4 °C 47 % 1016,8 hPa 0,0 mm 2,2 km/h (1 Bft) NO 36 ° 0 min 0,000 mm 0,8 UV-I 200 W/m² 7,8 °C 19,4 °C 4,8 km/h (1 Bft)
08.06.2017 19:28 19,5 °C 19,5 °C 47 % 1016,9 hPa 0,0 mm 3,2 km/h (1 Bft) NO 45 ° 0 min 0,000 mm 0,8 UV-I 199 W/m² 7,9 °C 19,5 °C 4,8 km/h (1 Bft)
08.06.2017 19:29 19,6 °C 19,6 °C 45 % 1016,9 hPa 0,0 mm 2,6 km/h (1 Bft) NO 54 ° 0 min 0,000 mm 0,7 UV-I 199 W/m² 7,3 °C 19,6 °C 4,8 km/h (1 Bft)
08.06.2017 19:30 19,6 °C 19,6 °C 44 % 1016,9 hPa 0,0 mm 1,4 km/h (1 Bft) NO 45 ° 0 min 0,000 mm 0,7 UV-I 193 W/m² 7,0 °C 19,6 °C 3,2 km/h (1 Bft)
08.06.2017 19:31 19,6 °C 19,6 °C 48 % 1016,9 hPa 0,0 mm 0,0 km/h (0 Bft) NO 45 ° 0 min 0,000 mm 0,7 UV-I 190 W/m² 8,3 °C 19,6 °C 0,0 km/h (0 Bft)
08.06.2017 19:32 19,5 °C 19,6 °C 48 % 1016,9 hPa 0,0 mm 0,4 km/h (0 Bft) NO 45 ° 0 min 0,000 mm 0,7 UV-I 185 W/m² 8,2 °C 19,5 °C 3,2 km/h (1 Bft)
08.06.2017 19:33 19,4 °C 19,5 °C 50 % 1016,9 hPa 0,0 mm 0,0 km/h (0 Bft) NO 45 ° 0 min 0,000 mm 0,7 UV-I 181 W/m² 8,7 °C 19,4 °C 0,0 km/h (0 Bft)
08.06.2017 19:34 19,4 °C 19,4 °C 49 % 1016,8 hPa 0,0 mm 0,3 km/h (0 Bft) NO 44 ° 0 min 0,000 mm 0,7 UV-I 181 W/m² 8,4 °C 19,4 °C 3,2 km/h (1 Bft)
08.06.2017 19:35 19,4 °C 19,4 °C 48 % 1016,9 hPa 0,0 mm 5,4 km/h (1 Bft) O-NO 68 ° 0 min 0,000 mm 0,7 UV-I 176 W/m² 8,1 °C 19,4 °C 8,0 km/h (2 Bft)
08.06.2017 19:36 19,3 °C 19,4 °C 47 % 1016,9 hPa 0,0 mm 2,6 km/h (1 Bft) O-NO 67 ° 0 min 0,000 mm 0,7 UV-I 174 W/m² 7,7 °C 19,3 °C 4,8 km/h (1 Bft)
08.06.2017 19:37 19,4 °C 19,4 °C 47 % 1016,9 hPa 0,0 mm 1,7 km/h (1 Bft) O-NO 65 ° 0 min 0,000 mm 0,6 UV-I 169 W/m² 7,8 °C 19,4 °C 3,2 km/h (1 Bft)
08.06.2017 19:38 19,4 °C 19,4 °C 46 % 1016,9 hPa 0,0 mm 3,2 km/h (1 Bft) O-NO 78 ° 0 min 0,000 mm 0,6 UV-I 167 W/m² 7,5 °C 19,4 °C 4,8 km/h (1 Bft)
08.06.2017 19:39 19,5 °C 19,5 °C 47 % 1016,9 hPa 0,0 mm 1,7 km/h (1 Bft) O-NO 78 ° 0 min 0,000 mm 0,6 UV-I 163 W/m² 7,9 °C 19,5 °C 6,4 km/h (2 Bft)
08.06.2017 19:40 19,4 °C 19,5 °C 48 % 1016,9 hPa 0,0 mm 4,8 km/h (1 Bft) O-NO 77 ° 0 min 0,000 mm 0,6 UV-I 162 W/m² 8,1 °C 19,4 °C 6,4 km/h (2 Bft)
08.06.2017 19:41 19,3 °C 19,4 °C 48 % 1016,9 hPa 0,0 mm 1,1 km/h (1 Bft) O-NO 77 ° 0 min 0,000 mm 0,6 UV-I 158 W/m² 8,0 °C 19,3 °C 3,2 km/h (1 Bft)
08.06.2017 19:42 19,2 °C 19,3 °C 49 % 1016,9 hPa 0,0 mm 3,6 km/h (1 Bft) O 84 ° 0 min 0,000 mm 0,6 UV-I 153 W/m² 8,2 °C 19,2 °C 4,8 km/h (1 Bft)
08.06.2017 19:43 19,2 °C 19,2 °C 47 % 1016,9 hPa 0,0 mm 3,4 km/h (1 Bft) O 85 ° 0 min 0,000 mm 0,6 UV-I 151 W/m² 7,6 °C 19,2 °C 4,8 km/h (1 Bft)
08.06.2017 19:44 19,2 °C 19,2 °C 48 % 1016,9 hPa 0,0 mm 2,7 km/h (1 Bft) O-NO 65 ° 0 min 0,000 mm 0,6 UV-I 148 W/m² 7,9 °C 19,2 °C 4,8 km/h (1 Bft)
08.06.2017 19:45 19,3 °C 19,3 °C 47 % 1016,9 hPa 0,0 mm 2,9 km/h (1 Bft) O-NO 62 ° 0 min 0,000 mm 0,6 UV-I 146 W/m² 7,7 °C 19,3 °C 4,8 km/h (1 Bft)
08.06.2017 19:46 19,3 °C 19,3 °C 49 % 1016,9 hPa 0,0 mm 3,0 km/h (1 Bft) O-NO 61 ° 0 min 0,000 mm 0,5 UV-I 142 W/m² 8,3 °C 19,3 °C 6,4 km/h (2 Bft)
08.06.2017 19:47 19,3 °C 19,3 °C 48 % 1016,9 hPa 0,0 mm 2,3 km/h (1 Bft) NO 53 ° 0 min 0,000 mm 0,5 UV-I 142 W/m² 8,0 °C 19,3 °C 4,8 km/h (1 Bft)
08.06.2017 19:48 19,3 °C 19,3 °C 50 % 1016,9 hPa 0,0 mm 0,1 km/h (0 Bft) NO 53 ° 0 min 0,000 mm 0,5 UV-I 135 W/m² 8,6 °C 19,3 °C 1,6 km/h (1 Bft)
08.06.2017 19:49 19,3 °C 19,3 °C 48 % 1016,9 hPa 0,0 mm 1,7 km/h (1 Bft) NO 53 ° 0 min 0,000 mm 0,5 UV-I 134 W/m² 8,0 °C 19,3 °C 3,2 km/h (1 Bft)
08.06.2017 19:50 19,2 °C 19,3 °C 52 % 1016,9 hPa 0,0 mm 0,5 km/h (0 Bft) NO 53 ° 0 min 0,000 mm 0,5 UV-I 130 W/m² 9,1 °C 19,2 °C 1,6 km/h (1 Bft)
08.06.2017 19:51 19,1 °C 19,2 °C 51 % 1016,9 hPa 0,0 mm 1,5 km/h (1 Bft) NO 53 ° 0 min 0,000 mm 0,5 UV-I 127 W/m² 8,7 °C 19,1 °C 3,2 km/h (1 Bft)
08.06.2017 19:52 18,9 °C 19,1 °C 55 % 1016,9 hPa 0,0 mm 0,7 km/h (0 Bft) NO 53 ° 0 min 0,000 mm 0,5 UV-I 125 W/m² 9,7 °C 18,9 °C 1,6 km/h (1 Bft)
08.06.2017 19:53 18,8 °C 18,9 °C 50 % 1016,9 hPa 0,0 mm 0,0 km/h (0 Bft) NO 53 ° 0 min 0,000 mm 0,5 UV-I 123 W/m² 8,2 °C 18,8 °C 0,0 km/h (0 Bft)
08.06.2017 19:54 18,8 °C 18,8 °C 52 % 1016,9 hPa 0,0 mm 0,1 km/h (0 Bft) NO 53 ° 0 min 0,000 mm 0,5 UV-I 118 W/m² 8,7 °C 18,8 °C 1,6 km/h (1 Bft)
08.06.2017 19:55 18,7 °C 18,8 °C 52 % 1016,9 hPa 0,0 mm 1,8 km/h (1 Bft) NO 53 ° 0 min 0,000 mm 0,5 UV-I 116 W/m² 8,6 °C 18,7 °C 3,2 km/h (1 Bft)
08.06.2017 19:56 18,7 °C 18,7 °C 52 % 1016,9 hPa 0,0 mm 0,2 km/h (0 Bft) NO 53 ° 0 min 0,000 mm 0,0 UV-I 113 W/m² 8,6 °C 18,7 °C 1,6 km/h (1 Bft)
08.06.2017 19:57 18,6 °C 18,7 °C 52 % 1016,8 hPa 0,0 mm 1,5 km/h (1 Bft) O 80 ° 0 min 0,000 mm 0,0 UV-I 111 W/m² 8,5 °C 18,6 °C 3,2 km/h (1 Bft)
08.06.2017 19:58 18,6 °C 18,6 °C 52 % 1016,8 hPa 0,0 mm 0,0 km/h (0 Bft) O 80 ° 0 min 0,000 mm 0,0 UV-I 109 W/m² 8,5 °C 18,6 °C 0,0 km/h (0 Bft)
08.06.2017 19:59 18,5 °C 18,6 °C 51 % 1016,8 hPa 0,0 mm 0,0 km/h (0 Bft) O 80 ° 0 min 0,000 mm 0,0 UV-I 105 W/m² 8,2 °C 18,5 °C 0,0 km/h (0 Bft)
08.06.2017 20:00 18,4 °C 18,5 °C 51 % 1016,8 hPa 0,0 mm 0,0 km/h (0 Bft) O 80 ° 0 min 0,000 mm 0,0 UV-I 100 W/m² 8,1 °C 18,4 °C 0,0 km/h (0 Bft)
08.06.2017 20:01 18,3 °C 18,4 °C 53 % 1016,9 hPa 0,0 mm 0,0 km/h (0 Bft) O 80 ° 0 min 0,127 mm 0,0 UV-I 98 W/m² 8,6 °C 18,3 °C 0,0 km/h (0 Bft)
08.06.2017 20:02 18,3 °C 18,3 °C 53 % 1016,9 hPa 0,0 mm 0,3 km/h (0 Bft) O 80 ° 0 min 0,000 mm 0,0 UV-I 97 W/m² 8,6 °C 18,3 °C 1,6 km/h (1 Bft)
08.06.2017 20:03 18,1 °C 18,3 °C 56 % 1016,9 hPa 0,0 mm 1,6 km/h (1 Bft) O-NO 77 ° 0 min 0,000 mm 0,0 UV-I 95 W/m² 9,2 °C 18,1 °C 3,2 km/h (1 Bft)
08.06.2017 20:04 18,1 °C 18,1 °C 52 % 1016,8 hPa 0,0 mm 1,4 km/h (1 Bft) O-NO 77 ° 0 min 0,000 mm 0,0 UV-I 91 W/m² 8,1 °C 18,1 °C 3,2 km/h (1 Bft)
08.06.2017 20:05 18,1 °C 18,1 °C 55 % 1016,8 hPa 0,0 mm 0,3 km/h (0 Bft) O-NO 77 ° 0 min 0,000 mm 0,0 UV-I 91 W/m² 8,9 °C 18,1 °C 1,6 km/h (1 Bft)
08.06.2017 20:06 18,0 °C 18,1 °C 57 % 1016,8 hPa 0,0 mm 1,3 km/h (1 Bft) O-NO 77 ° 0 min 0,000 mm 0,0 UV-I 86 W/m² 9,4 °C 18,0 °C 3,2 km/h (1 Bft)
08.06.2017 20:07 18,1 °C 18,1 °C 51 % 1016,8 hPa 0,0 mm 1,5 km/h (1 Bft) O 84 ° 0 min 0,000 mm 0,0 UV-I 84 W/m² 7,8 °C 18,1 °C 3,2 km/h (1 Bft)
08.06.2017 20:08 18,1 °C 18,1 °C 50 % 1016,8 hPa 0,0 mm 0,1 km/h (0 Bft) O 84 ° 0 min 0,000 mm 0,0 UV-I 81 W/m² 7,5 °C 18,1 °C 1,6 km/h (1 Bft)
08.06.2017 20:09 18,2 °C 18,2 °C 53 % 1016,8 hPa 0,0 mm 0,0 km/h (0 Bft) O 84 ° 0 min 0,000 mm 0,0 UV-I 79 W/m² 8,5 °C 18,2 °C 0,0 km/h (0 Bft)
08.06.2017 20:10 18,2 °C 18,2 °C 50 % 1016,8 hPa 0,0 mm 0,0 km/h (0 Bft) O 84 ° 0 min 0,000 mm 0,0 UV-I 77 W/m² 7,6 °C 18,2 °C 0,0 km/h (0 Bft)
08.06.2017 20:11 18,1 °C 18,2 °C 57 % 1016,8 hPa 0,0 mm 0,0 km/h (0 Bft) O 84 ° 0 min 0,000 mm 0,0 UV-I 76 W/m² 9,4 °C 18,1 °C 0,0 km/h (0 Bft)
08.06.2017 20:12 17,9 °C 18,1 °C 56 % 1016,8 hPa 0,0 mm 0,0 km/h (0 Bft) O 84 ° 0 min 0,000 mm 0,0 UV-I 72 W/m² 9,0 °C 17,9 °C 0,0 km/h (0 Bft)
08.06.2017 20:13 17,8 °C 17,9 °C 58 % 1016,8 hPa 0,0 mm 0,0 km/h (0 Bft) O 84 ° 0 min 0,000 mm 0,0 UV-I 70 W/m² 9,4 °C 17,8 °C 0,0 km/h (0 Bft)
08.06.2017 20:14 17,7 °C 17,8 °C 57 % 1016,8 hPa 0,0 mm 0,0 km/h (0 Bft) O 84 ° 0 min 0,000 mm 0,0 UV-I 69 W/m² 9,1 °C 17,7 °C 0,0 km/h (0 Bft)
08.06.2017 20:15 17,7 °C 17,7 °C 56 % 1016,7 hPa 0,0 mm 0,0 km/h (0 Bft) O 84 ° 0 min 0,000 mm 0,0 UV-I 65 W/m² 8,8 °C 17,7 °C 0,0 km/h (0 Bft)
08.06.2017 20:16 17,6 °C 17,7 °C 56 % 1016,7 hPa 0,0 mm 0,6 km/h (0 Bft) O 84 ° 0 min 0,000 mm 0,0 UV-I 63 W/m² 8,7 °C 17,6 °C 3,2 km/h (1 Bft)
08.06.2017 20:17 17,7 °C 17,7 °C 55 % 1016,8 hPa 0,0 mm 0,1 km/h (0 Bft) O 84 ° 0 min 0,000 mm 0,0 UV-I 62 W/m² 8,5 °C 17,7 °C 1,6 km/h (1 Bft)
08.06.2017 20:18 17,6 °C 17,7 °C 56 % 1016,7 hPa 0,0 mm 0,0 km/h (0 Bft) O 84 ° 0 min 0,000 mm 0,0 UV-I 58 W/m² 8,7 °C 17,6 °C 0,0 km/h (0 Bft)
08.06.2017 20:19 17,6 °C 17,6 °C 54 % 1016,7 hPa 0,0 mm 0,0 km/h (0 Bft) O 84 ° 0 min 0,000 mm 0,0 UV-I 56 W/m² 8,2 °C 17,6 °C 0,0 km/h (0 Bft)
08.06.2017 20:20 17,6 °C 17,6 °C 54 % 1016,8 hPa 0,0 mm 0,0 km/h (0 Bft) O 84 ° 0 min 0,000 mm 0,0 UV-I 54 W/m² 8,2 °C 17,6 °C 0,0 km/h (0 Bft)
08.06.2017 20:21 17,5 °C 17,6 °C 58 % 1016,8 hPa 0,0 mm 0,7 km/h (0 Bft) O 84 ° 0 min 0,000 mm 0,0 UV-I 53 W/m² 9,1 °C 17,5 °C 1,6 km/h (1 Bft)
08.06.2017 20:22 17,4 °C 17,5 °C 56 % 1016,8 hPa 0,0 mm 0,0 km/h (0 Bft) O 84 ° 0 min 0,000 mm 0,0 UV-I 53 W/m² 8,5 °C 17,4 °C 0,0 km/h (0 Bft)
08.06.2017 20:23 17,3 °C 17,4 °C 58 % 1016,7 hPa 0,0 mm 0,0 km/h (0 Bft) O 84 ° 0 min 0,000 mm 0,0 UV-I 53 W/m² 9,0 °C 17,3 °C 0,0 km/h (0 Bft)
08.06.2017 20:24 17,3 °C 17,3 °C 57 % 1016,8 hPa 0,0 mm 0,2 km/h (0 Bft) O 84 ° 0 min 0,000 mm 0,0 UV-I 47 W/m² 8,7 °C 17,3 °C 1,6 km/h (1 Bft)
08.06.2017 20:25 17,3 °C 17,3 °C 58 % 1016,7 hPa 0,0 mm 0,0 km/h (0 Bft) O 84 ° 0 min 0,000 mm 0,0 UV-I 46 W/m² 9,0 °C 17,3 °C 0,0 km/h (0 Bft)
08.06.2017 20:26 17,3 °C 17,3 °C 56 % 1016,8 hPa 0,0 mm 0,1 km/h (0 Bft) O 84 ° 0 min 0,000 mm 0,0 UV-I 44 W/m² 8,4 °C 17,3 °C 1,6 km/h (1 Bft)
08.06.2017 20:27 17,2 °C 17,3 °C 58 % 1016,7 hPa 0,0 mm 0,0 km/h (0 Bft) O 84 ° 0 min 0,000 mm 0,0 UV-I 42 W/m² 8,9 °C 17,2 °C 0,0 km/h (0 Bft)
08.06.2017 20:28 17,2 °C 17,3 °C 59 % 1016,8 hPa 0,0 mm 0,5 km/h (0 Bft) O 84 ° 0 min 0,000 mm 0,0 UV-I 40 W/m² 9,1 °C 17,2 °C 1,6 km/h (1 Bft)
08.06.2017 20:29 17,2 °C 17,2 °C 57 % 1016,7 hPa 0,0 mm 0,0 km/h (0 Bft) O 84 ° 0 min 0,000 mm 0,0 UV-I 40 W/m² 8,6 °C 17,2 °C 0,0 km/h (0 Bft)
08.06.2017 20:30 17,2 °C 17,2 °C 57 % 1016,8 hPa 0,0 mm 0,0 km/h (0 Bft) O 84 ° 0 min 0,000 mm 0,0 UV-I 37 W/m² 8,6 °C 17,2 °C 0,0 km/h (0 Bft)
08.06.2017 20:31 17,1 °C 17,2 °C 57 % 1016,7 hPa 0,0 mm 0,0 km/h (0 Bft) O 84 ° 0 min 0,000 mm 0,0 UV-I 35 W/m² 8,5 °C 17,1 °C 0,0 km/h (0 Bft)
08.06.2017 20:32 17,0 °C 17,1 °C 58 % 1016,8 hPa 0,0 mm 0,0 km/h (0 Bft) O 84 ° 0 min 0,000 mm 0,0 UV-I 33 W/m² 8,7 °C 17,0 °C 0,0 km/h (0 Bft)
08.06.2017 20:33 17,1 °C 17,1 °C 56 % 1016,7 hPa 0,0 mm 0,0 km/h (0 Bft) O 84 ° 0 min 0,000 mm 0,0 UV-I 32 W/m² 8,3 °C 17,1 °C 0,0 km/h (0 Bft)
08.06.2017 20:34 17,0 °C 17,1 °C 57 % 1016,7 hPa 0,0 mm 0,0 km/h (0 Bft) O 84 ° 0 min 0,000 mm 0,0 UV-I 28 W/m² 8,4 °C 17,0 °C 0,0 km/h (0 Bft)
08.06.2017 20:35 16,9 °C 17,0 °C 58 % 1016,8 hPa 0,0 mm 0,0 km/h (0 Bft) O 84 ° 0 min 0,000 mm 0,0 UV-I 21 W/m² 8,6 °C 16,9 °C 0,0 km/h (0 Bft)
08.06.2017 20:36 16,9 °C 16,9 °C 59 % 1016,7 hPa 0,0 mm 0,0 km/h (0 Bft) O 84 ° 0 min 0,000 mm 0,0 UV-I 19 W/m² 8,8 °C 16,9 °C 0,0 km/h (0 Bft)
08.06.2017 20:37 16,8 °C 16,9 °C 59 % 1016,7 hPa 0,0 mm 0,0 km/h (0 Bft) O 84 ° 0 min 0,000 mm 0,0 UV-I 18 W/m² 8,7 °C 16,8 °C 0,0 km/h (0 Bft)
08.06.2017 20:38 16,7 °C 16,8 °C 61 % 1016,7 hPa 0,0 mm 0,0 km/h (0 Bft) O 84 ° 0 min 0,000 mm 0,0 UV-I 18 W/m² 9,1 °C 16,7 °C 0,0 km/h (0 Bft)
08.06.2017 20:39 16,4 °C 16,7 °C 62 % 1016,7 hPa 0,0 mm 0,0 km/h (0 Bft) O 84 ° 0 min 0,000 mm 0,0 UV-I 18 W/m² 9,1 °C 16,4 °C 0,0 km/h (0 Bft)
08.06.2017 20:40 16,3 °C 16,4 °C 62 % 1016,7 hPa 0,0 mm 0,0 km/h (0 Bft) O 84 ° 0 min 0,000 mm 0,0 UV-I 18 W/m² 9,0 °C 16,3 °C 0,0 km/h (0 Bft)
08.06.2017 20:41 16,3 °C 16,3 °C 63 % 1016,7 hPa 0,0 mm 0,0 km/h (0 Bft) O 84 ° 0 min 0,000 mm 0,0 UV-I 18 W/m² 9,2 °C 16,3 °C 0,0 km/h (0 Bft)
08.06.2017 20:42 16,2 °C 16,3 °C 62 % 1016,7 hPa 0,0 mm 0,0 km/h (0 Bft) O 84 ° 0 min 0,000 mm 0,0 UV-I 16 W/m² 8,9 °C 16,2 °C 0,0 km/h (0 Bft)
08.06.2017 20:43 16,1 °C 16,2 °C 64 % 1016,7 hPa 0,0 mm 0,0 km/h (0 Bft) O 84 ° 0 min 0,000 mm 0,0 UV-I 16 W/m² 9,3 °C 16,1 °C 0,0 km/h (0 Bft)
08.06.2017 20:44 15,8 °C 16,1 °C 65 % 1016,7 hPa 0,0 mm 0,0 km/h (0 Bft) O 84 ° 0 min 0,000 mm 0,0 UV-I 16 W/m² 9,2 °C 15,8 °C 0,0 km/h (0 Bft)
08.06.2017 20:45 15,6 °C 15,8 °C 67 % 1016,7 hPa 0,0 mm 0,0 km/h (0 Bft) O 84 ° 0 min 0,000 mm 0,0 UV-I 16 W/m² 9,5 °C 15,6 °C 0,0 km/h (0 Bft)
08.06.2017 20:46 15,4 °C 15,6 °C 67 % 1016,8 hPa 0,0 mm 0,0 km/h (0 Bft) O 84 ° 0 min 0,000 mm 0,0 UV-I 14 W/m² 9,3 °C 15,4 °C 0,0 km/h (0 Bft)
08.06.2017 20:47 15,3 °C 15,4 °C 68 % 1016,7 hPa 0,0 mm 0,7 km/h (0 Bft) O 84 ° 0 min 0,000 mm 0,0 UV-I 14 W/m² 9,4 °C 15,3 °C 1,6 km/h (1 Bft)
08.06.2017 20:48 15,3 °C 15,3 °C 68 % 1016,7 hPa 0,0 mm 0,1 km/h (0 Bft) O 84 ° 0 min 0,000 mm 0,0 UV-I 14 W/m² 9,4 °C 15,3 °C 1,6 km/h (1 Bft)
08.06.2017 20:49 15,2 °C 15,3 °C 69 % 1016,8 hPa 0,0 mm 0,0 km/h (0 Bft) O 84 ° 0 min 0,000 mm 0,0 UV-I 12 W/m² 9,6 °C 15,2 °C 0,0 km/h (0 Bft)
08.06.2017 20:50 15,1 °C 15,2 °C 70 % 1016,8 hPa 0,0 mm 0,0 km/h (0 Bft) O 84 ° 0 min 0,000 mm 0,0 UV-I 12 W/m² 9,7 °C 15,1 °C 0,0 km/h (0 Bft)
08.06.2017 20:51 14,9 °C 15,1 °C 70 % 1016,8 hPa 0,0 mm 0,0 km/h (0 Bft) O 84 ° 0 min 0,000 mm 0,0 UV-I 11 W/m² 9,5 °C 14,9 °C 0,0 km/h (0 Bft)
08.06.2017 20:52 14,7 °C 14,9 °C 70 % 1016,8 hPa 0,0 mm 0,0 km/h (0 Bft) O 84 ° 0 min 0,000 mm 0,0 UV-I 11 W/m² 9,3 °C 14,7 °C 0,0 km/h (0 Bft)
08.06.2017 20:53 14,7 °C 14,7 °C 70 % 1016,8 hPa 0,0 mm 0,0 km/h (0 Bft) O 84 ° 0 min 0,000 mm 0,0 UV-I 9 W/m² 9,3 °C 14,7 °C 0,0 km/h (0 Bft)
08.06.2017 20:54 14,6 °C 14,7 °C 69 % 1016,8 hPa 0,0 mm 1,7 km/h (1 Bft) O 84 ° 0 min 0,000 mm 0,0 UV-I 9 W/m² 9,0 °C 14,6 °C 3,2 km/h (1 Bft)
08.06.2017 20:55 14,6 °C 14,7 °C 69 % 1016,9 hPa 0,0 mm 2,5 km/h (1 Bft) O 84 ° 0 min 0,000 mm 0,0 UV-I 7 W/m² 9,0 °C 14,6 °C 3,2 km/h (1 Bft)
08.06.2017 20:56 14,6 °C 14,6 °C 69 % 1016,9 hPa 0,0 mm 2,0 km/h (1 Bft) O 84 ° 0 min 0,000 mm 0,0 UV-I 7 W/m² 9,0 °C 14,6 °C 3,2 km/h (1 Bft)
08.06.2017 20:57 14,7 °C 14,7 °C 67 % 1016,8 hPa 0,0 mm 1,5 km/h (1 Bft) O 84 ° 0 min 0,000 mm 0,0 UV-I 7 W/m² 8,6 °C 14,7 °C 1,6 km/h (1 Bft)
08.06.2017 20:58 14,8 °C 14,8 °C 66 % 1016,9 hPa 0,0 mm 1,3 km/h (1 Bft) O 84 ° 0 min 0,000 mm 0,0 UV-I 7 W/m² 8,5 °C 14,8 °C 1,6 km/h (1 Bft)
08.06.2017 20:59 14,8 °C 14,8 °C 66 % 1016,9 hPa 0,0 mm 0,6 km/h (0 Bft) O 84 ° 0 min 0,000 mm 0,0 UV-I 5 W/m² 8,5 °C 14,8 °C 1,6 km/h (1 Bft)
08.06.2017 21:00 14,8 °C 14,8 °C 67 % 1016,9 hPa 0,0 mm 0,4 km/h (0 Bft) O 84 ° 0 min 0,000 mm 0,0 UV-I 5 W/m² 8,7 °C 14,8 °C 1,6 km/h (1 Bft)
08.06.2017 21:01 14,7 °C 14,8 °C 67 % 1016,9 hPa 0,0 mm 0,7 km/h (0 Bft) O 84 ° 0 min 0,026 mm 0,0 UV-I 5 W/m² 8,6 °C 14,7 °C 1,6 km/h (1 Bft)
08.06.2017 21:02 14,8 °C 14,8 °C 66 % 1016,9 hPa 0,0 mm 0,1 km/h (0 Bft) O 84 ° 0 min 0,000 mm 0,0 UV-I 5 W/m² 8,5 °C 14,8 °C 1,6 km/h (1 Bft)
08.06.2017 21:03 14,8 °C 14,8 °C 66 % 1016,9 hPa 0,0 mm 0,0 km/h (0 Bft) O 84 ° 0 min 0,000 mm 0,0 UV-I 5 W/m² 8,5 °C 14,8 °C 0,0 km/h (0 Bft)
08.06.2017 21:04 14,7 °C 14,8 °C 66 % 1016,9 hPa 0,0 mm 0,0 km/h (0 Bft) O 84 ° 0 min 0,000 mm 0,0 UV-I 5 W/m² 8,4 °C 14,7 °C 0,0 km/h (0 Bft)
08.06.2017 21:05 14,5 °C 14,7 °C 68 % 1016,9 hPa 0,0 mm 0,0 km/h (0 Bft) O 84 ° 0 min 0,000 mm 0,0 UV-I 5 W/m² 8,7 °C 14,5 °C 0,0 km/h (0 Bft)
08.06.2017 21:06 14,3 °C 14,5 °C 69 % 1016,9 hPa 0,0 mm 0,6 km/h (0 Bft) O 84 ° 0 min 0,000 mm 0,0 UV-I 5 W/m² 8,7 °C 14,3 °C 1,6 km/h (1 Bft)
08.06.2017 21:07 14,1 °C 14,3 °C 69 % 1016,9 hPa 0,0 mm 0,0 km/h (0 Bft) O 84 ° 0 min 0,000 mm 0,0 UV-I 0 W/m² 8,5 °C 14,1 °C 0,0 km/h (0 Bft)
08.06.2017 21:08 13,8 °C 14,1 °C 70 % 1016,9 hPa 0,0 mm 0,5 km/h (0 Bft) O 84 ° 0 min 0,000 mm 0,0 UV-I 0 W/m² 8,4 °C 13,8 °C 1,6 km/h (1 Bft)
08.06.2017 21:09 13,7 °C 13,8 °C 70 % 1016,9 hPa 0,0 mm 0,3 km/h (0 Bft) O 84 ° 0 min 0,000 mm 0,0 UV-I 0 W/m² 8,3 °C 13,7 °C 1,6 km/h (1 Bft)
08.06.2017 21:10 13,7 °C 13,7 °C 69 % 1016,9 hPa 0,0 mm 0,0 km/h (0 Bft) O 84 ° 0 min 0,000 mm 0,0 UV-I 0 W/m² 8,1 °C 13,7 °C 0,0 km/h (0 Bft)
08.06.2017 21:11 13,6 °C 13,7 °C 70 % 1016,9 hPa 0,0 mm 0,0 km/h (0 Bft) O 84 ° 0 min 0,000 mm 0,0 UV-I 0 W/m² 8,2 °C 13,6 °C 0,0 km/h (0 Bft)
08.06.2017 21:12 13,6 °C 13,6 °C 70 % 1016,9 hPa 0,0 mm 0,0 km/h (0 Bft) O 84 ° 0 min 0,000 mm 0,0 UV-I 0 W/m² 8,2 °C 13,6 °C 0,0 km/h (0 Bft)
08.06.2017 21:13 13,6 °C 13,6 °C 69 % 1016,9 hPa 0,0 mm 0,0 km/h (0 Bft) O 84 ° 0 min 0,000 mm 0,0 UV-I 0 W/m² 8,0 °C 13,6 °C 0,0 km/h (0 Bft)
08.06.2017 21:14 13,7 °C 13,7 °C 69 % 1016,9 hPa 0,0 mm 0,8 km/h (0 Bft) O 84 ° 0 min 0,000 mm 0,0 UV-I 0 W/m² 8,1 °C 13,7 °C 1,6 km/h (1 Bft)
08.06.2017 21:15 13,6 °C 13,7 °C 70 % 1016,9 hPa 0,0 mm 2,0 km/h (1 Bft) O 94 ° 0 min 0,000 mm 0,0 UV-I 0 W/m² 8,2 °C 13,6 °C 3,2 km/h (1 Bft)
08.06.2017 21:16 13,6 °C 13,6 °C 69 % 1016,9 hPa 0,0 mm 3,0 km/h (1 Bft) SO 136 ° 0 min 0,000 mm 0,0 UV-I 0 W/m² 8,0 °C 13,6 °C 3,2 km/h (1 Bft)
08.06.2017 21:17 13,6 °C 13,6 °C 70 % 1017,0 hPa 0,0 mm 2,0 km/h (1 Bft) SO 136 ° 0 min 0,000 mm 0,0 UV-I 0 W/m² 8,2 °C 13,6 °C 3,2 km/h (1 Bft)
08.06.2017 21:18 13,4 °C 13,6 °C 70 % 1016,9 hPa 0,0 mm 0,3 km/h (0 Bft) SO 136 ° 0 min 0,000 mm 0,0 UV-I 0 W/m² 8,0 °C 13,4 °C 1,6 km/h (1 Bft)
08.06.2017 21:19 13,3 °C 13,4 °C 71 % 1017,0 hPa 0,0 mm 0,0 km/h (0 Bft) SO 136 ° 0 min 0,000 mm 0,0 UV-I 0 W/m² 8,2 °C 13,3 °C 0,0 km/h (0 Bft)
08.06.2017 21:20 13,2 °C 13,3 °C 72 % 1017,0 hPa 0,0 mm 0,0 km/h (0 Bft) SO 136 ° 0 min 0,000 mm 0,0 UV-I 0 W/m² 8,3 °C 13,2 °C 0,0 km/h (0 Bft)
08.06.2017 21:21 13,1 °C 13,2 °C 72 % 1017,0 hPa 0,0 mm 0,0 km/h (0 Bft) SO 136 ° 0 min 0,000 mm 0,0 UV-I 0 W/m² 8,2 °C 13,1 °C 0,0 km/h (0 Bft)
08.06.2017 21:22 12,9 °C 13,1 °C 72 % 1016,9 hPa 0,0 mm 0,0 km/h (0 Bft) SO 136 ° 0 min 0,000 mm 0,0 UV-I 0 W/m² 8,0 °C 12,9 °C 0,0 km/h (0 Bft)
08.06.2017 21:23 12,9 °C 12,9 °C 72 % 1017,0 hPa 0,0 mm 0,0 km/h (0 Bft) SO 136 ° 0 min 0,000 mm 0,0 UV-I 0 W/m² 8,0 °C 12,9 °C 0,0 km/h (0 Bft)
08.06.2017 21:24 12,8 °C 12,9 °C 72 % 1017,0 hPa 0,0 mm 0,0 km/h (0 Bft) SO 136 ° 0 min 0,000 mm 0,0 UV-I 0 W/m² 7,9 °C 12,8 °C 0,0 km/h (0 Bft)
08.06.2017 21:25 12,8 °C 12,8 °C 72 % 1017,0 hPa 0,0 mm 1,5 km/h (1 Bft) SO 136 ° 0 min 0,000 mm 0,0 UV-I 0 W/m² 7,9 °C 12,8 °C 3,2 km/h (1 Bft)
08.06.2017 21:26 12,7 °C 12,8 °C 73 % 1017,0 hPa 0,0 mm 2,2 km/h (1 Bft) SO 136 ° 0 min 0,000 mm 0,0 UV-I 0 W/m² 8,0 °C 12,7 °C 3,2 km/h (1 Bft)
08.06.2017 21:27 12,7 °C 12,8 °C 73 % 1017,0 hPa 0,0 mm 2,0 km/h (1 Bft) SO 136 ° 0 min 0,000 mm 0,0 UV-I 0 W/m² 8,0 °C 12,7 °C 3,2 km/h (1 Bft)
08.06.2017 21:28 12,6 °C 12,7 °C 73 % 1017,0 hPa 0,0 mm 1,5 km/h (1 Bft) SO 136 ° 0 min 0,000 mm 0,0 UV-I 0 W/m² 7,9 °C 12,6 °C 3,2 km/h (1 Bft)
08.06.2017 21:29 12,6 °C 12,7 °C 74 % 1017,0 hPa 0,0 mm 3,1 km/h (1 Bft) S-SO 153 ° 0 min 0,000 mm 0,0 UV-I 0 W/m² 8,1 °C 12,6 °C 4,8 km/h (1 Bft)
08.06.2017 21:30 12,6 °C 12,6 °C 74 % 1017,0 hPa 0,0 mm 4,5 km/h (1 Bft) S-SO 162 ° 0 min 0,000 mm 0,0 UV-I 0 W/m² 8,1 °C 12,6 °C 6,4 km/h (2 Bft)
08.06.2017 21:31 12,5 °C 12,6 °C 75 % 1017,0 hPa 0,0 mm 6,2 km/h (2 Bft) S 170 ° 0 min 0,000 mm 0,0 UV-I 0 W/m² 8,2 °C 12,5 °C 6,4 km/h (2 Bft)
08.06.2017 21:32 12,4 °C 12,5 °C 75 % 1017,0 hPa 0,0 mm 5,7 km/h (1 Bft) S 171 ° 0 min 0,000 mm 0,0 UV-I 0 W/m² 8,1 °C 12,4 °C 8,0 km/h (2 Bft)
08.06.2017 21:33 12,4 °C 12,4 °C 75 % 1017,0 hPa 0,0 mm 4,8 km/h (1 Bft) S 171 ° 0 min 0,000 mm 0,0 UV-I 0 W/m² 8,1 °C 12,4 °C 6,4 km/h (2 Bft)
08.06.2017 21:34 12,4 °C 12,4 °C 76 % 1017,0 hPa 0,0 mm 3,5 km/h (1 Bft) S 171 ° 0 min 0,000 mm 0,0 UV-I 0 W/m² 8,3 °C 12,4 °C 6,4 km/h (2 Bft)
08.06.2017 21:35 12,5 °C 12,5 °C 75 % 1017,0 hPa 0,0 mm 2,5 km/h (1 Bft) S 171 ° 0 min 0,000 mm 0,0 UV-I 0 W/m² 8,2 °C 12,5 °C 3,2 km/h (1 Bft)
08.06.2017 21:36 12,6 °C 12,6 °C 74 % 1017,0 hPa 0,0 mm 2,7 km/h (1 Bft) S 171 ° 0 min 0,000 mm 0,0 UV-I 0 W/m² 8,1 °C 12,6 °C 3,2 km/h (1 Bft)
08.06.2017 21:37 12,6 °C 12,6 °C 74 % 1017,0 hPa 0,0 mm 1,9 km/h (1 Bft) S 171 ° 0 min 0,000 mm 0,0 UV-I 0 W/m² 8,1 °C 12,6 °C 3,2 km/h (1 Bft)
08.06.2017 21:38 12,4 °C 12,6 °C 75 % 1017,0 hPa 0,0 mm 0,4 km/h (0 Bft) S 171 ° 0 min 0,000 mm 0,0 UV-I 0 W/m² 8,1 °C 12,4 °C 1,6 km/h (1 Bft)
08.06.2017 21:39 12,3 °C 12,4 °C 76 % 1017,0 hPa 0,0 mm 0,3 km/h (0 Bft) S 171 ° 0 min 0,000 mm 0,0 UV-I 0 W/m² 8,2 °C 12,3 °C 1,6 km/h (1 Bft)
08.06.2017 21:40 12,2 °C 12,3 °C 77 % 1017,0 hPa 0,0 mm 0,0 km/h (0 Bft) S 171 ° 0 min 0,000 mm 0,0 UV-I 0 W/m² 8,3 °C 12,2 °C 0,0 km/h (0 Bft)
08.06.2017 21:41 12,1 °C 12,2 °C 77 % 1017,0 hPa 0,0 mm 0,0 km/h (0 Bft) S 171 ° 0 min 0,000 mm 0,0 UV-I 0 W/m² 8,2 °C 12,1 °C 0,0 km/h (0 Bft)
08.06.2017 21:42 12,1 °C 12,1 °C 77 % 1017,0 hPa 0,0 mm 0,0 km/h (0 Bft) S 171 ° 0 min 0,000 mm 0,0 UV-I 0 W/m² 8,2 °C 12,1 °C 0,0 km/h (0 Bft)
08.06.2017 21:43 12,0 °C 12,1 °C 77 % 1017,1 hPa 0,0 mm 0,0 km/h (0 Bft) S 171 ° 0 min 0,000 mm 0,0 UV-I 0 W/m² 8,1 °C 12,0 °C 0,0 km/h (0 Bft)
08.06.2017 21:44 12,0 °C 12,0 °C 77 % 1017,0 hPa 0,0 mm 0,0 km/h (0 Bft) S 171 ° 0 min 0,000 mm 0,0 UV-I 0 W/m² 8,1 °C 12,0 °C 0,0 km/h (0 Bft)
08.06.2017 21:45 11,9 °C 12,0 °C 78 % 1017,0 hPa 0,0 mm 0,0 km/h (0 Bft) S 171 ° 0 min 0,000 mm 0,0 UV-I 0 W/m² 8,2 °C 11,9 °C 0,0 km/h (0 Bft)
08.06.2017 21:46 11,9 °C 12,0 °C 78 % 1017,1 hPa 0,0 mm 1,3 km/h (1 Bft) S 171 ° 0 min 0,000 mm 0,0 UV-I 0 W/m² 8,2 °C 11,9 °C 3,2 km/h (1 Bft)
08.06.2017 21:47 11,9 °C 11,9 °C 78 % 1017,0 hPa 0,0 mm 3,2 km/h (1 Bft) S 171 ° 0 min 0,000 mm 0,0 UV-I 0 W/m² 8,2 °C 11,9 °C 3,2 km/h (1 Bft)
08.06.2017 21:48 11,9 °C 11,9 °C 78 % 1017,0 hPa 0,0 mm 4,0 km/h (1 Bft) S 171 ° 0 min 0,000 mm 0,0 UV-I 0 W/m² 8,2 °C 11,9 °C 6,4 km/h (2 Bft)
08.06.2017 21:49 11,9 °C 11,9 °C 78 % 1017,0 hPa 0,0 mm 5,8 km/h (2 Bft) S 171 ° 0 min 0,000 mm 0,0 UV-I 0 W/m² 8,2 °C 11,9 °C 8,0 km/h (2 Bft)
08.06.2017 21:50 11,9 °C 11,9 °C 78 % 1017,1 hPa 0,0 mm 5,9 km/h (2 Bft) S 171 ° 0 min 0,000 mm 0,0 UV-I 0 W/m² 8,2 °C 11,9 °C 6,4 km/h (2 Bft)
08.06.2017 21:51 11,9 °C 11,9 °C 78 % 1017,0 hPa 0,0 mm 4,8 km/h (1 Bft) S 171 ° 0 min 0,000 mm 0,0 UV-I 0 W/m² 8,2 °C 11,9 °C 6,4 km/h (2 Bft)
08.06.2017 21:52 11,9 °C 11,9 °C 78 % 1017,1 hPa 0,0 mm 3,7 km/h (1 Bft) S 171 ° 0 min 0,000 mm 0,0 UV-I 0 W/m² 8,2 °C 11,9 °C 6,4 km/h (2 Bft)
08.06.2017 21:53 11,9 °C 11,9 °C 78 % 1017,0 hPa 0,0 mm 3,0 km/h (1 Bft) S 171 ° 0 min 0,000 mm 0,0 UV-I 0 W/m² 8,2 °C 11,9 °C 6,4 km/h (2 Bft)
08.06.2017 21:54 11,9 °C 11,9 °C 78 % 1017,0 hPa 0,0 mm 1,5 km/h (1 Bft) S 171 ° 0 min 0,000 mm 0,0 UV-I 0 W/m² 8,2 °C 11,9 °C 3,2 km/h (1 Bft)
08.06.2017 21:55 11,9 °C 11,9 °C 78 % 1017,1 hPa 0,0 mm 2,0 km/h (1 Bft) S 171 ° 0 min 0,000 mm 0,0 UV-I 0 W/m² 8,2 °C 11,9 °C 3,2 km/h (1 Bft)
08.06.2017 21:56 11,9 °C 11,9 °C 78 % 1017,0 hPa 0,0 mm 1,7 km/h (1 Bft) S 171 ° 0 min 0,000 mm 0,0 UV-I 0 W/m² 8,2 °C 11,9 °C 3,2 km/h (1 Bft)
08.06.2017 21:57 11,9 °C 11,9 °C 78 % 1017,1 hPa 0,0 mm 1,1 km/h (1 Bft) S 171 ° 0 min 0,000 mm 0,0 UV-I 0 W/m² 8,2 °C 11,9 °C 1,6 km/h (1 Bft)
08.06.2017 21:58 11,9 °C 12,0 °C 78 % 1017,1 hPa 0,0 mm 0,9 km/h (0 Bft) S 171 ° 0 min 0,000 mm 0,0 UV-I 0 W/m² 8,2 °C 11,9 °C 1,6 km/h (1 Bft)
08.06.2017 21:59 11,9 °C 11,9 °C 78 % 1017,0 hPa 0,0 mm 1,6 km/h (1 Bft) S 171 ° 0 min 0,000 mm 0,0 UV-I 0 W/m² 8,2 °C 11,9 °C 3,2 km/h (1 Bft)
08.06.2017 22:00 11,9 °C 11,9 °C 78 % 1017,1 hPa 0,0 mm 0,3 km/h (0 Bft) S 171 ° 0 min 0,000 mm 0,0 UV-I 0 W/m² 8,2 °C 11,9 °C 1,6 km/h (1 Bft)
08.06.2017 22:01 12,0 °C 12,0 °C 78 % 1017,0 hPa 0,0 mm 0,6 km/h (0 Bft) S 171 ° 0 min 0,000 mm 0,0 UV-I 0 W/m² 8,3 °C 12,0 °C 1,6 km/h (1 Bft)
08.06.2017 22:02 12,1 °C 12,1 °C 77 % 1017,0 hPa 0,0 mm 0,2 km/h (0 Bft) S 171 ° 0 min 0,000 mm 0,0 UV-I 0 W/m² 8,2 °C 12,1 °C 1,6 km/h (1 Bft)
08.06.2017 22:03 12,2 °C 12,2 °C 77 % 1017,0 hPa 0,0 mm 0,0 km/h (0 Bft) S 171 ° 0 min 0,000 mm 0,0 UV-I 0 W/m² 8,3 °C 12,2 °C 0,0 km/h (0 Bft)
08.06.2017 22:04 12,2 °C 12,2 °C 77 % 1017,1 hPa 0,0 mm 0,6 km/h (0 Bft) S 171 ° 0 min 0,000 mm 0,0 UV-I 0 W/m² 8,3 °C 12,2 °C 1,6 km/h (1 Bft)
08.06.2017 22:05 12,2 °C 12,2 °C 77 % 1017,0 hPa 0,0 mm 0,0 km/h (0 Bft) S 171 ° 0 min 0,000 mm 0,0 UV-I 0 W/m² 8,3 °C 12,2 °C 0,0 km/h (0 Bft)
08.06.2017 22:06 12,3 °C 12,3 °C 77 % 1017,1 hPa 0,0 mm 0,0 km/h (0 Bft) S 171 ° 0 min 0,000 mm 0,0 UV-I 0 W/m² 8,4 °C 12,3 °C 0,0 km/h (0 Bft)
08.06.2017 22:07 12,4 °C 12,4 °C 76 % 1017,1 hPa 0,0 mm 0,9 km/h (0 Bft) S 171 ° 0 min 0,000 mm 0,0 UV-I 0 W/m² 8,3 °C 12,4 °C 3,2 km/h (1 Bft)
08.06.2017 22:08 12,4 °C 12,4 °C 76 % 1017,0 hPa 0,0 mm 0,1 km/h (0 Bft) S 171 ° 0 min 0,000 mm 0,0 UV-I 0 W/m² 8,3 °C 12,4 °C 1,6 km/h (1 Bft)
08.06.2017 22:09 12,5 °C 12,5 °C 76 % 1017,0 hPa 0,0 mm 1,3 km/h (1 Bft) S 171 ° 0 min 0,000 mm 0,0 UV-I 0 W/m² 8,4 °C 12,5 °C 3,2 km/h (1 Bft)
08.06.2017 22:10 12,5 °C 12,5 °C 76 % 1017,0 hPa 0,0 mm 1,2 km/h (1 Bft) S 171 ° 0 min 0,000 mm 0,0 UV-I 0 W/m² 8,4 °C 12,5 °C 3,2 km/h (1 Bft)
08.06.2017 22:11 12,5 °C 12,5 °C 76 % 1017,1 hPa 0,0 mm 0,4 km/h (0 Bft) S 171 ° 0 min 0,000 mm 0,0 UV-I 0 W/m² 8,4 °C 12,5 °C 1,6 km/h (1 Bft)
08.06.2017 22:12 12,4 °C 12,5 °C 76 % 1017,0 hPa 0,0 mm 1,0 km/h (0 Bft) S 171 ° 0 min 0,000 mm 0,0 UV-I 0 W/m² 8,3 °C 12,4 °C 1,6 km/h (1 Bft)
08.06.2017 22:13 12,4 °C 12,4 °C 76 % 1017,0 hPa 0,0 mm 0,2 km/h (0 Bft) S 171 ° 0 min 0,000 mm 0,0 UV-I 0 W/m² 8,3 °C 12,4 °C 1,6 km/h (1 Bft)
08.06.2017 22:14 12,4 °C 12,4 °C 76 % 1017,0 hPa 0,0 mm 0,0 km/h (0 Bft) S 171 ° 0 min 0,000 mm 0,0 UV-I 0 W/m² 8,3 °C 12,4 °C 0,0 km/h (0 Bft)
08.06.2017 22:15 12,4 °C 12,4 °C 76 % 1017,0 hPa 0,0 mm 0,0 km/h (0 Bft) S 171 ° 0 min 0,000 mm 0,0 UV-I 0 W/m² 8,3 °C 12,4 °C 0,0 km/h (0 Bft)
08.06.2017 22:16 12,4 °C 12,4 °C 76 % 1017,0 hPa 0,0 mm 0,0 km/h (0 Bft) S 171 ° 0 min 0,000 mm 0,0 UV-I 0 W/m² 8,3 °C 12,4 °C 0,0 km/h (0 Bft)
08.06.2017 22:17 12,3 °C 12,4 °C 76 % 1017,0 hPa 0,0 mm 0,0 km/h (0 Bft) S 171 ° 0 min 0,000 mm 0,0 UV-I 0 W/m² 8,2 °C 12,3 °C 0,0 km/h (0 Bft)
08.06.2017 22:18 12,3 °C 12,4 °C 77 % 1017,1 hPa 0,0 mm 0,0 km/h (0 Bft) S 171 ° 0 min 0,000 mm 0,0 UV-I 0 W/m² 8,4 °C 12,3 °C 0,0 km/h (0 Bft)
08.06.2017 22:19 12,3 °C 12,4 °C 76 % 1017,0 hPa 0,0 mm 0,0 km/h (0 Bft) S 171 ° 0 min 0,000 mm 0,0 UV-I 0 W/m² 8,2 °C 12,3 °C 0,0 km/h (0 Bft)
08.06.2017 22:20 12,3 °C 12,4 °C 77 % 1017,0 hPa 0,0 mm 0,0 km/h (0 Bft) S 171 ° 0 min 0,000 mm 0,0 UV-I 0 W/m² 8,4 °C 12,3 °C 0,0 km/h (0 Bft)
08.06.2017 22:21 12,3 °C 12,4 °C 77 % 1017,0 hPa 0,0 mm 0,0 km/h (0 Bft) S 171 ° 0 min 0,000 mm 0,0 UV-I 0 W/m² 8,4 °C 12,3 °C 0,0 km/h (0 Bft)
08.06.2017 22:22 12,2 °C 12,3 °C 78 % 1017,0 hPa 0,0 mm 0,0 km/h (0 Bft) S 171 ° 0 min 0,000 mm 0,0 UV-I 0 W/m² 8,5 °C 12,2 °C 0,0 km/h (0 Bft)
08.06.2017 22:23 12,1 °C 12,2 °C 78 % 1017,0 hPa 0,0 mm 0,0 km/h (0 Bft) S 171 ° 0 min 0,000 mm 0,0 UV-I 0 W/m² 8,4 °C 12,1 °C 0,0 km/h (0 Bft)
08.06.2017 22:24 11,9 °C 12,1 °C 79 % 1017,0 hPa 0,0 mm 0,0 km/h (0 Bft) S 171 ° 0 min 0,000 mm 0,0 UV-I 0 W/m² 8,4 °C 11,9 °C 0,0 km/h (0 Bft)
08.06.2017 22:25 11,8 °C 11,9 °C 80 % 1017,1 hPa 0,0 mm 0,0 km/h (0 Bft) S 171 ° 0 min 0,000 mm 0,0 UV-I 0 W/m² 8,5 °C 11,8 °C 0,0 km/h (0 Bft)
08.06.2017 22:26 11,8 °C 11,8 °C 80 % 1017,1 hPa 0,0 mm 0,0 km/h (0 Bft) S 171 ° 0 min 0,000 mm 0,0 UV-I 0 W/m² 8,5 °C 11,8 °C 0,0 km/h (0 Bft)
08.06.2017 22:27 11,7 °C 11,8 °C 80 % 1017,1 hPa 0,0 mm 0,0 km/h (0 Bft) S 171 ° 0 min 0,000 mm 0,0 UV-I 0 W/m² 8,4 °C 11,7 °C 0,0 km/h (0 Bft)
08.06.2017 22:28 11,7 °C 11,7 °C 80 % 1017,1 hPa 0,0 mm 0,3 km/h (0 Bft) S 171 ° 0 min 0,000 mm 0,0 UV-I 0 W/m² 8,4 °C 11,7 °C 1,6 km/h (1 Bft)
08.06.2017 22:29 11,7 °C 11,7 °C 80 % 1017,1 hPa 0,0 mm 0,0 km/h (0 Bft) S 171 ° 0 min 0,000 mm 0,0 UV-I 0 W/m² 8,4 °C 11,7 °C 0,0 km/h (0 Bft)
08.06.2017 22:30 11,7 °C 11,7 °C 80 % 1017,1 hPa 0,0 mm 0,0 km/h (0 Bft) S 171 ° 0 min 0,000 mm 0,0 UV-I 0 W/m² 8,4 °C 11,7 °C 0,0 km/h (0 Bft)
08.06.2017 22:31 11,6 °C 11,7 °C 80 % 1017,1 hPa 0,0 mm 0,0 km/h (0 Bft) S 171 ° 0 min 0,000 mm 0,0 UV-I 0 W/m² 8,3 °C 11,6 °C 0,0 km/h (0 Bft)
08.06.2017 22:32 11,7 °C 11,7 °C 80 % 1017,1 hPa 0,0 mm 0,0 km/h (0 Bft) S 171 ° 0 min 0,000 mm 0,0 UV-I 0 W/m² 8,4 °C 11,7 °C 0,0 km/h (0 Bft)
08.06.2017 22:33 11,8 °C 11,8 °C 80 % 1017,1 hPa 0,0 mm 0,0 km/h (0 Bft) S 171 ° 0 min 0,000 mm 0,0 UV-I 0 W/m² 8,5 °C 11,8 °C 0,0 km/h (0 Bft)
08.06.2017 22:34 11,8 °C 11,8 °C 80 % 1017,0 hPa 0,0 mm 0,0 km/h (0 Bft) S 171 ° 0 min 0,000 mm 0,0 UV-I 0 W/m² 8,5 °C 11,8 °C 0,0 km/h (0 Bft)
08.06.2017 22:35 11,8 °C 11,8 °C 79 % 1017,0 hPa 0,0 mm 0,0 km/h (0 Bft) S 171 ° 0 min 0,000 mm 0,0 UV-I 0 W/m² 8,3 °C 11,8 °C 0,0 km/h (0 Bft)
08.06.2017 22:36 11,8 °C 11,8 °C 79 % 1016,9 hPa 0,0 mm 0,0 km/h (0 Bft) S 171 ° 0 min 0,000 mm 0,0 UV-I 0 W/m² 8,3 °C 11,8 °C 0,0 km/h (0 Bft)
08.06.2017 22:37 11,8 °C 11,8 °C 79 % 1016,9 hPa 0,0 mm 0,0 km/h (0 Bft) S 171 ° 0 min 0,000 mm 0,0 UV-I 0 W/m² 8,3 °C 11,8 °C 0,0 km/h (0 Bft)
08.06.2017 22:38 11,8 °C 11,8 °C 79 % 1016,9 hPa 0,0 mm 0,0 km/h (0 Bft) S 171 ° 0 min 0,000 mm 0,0 UV-I 0 W/m² 8,3 °C 11,8 °C 0,0 km/h (0 Bft)
08.06.2017 22:39 11,8 °C 11,8 °C 79 % 1016,9 hPa 0,0 mm 0,0 km/h (0 Bft) S 171 ° 0 min 0,000 mm 0,0 UV-I 0 W/m² 8,3 °C 11,8 °C 0,0 km/h (0 Bft)
08.06.2017 22:40 11,8 °C 11,8 °C 79 % 1016,9 hPa 0,0 mm 0,0 km/h (0 Bft) S 171 ° 0 min 0,000 mm 0,0 UV-I 0 W/m² 8,3 °C 11,8 °C 0,0 km/h (0 Bft)
08.06.2017 22:41 11,7 °C 11,8 °C 80 % 1016,9 hPa 0,0 mm 0,0 km/h (0 Bft) S 171 ° 0 min 0,000 mm 0,0 UV-I 0 W/m² 8,4 °C 11,7 °C 0,0 km/h (0 Bft)
08.06.2017 22:42 11,7 °C 11,7 °C 80 % 1017,0 hPa 0,0 mm 0,0 km/h (0 Bft) S 171 ° 0 min 0,000 mm 0,0 UV-I 0 W/m² 8,4 °C 11,7 °C 0,0 km/h (0 Bft)
08.06.2017 22:43 11,7 °C 11,7 °C 80 % 1017,0 hPa 0,0 mm 0,0 km/h (0 Bft) S 171 ° 0 min 0,000 mm 0,0 UV-I 0 W/m² 8,4 °C 11,7 °C 0,0 km/h (0 Bft)
08.06.2017 22:44 11,6 °C 11,7 °C 80 % 1017,0 hPa 0,0 mm 0,0 km/h (0 Bft) S 171 ° 0 min 0,000 mm 0,0 UV-I 0 W/m² 8,3 °C 11,6 °C 0,0 km/h (0 Bft)
08.06.2017 22:45 11,6 °C 11,6 °C 81 % 1017,0 hPa 0,0 mm 0,0 km/h (0 Bft) S 171 ° 0 min 0,000 mm 0,0 UV-I 0 W/m² 8,5 °C 11,6 °C 0,0 km/h (0 Bft)
08.06.2017 22:46 11,4 °C 11,6 °C 81 % 1016,9 hPa 0,0 mm 0,0 km/h (0 Bft) S 171 ° 0 min 0,000 mm 0,0 UV-I 0 W/m² 8,3 °C 11,4 °C 0,0 km/h (0 Bft)
08.06.2017 22:47 11,4 °C 11,4 °C 81 % 1016,9 hPa 0,0 mm 0,0 km/h (0 Bft) S 171 ° 0 min 0,000 mm 0,0 UV-I 0 W/m² 8,3 °C 11,4 °C 0,0 km/h (0 Bft)
08.06.2017 22:48 11,3 °C 11,4 °C 82 % 1017,0 hPa 0,0 mm 0,0 km/h (0 Bft) S 171 ° 0 min 0,000 mm 0,0 UV-I 0 W/m² 8,3 °C 11,3 °C 0,0 km/h (0 Bft)
08.06.2017 22:49 11,3 °C 11,4 °C 82 % 1016,9 hPa 0,0 mm 0,0 km/h (0 Bft) S 171 ° 0 min 0,000 mm 0,0 UV-I 0 W/m² 8,3 °C 11,3 °C 0,0 km/h (0 Bft)
08.06.2017 22:50 11,3 °C 11,3 °C 82 % 1016,9 hPa 0,0 mm 0,0 km/h (0 Bft) S 171 ° 0 min 0,000 mm 0,0 UV-I 0 W/m² 8,3 °C 11,3 °C 0,0 km/h (0 Bft)
08.06.2017 22:51 11,3 °C 11,4 °C 82 % 1016,9 hPa 0,0 mm 0,0 km/h (0 Bft) S 171 ° 0 min 0,000 mm 0,0 UV-I 0 W/m² 8,3 °C 11,3 °C 0,0 km/h (0 Bft)
08.06.2017 22:52 11,4 °C 11,4 °C 82 % 1016,9 hPa 0,0 mm 0,0 km/h (0 Bft) S 171 ° 0 min 0,000 mm 0,0 UV-I 0 W/m² 8,4 °C 11,4 °C 0,0 km/h (0 Bft)
08.06.2017 22:53 11,4 °C 11,4 °C 82 % 1016,9 hPa 0,0 mm 0,0 km/h (0 Bft) S 171 ° 0 min 0,000 mm 0,0 UV-I 0 W/m² 8,4 °C 11,4 °C 0,0 km/h (0 Bft)
08.06.2017 22:54 11,4 °C 11,4 °C 82 % 1016,9 hPa 0,0 mm 0,2 km/h (0 Bft) S 171 ° 0 min 0,000 mm 0,0 UV-I 0 W/m² 8,4 °C 11,4 °C 1,6 km/h (1 Bft)
08.06.2017 22:55 11,4 °C 11,4 °C 81 % 1016,9 hPa 0,0 mm 0,1 km/h (0 Bft) S 171 ° 0 min 0,000 mm 0,0 UV-I 0 W/m² 8,3 °C 11,4 °C 1,6 km/h (1 Bft)
08.06.2017 22:56 11,5 °C 11,5 °C 81 % 1016,9 hPa 0,0 mm 0,0 km/h (0 Bft) S 171 ° 0 min 0,000 mm 0,0 UV-I 0 W/m² 8,4 °C 11,5 °C 0,0 km/h (0 Bft)
08.06.2017 22:57 11,6 °C 11,6 °C 81 % 1016,9 hPa 0,0 mm 0,0 km/h (0 Bft) S 171 ° 0 min 0,000 mm 0,0 UV-I 0 W/m² 8,5 °C 11,6 °C 0,0 km/h (0 Bft)
08.06.2017 22:58 11,6 °C 11,7 °C 81 % 1016,9 hPa 0,0 mm 0,0 km/h (0 Bft) S 171 ° 0 min 0,000 mm 0,0 UV-I 0 W/m² 8,5 °C 11,6 °C 0,0 km/h (0 Bft)
08.06.2017 22:59 11,7 °C 11,7 °C 80 % 1016,8 hPa 0,0 mm 0,0 km/h (0 Bft) S 171 ° 0 min 0,000 mm 0,0 UV-I 0 W/m² 8,4 °C 11,7 °C 0,0 km/h (0 Bft)
08.06.2017 23:00 11,8 °C 11,8 °C 80 % 1016,9 hPa 0,0 mm 0,0 km/h (0 Bft) S 171 ° 0 min 0,000 mm 0,0 UV-I 0 W/m² 8,5 °C 11,8 °C 0,0 km/h (0 Bft)
08.06.2017 23:01 11,8 °C 11,8 °C 80 % 1016,8 hPa 0,0 mm 0,0 km/h (0 Bft) S 171 ° 0 min 0,025 mm 0,0 UV-I 0 W/m² 8,5 °C 11,8 °C 0,0 km/h (0 Bft)
08.06.2017 23:02 11,9 °C 11,9 °C 79 % 1016,9 hPa 0,0 mm 0,0 km/h (0 Bft) S 171 ° 0 min 0,000 mm 0,0 UV-I 0 W/m² 8,4 °C 11,9 °C 0,0 km/h (0 Bft)
08.06.2017 23:03 11,7 °C 11,9 °C 79 % 1016,9 hPa 0,0 mm 0,0 km/h (0 Bft) S 171 ° 0 min 0,000 mm 0,0 UV-I 0 W/m² 8,2 °C 11,7 °C 0,0 km/h (0 Bft)
08.06.2017 23:04 11,5 °C 11,7 °C 79 % 1016,9 hPa 0,0 mm 0,0 km/h (0 Bft) S 171 ° 0 min 0,000 mm 0,0 UV-I 0 W/m² 8,0 °C 11,5 °C 0,0 km/h (0 Bft)
08.06.2017 23:05 11,3 °C 11,5 °C 81 % 1016,9 hPa 0,0 mm 0,0 km/h (0 Bft) S 171 ° 0 min 0,000 mm 0,0 UV-I 0 W/m² 8,2 °C 11,3 °C 0,0 km/h (0 Bft)
08.06.2017 23:06 11,2 °C 11,3 °C 82 % 1016,9 hPa 0,0 mm 0,0 km/h (0 Bft) S 171 ° 0 min 0,000 mm 0,0 UV-I 0 W/m² 8,2 °C 11,2 °C 0,0 km/h (0 Bft)
08.06.2017 23:07 11,0 °C 11,2 °C 83 % 1016,9 hPa 0,0 mm 0,0 km/h (0 Bft) S 171 ° 0 min 0,000 mm 0,0 UV-I 0 W/m² 8,2 °C 11,0 °C 0,0 km/h (0 Bft)
08.06.2017 23:08 10,9 °C 11,0 °C 83 % 1016,9 hPa 0,0 mm 0,0 km/h (0 Bft) S 171 ° 0 min 0,000 mm 0,0 UV-I 0 W/m² 8,1 °C 10,9 °C 0,0 km/h (0 Bft)
08.06.2017 23:09 10,9 °C 10,9 °C 83 % 1016,9 hPa 0,0 mm 0,0 km/h (0 Bft) S 171 ° 0 min 0,000 mm 0,0 UV-I 0 W/m² 8,1 °C 10,9 °C 0,0 km/h (0 Bft)
08.06.2017 23:10 10,9 °C 10,9 °C 83 % 1016,8 hPa 0,0 mm 0,0 km/h (0 Bft) S 171 ° 0 min 0,000 mm 0,0 UV-I 0 W/m² 8,1 °C 10,9 °C 0,0 km/h (0 Bft)
08.06.2017 23:11 11,0 °C 11,0 °C 83 % 1016,8 hPa 0,0 mm 0,0 km/h (0 Bft) S 171 ° 0 min 0,000 mm 0,0 UV-I 0 W/m² 8,2 °C 11,0 °C 0,0 km/h (0 Bft)
08.06.2017 23:12 11,0 °C 11,0 °C 83 % 1016,8 hPa 0,0 mm 0,0 km/h (0 Bft) S 171 ° 0 min 0,000 mm 0,0 UV-I 0 W/m² 8,2 °C 11,0 °C 0,0 km/h (0 Bft)
08.06.2017 23:13 11,1 °C 11,1 °C 83 % 1016,8 hPa 0,0 mm 0,0 km/h (0 Bft) S 171 ° 0 min 0,000 mm 0,0 UV-I 0 W/m² 8,3 °C 11,1 °C 0,0 km/h (0 Bft)
08.06.2017 23:14 11,1 °C 11,1 °C 83 % 1016,8 hPa 0,0 mm 0,0 km/h (0 Bft) S 171 ° 0 min 0,000 mm 0,0 UV-I 0 W/m² 8,3 °C 11,1 °C 0,0 km/h (0 Bft)
08.06.2017 23:15 11,1 °C 11,1 °C 83 % 1016,8 hPa 0,0 mm 0,0 km/h (0 Bft) S 171 ° 0 min 0,000 mm 0,0 UV-I 0 W/m² 8,3 °C 11,1 °C 0,0 km/h (0 Bft)
08.06.2017 23:16 11,2 °C 11,2 °C 83 % 1016,7 hPa 0,0 mm 0,0 km/h (0 Bft) S 171 ° 0 min 0,000 mm 0,0 UV-I 0 W/m² 8,4 °C 11,2 °C 0,0 km/h (0 Bft)
08.06.2017 23:17 11,2 °C 11,2 °C 82 % 1016,8 hPa 0,0 mm 0,0 km/h (0 Bft) S 171 ° 0 min 0,000 mm 0,0 UV-I 0 W/m² 8,2 °C 11,2 °C 0,0 km/h (0 Bft)
08.06.2017 23:18 11,2 °C 11,2 °C 82 % 1016,8 hPa 0,0 mm 0,0 km/h (0 Bft) S 171 ° 0 min 0,000 mm 0,0 UV-I 0 W/m² 8,2 °C 11,2 °C 0,0 km/h (0 Bft)
08.06.2017 23:19 11,3 °C 11,3 °C 82 % 1016,7 hPa 0,0 mm 0,0 km/h (0 Bft) S 171 ° 0 min 0,000 mm 0,0 UV-I 0 W/m² 8,3 °C 11,3 °C 0,0 km/h (0 Bft)
08.06.2017 23:20 11,3 °C 11,3 °C 82 % 1016,7 hPa 0,0 mm 0,0 km/h (0 Bft) S 171 ° 0 min 0,000 mm 0,0 UV-I 0 W/m² 8,3 °C 11,3 °C 0,0 km/h (0 Bft)
08.06.2017 23:21 11,3 °C 11,3 °C 81 % 1016,7 hPa 0,0 mm 0,0 km/h (0 Bft) S 171 ° 0 min 0,000 mm 0,0 UV-I 0 W/m² 8,2 °C 11,3 °C 0,0 km/h (0 Bft)
08.06.2017 23:22 11,2 °C 11,3 °C 81 % 1016,7 hPa 0,0 mm 0,0 km/h (0 Bft) S 171 ° 0 min 0,000 mm 0,0 UV-I 0 W/m² 8,1 °C 11,2 °C 0,0 km/h (0 Bft)
08.06.2017 23:23 11,1 °C 11,2 °C 82 % 1016,7 hPa 0,0 mm 0,0 km/h (0 Bft) S 171 ° 0 min 0,000 mm 0,0 UV-I 0 W/m² 8,1 °C 11,1 °C 0,0 km/h (0 Bft)
08.06.2017 23:24 11,0 °C 11,1 °C 82 % 1016,7 hPa 0,0 mm 0,0 km/h (0 Bft) S 171 ° 0 min 0,000 mm 0,0 UV-I 0 W/m² 8,0 °C 11,0 °C 0,0 km/h (0 Bft)
08.06.2017 23:25 10,9 °C 11,0 °C 83 % 1016,7 hPa 0,0 mm 0,0 km/h (0 Bft) S 171 ° 0 min 0,000 mm 0,0 UV-I 0 W/m² 8,1 °C 10,9 °C 0,0 km/h (0 Bft)
08.06.2017 23:26 10,8 °C 10,9 °C 83 % 1016,7 hPa 0,0 mm 0,0 km/h (0 Bft) S 171 ° 0 min 0,000 mm 0,0 UV-I 0 W/m² 8,0 °C 10,8 °C 0,0 km/h (0 Bft)
08.06.2017 23:27 10,8 °C 10,8 °C 83 % 1016,7 hPa 0,0 mm 0,0 km/h (0 Bft) S 171 ° 0 min 0,000 mm 0,0 UV-I 0 W/m² 8,0 °C 10,8 °C 0,0 km/h (0 Bft)
08.06.2017 23:28 10,8 °C 10,8 °C 84 % 1016,7 hPa 0,0 mm 0,0 km/h (0 Bft) S 171 ° 0 min 0,000 mm 0,0 UV-I 0 W/m² 8,2 °C 10,8 °C 0,0 km/h (0 Bft)
08.06.2017 23:29 10,9 °C 10,9 °C 84 % 1016,6 hPa 0,0 mm 0,0 km/h (0 Bft) S 171 ° 0 min 0,000 mm 0,0 UV-I 0 W/m² 8,3 °C 10,9 °C 0,0 km/h (0 Bft)
08.06.2017 23:30 10,8 °C 10,9 °C 83 % 1016,7 hPa 0,0 mm 0,0 km/h (0 Bft) S 171 ° 0 min 0,000 mm 0,0 UV-I 0 W/m² 8,0 °C 10,8 °C 0,0 km/h (0 Bft)
08.06.2017 23:31 10,8 °C 10,8 °C 83 % 1016,7 hPa 0,0 mm 0,0 km/h (0 Bft) S 171 ° 0 min 0,000 mm 0,0 UV-I 0 W/m² 8,0 °C 10,8 °C 0,0 km/h (0 Bft)
08.06.2017 23:32 10,8 °C 10,8 °C 84 % 1016,7 hPa 0,0 mm 0,0 km/h (0 Bft) S 171 ° 0 min 0,000 mm 0,0 UV-I 0 W/m² 8,2 °C 10,8 °C 0,0 km/h (0 Bft)
08.06.2017 23:33 10,8 °C 10,8 °C 84 % 1016,7 hPa 0,0 mm 0,0 km/h (0 Bft) S 171 ° 0 min 0,000 mm 0,0 UV-I 0 W/m² 8,2 °C 10,8 °C 0,0 km/h (0 Bft)
08.06.2017 23:34 10,8 °C 10,8 °C 84 % 1016,7 hPa 0,0 mm 0,0 km/h (0 Bft) S 171 ° 0 min 0,000 mm 0,0 UV-I 0 W/m² 8,2 °C 10,8 °C 0,0 km/h (0 Bft)
08.06.2017 23:35 10,7 °C 10,8 °C 84 % 1016,7 hPa 0,0 mm 0,0 km/h (0 Bft) S 171 ° 0 min 0,000 mm 0,0 UV-I 0 W/m² 8,1 °C 10,7 °C 0,0 km/h (0 Bft)
08.06.2017 23:36 10,7 °C 10,7 °C 84 % 1016,6 hPa 0,0 mm 0,0 km/h (0 Bft) S 171 ° 0 min 0,000 mm 0,0 UV-I 0 W/m² 8,1 °C 10,7 °C 0,0 km/h (0 Bft)
08.06.2017 23:37 10,7 °C 10,7 °C 84 % 1016,7 hPa 0,0 mm 0,0 km/h (0 Bft) S 171 ° 0 min 0,000 mm 0,0 UV-I 0 W/m² 8,1 °C 10,7 °C 0,0 km/h (0 Bft)
08.06.2017 23:38 10,7 °C 10,7 °C 84 % 1016,7 hPa 0,0 mm 0,0 km/h (0 Bft) S 171 ° 0 min 0,000 mm 0,0 UV-I 0 W/m² 8,1 °C 10,7 °C 0,0 km/h (0 Bft)
08.06.2017 23:39 10,7 °C 10,7 °C 84 % 1016,7 hPa 0,0 mm 0,0 km/h (0 Bft) S 171 ° 0 min 0,000 mm 0,0 UV-I 0 W/m² 8,1 °C 10,7 °C 0,0 km/h (0 Bft)
08.06.2017 23:40 10,7 °C 10,7 °C 84 % 1016,6 hPa 0,0 mm 0,2 km/h (0 Bft) S 171 ° 0 min 0,000 mm 0,0 UV-I 0 W/m² 8,1 °C 10,7 °C 1,6 km/h (1 Bft)
08.06.2017 23:41 10,7 °C 10,7 °C 84 % 1016,6 hPa 0,0 mm 0,0 km/h (0 Bft) S 171 ° 0 min 0,000 mm 0,0 UV-I 0 W/m² 8,1 °C 10,7 °C 0,0 km/h (0 Bft)
08.06.2017 23:42 10,7 °C 10,7 °C 84 % 1016,6 hPa 0,0 mm 0,5 km/h (0 Bft) S 171 ° 0 min 0,000 mm 0,0 UV-I 0 W/m² 8,1 °C 10,7 °C 1,6 km/h (1 Bft)
08.06.2017 23:43 10,7 °C 10,7 °C 84 % 1016,7 hPa 0,0 mm 0,0 km/h (0 Bft) S 171 ° 0 min 0,000 mm 0,0 UV-I 0 W/m² 8,1 °C 10,7 °C 0,0 km/h (0 Bft)
08.06.2017 23:44 10,7 °C 10,7 °C 84 % 1016,6 hPa 0,0 mm 0,0 km/h (0 Bft) S 171 ° 0 min 0,000 mm 0,0 UV-I 0 W/m² 8,1 °C 10,7 °C 0,0 km/h (0 Bft)
08.06.2017 23:45 10,7 °C 10,7 °C 84 % 1016,6 hPa 0,0 mm 0,0 km/h (0 Bft) S 171 ° 0 min 0,000 mm 0,0 UV-I 0 W/m² 8,1 °C 10,7 °C 0,0 km/h (0 Bft)
08.06.2017 23:46 10,6 °C 10,7 °C 83 % 1016,7 hPa 0,0 mm 0,0 km/h (0 Bft) S 171 ° 0 min 0,000 mm 0,0 UV-I 0 W/m² 7,8 °C 10,6 °C 0,0 km/h (0 Bft)
08.06.2017 23:47 10,6 °C 10,6 °C 84 % 1016,6 hPa 0,0 mm 0,0 km/h (0 Bft) S 171 ° 0 min 0,000 mm 0,0 UV-I 0 W/m² 8,0 °C 10,6 °C 0,0 km/h (0 Bft)
08.06.2017 23:48 10,5 °C 10,6 °C 84 % 1016,6 hPa 0,0 mm 0,0 km/h (0 Bft) S 171 ° 0 min 0,000 mm 0,0 UV-I 0 W/m² 7,9 °C 10,5 °C 0,0 km/h (0 Bft)
08.06.2017 23:49 10,4 °C 10,5 °C 84 % 1016,6 hPa 0,0 mm 0,0 km/h (0 Bft) S 171 ° 0 min 0,000 mm 0,0 UV-I 0 W/m² 7,8 °C 10,4 °C 0,0 km/h (0 Bft)
08.06.2017 23:50 10,3 °C 10,4 °C 84 % 1016,6 hPa 0,0 mm 0,0 km/h (0 Bft) S 171 ° 0 min 0,000 mm 0,0 UV-I 0 W/m² 7,7 °C 10,3 °C 0,0 km/h (0 Bft)
08.06.2017 23:51 10,3 °C 10,3 °C 85 % 1016,6 hPa 0,0 mm 0,0 km/h (0 Bft) S 171 ° 0 min 0,000 mm 0,0 UV-I 0 W/m² 7,9 °C 10,3 °C 0,0 km/h (0 Bft)
08.06.2017 23:52 10,2 °C 10,3 °C 85 % 1016,6 hPa 0,0 mm 0,0 km/h (0 Bft) S 171 ° 0 min 0,000 mm 0,0 UV-I 0 W/m² 7,8 °C 10,2 °C 0,0 km/h (0 Bft)
08.06.2017 23:53 10,2 °C 10,3 °C 85 % 1016,6 hPa 0,0 mm 0,0 km/h (0 Bft) S 171 ° 0 min 0,000 mm 0,0 UV-I 0 W/m² 7,8 °C 10,2 °C 0,0 km/h (0 Bft)
08.06.2017 23:54 10,2 °C 10,2 °C 85 % 1016,6 hPa 0,0 mm 0,0 km/h (0 Bft) S 171 ° 0 min 0,000 mm 0,0 UV-I 0 W/m² 7,8 °C 10,2 °C 0,0 km/h (0 Bft)
08.06.2017 23:55 10,2 °C 10,2 °C 85 % 1016,6 hPa 0,0 mm 0,0 km/h (0 Bft) S 171 ° 0 min 0,000 mm 0,0 UV-I 0 W/m² 7,8 °C 10,2 °C 0,0 km/h (0 Bft)
08.06.2017 23:56 10,2 °C 10,2 °C 85 % 1016,6 hPa 0,0 mm 0,0 km/h (0 Bft) S 171 ° 0 min 0,000 mm 0,0 UV-I 0 W/m² 7,8 °C 10,2 °C 0,0 km/h (0 Bft)
08.06.2017 23:57 10,2 °C 10,2 °C 85 % 1016,5 hPa 0,0 mm 0,0 km/h (0 Bft) S 171 ° 0 min 0,000 mm 0,0 UV-I 0 W/m² 7,8 °C 10,2 °C 0,0 km/h (0 Bft)
08.06.2017 23:58 10,2 °C 10,2 °C 85 % 1016,6 hPa 0,0 mm 0,0 km/h (0 Bft) S 171 ° 0 min 0,000 mm 0,0 UV-I 0 W/m² 7,8 °C 10,2 °C 0,0 km/h (0 Bft)
08.06.2017 23:59 10,2 °C 10,2 °C 85 % 1016,6 hPa 0,0 mm 0,0 km/h (0 Bft) S 171 ° 0 min 0,000 mm 0,0 UV-I 0 W/m² 7,8 °C 10,2 °C 0,0 km/h (0 Bft)
_ Min-Zeit 05:43 05:43 18:37 23:57 - 23:59 - - - - - - 05:38 05:43 23:59
Minimum _ 3,3 °C 3,3 °C 43 % 1016,5 hPa - 0,0 km/h (0 Bft) - - - - - - 2,1 °C 3,3 °C 0,0 km/h (0 Bft)
_ Max-Zeit 17:22 17:24 06:01 00:29 23:59 13:16 - - 18:56 15:01 13:59 14:00 17:00 17:22 14:28
Maximum _ 20,2 °C 20,2 °C 92 % 1022,0 hPa 0,0 mm 10,4 km/h
O-NO (2 Bft)
- - 1 min 0,483 mm 7,0 UV-I 914 W/m² 10,2 °C 20,2 °C 16,1 km/h
O-SO (3 Bft)
Durchschnitt _ 12,8 °C 12,8 °C 67 % 1019,4 hPa #0,0 mm 2,2 km/h (1 Bft) O-NO - #8:13 h #3,759 mm 3,7 UV-I 256 W/m² 6,2 °C 12,8 °C 3,8 km/h (1 Bft)